<?xml version="1.0" encoding="UTF-8" standalone="no" ?>
<gpx xmlns="http://www.topografix.com/GPX/1/1" xmlns:xsi="http://www.w3.org/2001/XMLSchema-instance" xsi:schemaLocation="http://www.topografix.com/GPX/1/1 http://www.topografix.com/GPX/1/1/gpx.xsd" version="1.1" creator="VisuGPX - https://www.visugpx.com">
  <metadata>
    <name>Tour des Monts du Cantal</name>
    <desc><![CDATA[Boucle de 60 km passant par le Puy Mary et le Plomb du Cantal]]></desc>
  </metadata>
  <trk>
    <name><![CDATA[cantal]]></name>
    <desc><![CDATA[<h1>OruxMaps</h1><br /><hr align="center" width="480" style="height: 2px; width: 517px"/><h2>Nom: cantal</h2><br /><p>Temps de départ: 05/09/2015 09:09</p><p>Temps d'arrivée: 05/10/2015 18:32</p><p>Distance: 59,6km (19:50)</p><p>Temps déplacement: 16:26</p><p>Vitesse moyenne: 3km/h</p><p>Vitesse moyenne: 3,6km/h</p><p>Vitess Max.: 13,8km/h</p><p>Altitude minimale: 754m</p><p>Altitude maximale: 1855m</p><p>Vitesse d'élévation: 396,8m/h</p><p>Vitesse de descente: -435,5m/h</p><p>Gain Altitude: 3950m</p><p>Perte Altitude: -3948m</p><p>Temps d'élévation: 09:57</p><p>Temps de descente: 09:03</p><hr align="center" width="480" style="height: 2px; width: 517px"/>]]></desc>
    <trkseg>
      <trkpt lat="45.08344" lon="2.74944">
        <ele>1225.33</ele>
        <time>2015-05-09T07:09:51Z</time>
      </trkpt>
      <trkpt lat="45.08354" lon="2.74921">
        <ele>1221.98</ele>
        <time>2015-05-09T07:11:27Z</time>
      </trkpt>
      <trkpt lat="45.08363" lon="2.74898">
        <ele>1216.97</ele>
        <time>2015-05-09T07:11:45Z</time>
      </trkpt>
      <trkpt lat="45.08362" lon="2.74872">
        <ele>1216.09</ele>
        <time>2015-05-09T07:12:04Z</time>
      </trkpt>
      <trkpt lat="45.08346" lon="2.74858">
        <ele>1225.34</ele>
        <time>2015-05-09T07:12:19Z</time>
      </trkpt>
      <trkpt lat="45.08344" lon="2.74832">
        <ele>1220.47</ele>
        <time>2015-05-09T07:12:37Z</time>
      </trkpt>
      <trkpt lat="45.08334" lon="2.74808">
        <ele>1224.39</ele>
        <time>2015-05-09T07:12:55Z</time>
      </trkpt>
      <trkpt lat="45.08316" lon="2.74811">
        <ele>1228.99</ele>
        <time>2015-05-09T07:13:11Z</time>
      </trkpt>
      <trkpt lat="45.08298" lon="2.74816">
        <ele>1231.08</ele>
        <time>2015-05-09T07:13:33Z</time>
      </trkpt>
      <trkpt lat="45.0828" lon="2.74823">
        <ele>1229.05</ele>
        <time>2015-05-09T07:13:49Z</time>
      </trkpt>
      <trkpt lat="45.08261" lon="2.74829">
        <ele>1229.99</ele>
        <time>2015-05-09T07:14:01Z</time>
      </trkpt>
      <trkpt lat="45.08243" lon="2.74828">
        <ele>1230.59</ele>
        <time>2015-05-09T07:14:16Z</time>
      </trkpt>
      <trkpt lat="45.08231" lon="2.74809">
        <ele>1225.8</ele>
        <time>2015-05-09T07:14:35Z</time>
      </trkpt>
      <trkpt lat="45.08219" lon="2.74788">
        <ele>1224.85</ele>
        <time>2015-05-09T07:14:51Z</time>
      </trkpt>
      <trkpt lat="45.08224" lon="2.74763">
        <ele>1230.45</ele>
        <time>2015-05-09T07:15:43Z</time>
      </trkpt>
      <trkpt lat="45.0823" lon="2.74739">
        <ele>1236.01</ele>
        <time>2015-05-09T07:16:05Z</time>
      </trkpt>
      <trkpt lat="45.08237" lon="2.74714">
        <ele>1242.38</ele>
        <time>2015-05-09T07:16:31Z</time>
      </trkpt>
      <trkpt lat="45.0825" lon="2.74696">
        <ele>1244.35</ele>
        <time>2015-05-09T07:16:54Z</time>
      </trkpt>
      <trkpt lat="45.08267" lon="2.74686">
        <ele>1245.57</ele>
        <time>2015-05-09T07:17:14Z</time>
      </trkpt>
      <trkpt lat="45.08285" lon="2.7468">
        <ele>1245.51</ele>
        <time>2015-05-09T07:17:31Z</time>
      </trkpt>
      <trkpt lat="45.08302" lon="2.74672">
        <ele>1246.84</ele>
        <time>2015-05-09T07:17:47Z</time>
      </trkpt>
      <trkpt lat="45.08319" lon="2.74661">
        <ele>1248.92</ele>
        <time>2015-05-09T07:18:06Z</time>
      </trkpt>
      <trkpt lat="45.08335" lon="2.74649">
        <ele>1253.39</ele>
        <time>2015-05-09T07:18:22Z</time>
      </trkpt>
      <trkpt lat="45.0835" lon="2.74634">
        <ele>1251.33</ele>
        <time>2015-05-09T07:18:42Z</time>
      </trkpt>
      <trkpt lat="45.08367" lon="2.74622">
        <ele>1257</ele>
        <time>2015-05-09T07:19:00Z</time>
      </trkpt>
      <trkpt lat="45.08384" lon="2.74611">
        <ele>1259.32</ele>
        <time>2015-05-09T07:19:16Z</time>
      </trkpt>
      <trkpt lat="45.08402" lon="2.74614">
        <ele>1260.72</ele>
        <time>2015-05-09T07:19:46Z</time>
      </trkpt>
      <trkpt lat="45.0842" lon="2.74624">
        <ele>1261.77</ele>
        <time>2015-05-09T07:20:03Z</time>
      </trkpt>
      <trkpt lat="45.08402" lon="2.74618">
        <ele>1262.22</ele>
        <time>2015-05-09T07:20:55Z</time>
      </trkpt>
      <trkpt lat="45.08416" lon="2.74602">
        <ele>1262.15</ele>
        <time>2015-05-09T07:21:31Z</time>
      </trkpt>
      <trkpt lat="45.08433" lon="2.74595">
        <ele>1267.31</ele>
        <time>2015-05-09T07:21:55Z</time>
      </trkpt>
      <trkpt lat="45.08438" lon="2.74569">
        <ele>1280.18</ele>
        <time>2015-05-09T07:22:21Z</time>
      </trkpt>
      <trkpt lat="45.08442" lon="2.74544">
        <ele>1281.48</ele>
        <time>2015-05-09T07:22:51Z</time>
      </trkpt>
      <trkpt lat="45.08447" lon="2.74519">
        <ele>1282.09</ele>
        <time>2015-05-09T07:23:30Z</time>
      </trkpt>
      <trkpt lat="45.08464" lon="2.7451">
        <ele>1269.55</ele>
        <time>2015-05-09T07:23:57Z</time>
      </trkpt>
      <trkpt lat="45.0848" lon="2.74497">
        <ele>1261.79</ele>
        <time>2015-05-09T07:24:24Z</time>
      </trkpt>
      <trkpt lat="45.08498" lon="2.74491">
        <ele>1253.19</ele>
        <time>2015-05-09T07:24:47Z</time>
      </trkpt>
      <trkpt lat="45.08504" lon="2.74466">
        <ele>1249.07</ele>
        <time>2015-05-09T07:25:10Z</time>
      </trkpt>
      <trkpt lat="45.08512" lon="2.74442">
        <ele>1240.72</ele>
        <time>2015-05-09T07:25:28Z</time>
      </trkpt>
      <trkpt lat="45.08512" lon="2.74416">
        <ele>1237.34</ele>
        <time>2015-05-09T07:25:43Z</time>
      </trkpt>
      <trkpt lat="45.08512" lon="2.7439">
        <ele>1241.81</ele>
        <time>2015-05-09T07:25:57Z</time>
      </trkpt>
      <trkpt lat="45.08517" lon="2.74365">
        <ele>1247.73</ele>
        <time>2015-05-09T07:26:11Z</time>
      </trkpt>
      <trkpt lat="45.08521" lon="2.7434">
        <ele>1255.33</ele>
        <time>2015-05-09T07:26:29Z</time>
      </trkpt>
      <trkpt lat="45.08526" lon="2.74314">
        <ele>1260.99</ele>
        <time>2015-05-09T07:26:44Z</time>
      </trkpt>
      <trkpt lat="45.08532" lon="2.7429">
        <ele>1254.29</ele>
        <time>2015-05-09T07:27:00Z</time>
      </trkpt>
      <trkpt lat="45.08537" lon="2.74265">
        <ele>1254.33</ele>
        <time>2015-05-09T07:27:14Z</time>
      </trkpt>
      <trkpt lat="45.08542" lon="2.7424">
        <ele>1251.47</ele>
        <time>2015-05-09T07:27:31Z</time>
      </trkpt>
      <trkpt lat="45.08543" lon="2.74214">
        <ele>1247.6</ele>
        <time>2015-05-09T07:27:47Z</time>
      </trkpt>
      <trkpt lat="45.08548" lon="2.74188">
        <ele>1249.17</ele>
        <time>2015-05-09T07:28:04Z</time>
      </trkpt>
      <trkpt lat="45.08552" lon="2.74162">
        <ele>1244.48</ele>
        <time>2015-05-09T07:28:19Z</time>
      </trkpt>
      <trkpt lat="45.08554" lon="2.74136">
        <ele>1244.89</ele>
        <time>2015-05-09T07:28:35Z</time>
      </trkpt>
      <trkpt lat="45.08557" lon="2.7411">
        <ele>1250.19</ele>
        <time>2015-05-09T07:29:01Z</time>
      </trkpt>
      <trkpt lat="45.08555" lon="2.74083">
        <ele>1239.37</ele>
        <time>2015-05-09T07:29:21Z</time>
      </trkpt>
      <trkpt lat="45.08556" lon="2.74056">
        <ele>1240.67</ele>
        <time>2015-05-09T07:29:34Z</time>
      </trkpt>
      <trkpt lat="45.08567" lon="2.74035">
        <ele>1241.98</ele>
        <time>2015-05-09T07:29:52Z</time>
      </trkpt>
      <trkpt lat="45.08566" lon="2.74008">
        <ele>1236.86</ele>
        <time>2015-05-09T07:30:03Z</time>
      </trkpt>
      <trkpt lat="45.08573" lon="2.73981">
        <ele>1236.8</ele>
        <time>2015-05-09T07:30:20Z</time>
      </trkpt>
      <trkpt lat="45.08585" lon="2.73961">
        <ele>1237.92</ele>
        <time>2015-05-09T07:30:32Z</time>
      </trkpt>
      <trkpt lat="45.08593" lon="2.73939">
        <ele>1243.64</ele>
        <time>2015-05-09T07:30:43Z</time>
      </trkpt>
      <trkpt lat="45.08601" lon="2.73914">
        <ele>1243.54</ele>
        <time>2015-05-09T07:30:58Z</time>
      </trkpt>
      <trkpt lat="45.08603" lon="2.73887">
        <ele>1244.87</ele>
        <time>2015-05-09T07:31:11Z</time>
      </trkpt>
      <trkpt lat="45.08608" lon="2.73862">
        <ele>1239.6</ele>
        <time>2015-05-09T07:31:25Z</time>
      </trkpt>
      <trkpt lat="45.08608" lon="2.73836">
        <ele>1235.17</ele>
        <time>2015-05-09T07:31:39Z</time>
      </trkpt>
      <trkpt lat="45.08611" lon="2.7381">
        <ele>1236.71</ele>
        <time>2015-05-09T07:31:52Z</time>
      </trkpt>
      <trkpt lat="45.08608" lon="2.73785">
        <ele>1238.42</ele>
        <time>2015-05-09T07:32:04Z</time>
      </trkpt>
      <trkpt lat="45.08615" lon="2.73761">
        <ele>1242.94</ele>
        <time>2015-05-09T07:32:15Z</time>
      </trkpt>
      <trkpt lat="45.08624" lon="2.73738">
        <ele>1240.87</ele>
        <time>2015-05-09T07:32:28Z</time>
      </trkpt>
      <trkpt lat="45.08635" lon="2.7376">
        <ele>1235.53</ele>
        <time>2015-05-09T07:32:45Z</time>
      </trkpt>
      <trkpt lat="45.08641" lon="2.73785">
        <ele>1228.78</ele>
        <time>2015-05-09T07:33:02Z</time>
      </trkpt>
      <trkpt lat="45.08645" lon="2.7381">
        <ele>1228.19</ele>
        <time>2015-05-09T07:33:15Z</time>
      </trkpt>
      <trkpt lat="45.08653" lon="2.73833">
        <ele>1229.63</ele>
        <time>2015-05-09T07:33:28Z</time>
      </trkpt>
      <trkpt lat="45.08659" lon="2.73858">
        <ele>1228.7</ele>
        <time>2015-05-09T07:33:43Z</time>
      </trkpt>
      <trkpt lat="45.08667" lon="2.73881">
        <ele>1231.56</ele>
        <time>2015-05-09T07:34:03Z</time>
      </trkpt>
      <trkpt lat="45.08684" lon="2.73892">
        <ele>1220.52</ele>
        <time>2015-05-09T07:34:39Z</time>
      </trkpt>
      <trkpt lat="45.08705" lon="2.73892">
        <ele>1211.59</ele>
        <time>2015-05-09T07:35:09Z</time>
      </trkpt>
      <trkpt lat="45.08723" lon="2.73896">
        <ele>1207.01</ele>
        <time>2015-05-09T07:35:25Z</time>
      </trkpt>
      <trkpt lat="45.08741" lon="2.73902">
        <ele>1202.1</ele>
        <time>2015-05-09T07:35:41Z</time>
      </trkpt>
      <trkpt lat="45.08748" lon="2.73925">
        <ele>1200.52</ele>
        <time>2015-05-09T07:35:56Z</time>
      </trkpt>
      <trkpt lat="45.08749" lon="2.73952">
        <ele>1199.95</ele>
        <time>2015-05-09T07:36:11Z</time>
      </trkpt>
      <trkpt lat="45.08756" lon="2.73975">
        <ele>1197.28</ele>
        <time>2015-05-09T07:36:26Z</time>
      </trkpt>
      <trkpt lat="45.08773" lon="2.7397">
        <ele>1195.97</ele>
        <time>2015-05-09T07:36:39Z</time>
      </trkpt>
      <trkpt lat="45.0879" lon="2.73955">
        <ele>1191.15</ele>
        <time>2015-05-09T07:36:54Z</time>
      </trkpt>
      <trkpt lat="45.08804" lon="2.73939">
        <ele>1185.52</ele>
        <time>2015-05-09T07:37:10Z</time>
      </trkpt>
      <trkpt lat="45.08823" lon="2.73936">
        <ele>1185.43</ele>
        <time>2015-05-09T07:37:24Z</time>
      </trkpt>
      <trkpt lat="45.08837" lon="2.73954">
        <ele>1186.83</ele>
        <time>2015-05-09T07:37:39Z</time>
      </trkpt>
      <trkpt lat="45.08838" lon="2.7398">
        <ele>1187.44</ele>
        <time>2015-05-09T07:37:58Z</time>
      </trkpt>
      <trkpt lat="45.08835" lon="2.74007">
        <ele>1187.42</ele>
        <time>2015-05-09T07:38:17Z</time>
      </trkpt>
      <trkpt lat="45.08841" lon="2.74031">
        <ele>1190.38</ele>
        <time>2015-05-09T07:38:38Z</time>
      </trkpt>
      <trkpt lat="45.08849" lon="2.74054">
        <ele>1196.15</ele>
        <time>2015-05-09T07:39:04Z</time>
      </trkpt>
      <trkpt lat="45.08868" lon="2.74056">
        <ele>1198.25</ele>
        <time>2015-05-09T07:39:22Z</time>
      </trkpt>
      <trkpt lat="45.08864" lon="2.74083">
        <ele>1202.52</ele>
        <time>2015-05-09T07:40:06Z</time>
      </trkpt>
      <trkpt lat="45.08857" lon="2.74106">
        <ele>1199.65</ele>
        <time>2015-05-09T07:40:21Z</time>
      </trkpt>
      <trkpt lat="45.08849" lon="2.74129">
        <ele>1193.47</ele>
        <time>2015-05-09T07:40:39Z</time>
      </trkpt>
      <trkpt lat="45.08842" lon="2.74154">
        <ele>1192.39</ele>
        <time>2015-05-09T07:40:52Z</time>
      </trkpt>
      <trkpt lat="45.08839" lon="2.74179">
        <ele>1191.58</ele>
        <time>2015-05-09T07:41:06Z</time>
      </trkpt>
      <trkpt lat="45.08835" lon="2.74204">
        <ele>1192.2</ele>
        <time>2015-05-09T07:41:19Z</time>
      </trkpt>
      <trkpt lat="45.08832" lon="2.7423">
        <ele>1191.96</ele>
        <time>2015-05-09T07:41:33Z</time>
      </trkpt>
      <trkpt lat="45.08842" lon="2.74251">
        <ele>1195.69</ele>
        <time>2015-05-09T07:41:51Z</time>
      </trkpt>
      <trkpt lat="45.08858" lon="2.74238">
        <ele>1204.2</ele>
        <time>2015-05-09T07:43:30Z</time>
      </trkpt>
      <trkpt lat="45.0887" lon="2.74218">
        <ele>1209.38</ele>
        <time>2015-05-09T07:43:52Z</time>
      </trkpt>
      <trkpt lat="45.08883" lon="2.742">
        <ele>1214.02</ele>
        <time>2015-05-09T07:44:14Z</time>
      </trkpt>
      <trkpt lat="45.08894" lon="2.74177">
        <ele>1214.24</ele>
        <time>2015-05-09T07:44:38Z</time>
      </trkpt>
      <trkpt lat="45.08901" lon="2.74154">
        <ele>1218.2</ele>
        <time>2015-05-09T07:45:04Z</time>
      </trkpt>
      <trkpt lat="45.08907" lon="2.74129">
        <ele>1217.11</ele>
        <time>2015-05-09T07:45:27Z</time>
      </trkpt>
      <trkpt lat="45.08913" lon="2.74105">
        <ele>1222.62</ele>
        <time>2015-05-09T07:45:44Z</time>
      </trkpt>
      <trkpt lat="45.08923" lon="2.74083">
        <ele>1226.44</ele>
        <time>2015-05-09T07:46:04Z</time>
      </trkpt>
      <trkpt lat="45.08934" lon="2.74062">
        <ele>1230.96</ele>
        <time>2015-05-09T07:46:27Z</time>
      </trkpt>
      <trkpt lat="45.08945" lon="2.7404">
        <ele>1232.22</ele>
        <time>2015-05-09T07:46:44Z</time>
      </trkpt>
      <trkpt lat="45.08956" lon="2.74019">
        <ele>1236.94</ele>
        <time>2015-05-09T07:47:04Z</time>
      </trkpt>
      <trkpt lat="45.08968" lon="2.73999">
        <ele>1239.39</ele>
        <time>2015-05-09T07:47:23Z</time>
      </trkpt>
      <trkpt lat="45.08983" lon="2.73982">
        <ele>1237.36</ele>
        <time>2015-05-09T07:47:43Z</time>
      </trkpt>
      <trkpt lat="45.08996" lon="2.73963">
        <ele>1244.38</ele>
        <time>2015-05-09T07:48:05Z</time>
      </trkpt>
      <trkpt lat="45.08997" lon="2.73989">
        <ele>1248.36</ele>
        <time>2015-05-09T07:48:32Z</time>
      </trkpt>
      <trkpt lat="45.08987" lon="2.74011">
        <ele>1251.85</ele>
        <time>2015-05-09T07:48:47Z</time>
      </trkpt>
      <trkpt lat="45.08978" lon="2.74035">
        <ele>1255.83</ele>
        <time>2015-05-09T07:49:03Z</time>
      </trkpt>
      <trkpt lat="45.08971" lon="2.7406">
        <ele>1256.94</ele>
        <time>2015-05-09T07:49:18Z</time>
      </trkpt>
      <trkpt lat="45.08964" lon="2.74085">
        <ele>1254.52</ele>
        <time>2015-05-09T07:49:33Z</time>
      </trkpt>
      <trkpt lat="45.08956" lon="2.74109">
        <ele>1253.7</ele>
        <time>2015-05-09T07:49:48Z</time>
      </trkpt>
      <trkpt lat="45.08954" lon="2.74135">
        <ele>1253.27</ele>
        <time>2015-05-09T07:50:02Z</time>
      </trkpt>
      <trkpt lat="45.08954" lon="2.7416">
        <ele>1252.42</ele>
        <time>2015-05-09T07:50:17Z</time>
      </trkpt>
      <trkpt lat="45.08967" lon="2.74141">
        <ele>1256.92</ele>
        <time>2015-05-09T07:51:35Z</time>
      </trkpt>
      <trkpt lat="45.08975" lon="2.74117">
        <ele>1258.61</ele>
        <time>2015-05-09T07:51:55Z</time>
      </trkpt>
      <trkpt lat="45.08983" lon="2.74094">
        <ele>1262.95</ele>
        <time>2015-05-09T07:52:14Z</time>
      </trkpt>
      <trkpt lat="45.08998" lon="2.74108">
        <ele>1273.94</ele>
        <time>2015-05-09T07:52:56Z</time>
      </trkpt>
      <trkpt lat="45.09002" lon="2.74134">
        <ele>1275.42</ele>
        <time>2015-05-09T07:53:18Z</time>
      </trkpt>
      <trkpt lat="45.09007" lon="2.74159">
        <ele>1281.46</ele>
        <time>2015-05-09T07:53:42Z</time>
      </trkpt>
      <trkpt lat="45.09012" lon="2.74184">
        <ele>1283.27</ele>
        <time>2015-05-09T07:54:06Z</time>
      </trkpt>
      <trkpt lat="45.09022" lon="2.74206">
        <ele>1288.95</ele>
        <time>2015-05-09T07:54:33Z</time>
      </trkpt>
      <trkpt lat="45.09036" lon="2.74221">
        <ele>1295.13</ele>
        <time>2015-05-09T07:54:59Z</time>
      </trkpt>
      <trkpt lat="45.0905" lon="2.74238">
        <ele>1301.42</ele>
        <time>2015-05-09T07:55:24Z</time>
      </trkpt>
      <trkpt lat="45.09066" lon="2.74252">
        <ele>1304.94</ele>
        <time>2015-05-09T07:55:47Z</time>
      </trkpt>
      <trkpt lat="45.09084" lon="2.7425">
        <ele>1307.44</ele>
        <time>2015-05-09T07:56:12Z</time>
      </trkpt>
      <trkpt lat="45.09098" lon="2.74234">
        <ele>1312.19</ele>
        <time>2015-05-09T07:56:38Z</time>
      </trkpt>
      <trkpt lat="45.0911" lon="2.74214">
        <ele>1314.33</ele>
        <time>2015-05-09T07:56:59Z</time>
      </trkpt>
      <trkpt lat="45.09125" lon="2.74198">
        <ele>1314.45</ele>
        <time>2015-05-09T07:57:17Z</time>
      </trkpt>
      <trkpt lat="45.09137" lon="2.74179">
        <ele>1316.7</ele>
        <time>2015-05-09T07:57:39Z</time>
      </trkpt>
      <trkpt lat="45.09153" lon="2.74164">
        <ele>1321.2</ele>
        <time>2015-05-09T07:58:01Z</time>
      </trkpt>
      <trkpt lat="45.0917" lon="2.74159">
        <ele>1325.36</ele>
        <time>2015-05-09T07:58:27Z</time>
      </trkpt>
      <trkpt lat="45.09189" lon="2.74162">
        <ele>1329.31</ele>
        <time>2015-05-09T07:58:56Z</time>
      </trkpt>
      <trkpt lat="45.09208" lon="2.74166">
        <ele>1341.45</ele>
        <time>2015-05-09T07:59:23Z</time>
      </trkpt>
      <trkpt lat="45.09226" lon="2.74161">
        <ele>1340.21</ele>
        <time>2015-05-09T07:59:43Z</time>
      </trkpt>
      <trkpt lat="45.09244" lon="2.74156">
        <ele>1344.39</ele>
        <time>2015-05-09T08:00:09Z</time>
      </trkpt>
      <trkpt lat="45.09262" lon="2.74153">
        <ele>1350.34</ele>
        <time>2015-05-09T08:00:34Z</time>
      </trkpt>
      <trkpt lat="45.0928" lon="2.74151">
        <ele>1349.47</ele>
        <time>2015-05-09T08:00:54Z</time>
      </trkpt>
      <trkpt lat="45.09291" lon="2.74172">
        <ele>1358.31</ele>
        <time>2015-05-09T08:01:21Z</time>
      </trkpt>
      <trkpt lat="45.0929" lon="2.74198">
        <ele>1360.95</ele>
        <time>2015-05-09T08:01:42Z</time>
      </trkpt>
      <trkpt lat="45.09288" lon="2.74223">
        <ele>1366.26</ele>
        <time>2015-05-09T08:02:01Z</time>
      </trkpt>
      <trkpt lat="45.0929" lon="2.74249">
        <ele>1363.47</ele>
        <time>2015-05-09T08:02:41Z</time>
      </trkpt>
      <trkpt lat="45.09291" lon="2.74274">
        <ele>1367.92</ele>
        <time>2015-05-09T08:03:01Z</time>
      </trkpt>
      <trkpt lat="45.09292" lon="2.74301">
        <ele>1365.46</ele>
        <time>2015-05-09T08:03:18Z</time>
      </trkpt>
      <trkpt lat="45.09289" lon="2.74327">
        <ele>1367.92</ele>
        <time>2015-05-09T08:03:37Z</time>
      </trkpt>
      <trkpt lat="45.0928" lon="2.74349">
        <ele>1362.51</ele>
        <time>2015-05-09T08:03:59Z</time>
      </trkpt>
      <trkpt lat="45.09272" lon="2.74374">
        <ele>1369.66</ele>
        <time>2015-05-09T08:04:18Z</time>
      </trkpt>
      <trkpt lat="45.09266" lon="2.74398">
        <ele>1375.38</ele>
        <time>2015-05-09T08:04:38Z</time>
      </trkpt>
      <trkpt lat="45.09272" lon="2.74422">
        <ele>1378.36</ele>
        <time>2015-05-09T08:05:01Z</time>
      </trkpt>
      <trkpt lat="45.09291" lon="2.74423">
        <ele>1381.96</ele>
        <time>2015-05-09T08:05:28Z</time>
      </trkpt>
      <trkpt lat="45.09308" lon="2.74415">
        <ele>1383.86</ele>
        <time>2015-05-09T08:06:00Z</time>
      </trkpt>
      <trkpt lat="45.09325" lon="2.74406">
        <ele>1390.36</ele>
        <time>2015-05-09T08:06:31Z</time>
      </trkpt>
      <trkpt lat="45.09344" lon="2.74403">
        <ele>1400.2</ele>
        <time>2015-05-09T08:07:05Z</time>
      </trkpt>
      <trkpt lat="45.09362" lon="2.74398">
        <ele>1403.67</ele>
        <time>2015-05-09T08:07:31Z</time>
      </trkpt>
      <trkpt lat="45.09378" lon="2.74386">
        <ele>1405.95</ele>
        <time>2015-05-09T08:08:00Z</time>
      </trkpt>
      <trkpt lat="45.09396" lon="2.74384">
        <ele>1415.78</ele>
        <time>2015-05-09T08:08:26Z</time>
      </trkpt>
      <trkpt lat="45.09414" lon="2.74379">
        <ele>1422.4</ele>
        <time>2015-05-09T08:08:59Z</time>
      </trkpt>
      <trkpt lat="45.09431" lon="2.7437">
        <ele>1428.67</ele>
        <time>2015-05-09T08:09:30Z</time>
      </trkpt>
      <trkpt lat="45.09449" lon="2.74379">
        <ele>1439.41</ele>
        <time>2015-05-09T08:10:00Z</time>
      </trkpt>
      <trkpt lat="45.09467" lon="2.74378">
        <ele>1440.45</ele>
        <time>2015-05-09T08:10:42Z</time>
      </trkpt>
      <trkpt lat="45.09485" lon="2.74371">
        <ele>1442.16</ele>
        <time>2015-05-09T08:11:14Z</time>
      </trkpt>
      <trkpt lat="45.095" lon="2.74356">
        <ele>1449.15</ele>
        <time>2015-05-09T08:11:49Z</time>
      </trkpt>
      <trkpt lat="45.09518" lon="2.74349">
        <ele>1462.48</ele>
        <time>2015-05-09T08:12:25Z</time>
      </trkpt>
      <trkpt lat="45.09536" lon="2.74346">
        <ele>1469.39</ele>
        <time>2015-05-09T08:13:05Z</time>
      </trkpt>
      <trkpt lat="45.09551" lon="2.74329">
        <ele>1472.11</ele>
        <time>2015-05-09T08:13:35Z</time>
      </trkpt>
      <trkpt lat="45.09568" lon="2.74322">
        <ele>1481.4</ele>
        <time>2015-05-09T08:14:07Z</time>
      </trkpt>
      <trkpt lat="45.09581" lon="2.74304">
        <ele>1478.64</ele>
        <time>2015-05-09T08:14:30Z</time>
      </trkpt>
      <trkpt lat="45.09584" lon="2.74278">
        <ele>1483.3</ele>
        <time>2015-05-09T08:14:58Z</time>
      </trkpt>
      <trkpt lat="45.09596" lon="2.74298">
        <ele>1491.43</ele>
        <time>2015-05-09T08:15:35Z</time>
      </trkpt>
      <trkpt lat="45.09613" lon="2.74308">
        <ele>1502.17</ele>
        <time>2015-05-09T08:17:24Z</time>
      </trkpt>
      <trkpt lat="45.09627" lon="2.74292">
        <ele>1509.45</ele>
        <time>2015-05-09T08:18:09Z</time>
      </trkpt>
      <trkpt lat="45.09641" lon="2.7431">
        <ele>1516.94</ele>
        <time>2015-05-09T08:18:50Z</time>
      </trkpt>
      <trkpt lat="45.09658" lon="2.74301">
        <ele>1526.92</ele>
        <time>2015-05-09T08:19:35Z</time>
      </trkpt>
      <trkpt lat="45.09674" lon="2.74289">
        <ele>1535.89</ele>
        <time>2015-05-09T08:20:33Z</time>
      </trkpt>
      <trkpt lat="45.09688" lon="2.74306">
        <ele>1541.32</ele>
        <time>2015-05-09T08:21:04Z</time>
      </trkpt>
      <trkpt lat="45.09705" lon="2.74295">
        <ele>1550.42</ele>
        <time>2015-05-09T08:22:02Z</time>
      </trkpt>
      <trkpt lat="45.09707" lon="2.74269">
        <ele>1554.94</ele>
        <time>2015-05-09T08:22:32Z</time>
      </trkpt>
      <trkpt lat="45.09711" lon="2.74244">
        <ele>1561.32</ele>
        <time>2015-05-09T08:23:08Z</time>
      </trkpt>
      <trkpt lat="45.09724" lon="2.74227">
        <ele>1570.32</ele>
        <time>2015-05-09T08:23:53Z</time>
      </trkpt>
      <trkpt lat="45.09726" lon="2.74202">
        <ele>1578.14</ele>
        <time>2015-05-09T08:24:51Z</time>
      </trkpt>
      <trkpt lat="45.09726" lon="2.74176">
        <ele>1586.2</ele>
        <time>2015-05-09T08:25:47Z</time>
      </trkpt>
      <trkpt lat="45.09731" lon="2.74151">
        <ele>1602.88</ele>
        <time>2015-05-09T08:27:17Z</time>
      </trkpt>
      <trkpt lat="45.09728" lon="2.74125">
        <ele>1605.46</ele>
        <time>2015-05-09T08:27:56Z</time>
      </trkpt>
      <trkpt lat="45.09745" lon="2.74115">
        <ele>1614.2</ele>
        <time>2015-05-09T08:28:43Z</time>
      </trkpt>
      <trkpt lat="45.09756" lon="2.74136">
        <ele>1623.39</ele>
        <time>2015-05-09T08:29:29Z</time>
      </trkpt>
      <trkpt lat="45.09774" lon="2.74132">
        <ele>1634.56</ele>
        <time>2015-05-09T08:30:29Z</time>
      </trkpt>
      <trkpt lat="45.09792" lon="2.74129">
        <ele>1649.42</ele>
        <time>2015-05-09T08:31:43Z</time>
      </trkpt>
      <trkpt lat="45.09808" lon="2.74117">
        <ele>1648.42</ele>
        <time>2015-05-09T08:32:15Z</time>
      </trkpt>
      <trkpt lat="45.09824" lon="2.74106">
        <ele>1653.42</ele>
        <time>2015-05-09T08:32:45Z</time>
      </trkpt>
      <trkpt lat="45.09836" lon="2.74086">
        <ele>1659.08</ele>
        <time>2015-05-09T08:33:43Z</time>
      </trkpt>
      <trkpt lat="45.09851" lon="2.74071">
        <ele>1667.81</ele>
        <time>2015-05-09T08:34:23Z</time>
      </trkpt>
      <trkpt lat="45.09866" lon="2.74057">
        <ele>1672.39</ele>
        <time>2015-05-09T08:34:56Z</time>
      </trkpt>
      <trkpt lat="45.09879" lon="2.7404">
        <ele>1677.33</ele>
        <time>2015-05-09T08:35:35Z</time>
      </trkpt>
      <trkpt lat="45.09893" lon="2.74023">
        <ele>1687.43</ele>
        <time>2015-05-09T08:36:28Z</time>
      </trkpt>
      <trkpt lat="45.0991" lon="2.74017">
        <ele>1692.44</ele>
        <time>2015-05-09T08:37:10Z</time>
      </trkpt>
      <trkpt lat="45.09925" lon="2.74">
        <ele>1701.93</ele>
        <time>2015-05-09T08:37:57Z</time>
      </trkpt>
      <trkpt lat="45.09939" lon="2.73983">
        <ele>1701.97</ele>
        <time>2015-05-09T08:38:39Z</time>
      </trkpt>
      <trkpt lat="45.0994" lon="2.73956">
        <ele>1700.58</ele>
        <time>2015-05-09T08:39:05Z</time>
      </trkpt>
      <trkpt lat="45.09946" lon="2.73931">
        <ele>1697.47</ele>
        <time>2015-05-09T08:39:34Z</time>
      </trkpt>
      <trkpt lat="45.09941" lon="2.73905">
        <ele>1699.45</ele>
        <time>2015-05-09T08:39:51Z</time>
      </trkpt>
      <trkpt lat="45.09938" lon="2.7388">
        <ele>1698.5</ele>
        <time>2015-05-09T08:40:08Z</time>
      </trkpt>
      <trkpt lat="45.09939" lon="2.73853">
        <ele>1697.7</ele>
        <time>2015-05-09T08:40:24Z</time>
      </trkpt>
      <trkpt lat="45.09937" lon="2.73826">
        <ele>1697.96</ele>
        <time>2015-05-09T08:40:40Z</time>
      </trkpt>
      <trkpt lat="45.09933" lon="2.738">
        <ele>1697.72</ele>
        <time>2015-05-09T08:40:58Z</time>
      </trkpt>
      <trkpt lat="45.09946" lon="2.73781">
        <ele>1693.49</ele>
        <time>2015-05-09T08:41:29Z</time>
      </trkpt>
      <trkpt lat="45.09959" lon="2.73761">
        <ele>1687.97</ele>
        <time>2015-05-09T08:41:49Z</time>
      </trkpt>
      <trkpt lat="45.0997" lon="2.7374">
        <ele>1683.71</ele>
        <time>2015-05-09T08:42:07Z</time>
      </trkpt>
      <trkpt lat="45.0998" lon="2.73717">
        <ele>1679.02</ele>
        <time>2015-05-09T08:42:24Z</time>
      </trkpt>
      <trkpt lat="45.0999" lon="2.73695">
        <ele>1675.72</ele>
        <time>2015-05-09T08:42:40Z</time>
      </trkpt>
      <trkpt lat="45.10003" lon="2.73676">
        <ele>1671.52</ele>
        <time>2015-05-09T08:43:02Z</time>
      </trkpt>
      <trkpt lat="45.10006" lon="2.73651">
        <ele>1667.99</ele>
        <time>2015-05-09T08:43:17Z</time>
      </trkpt>
      <trkpt lat="45.10015" lon="2.73627">
        <ele>1664.58</ele>
        <time>2015-05-09T08:43:32Z</time>
      </trkpt>
      <trkpt lat="45.10026" lon="2.73606">
        <ele>1659.59</ele>
        <time>2015-05-09T08:43:46Z</time>
      </trkpt>
      <trkpt lat="45.10026" lon="2.7358">
        <ele>1659.46</ele>
        <time>2015-05-09T08:44:04Z</time>
      </trkpt>
      <trkpt lat="45.10024" lon="2.73553">
        <ele>1659.95</ele>
        <time>2015-05-09T08:44:22Z</time>
      </trkpt>
      <trkpt lat="45.10025" lon="2.73527">
        <ele>1656.03</ele>
        <time>2015-05-09T08:44:38Z</time>
      </trkpt>
      <trkpt lat="45.10037" lon="2.73507">
        <ele>1652.46</ele>
        <time>2015-05-09T08:45:19Z</time>
      </trkpt>
      <trkpt lat="45.1005" lon="2.73489">
        <ele>1650.58</ele>
        <time>2015-05-09T08:45:33Z</time>
      </trkpt>
      <trkpt lat="45.10063" lon="2.73471">
        <ele>1647.72</ele>
        <time>2015-05-09T08:45:48Z</time>
      </trkpt>
      <trkpt lat="45.10071" lon="2.73447">
        <ele>1645.47</ele>
        <time>2015-05-09T08:46:02Z</time>
      </trkpt>
      <trkpt lat="45.1007" lon="2.7342">
        <ele>1645.33</ele>
        <time>2015-05-09T08:46:16Z</time>
      </trkpt>
      <trkpt lat="45.10073" lon="2.73394">
        <ele>1644.58</ele>
        <time>2015-05-09T08:46:31Z</time>
      </trkpt>
      <trkpt lat="45.10071" lon="2.73368">
        <ele>1643.46</ele>
        <time>2015-05-09T08:46:48Z</time>
      </trkpt>
      <trkpt lat="45.10064" lon="2.73343">
        <ele>1644.26</ele>
        <time>2015-05-09T08:47:06Z</time>
      </trkpt>
      <trkpt lat="45.10061" lon="2.73316">
        <ele>1642.59</ele>
        <time>2015-05-09T08:47:23Z</time>
      </trkpt>
      <trkpt lat="45.10066" lon="2.7329">
        <ele>1639.58</ele>
        <time>2015-05-09T08:47:41Z</time>
      </trkpt>
      <trkpt lat="45.10073" lon="2.73267">
        <ele>1638.08</ele>
        <time>2015-05-09T08:47:55Z</time>
      </trkpt>
      <trkpt lat="45.10081" lon="2.73242">
        <ele>1636.47</ele>
        <time>2015-05-09T08:48:10Z</time>
      </trkpt>
      <trkpt lat="45.10089" lon="2.73219">
        <ele>1634.52</ele>
        <time>2015-05-09T08:48:25Z</time>
      </trkpt>
      <trkpt lat="45.10093" lon="2.73194">
        <ele>1632.49</ele>
        <time>2015-05-09T08:48:39Z</time>
      </trkpt>
      <trkpt lat="45.10094" lon="2.73168">
        <ele>1631.46</ele>
        <time>2015-05-09T08:48:53Z</time>
      </trkpt>
      <trkpt lat="45.10091" lon="2.73142">
        <ele>1630.46</ele>
        <time>2015-05-09T08:49:08Z</time>
      </trkpt>
      <trkpt lat="45.10091" lon="2.73115">
        <ele>1627.64</ele>
        <time>2015-05-09T08:49:23Z</time>
      </trkpt>
      <trkpt lat="45.10089" lon="2.73089">
        <ele>1624.59</ele>
        <time>2015-05-09T08:49:38Z</time>
      </trkpt>
      <trkpt lat="45.10089" lon="2.73063">
        <ele>1620.71</ele>
        <time>2015-05-09T08:49:53Z</time>
      </trkpt>
      <trkpt lat="45.10094" lon="2.73038">
        <ele>1620.42</ele>
        <time>2015-05-09T08:50:16Z</time>
      </trkpt>
      <trkpt lat="45.10089" lon="2.73013">
        <ele>1625.2</ele>
        <time>2015-05-09T08:50:44Z</time>
      </trkpt>
      <trkpt lat="45.10089" lon="2.72986">
        <ele>1629.44</ele>
        <time>2015-05-09T08:51:07Z</time>
      </trkpt>
      <trkpt lat="45.10089" lon="2.7296">
        <ele>1627.77</ele>
        <time>2015-05-09T08:51:24Z</time>
      </trkpt>
      <trkpt lat="45.10087" lon="2.72935">
        <ele>1632.14</ele>
        <time>2015-05-09T08:51:45Z</time>
      </trkpt>
      <trkpt lat="45.1008" lon="2.72911">
        <ele>1642.17</ele>
        <time>2015-05-09T08:52:38Z</time>
      </trkpt>
      <trkpt lat="45.10068" lon="2.72893">
        <ele>1651.39</ele>
        <time>2015-05-09T08:53:25Z</time>
      </trkpt>
      <trkpt lat="45.10058" lon="2.7287">
        <ele>1654.42</ele>
        <time>2015-05-09T08:53:58Z</time>
      </trkpt>
      <trkpt lat="45.10054" lon="2.72845">
        <ele>1660.38</ele>
        <time>2015-05-09T08:54:34Z</time>
      </trkpt>
      <trkpt lat="45.10058" lon="2.72819">
        <ele>1666.93</ele>
        <time>2015-05-09T08:55:11Z</time>
      </trkpt>
      <trkpt lat="45.10048" lon="2.72798">
        <ele>1666.52</ele>
        <time>2015-05-09T08:59:01Z</time>
      </trkpt>
      <trkpt lat="45.10043" lon="2.72772">
        <ele>1656.73</ele>
        <time>2015-05-09T08:59:32Z</time>
      </trkpt>
      <trkpt lat="45.10043" lon="2.72747">
        <ele>1646.5</ele>
        <time>2015-05-09T09:00:08Z</time>
      </trkpt>
      <trkpt lat="45.1004" lon="2.72721">
        <ele>1638.92</ele>
        <time>2015-05-09T09:00:42Z</time>
      </trkpt>
      <trkpt lat="45.10039" lon="2.72695">
        <ele>1632.5</ele>
        <time>2015-05-09T09:01:19Z</time>
      </trkpt>
      <trkpt lat="45.10038" lon="2.72669">
        <ele>1627.74</ele>
        <time>2015-05-09T09:01:40Z</time>
      </trkpt>
      <trkpt lat="45.10039" lon="2.72642">
        <ele>1619.6</ele>
        <time>2015-05-09T09:02:05Z</time>
      </trkpt>
      <trkpt lat="45.10038" lon="2.72615">
        <ele>1617.27</ele>
        <time>2015-05-09T09:02:23Z</time>
      </trkpt>
      <trkpt lat="45.1004" lon="2.7259">
        <ele>1616.49</ele>
        <time>2015-05-09T09:02:40Z</time>
      </trkpt>
      <trkpt lat="45.1004" lon="2.72563">
        <ele>1618.45</ele>
        <time>2015-05-09T09:03:00Z</time>
      </trkpt>
      <trkpt lat="45.10039" lon="2.72537">
        <ele>1618.46</ele>
        <time>2015-05-09T09:03:17Z</time>
      </trkpt>
      <trkpt lat="45.10035" lon="2.72512">
        <ele>1619.47</ele>
        <time>2015-05-09T09:03:41Z</time>
      </trkpt>
      <trkpt lat="45.10035" lon="2.72485">
        <ele>1622.33</ele>
        <time>2015-05-09T09:04:04Z</time>
      </trkpt>
      <trkpt lat="45.10029" lon="2.72461">
        <ele>1623.45</ele>
        <time>2015-05-09T09:04:27Z</time>
      </trkpt>
      <trkpt lat="45.10029" lon="2.72435">
        <ele>1627.95</ele>
        <time>2015-05-09T09:04:59Z</time>
      </trkpt>
      <trkpt lat="45.1004" lon="2.72414">
        <ele>1631.42</ele>
        <time>2015-05-09T09:05:26Z</time>
      </trkpt>
      <trkpt lat="45.10047" lon="2.7239">
        <ele>1634.95</ele>
        <time>2015-05-09T09:05:57Z</time>
      </trkpt>
      <trkpt lat="45.10049" lon="2.72364">
        <ele>1640.4</ele>
        <time>2015-05-09T09:06:31Z</time>
      </trkpt>
      <trkpt lat="45.10053" lon="2.7234">
        <ele>1645.19</ele>
        <time>2015-05-09T09:06:58Z</time>
      </trkpt>
      <trkpt lat="45.10057" lon="2.72314">
        <ele>1645.45</ele>
        <time>2015-05-09T09:07:35Z</time>
      </trkpt>
      <trkpt lat="45.1006" lon="2.72289">
        <ele>1649.08</ele>
        <time>2015-05-09T09:07:59Z</time>
      </trkpt>
      <trkpt lat="45.10062" lon="2.72263">
        <ele>1650.95</ele>
        <time>2015-05-09T09:08:20Z</time>
      </trkpt>
      <trkpt lat="45.10067" lon="2.72238">
        <ele>1656.92</ele>
        <time>2015-05-09T09:09:19Z</time>
      </trkpt>
      <trkpt lat="45.10067" lon="2.72212">
        <ele>1663.11</ele>
        <time>2015-05-09T09:09:47Z</time>
      </trkpt>
      <trkpt lat="45.10064" lon="2.72186">
        <ele>1662.46</ele>
        <time>2015-05-09T09:10:06Z</time>
      </trkpt>
      <trkpt lat="45.10057" lon="2.72162">
        <ele>1664.44</ele>
        <time>2015-05-09T09:10:25Z</time>
      </trkpt>
      <trkpt lat="45.10049" lon="2.72138">
        <ele>1664.05</ele>
        <time>2015-05-09T09:10:45Z</time>
      </trkpt>
      <trkpt lat="45.10045" lon="2.72112">
        <ele>1663.21</ele>
        <time>2015-05-09T09:11:10Z</time>
      </trkpt>
      <trkpt lat="45.10046" lon="2.72087">
        <ele>1668.95</ele>
        <time>2015-05-09T09:11:39Z</time>
      </trkpt>
      <trkpt lat="45.10046" lon="2.72061">
        <ele>1678.14</ele>
        <time>2015-05-09T09:12:22Z</time>
      </trkpt>
      <trkpt lat="45.10043" lon="2.72034">
        <ele>1684.38</ele>
        <time>2015-05-09T09:12:49Z</time>
      </trkpt>
      <trkpt lat="45.10045" lon="2.72007">
        <ele>1685.44</ele>
        <time>2015-05-09T09:13:10Z</time>
      </trkpt>
      <trkpt lat="45.10048" lon="2.71982">
        <ele>1684.46</ele>
        <time>2015-05-09T09:13:41Z</time>
      </trkpt>
      <trkpt lat="45.10053" lon="2.71957">
        <ele>1675.47</ele>
        <time>2015-05-09T09:14:14Z</time>
      </trkpt>
      <trkpt lat="45.10068" lon="2.7194">
        <ele>1664.58</ele>
        <time>2015-05-09T09:14:45Z</time>
      </trkpt>
      <trkpt lat="45.10084" lon="2.71929">
        <ele>1651.84</ele>
        <time>2015-05-09T09:15:19Z</time>
      </trkpt>
      <trkpt lat="45.10098" lon="2.71912">
        <ele>1643.46</ele>
        <time>2015-05-09T09:15:53Z</time>
      </trkpt>
      <trkpt lat="45.10114" lon="2.71899">
        <ele>1634.03</ele>
        <time>2015-05-09T09:16:25Z</time>
      </trkpt>
      <trkpt lat="45.10128" lon="2.71882">
        <ele>1624.71</ele>
        <time>2015-05-09T09:16:55Z</time>
      </trkpt>
      <trkpt lat="45.10138" lon="2.71861">
        <ele>1613.99</ele>
        <time>2015-05-09T09:17:28Z</time>
      </trkpt>
      <trkpt lat="45.10151" lon="2.71842">
        <ele>1606.71</ele>
        <time>2015-05-09T09:17:52Z</time>
      </trkpt>
      <trkpt lat="45.10163" lon="2.71823">
        <ele>1600.52</ele>
        <time>2015-05-09T09:18:14Z</time>
      </trkpt>
      <trkpt lat="45.10176" lon="2.71806">
        <ele>1592.1</ele>
        <time>2015-05-09T09:18:36Z</time>
      </trkpt>
      <trkpt lat="45.10192" lon="2.71792">
        <ele>1584.78</ele>
        <time>2015-05-09T09:18:57Z</time>
      </trkpt>
      <trkpt lat="45.1021" lon="2.71786">
        <ele>1579.04</ele>
        <time>2015-05-09T09:19:15Z</time>
      </trkpt>
      <trkpt lat="45.10226" lon="2.71773">
        <ele>1572.16</ele>
        <time>2015-05-09T09:19:35Z</time>
      </trkpt>
      <trkpt lat="45.10242" lon="2.71761">
        <ele>1564.8</ele>
        <time>2015-05-09T09:19:54Z</time>
      </trkpt>
      <trkpt lat="45.10259" lon="2.71753">
        <ele>1558.72</ele>
        <time>2015-05-09T09:20:15Z</time>
      </trkpt>
      <trkpt lat="45.10269" lon="2.71732">
        <ele>1552.03</ele>
        <time>2015-05-09T09:20:38Z</time>
      </trkpt>
      <trkpt lat="45.10285" lon="2.71717">
        <ele>1545.73</ele>
        <time>2015-05-09T09:20:59Z</time>
      </trkpt>
      <trkpt lat="45.103" lon="2.71704">
        <ele>1538.49</ele>
        <time>2015-05-09T09:21:56Z</time>
      </trkpt>
      <trkpt lat="45.10306" lon="2.7168">
        <ele>1535.02</ele>
        <time>2015-05-09T09:22:34Z</time>
      </trkpt>
      <trkpt lat="45.10305" lon="2.71654">
        <ele>1530.46</ele>
        <time>2015-05-09T09:23:10Z</time>
      </trkpt>
      <trkpt lat="45.10318" lon="2.71636">
        <ele>1531.17</ele>
        <time>2015-05-09T09:23:28Z</time>
      </trkpt>
      <trkpt lat="45.10336" lon="2.71627">
        <ele>1535.95</ele>
        <time>2015-05-09T09:23:55Z</time>
      </trkpt>
      <trkpt lat="45.10354" lon="2.71617">
        <ele>1535.95</ele>
        <time>2015-05-09T09:24:30Z</time>
      </trkpt>
      <trkpt lat="45.10372" lon="2.71611">
        <ele>1535.95</ele>
        <time>2015-05-09T09:24:47Z</time>
      </trkpt>
      <trkpt lat="45.10389" lon="2.71602">
        <ele>1534.58</ele>
        <time>2015-05-09T09:25:03Z</time>
      </trkpt>
      <trkpt lat="45.10405" lon="2.7159">
        <ele>1533.96</ele>
        <time>2015-05-09T09:25:20Z</time>
      </trkpt>
      <trkpt lat="45.10423" lon="2.71579">
        <ele>1536.39</ele>
        <time>2015-05-09T09:25:41Z</time>
      </trkpt>
      <trkpt lat="45.10439" lon="2.71567">
        <ele>1540.42</ele>
        <time>2015-05-09T09:26:02Z</time>
      </trkpt>
      <trkpt lat="45.10452" lon="2.71548">
        <ele>1544.42</ele>
        <time>2015-05-09T09:26:23Z</time>
      </trkpt>
      <trkpt lat="45.10462" lon="2.71526">
        <ele>1548.45</ele>
        <time>2015-05-09T09:26:49Z</time>
      </trkpt>
      <trkpt lat="45.10473" lon="2.71505">
        <ele>1556.19</ele>
        <time>2015-05-09T09:27:20Z</time>
      </trkpt>
      <trkpt lat="45.10487" lon="2.71489">
        <ele>1561.42</ele>
        <time>2015-05-09T09:27:49Z</time>
      </trkpt>
      <trkpt lat="45.10497" lon="2.71467">
        <ele>1564.2</ele>
        <time>2015-05-09T09:28:14Z</time>
      </trkpt>
      <trkpt lat="45.10508" lon="2.71446">
        <ele>1572.92</ele>
        <time>2015-05-09T09:28:49Z</time>
      </trkpt>
      <trkpt lat="45.10521" lon="2.71427">
        <ele>1579.33</ele>
        <time>2015-05-09T09:29:36Z</time>
      </trkpt>
      <trkpt lat="45.10528" lon="2.71404">
        <ele>1585.94</ele>
        <time>2015-05-09T09:30:22Z</time>
      </trkpt>
      <trkpt lat="45.10541" lon="2.71385">
        <ele>1593.83</ele>
        <time>2015-05-09T09:31:08Z</time>
      </trkpt>
      <trkpt lat="45.10558" lon="2.71375">
        <ele>1600.05</ele>
        <time>2015-05-09T09:31:44Z</time>
      </trkpt>
      <trkpt lat="45.10571" lon="2.71358">
        <ele>1604.42</ele>
        <time>2015-05-09T09:32:11Z</time>
      </trkpt>
      <trkpt lat="45.10589" lon="2.71348">
        <ele>1607.36</ele>
        <time>2015-05-09T09:32:34Z</time>
      </trkpt>
      <trkpt lat="45.10605" lon="2.71338">
        <ele>1612.45</ele>
        <time>2015-05-09T09:33:02Z</time>
      </trkpt>
      <trkpt lat="45.1062" lon="2.71324">
        <ele>1618.44</ele>
        <time>2015-05-09T09:33:33Z</time>
      </trkpt>
      <trkpt lat="45.10633" lon="2.71305">
        <ele>1624.45</ele>
        <time>2015-05-09T09:34:14Z</time>
      </trkpt>
      <trkpt lat="45.1065" lon="2.71296">
        <ele>1632.43</ele>
        <time>2015-05-09T09:35:04Z</time>
      </trkpt>
      <trkpt lat="45.10663" lon="2.71278">
        <ele>1643.42</ele>
        <time>2015-05-09T09:36:00Z</time>
      </trkpt>
      <trkpt lat="45.10674" lon="2.71258">
        <ele>1654.45</ele>
        <time>2015-05-09T09:36:55Z</time>
      </trkpt>
      <trkpt lat="45.10693" lon="2.71257">
        <ele>1656.95</ele>
        <time>2015-05-09T09:37:18Z</time>
      </trkpt>
      <trkpt lat="45.10712" lon="2.71253">
        <ele>1661.2</ele>
        <time>2015-05-09T09:37:44Z</time>
      </trkpt>
      <trkpt lat="45.10729" lon="2.71245">
        <ele>1666.31</ele>
        <time>2015-05-09T09:38:24Z</time>
      </trkpt>
      <trkpt lat="45.10747" lon="2.7124">
        <ele>1671.95</ele>
        <time>2015-05-09T09:38:53Z</time>
      </trkpt>
      <trkpt lat="45.10765" lon="2.71239">
        <ele>1675.39</ele>
        <time>2015-05-09T09:39:40Z</time>
      </trkpt>
      <trkpt lat="45.10784" lon="2.71236">
        <ele>1682.2</ele>
        <time>2015-05-09T09:41:07Z</time>
      </trkpt>
      <trkpt lat="45.10801" lon="2.71244">
        <ele>1686.17</ele>
        <time>2015-05-09T09:41:38Z</time>
      </trkpt>
      <trkpt lat="45.10819" lon="2.71252">
        <ele>1692.2</ele>
        <time>2015-05-09T09:42:05Z</time>
      </trkpt>
      <trkpt lat="45.10835" lon="2.71265">
        <ele>1694.94</ele>
        <time>2015-05-09T09:42:25Z</time>
      </trkpt>
      <trkpt lat="45.10852" lon="2.71275">
        <ele>1697.89</ele>
        <time>2015-05-09T09:42:50Z</time>
      </trkpt>
      <trkpt lat="45.1087" lon="2.71283">
        <ele>1701.45</ele>
        <time>2015-05-09T09:43:17Z</time>
      </trkpt>
      <trkpt lat="45.10886" lon="2.71294">
        <ele>1699.47</ele>
        <time>2015-05-09T09:43:39Z</time>
      </trkpt>
      <trkpt lat="45.10904" lon="2.71287">
        <ele>1704.2</ele>
        <time>2015-05-09T09:44:11Z</time>
      </trkpt>
      <trkpt lat="45.10922" lon="2.71293">
        <ele>1710.91</ele>
        <time>2015-05-09T09:44:38Z</time>
      </trkpt>
      <trkpt lat="45.1094" lon="2.71293">
        <ele>1712.95</ele>
        <time>2015-05-09T09:45:00Z</time>
      </trkpt>
      <trkpt lat="45.10958" lon="2.71287">
        <ele>1712.95</ele>
        <time>2015-05-09T09:45:24Z</time>
      </trkpt>
      <trkpt lat="45.10975" lon="2.71277">
        <ele>1714.42</ele>
        <time>2015-05-09T09:45:48Z</time>
      </trkpt>
      <trkpt lat="45.10989" lon="2.71259">
        <ele>1716.39</ele>
        <time>2015-05-09T09:46:11Z</time>
      </trkpt>
      <trkpt lat="45.11003" lon="2.71242">
        <ele>1723</ele>
        <time>2015-05-09T09:46:47Z</time>
      </trkpt>
      <trkpt lat="45.11019" lon="2.71231">
        <ele>1731.33</ele>
        <time>2015-05-09T09:47:32Z</time>
      </trkpt>
      <trkpt lat="45.11023" lon="2.71206">
        <ele>1738.39</ele>
        <time>2015-05-09T09:48:13Z</time>
      </trkpt>
      <trkpt lat="45.11033" lon="2.71184">
        <ele>1749.22</ele>
        <time>2015-05-09T09:49:01Z</time>
      </trkpt>
      <trkpt lat="45.11038" lon="2.71159">
        <ele>1757.39</ele>
        <time>2015-05-09T09:49:44Z</time>
      </trkpt>
      <trkpt lat="45.11047" lon="2.71137">
        <ele>1766.45</ele>
        <time>2015-05-09T09:50:33Z</time>
      </trkpt>
      <trkpt lat="45.1105" lon="2.71111">
        <ele>1777.67</ele>
        <time>2015-05-09T09:51:36Z</time>
      </trkpt>
      <trkpt lat="45.11049" lon="2.71086">
        <ele>1787.89</ele>
        <time>2015-05-09T09:52:36Z</time>
      </trkpt>
      <trkpt lat="45.1103" lon="2.71087">
        <ele>1794.42</ele>
        <time>2015-05-09T09:53:08Z</time>
      </trkpt>
      <trkpt lat="45.11017" lon="2.71068">
        <ele>1800.45</ele>
        <time>2015-05-09T09:54:02Z</time>
      </trkpt>
      <trkpt lat="45.1103" lon="2.71086">
        <ele>1793.49</ele>
        <time>2015-05-09T09:57:59Z</time>
      </trkpt>
      <trkpt lat="45.11048" lon="2.71087">
        <ele>1786.72</ele>
        <time>2015-05-09T09:58:20Z</time>
      </trkpt>
      <trkpt lat="45.11056" lon="2.71064">
        <ele>1783.99</ele>
        <time>2015-05-09T09:58:41Z</time>
      </trkpt>
      <trkpt lat="45.11046" lon="2.71041">
        <ele>1780.49</ele>
        <time>2015-05-09T09:58:59Z</time>
      </trkpt>
      <trkpt lat="45.11034" lon="2.7102">
        <ele>1777.58</ele>
        <time>2015-05-09T09:59:22Z</time>
      </trkpt>
      <trkpt lat="45.11024" lon="2.70997">
        <ele>1774.5</ele>
        <time>2015-05-09T09:59:52Z</time>
      </trkpt>
      <trkpt lat="45.1101" lon="2.70981">
        <ele>1770.99</ele>
        <time>2015-05-09T10:00:09Z</time>
      </trkpt>
      <trkpt lat="45.10999" lon="2.7096">
        <ele>1765.58</ele>
        <time>2015-05-09T10:00:38Z</time>
      </trkpt>
      <trkpt lat="45.10988" lon="2.70939">
        <ele>1760.62</ele>
        <time>2015-05-09T10:00:55Z</time>
      </trkpt>
      <trkpt lat="45.10978" lon="2.70918">
        <ele>1756.71</ele>
        <time>2015-05-09T10:01:11Z</time>
      </trkpt>
      <trkpt lat="45.10964" lon="2.709">
        <ele>1753.83</ele>
        <time>2015-05-09T10:01:29Z</time>
      </trkpt>
      <trkpt lat="45.10949" lon="2.70887">
        <ele>1750.58</ele>
        <time>2015-05-09T10:02:34Z</time>
      </trkpt>
      <trkpt lat="45.10936" lon="2.70868">
        <ele>1744.11</ele>
        <time>2015-05-09T10:02:56Z</time>
      </trkpt>
      <trkpt lat="45.10924" lon="2.70847">
        <ele>1738.02</ele>
        <time>2015-05-09T10:03:17Z</time>
      </trkpt>
      <trkpt lat="45.10915" lon="2.70825">
        <ele>1736.46</ele>
        <time>2015-05-09T10:03:32Z</time>
      </trkpt>
      <trkpt lat="45.10905" lon="2.70803">
        <ele>1735.46</ele>
        <time>2015-05-09T10:03:46Z</time>
      </trkpt>
      <trkpt lat="45.10896" lon="2.7078">
        <ele>1734.58</ele>
        <time>2015-05-09T10:04:02Z</time>
      </trkpt>
      <trkpt lat="45.10885" lon="2.7076">
        <ele>1734.49</ele>
        <time>2015-05-09T10:04:16Z</time>
      </trkpt>
      <trkpt lat="45.10871" lon="2.70742">
        <ele>1733.46</ele>
        <time>2015-05-09T10:04:31Z</time>
      </trkpt>
      <trkpt lat="45.10858" lon="2.70724">
        <ele>1729.71</ele>
        <time>2015-05-09T10:04:48Z</time>
      </trkpt>
      <trkpt lat="45.1085" lon="2.70701">
        <ele>1722.1</ele>
        <time>2015-05-09T10:05:19Z</time>
      </trkpt>
      <trkpt lat="45.10841" lon="2.70679">
        <ele>1719.47</ele>
        <time>2015-05-09T10:05:35Z</time>
      </trkpt>
      <trkpt lat="45.10829" lon="2.70659">
        <ele>1714.72</ele>
        <time>2015-05-09T10:05:51Z</time>
      </trkpt>
      <trkpt lat="45.10819" lon="2.70637">
        <ele>1708.99</ele>
        <time>2015-05-09T10:06:11Z</time>
      </trkpt>
      <trkpt lat="45.10808" lon="2.70616">
        <ele>1703.46</ele>
        <time>2015-05-09T10:06:34Z</time>
      </trkpt>
      <trkpt lat="45.10795" lon="2.70597">
        <ele>1700.08</ele>
        <time>2015-05-09T10:07:15Z</time>
      </trkpt>
      <trkpt lat="45.10782" lon="2.70579">
        <ele>1696.6</ele>
        <time>2015-05-09T10:07:32Z</time>
      </trkpt>
      <trkpt lat="45.10767" lon="2.70565">
        <ele>1693.48</ele>
        <time>2015-05-09T10:07:51Z</time>
      </trkpt>
      <trkpt lat="45.10752" lon="2.70549">
        <ele>1693.46</ele>
        <time>2015-05-09T10:08:05Z</time>
      </trkpt>
      <trkpt lat="45.10741" lon="2.70527">
        <ele>1693.95</ele>
        <time>2015-05-09T10:08:20Z</time>
      </trkpt>
      <trkpt lat="45.10739" lon="2.70501">
        <ele>1694.46</ele>
        <time>2015-05-09T10:08:36Z</time>
      </trkpt>
      <trkpt lat="45.1073" lon="2.70479">
        <ele>1696.95</ele>
        <time>2015-05-09T10:09:01Z</time>
      </trkpt>
      <trkpt lat="45.10721" lon="2.70455">
        <ele>1698.95</ele>
        <time>2015-05-09T10:09:23Z</time>
      </trkpt>
      <trkpt lat="45.10713" lon="2.70431">
        <ele>1696.74</ele>
        <time>2015-05-09T10:09:41Z</time>
      </trkpt>
      <trkpt lat="45.10703" lon="2.70407">
        <ele>1694.96</ele>
        <time>2015-05-09T10:09:58Z</time>
      </trkpt>
      <trkpt lat="45.10693" lon="2.70386">
        <ele>1689.05</ele>
        <time>2015-05-09T10:10:20Z</time>
      </trkpt>
      <trkpt lat="45.10687" lon="2.70361">
        <ele>1683.5</ele>
        <time>2015-05-09T10:10:49Z</time>
      </trkpt>
      <trkpt lat="45.10675" lon="2.70342">
        <ele>1680.59</ele>
        <time>2015-05-09T10:11:04Z</time>
      </trkpt>
      <trkpt lat="45.10662" lon="2.70324">
        <ele>1677.74</ele>
        <time>2015-05-09T10:11:20Z</time>
      </trkpt>
      <trkpt lat="45.1065" lon="2.70304">
        <ele>1677.4</ele>
        <time>2015-05-09T10:11:35Z</time>
      </trkpt>
      <trkpt lat="45.10641" lon="2.7028">
        <ele>1681.91</ele>
        <time>2015-05-09T10:11:55Z</time>
      </trkpt>
      <trkpt lat="45.10633" lon="2.70257">
        <ele>1684.45</ele>
        <time>2015-05-09T10:12:17Z</time>
      </trkpt>
      <trkpt lat="45.10629" lon="2.70232">
        <ele>1678.72</ele>
        <time>2015-05-09T10:12:40Z</time>
      </trkpt>
      <trkpt lat="45.10624" lon="2.70207">
        <ele>1672.97</ele>
        <time>2015-05-09T10:13:04Z</time>
      </trkpt>
      <trkpt lat="45.10616" lon="2.70185">
        <ele>1665.03</ele>
        <time>2015-05-09T10:13:28Z</time>
      </trkpt>
      <trkpt lat="45.10608" lon="2.70161">
        <ele>1659.03</ele>
        <time>2015-05-09T10:13:48Z</time>
      </trkpt>
      <trkpt lat="45.10596" lon="2.70142">
        <ele>1653.99</ele>
        <time>2015-05-09T10:14:18Z</time>
      </trkpt>
      <trkpt lat="45.10587" lon="2.70119">
        <ele>1648.59</ele>
        <time>2015-05-09T10:14:36Z</time>
      </trkpt>
      <trkpt lat="45.10575" lon="2.701">
        <ele>1644.02</ele>
        <time>2015-05-09T10:14:51Z</time>
      </trkpt>
      <trkpt lat="45.10562" lon="2.70081">
        <ele>1640.58</ele>
        <time>2015-05-09T10:15:06Z</time>
      </trkpt>
      <trkpt lat="45.10548" lon="2.70062">
        <ele>1638.96</ele>
        <time>2015-05-09T10:15:21Z</time>
      </trkpt>
      <trkpt lat="45.10537" lon="2.70041">
        <ele>1637.71</ele>
        <time>2015-05-09T10:15:35Z</time>
      </trkpt>
      <trkpt lat="45.10526" lon="2.7002">
        <ele>1638.42</ele>
        <time>2015-05-09T10:15:50Z</time>
      </trkpt>
      <trkpt lat="45.10512" lon="2.70002">
        <ele>1638.45</ele>
        <time>2015-05-09T10:16:07Z</time>
      </trkpt>
      <trkpt lat="45.105" lon="2.69983">
        <ele>1641.39</ele>
        <time>2015-05-09T10:16:26Z</time>
      </trkpt>
      <trkpt lat="45.10485" lon="2.69967">
        <ele>1644.95</ele>
        <time>2015-05-09T10:16:44Z</time>
      </trkpt>
      <trkpt lat="45.10469" lon="2.69952">
        <ele>1647.45</ele>
        <time>2015-05-09T10:17:02Z</time>
      </trkpt>
      <trkpt lat="45.10456" lon="2.69934">
        <ele>1649.38</ele>
        <time>2015-05-09T10:17:22Z</time>
      </trkpt>
      <trkpt lat="45.10441" lon="2.6992">
        <ele>1649.7</ele>
        <time>2015-05-09T10:17:42Z</time>
      </trkpt>
      <trkpt lat="45.10428" lon="2.69899">
        <ele>1647.52</ele>
        <time>2015-05-09T10:18:00Z</time>
      </trkpt>
      <trkpt lat="45.1042" lon="2.69876">
        <ele>1645.58</ele>
        <time>2015-05-09T10:18:15Z</time>
      </trkpt>
      <trkpt lat="45.10413" lon="2.6985">
        <ele>1643.46</ele>
        <time>2015-05-09T10:18:32Z</time>
      </trkpt>
      <trkpt lat="45.10405" lon="2.69827">
        <ele>1641.71</ele>
        <time>2015-05-09T10:18:46Z</time>
      </trkpt>
      <trkpt lat="45.10398" lon="2.69803">
        <ele>1639.52</ele>
        <time>2015-05-09T10:19:01Z</time>
      </trkpt>
      <trkpt lat="45.10391" lon="2.69778">
        <ele>1638.46</ele>
        <time>2015-05-09T10:19:16Z</time>
      </trkpt>
      <trkpt lat="45.10384" lon="2.69753">
        <ele>1638.99</ele>
        <time>2015-05-09T10:19:31Z</time>
      </trkpt>
      <trkpt lat="45.1038" lon="2.69728">
        <ele>1642.38</ele>
        <time>2015-05-09T10:19:52Z</time>
      </trkpt>
      <trkpt lat="45.10375" lon="2.69703">
        <ele>1642.47</ele>
        <time>2015-05-09T10:20:12Z</time>
      </trkpt>
      <trkpt lat="45.10368" lon="2.69678">
        <ele>1641.69</ele>
        <time>2015-05-09T10:20:27Z</time>
      </trkpt>
      <trkpt lat="45.10361" lon="2.69655">
        <ele>1640.71</ele>
        <time>2015-05-09T10:20:42Z</time>
      </trkpt>
      <trkpt lat="45.10353" lon="2.69632">
        <ele>1638.49</ele>
        <time>2015-05-09T10:20:57Z</time>
      </trkpt>
      <trkpt lat="45.1035" lon="2.69606">
        <ele>1636.49</ele>
        <time>2015-05-09T10:21:12Z</time>
      </trkpt>
      <trkpt lat="45.10345" lon="2.69581">
        <ele>1634.99</ele>
        <time>2015-05-09T10:21:27Z</time>
      </trkpt>
      <trkpt lat="45.1034" lon="2.69555">
        <ele>1631.99</ele>
        <time>2015-05-09T10:21:42Z</time>
      </trkpt>
      <trkpt lat="45.10334" lon="2.69531">
        <ele>1632.38</ele>
        <time>2015-05-09T10:22:01Z</time>
      </trkpt>
      <trkpt lat="45.10319" lon="2.69515">
        <ele>1637.32</ele>
        <time>2015-05-09T10:22:27Z</time>
      </trkpt>
      <trkpt lat="45.10303" lon="2.69501">
        <ele>1645.86</ele>
        <time>2015-05-09T10:23:04Z</time>
      </trkpt>
      <trkpt lat="45.10289" lon="2.69485">
        <ele>1652.45</ele>
        <time>2015-05-09T10:23:36Z</time>
      </trkpt>
      <trkpt lat="45.10275" lon="2.69468">
        <ele>1656.45</ele>
        <time>2015-05-09T10:24:05Z</time>
      </trkpt>
      <trkpt lat="45.10265" lon="2.69446">
        <ele>1661.45</ele>
        <time>2015-05-09T10:24:33Z</time>
      </trkpt>
      <trkpt lat="45.10258" lon="2.69422">
        <ele>1662.93</ele>
        <time>2015-05-09T10:24:56Z</time>
      </trkpt>
      <trkpt lat="45.1025" lon="2.69399">
        <ele>1665.7</ele>
        <time>2015-05-09T10:25:15Z</time>
      </trkpt>
      <trkpt lat="45.10242" lon="2.69375">
        <ele>1666.45</ele>
        <time>2015-05-09T10:25:33Z</time>
      </trkpt>
      <trkpt lat="45.10238" lon="2.69349">
        <ele>1667.42</ele>
        <time>2015-05-09T10:26:15Z</time>
      </trkpt>
      <trkpt lat="45.10241" lon="2.69324">
        <ele>1666.47</ele>
        <time>2015-05-09T10:26:31Z</time>
      </trkpt>
      <trkpt lat="45.10242" lon="2.69297">
        <ele>1665.7</ele>
        <time>2015-05-09T10:26:48Z</time>
      </trkpt>
      <trkpt lat="45.10247" lon="2.69272">
        <ele>1665.43</ele>
        <time>2015-05-09T10:27:05Z</time>
      </trkpt>
      <trkpt lat="45.1025" lon="2.69246">
        <ele>1666.45</ele>
        <time>2015-05-09T10:27:23Z</time>
      </trkpt>
      <trkpt lat="45.1026" lon="2.69224">
        <ele>1667.45</ele>
        <time>2015-05-09T10:27:40Z</time>
      </trkpt>
      <trkpt lat="45.10269" lon="2.69201">
        <ele>1667.97</ele>
        <time>2015-05-09T10:27:57Z</time>
      </trkpt>
      <trkpt lat="45.10273" lon="2.69176">
        <ele>1666.46</ele>
        <time>2015-05-09T10:28:13Z</time>
      </trkpt>
      <trkpt lat="45.10282" lon="2.69153">
        <ele>1664.58</ele>
        <time>2015-05-09T10:28:29Z</time>
      </trkpt>
      <trkpt lat="45.1029" lon="2.69129">
        <ele>1663.52</ele>
        <time>2015-05-09T10:28:58Z</time>
      </trkpt>
      <trkpt lat="45.10297" lon="2.69105">
        <ele>1662.47</ele>
        <time>2015-05-09T10:29:14Z</time>
      </trkpt>
      <trkpt lat="45.10305" lon="2.69081">
        <ele>1662.45</ele>
        <time>2015-05-09T10:29:32Z</time>
      </trkpt>
      <trkpt lat="45.10316" lon="2.69059">
        <ele>1659.49</ele>
        <time>2015-05-09T10:29:48Z</time>
      </trkpt>
      <trkpt lat="45.10323" lon="2.69034">
        <ele>1656.58</ele>
        <time>2015-05-09T10:30:03Z</time>
      </trkpt>
      <trkpt lat="45.10321" lon="2.69007">
        <ele>1656.45</ele>
        <time>2015-05-09T10:30:19Z</time>
      </trkpt>
      <trkpt lat="45.10321" lon="2.68981">
        <ele>1658.45</ele>
        <time>2015-05-09T10:32:44Z</time>
      </trkpt>
      <trkpt lat="45.10325" lon="2.68955">
        <ele>1660.45</ele>
        <time>2015-05-09T10:33:04Z</time>
      </trkpt>
      <trkpt lat="45.10336" lon="2.68934">
        <ele>1662.95</ele>
        <time>2015-05-09T10:33:25Z</time>
      </trkpt>
      <trkpt lat="45.1035" lon="2.68916">
        <ele>1665.45</ele>
        <time>2015-05-09T10:33:44Z</time>
      </trkpt>
      <trkpt lat="45.10359" lon="2.68894">
        <ele>1668.39</ele>
        <time>2015-05-09T10:34:04Z</time>
      </trkpt>
      <trkpt lat="45.10367" lon="2.6887">
        <ele>1666.64</ele>
        <time>2015-05-09T10:34:19Z</time>
      </trkpt>
      <trkpt lat="45.1037" lon="2.68844">
        <ele>1666.46</ele>
        <time>2015-05-09T10:34:34Z</time>
      </trkpt>
      <trkpt lat="45.10368" lon="2.68818">
        <ele>1663.49</ele>
        <time>2015-05-09T10:34:50Z</time>
      </trkpt>
      <trkpt lat="45.10363" lon="2.68793">
        <ele>1661.53</ele>
        <time>2015-05-09T10:35:06Z</time>
      </trkpt>
      <trkpt lat="45.10362" lon="2.68767">
        <ele>1659.71</ele>
        <time>2015-05-09T10:35:22Z</time>
      </trkpt>
      <trkpt lat="45.10364" lon="2.68741">
        <ele>1656.58</ele>
        <time>2015-05-09T10:35:39Z</time>
      </trkpt>
      <trkpt lat="45.10367" lon="2.68716">
        <ele>1655.47</ele>
        <time>2015-05-09T10:35:56Z</time>
      </trkpt>
      <trkpt lat="45.10371" lon="2.6869">
        <ele>1652.49</ele>
        <time>2015-05-09T10:36:12Z</time>
      </trkpt>
      <trkpt lat="45.10375" lon="2.68665">
        <ele>1647.74</ele>
        <time>2015-05-09T10:36:32Z</time>
      </trkpt>
      <trkpt lat="45.10375" lon="2.68639">
        <ele>1641.78</ele>
        <time>2015-05-09T10:36:51Z</time>
      </trkpt>
      <trkpt lat="45.10375" lon="2.68613">
        <ele>1634.7</ele>
        <time>2015-05-09T10:37:58Z</time>
      </trkpt>
      <trkpt lat="45.10372" lon="2.68587">
        <ele>1622.47</ele>
        <time>2015-05-09T10:39:06Z</time>
      </trkpt>
      <trkpt lat="45.1037" lon="2.68561">
        <ele>1634.94</ele>
        <time>2015-05-09T10:41:41Z</time>
      </trkpt>
      <trkpt lat="45.10383" lon="2.68541">
        <ele>1643.2</ele>
        <time>2015-05-09T10:42:21Z</time>
      </trkpt>
      <trkpt lat="45.10395" lon="2.68521">
        <ele>1644.45</ele>
        <time>2015-05-09T10:42:38Z</time>
      </trkpt>
      <trkpt lat="45.10402" lon="2.68497">
        <ele>1644.47</ele>
        <time>2015-05-09T10:42:55Z</time>
      </trkpt>
      <trkpt lat="45.10407" lon="2.68472">
        <ele>1641.97</ele>
        <time>2015-05-09T10:43:12Z</time>
      </trkpt>
      <trkpt lat="45.10416" lon="2.68449">
        <ele>1639.5</ele>
        <time>2015-05-09T10:43:27Z</time>
      </trkpt>
      <trkpt lat="45.10425" lon="2.68425">
        <ele>1638.49</ele>
        <time>2015-05-09T10:43:42Z</time>
      </trkpt>
      <trkpt lat="45.10436" lon="2.68402">
        <ele>1638.95</ele>
        <time>2015-05-09T10:43:58Z</time>
      </trkpt>
      <trkpt lat="45.10449" lon="2.68384">
        <ele>1636.64</ele>
        <time>2015-05-09T10:44:13Z</time>
      </trkpt>
      <trkpt lat="45.10462" lon="2.68364">
        <ele>1630.78</ele>
        <time>2015-05-09T10:44:30Z</time>
      </trkpt>
      <trkpt lat="45.10472" lon="2.68344">
        <ele>1624.72</ele>
        <time>2015-05-09T10:44:49Z</time>
      </trkpt>
      <trkpt lat="45.10486" lon="2.68324">
        <ele>1620.59</ele>
        <time>2015-05-09T10:45:07Z</time>
      </trkpt>
      <trkpt lat="45.10498" lon="2.68303">
        <ele>1617.71</ele>
        <time>2015-05-09T10:45:24Z</time>
      </trkpt>
      <trkpt lat="45.10511" lon="2.68285">
        <ele>1617.45</ele>
        <time>2015-05-09T10:45:39Z</time>
      </trkpt>
      <trkpt lat="45.10527" lon="2.68271">
        <ele>1621.39</ele>
        <time>2015-05-09T10:45:58Z</time>
      </trkpt>
      <trkpt lat="45.10543" lon="2.68257">
        <ele>1620.44</ele>
        <time>2015-05-09T10:46:14Z</time>
      </trkpt>
      <trkpt lat="45.10557" lon="2.68241">
        <ele>1615.99</ele>
        <time>2015-05-09T10:46:35Z</time>
      </trkpt>
      <trkpt lat="45.10569" lon="2.68222">
        <ele>1611.59</ele>
        <time>2015-05-09T10:47:05Z</time>
      </trkpt>
      <trkpt lat="45.10584" lon="2.68205">
        <ele>1608.46</ele>
        <time>2015-05-09T10:47:27Z</time>
      </trkpt>
      <trkpt lat="45.10599" lon="2.68191">
        <ele>1607.46</ele>
        <time>2015-05-09T10:47:41Z</time>
      </trkpt>
      <trkpt lat="45.10612" lon="2.68172">
        <ele>1609.2</ele>
        <time>2015-05-09T10:47:57Z</time>
      </trkpt>
      <trkpt lat="45.10627" lon="2.68158">
        <ele>1609.45</ele>
        <time>2015-05-09T10:48:12Z</time>
      </trkpt>
      <trkpt lat="45.10641" lon="2.6814">
        <ele>1608.33</ele>
        <time>2015-05-09T10:48:29Z</time>
      </trkpt>
      <trkpt lat="45.1065" lon="2.68118">
        <ele>1606.46</ele>
        <time>2015-05-09T10:48:45Z</time>
      </trkpt>
      <trkpt lat="45.10659" lon="2.68096">
        <ele>1607.39</ele>
        <time>2015-05-09T10:49:00Z</time>
      </trkpt>
      <trkpt lat="45.10665" lon="2.68071">
        <ele>1610.19</ele>
        <time>2015-05-09T10:49:18Z</time>
      </trkpt>
      <trkpt lat="45.1067" lon="2.68046">
        <ele>1616.39</ele>
        <time>2015-05-09T10:49:43Z</time>
      </trkpt>
      <trkpt lat="45.10683" lon="2.68027">
        <ele>1620.89</ele>
        <time>2015-05-09T10:50:09Z</time>
      </trkpt>
      <trkpt lat="45.10697" lon="2.68011">
        <ele>1628.33</ele>
        <time>2015-05-09T10:50:38Z</time>
      </trkpt>
      <trkpt lat="45.10708" lon="2.67991">
        <ele>1634.42</ele>
        <time>2015-05-09T10:51:07Z</time>
      </trkpt>
      <trkpt lat="45.1072" lon="2.67971">
        <ele>1639.42</ele>
        <time>2015-05-09T10:51:34Z</time>
      </trkpt>
      <trkpt lat="45.10729" lon="2.67948">
        <ele>1644.89</ele>
        <time>2015-05-09T10:52:02Z</time>
      </trkpt>
      <trkpt lat="45.10744" lon="2.67933">
        <ele>1650.33</ele>
        <time>2015-05-09T10:52:35Z</time>
      </trkpt>
      <trkpt lat="45.10759" lon="2.67918">
        <ele>1657.87</ele>
        <time>2015-05-09T10:53:10Z</time>
      </trkpt>
      <trkpt lat="45.10769" lon="2.67896">
        <ele>1666.33</ele>
        <time>2015-05-09T10:53:56Z</time>
      </trkpt>
      <trkpt lat="45.10781" lon="2.67877">
        <ele>1674.32</ele>
        <time>2015-05-09T10:54:43Z</time>
      </trkpt>
      <trkpt lat="45.10795" lon="2.67861">
        <ele>1680.45</ele>
        <time>2015-05-09T10:55:21Z</time>
      </trkpt>
      <trkpt lat="45.1081" lon="2.67844">
        <ele>1685.45</ele>
        <time>2015-05-09T10:55:55Z</time>
      </trkpt>
      <trkpt lat="45.10826" lon="2.67833">
        <ele>1695.88</ele>
        <time>2015-05-09T10:56:40Z</time>
      </trkpt>
      <trkpt lat="45.10838" lon="2.67814">
        <ele>1707.89</ele>
        <time>2015-05-09T10:57:43Z</time>
      </trkpt>
      <trkpt lat="45.10855" lon="2.67805">
        <ele>1715.89</ele>
        <time>2015-05-09T10:58:39Z</time>
      </trkpt>
      <trkpt lat="45.10868" lon="2.67787">
        <ele>1724.95</ele>
        <time>2015-05-09T10:59:21Z</time>
      </trkpt>
      <trkpt lat="45.10883" lon="2.67772">
        <ele>1735.2</ele>
        <time>2015-05-09T11:00:19Z</time>
      </trkpt>
      <trkpt lat="45.10898" lon="2.67757">
        <ele>1746.33</ele>
        <time>2015-05-09T11:01:21Z</time>
      </trkpt>
      <trkpt lat="45.10911" lon="2.6774">
        <ele>1757.89</ele>
        <time>2015-05-09T11:02:32Z</time>
      </trkpt>
      <trkpt lat="45.10918" lon="2.67715">
        <ele>1767.42</ele>
        <time>2015-05-09T11:03:27Z</time>
      </trkpt>
      <trkpt lat="45.10924" lon="2.67691">
        <ele>1768.45</ele>
        <time>2015-05-09T11:04:05Z</time>
      </trkpt>
      <trkpt lat="45.10925" lon="2.67666">
        <ele>1771.96</ele>
        <time>2015-05-09T11:04:33Z</time>
      </trkpt>
      <trkpt lat="45.10931" lon="2.67641">
        <ele>1777.95</ele>
        <time>2015-05-09T11:05:06Z</time>
      </trkpt>
      <trkpt lat="45.10935" lon="2.67616">
        <ele>1784.2</ele>
        <time>2015-05-09T11:06:09Z</time>
      </trkpt>
      <trkpt lat="45.10938" lon="2.67598">
        <ele>1782.45</ele>
        <time>2015-05-09T11:07:49Z</time>
      </trkpt>
      <trkpt lat="45.10936" lon="2.67589">
        <ele>1779.45</ele>
        <time>2015-05-09T11:13:04Z</time>
      </trkpt>
      <trkpt lat="45.10936" lon="2.67595">
        <ele>1779.45</ele>
        <time>2015-05-09T11:14:06Z</time>
      </trkpt>
      <trkpt lat="45.10937" lon="2.67594">
        <ele>1779.45</ele>
        <time>2015-05-09T11:15:08Z</time>
      </trkpt>
      <trkpt lat="45.10938" lon="2.67595">
        <ele>1778.45</ele>
        <time>2015-05-09T11:15:40Z</time>
      </trkpt>
      <trkpt lat="45.10938" lon="2.67586">
        <ele>1779.45</ele>
        <time>2015-05-09T11:18:34Z</time>
      </trkpt>
      <trkpt lat="45.10936" lon="2.67585">
        <ele>1777.45</ele>
        <time>2015-05-09T11:19:45Z</time>
      </trkpt>
      <trkpt lat="45.10936" lon="2.67599">
        <ele>1782.45</ele>
        <time>2015-05-09T11:25:24Z</time>
      </trkpt>
      <trkpt lat="45.10936" lon="2.67598">
        <ele>1781.45</ele>
        <time>2015-05-09T11:25:42Z</time>
      </trkpt>
      <trkpt lat="45.10936" lon="2.67583">
        <ele>1782.45</ele>
        <time>2015-05-09T11:26:31Z</time>
      </trkpt>
      <trkpt lat="45.10936" lon="2.67593">
        <ele>1781.45</ele>
        <time>2015-05-09T11:29:21Z</time>
      </trkpt>
      <trkpt lat="45.10937" lon="2.67596">
        <ele>1783.45</ele>
        <time>2015-05-09T11:30:20Z</time>
      </trkpt>
      <trkpt lat="45.10937" lon="2.67608">
        <ele>1781.45</ele>
        <time>2015-05-09T11:35:38Z</time>
      </trkpt>
      <trkpt lat="45.10936" lon="2.67612">
        <ele>1782.45</ele>
        <time>2015-05-09T11:37:00Z</time>
      </trkpt>
      <trkpt lat="45.10936" lon="2.67612">
        <ele>1782.45</ele>
        <time>2015-05-09T11:37:24Z</time>
      </trkpt>
      <trkpt lat="45.10932" lon="2.67613">
        <ele>1783.45</ele>
        <time>2015-05-09T11:39:08Z</time>
      </trkpt>
      <trkpt lat="45.10938" lon="2.67588">
        <ele>1780.45</ele>
        <time>2015-05-09T11:42:17Z</time>
      </trkpt>
      <trkpt lat="45.10933" lon="2.67563">
        <ele>1779.71</ele>
        <time>2015-05-09T11:42:47Z</time>
      </trkpt>
      <trkpt lat="45.10931" lon="2.67563">
        <ele>1779.45</ele>
        <time>2015-05-09T11:43:07Z</time>
      </trkpt>
      <trkpt lat="45.10929" lon="2.67538">
        <ele>1772.75</ele>
        <time>2015-05-09T11:43:48Z</time>
      </trkpt>
      <trkpt lat="45.10947" lon="2.67538">
        <ele>1768.62</ele>
        <time>2015-05-09T11:46:03Z</time>
      </trkpt>
      <trkpt lat="45.10938" lon="2.67516">
        <ele>1759.76</ele>
        <time>2015-05-09T11:46:36Z</time>
      </trkpt>
      <trkpt lat="45.10955" lon="2.67505">
        <ele>1752.78</ele>
        <time>2015-05-09T11:47:15Z</time>
      </trkpt>
      <trkpt lat="45.10974" lon="2.67501">
        <ele>1747.04</ele>
        <time>2015-05-09T11:47:33Z</time>
      </trkpt>
      <trkpt lat="45.10992" lon="2.67491">
        <ele>1739.1</ele>
        <time>2015-05-09T11:47:55Z</time>
      </trkpt>
      <trkpt lat="45.11008" lon="2.67479">
        <ele>1731.58</ele>
        <time>2015-05-09T11:48:26Z</time>
      </trkpt>
      <trkpt lat="45.11016" lon="2.67471">
        <ele>1727.45</ele>
        <time>2015-05-09T11:48:42Z</time>
      </trkpt>
      <trkpt lat="45.11033" lon="2.6746">
        <ele>1717.03</ele>
        <time>2015-05-09T11:49:05Z</time>
      </trkpt>
      <trkpt lat="45.11052" lon="2.67458">
        <ele>1708.73</ele>
        <time>2015-05-09T11:49:23Z</time>
      </trkpt>
      <trkpt lat="45.11064" lon="2.67438">
        <ele>1699.04</ele>
        <time>2015-05-09T11:49:44Z</time>
      </trkpt>
      <trkpt lat="45.11079" lon="2.67424">
        <ele>1690.04</ele>
        <time>2015-05-09T11:50:06Z</time>
      </trkpt>
      <trkpt lat="45.11093" lon="2.67407">
        <ele>1681.78</ele>
        <time>2015-05-09T11:50:26Z</time>
      </trkpt>
      <trkpt lat="45.11107" lon="2.67391">
        <ele>1673.75</ele>
        <time>2015-05-09T11:50:49Z</time>
      </trkpt>
      <trkpt lat="45.11125" lon="2.67379">
        <ele>1668.1</ele>
        <time>2015-05-09T11:51:03Z</time>
      </trkpt>
      <trkpt lat="45.11142" lon="2.67366">
        <ele>1662.61</ele>
        <time>2015-05-09T11:51:21Z</time>
      </trkpt>
      <trkpt lat="45.11152" lon="2.67345">
        <ele>1656.62</ele>
        <time>2015-05-09T11:51:38Z</time>
      </trkpt>
      <trkpt lat="45.11168" lon="2.67331">
        <ele>1652.67</ele>
        <time>2015-05-09T11:51:54Z</time>
      </trkpt>
      <trkpt lat="45.11187" lon="2.67329">
        <ele>1647.03</ele>
        <time>2015-05-09T11:52:09Z</time>
      </trkpt>
      <trkpt lat="45.11206" lon="2.6733">
        <ele>1640.12</ele>
        <time>2015-05-09T11:52:24Z</time>
      </trkpt>
      <trkpt lat="45.11222" lon="2.67317">
        <ele>1633.79</ele>
        <time>2015-05-09T11:52:38Z</time>
      </trkpt>
      <trkpt lat="45.11241" lon="2.67309">
        <ele>1629.74</ele>
        <time>2015-05-09T11:52:51Z</time>
      </trkpt>
      <trkpt lat="45.11257" lon="2.67298">
        <ele>1626.59</ele>
        <time>2015-05-09T11:53:05Z</time>
      </trkpt>
      <trkpt lat="45.11269" lon="2.67277">
        <ele>1622.03</ele>
        <time>2015-05-09T11:53:20Z</time>
      </trkpt>
      <trkpt lat="45.11284" lon="2.67262">
        <ele>1617.1</ele>
        <time>2015-05-09T11:53:39Z</time>
      </trkpt>
      <trkpt lat="45.11299" lon="2.67248">
        <ele>1614.08</ele>
        <time>2015-05-09T11:53:55Z</time>
      </trkpt>
      <trkpt lat="45.11317" lon="2.67241">
        <ele>1612.58</ele>
        <time>2015-05-09T11:54:09Z</time>
      </trkpt>
      <trkpt lat="45.11333" lon="2.67227">
        <ele>1607.75</ele>
        <time>2015-05-09T11:54:23Z</time>
      </trkpt>
      <trkpt lat="45.1135" lon="2.67219">
        <ele>1602.74</ele>
        <time>2015-05-09T11:54:36Z</time>
      </trkpt>
      <trkpt lat="45.11366" lon="2.67207">
        <ele>1599.53</ele>
        <time>2015-05-09T11:54:50Z</time>
      </trkpt>
      <trkpt lat="45.11382" lon="2.67196">
        <ele>1596.56</ele>
        <time>2015-05-09T11:55:10Z</time>
      </trkpt>
      <trkpt lat="45.114" lon="2.67187">
        <ele>1595.06</ele>
        <time>2015-05-09T11:55:30Z</time>
      </trkpt>
      <trkpt lat="45.11385" lon="2.67172">
        <ele>1587.96</ele>
        <time>2015-05-09T11:56:07Z</time>
      </trkpt>
      <trkpt lat="45.11367" lon="2.67176">
        <ele>1585.71</ele>
        <time>2015-05-09T11:56:21Z</time>
      </trkpt>
      <trkpt lat="45.11348" lon="2.67175">
        <ele>1583.46</ele>
        <time>2015-05-09T11:56:36Z</time>
      </trkpt>
      <trkpt lat="45.11329" lon="2.67177">
        <ele>1582.33</ele>
        <time>2015-05-09T11:56:50Z</time>
      </trkpt>
      <trkpt lat="45.1131" lon="2.67181">
        <ele>1583.7</ele>
        <time>2015-05-09T11:57:07Z</time>
      </trkpt>
      <trkpt lat="45.11291" lon="2.67182">
        <ele>1583.08</ele>
        <time>2015-05-09T11:57:21Z</time>
      </trkpt>
      <trkpt lat="45.11273" lon="2.67184">
        <ele>1581.49</ele>
        <time>2015-05-09T11:57:51Z</time>
      </trkpt>
      <trkpt lat="45.11254" lon="2.67183">
        <ele>1581.51</ele>
        <time>2015-05-09T11:58:02Z</time>
      </trkpt>
      <trkpt lat="45.11235" lon="2.67181">
        <ele>1582.45</ele>
        <time>2015-05-09T11:58:15Z</time>
      </trkpt>
      <trkpt lat="45.11217" lon="2.67177">
        <ele>1581.47</ele>
        <time>2015-05-09T11:58:27Z</time>
      </trkpt>
      <trkpt lat="45.11198" lon="2.67174">
        <ele>1580.27</ele>
        <time>2015-05-09T11:58:40Z</time>
      </trkpt>
      <trkpt lat="45.11179" lon="2.67173">
        <ele>1580.33</ele>
        <time>2015-05-09T11:58:53Z</time>
      </trkpt>
      <trkpt lat="45.1116" lon="2.67173">
        <ele>1580.45</ele>
        <time>2015-05-09T11:59:06Z</time>
      </trkpt>
      <trkpt lat="45.11142" lon="2.67173">
        <ele>1578.47</ele>
        <time>2015-05-09T11:59:18Z</time>
      </trkpt>
      <trkpt lat="45.11122" lon="2.67174">
        <ele>1576.46</ele>
        <time>2015-05-09T11:59:31Z</time>
      </trkpt>
      <trkpt lat="45.11104" lon="2.67177">
        <ele>1575.46</ele>
        <time>2015-05-09T11:59:44Z</time>
      </trkpt>
      <trkpt lat="45.11085" lon="2.6718">
        <ele>1575.22</ele>
        <time>2015-05-09T11:59:56Z</time>
      </trkpt>
      <trkpt lat="45.11068" lon="2.67187">
        <ele>1574.46</ele>
        <time>2015-05-09T12:00:09Z</time>
      </trkpt>
      <trkpt lat="45.1105" lon="2.67195">
        <ele>1574.45</ele>
        <time>2015-05-09T12:00:21Z</time>
      </trkpt>
      <trkpt lat="45.11032" lon="2.67199">
        <ele>1573.95</ele>
        <time>2015-05-09T12:00:34Z</time>
      </trkpt>
      <trkpt lat="45.11016" lon="2.67189">
        <ele>1572.83</ele>
        <time>2015-05-09T12:00:47Z</time>
      </trkpt>
      <trkpt lat="45.10997" lon="2.67185">
        <ele>1571.46</ele>
        <time>2015-05-09T12:01:00Z</time>
      </trkpt>
      <trkpt lat="45.10977" lon="2.67184">
        <ele>1571.45</ele>
        <time>2015-05-09T12:01:13Z</time>
      </trkpt>
      <trkpt lat="45.10959" lon="2.67185">
        <ele>1571.45</ele>
        <time>2015-05-09T12:01:26Z</time>
      </trkpt>
      <trkpt lat="45.1094" lon="2.67184">
        <ele>1570.39</ele>
        <time>2015-05-09T12:01:38Z</time>
      </trkpt>
      <trkpt lat="45.10922" lon="2.67182">
        <ele>1570.45</ele>
        <time>2015-05-09T12:01:51Z</time>
      </trkpt>
      <trkpt lat="45.10904" lon="2.67172">
        <ele>1569.7</ele>
        <time>2015-05-09T12:02:06Z</time>
      </trkpt>
      <trkpt lat="45.10886" lon="2.67168">
        <ele>1569.5</ele>
        <time>2015-05-09T12:02:18Z</time>
      </trkpt>
      <trkpt lat="45.10868" lon="2.67161">
        <ele>1568.47</ele>
        <time>2015-05-09T12:02:31Z</time>
      </trkpt>
      <trkpt lat="45.1085" lon="2.67156">
        <ele>1568.33</ele>
        <time>2015-05-09T12:02:43Z</time>
      </trkpt>
      <trkpt lat="45.10832" lon="2.67148">
        <ele>1568.67</ele>
        <time>2015-05-09T12:02:56Z</time>
      </trkpt>
      <trkpt lat="45.10814" lon="2.67142">
        <ele>1566.46</ele>
        <time>2015-05-09T12:03:11Z</time>
      </trkpt>
      <trkpt lat="45.10796" lon="2.67136">
        <ele>1565.46</ele>
        <time>2015-05-09T12:03:25Z</time>
      </trkpt>
      <trkpt lat="45.10778" lon="2.67136">
        <ele>1564.46</ele>
        <time>2015-05-09T12:03:38Z</time>
      </trkpt>
      <trkpt lat="45.1076" lon="2.67139">
        <ele>1563.77</ele>
        <time>2015-05-09T12:03:51Z</time>
      </trkpt>
      <trkpt lat="45.1074" lon="2.67136">
        <ele>1563.45</ele>
        <time>2015-05-09T12:04:04Z</time>
      </trkpt>
      <trkpt lat="45.10724" lon="2.67122">
        <ele>1563.98</ele>
        <time>2015-05-09T12:04:18Z</time>
      </trkpt>
      <trkpt lat="45.1071" lon="2.67104">
        <ele>1563.45</ele>
        <time>2015-05-09T12:04:33Z</time>
      </trkpt>
      <trkpt lat="45.10696" lon="2.67087">
        <ele>1564.45</ele>
        <time>2015-05-09T12:04:47Z</time>
      </trkpt>
      <trkpt lat="45.1068" lon="2.67073">
        <ele>1564.02</ele>
        <time>2015-05-09T12:05:02Z</time>
      </trkpt>
      <trkpt lat="45.10665" lon="2.67056">
        <ele>1563.46</ele>
        <time>2015-05-09T12:05:16Z</time>
      </trkpt>
      <trkpt lat="45.10652" lon="2.67037">
        <ele>1561.52</ele>
        <time>2015-05-09T12:05:30Z</time>
      </trkpt>
      <trkpt lat="45.10637" lon="2.67021">
        <ele>1558.47</ele>
        <time>2015-05-09T12:05:45Z</time>
      </trkpt>
      <trkpt lat="45.10627" lon="2.66999">
        <ele>1557.59</ele>
        <time>2015-05-09T12:05:57Z</time>
      </trkpt>
      <trkpt lat="45.10617" lon="2.66977">
        <ele>1557.46</ele>
        <time>2015-05-09T12:06:10Z</time>
      </trkpt>
      <trkpt lat="45.10603" lon="2.66958">
        <ele>1557.99</ele>
        <time>2015-05-09T12:06:24Z</time>
      </trkpt>
      <trkpt lat="45.10586" lon="2.66944">
        <ele>1558.45</ele>
        <time>2015-05-09T12:06:38Z</time>
      </trkpt>
      <trkpt lat="45.10569" lon="2.66932">
        <ele>1556.99</ele>
        <time>2015-05-09T12:06:53Z</time>
      </trkpt>
      <trkpt lat="45.10554" lon="2.66917">
        <ele>1556.37</ele>
        <time>2015-05-09T12:07:06Z</time>
      </trkpt>
      <trkpt lat="45.10541" lon="2.66896">
        <ele>1555.24</ele>
        <time>2015-05-09T12:07:19Z</time>
      </trkpt>
      <trkpt lat="45.1053" lon="2.66877">
        <ele>1555.45</ele>
        <time>2015-05-09T12:07:32Z</time>
      </trkpt>
      <trkpt lat="45.10515" lon="2.66861">
        <ele>1554.47</ele>
        <time>2015-05-09T12:07:46Z</time>
      </trkpt>
      <trkpt lat="45.10501" lon="2.66844">
        <ele>1552.93</ele>
        <time>2015-05-09T12:08:00Z</time>
      </trkpt>
      <trkpt lat="45.1049" lon="2.66821">
        <ele>1553.86</ele>
        <time>2015-05-09T12:08:24Z</time>
      </trkpt>
      <trkpt lat="45.10484" lon="2.66797">
        <ele>1554.45</ele>
        <time>2015-05-09T12:08:37Z</time>
      </trkpt>
      <trkpt lat="45.10478" lon="2.66771">
        <ele>1554.45</ele>
        <time>2015-05-09T12:08:51Z</time>
      </trkpt>
      <trkpt lat="45.10474" lon="2.66746">
        <ele>1556.17</ele>
        <time>2015-05-09T12:09:04Z</time>
      </trkpt>
      <trkpt lat="45.1047" lon="2.6672">
        <ele>1557.39</ele>
        <time>2015-05-09T12:09:18Z</time>
      </trkpt>
      <trkpt lat="45.10469" lon="2.66694">
        <ele>1558.45</ele>
        <time>2015-05-09T12:09:33Z</time>
      </trkpt>
      <trkpt lat="45.10468" lon="2.66668">
        <ele>1557.7</ele>
        <time>2015-05-09T12:09:47Z</time>
      </trkpt>
      <trkpt lat="45.10482" lon="2.6665">
        <ele>1558.43</ele>
        <time>2015-05-09T12:10:01Z</time>
      </trkpt>
      <trkpt lat="45.10496" lon="2.66633">
        <ele>1557.24</ele>
        <time>2015-05-09T12:10:15Z</time>
      </trkpt>
      <trkpt lat="45.10495" lon="2.66607">
        <ele>1554.49</ele>
        <time>2015-05-09T12:10:29Z</time>
      </trkpt>
      <trkpt lat="45.10486" lon="2.66584">
        <ele>1552.49</ele>
        <time>2015-05-09T12:10:43Z</time>
      </trkpt>
      <trkpt lat="45.10483" lon="2.66558">
        <ele>1550.58</ele>
        <time>2015-05-09T12:10:57Z</time>
      </trkpt>
      <trkpt lat="45.10484" lon="2.66533">
        <ele>1549.46</ele>
        <time>2015-05-09T12:11:10Z</time>
      </trkpt>
      <trkpt lat="45.10475" lon="2.6651">
        <ele>1549.46</ele>
        <time>2015-05-09T12:11:25Z</time>
      </trkpt>
      <trkpt lat="45.10457" lon="2.665">
        <ele>1547.77</ele>
        <time>2015-05-09T12:11:39Z</time>
      </trkpt>
      <trkpt lat="45.10445" lon="2.66478">
        <ele>1545.46</ele>
        <time>2015-05-09T12:11:53Z</time>
      </trkpt>
      <trkpt lat="45.10441" lon="2.66452">
        <ele>1544.96</ele>
        <time>2015-05-09T12:12:07Z</time>
      </trkpt>
      <trkpt lat="45.10436" lon="2.66427">
        <ele>1543.47</ele>
        <time>2015-05-09T12:12:20Z</time>
      </trkpt>
      <trkpt lat="45.10432" lon="2.66401">
        <ele>1541.71</ele>
        <time>2015-05-09T12:12:34Z</time>
      </trkpt>
      <trkpt lat="45.10431" lon="2.66376">
        <ele>1540.46</ele>
        <time>2015-05-09T12:12:47Z</time>
      </trkpt>
      <trkpt lat="45.10432" lon="2.66349">
        <ele>1538.71</ele>
        <time>2015-05-09T12:13:01Z</time>
      </trkpt>
      <trkpt lat="45.10432" lon="2.66322">
        <ele>1537.46</ele>
        <time>2015-05-09T12:13:16Z</time>
      </trkpt>
      <trkpt lat="45.10437" lon="2.66296">
        <ele>1535.96</ele>
        <time>2015-05-09T12:13:30Z</time>
      </trkpt>
      <trkpt lat="45.1044" lon="2.6627">
        <ele>1534.52</ele>
        <time>2015-05-09T12:13:43Z</time>
      </trkpt>
      <trkpt lat="45.10443" lon="2.66243">
        <ele>1532.71</ele>
        <time>2015-05-09T12:13:57Z</time>
      </trkpt>
      <trkpt lat="45.10442" lon="2.66217">
        <ele>1532.02</ele>
        <time>2015-05-09T12:14:10Z</time>
      </trkpt>
      <trkpt lat="45.10437" lon="2.66191">
        <ele>1532.67</ele>
        <time>2015-05-09T12:14:33Z</time>
      </trkpt>
      <trkpt lat="45.10437" lon="2.66165">
        <ele>1533.45</ele>
        <time>2015-05-09T12:16:45Z</time>
      </trkpt>
      <trkpt lat="45.10442" lon="2.6614">
        <ele>1534.95</ele>
        <time>2015-05-09T12:17:02Z</time>
      </trkpt>
      <trkpt lat="45.10433" lon="2.66117">
        <ele>1538.67</ele>
        <time>2015-05-09T12:17:21Z</time>
      </trkpt>
      <trkpt lat="45.10427" lon="2.66093">
        <ele>1542.92</ele>
        <time>2015-05-09T12:17:41Z</time>
      </trkpt>
      <trkpt lat="45.10424" lon="2.66067">
        <ele>1546.39</ele>
        <time>2015-05-09T12:18:02Z</time>
      </trkpt>
      <trkpt lat="45.10417" lon="2.66044">
        <ele>1550.92</ele>
        <time>2015-05-09T12:18:24Z</time>
      </trkpt>
      <trkpt lat="45.10415" lon="2.66018">
        <ele>1554.33</ele>
        <time>2015-05-09T12:18:46Z</time>
      </trkpt>
      <trkpt lat="45.10409" lon="2.65993">
        <ele>1558.2</ele>
        <time>2015-05-09T12:19:14Z</time>
      </trkpt>
      <trkpt lat="45.10401" lon="2.6597">
        <ele>1560.45</ele>
        <time>2015-05-09T12:19:39Z</time>
      </trkpt>
      <trkpt lat="45.10393" lon="2.65946">
        <ele>1563.33</ele>
        <time>2015-05-09T12:20:07Z</time>
      </trkpt>
      <trkpt lat="45.10382" lon="2.65926">
        <ele>1567.2</ele>
        <time>2015-05-09T12:20:34Z</time>
      </trkpt>
      <trkpt lat="45.10379" lon="2.659">
        <ele>1571.42</ele>
        <time>2015-05-09T12:20:59Z</time>
      </trkpt>
      <trkpt lat="45.10363" lon="2.65888">
        <ele>1573.39</ele>
        <time>2015-05-09T12:21:20Z</time>
      </trkpt>
      <trkpt lat="45.10352" lon="2.65868">
        <ele>1575.94</ele>
        <time>2015-05-09T12:21:42Z</time>
      </trkpt>
      <trkpt lat="45.1034" lon="2.65848">
        <ele>1580.44</ele>
        <time>2015-05-09T12:22:14Z</time>
      </trkpt>
      <trkpt lat="45.10341" lon="2.65822">
        <ele>1582.57</ele>
        <time>2015-05-09T12:22:44Z</time>
      </trkpt>
      <trkpt lat="45.10337" lon="2.65796">
        <ele>1579.96</ele>
        <time>2015-05-09T12:23:08Z</time>
      </trkpt>
      <trkpt lat="45.10335" lon="2.65771">
        <ele>1578.46</ele>
        <time>2015-05-09T12:23:28Z</time>
      </trkpt>
      <trkpt lat="45.10328" lon="2.65747">
        <ele>1580.47</ele>
        <time>2015-05-09T12:23:49Z</time>
      </trkpt>
      <trkpt lat="45.10321" lon="2.65723">
        <ele>1578.59</ele>
        <time>2015-05-09T12:24:11Z</time>
      </trkpt>
      <trkpt lat="45.10311" lon="2.65701">
        <ele>1576.46</ele>
        <time>2015-05-09T12:24:28Z</time>
      </trkpt>
      <trkpt lat="45.10306" lon="2.65676">
        <ele>1577.39</ele>
        <time>2015-05-09T12:24:46Z</time>
      </trkpt>
      <trkpt lat="45.10302" lon="2.65651">
        <ele>1578.39</ele>
        <time>2015-05-09T12:25:05Z</time>
      </trkpt>
      <trkpt lat="45.10294" lon="2.65627">
        <ele>1582.33</ele>
        <time>2015-05-09T12:25:26Z</time>
      </trkpt>
      <trkpt lat="45.10288" lon="2.65602">
        <ele>1584.42</ele>
        <time>2015-05-09T12:25:47Z</time>
      </trkpt>
      <trkpt lat="45.1028" lon="2.65579">
        <ele>1588.19</ele>
        <time>2015-05-09T12:26:11Z</time>
      </trkpt>
      <trkpt lat="45.10274" lon="2.65554">
        <ele>1593.67</ele>
        <time>2015-05-09T12:26:38Z</time>
      </trkpt>
      <trkpt lat="45.10267" lon="2.6553">
        <ele>1598.39</ele>
        <time>2015-05-09T12:27:05Z</time>
      </trkpt>
      <trkpt lat="45.10263" lon="2.65505">
        <ele>1603.94</ele>
        <time>2015-05-09T12:27:34Z</time>
      </trkpt>
      <trkpt lat="45.10258" lon="2.65481">
        <ele>1610.33</ele>
        <time>2015-05-09T12:28:05Z</time>
      </trkpt>
      <trkpt lat="45.10256" lon="2.65456">
        <ele>1618.2</ele>
        <time>2015-05-09T12:28:48Z</time>
      </trkpt>
      <trkpt lat="45.10241" lon="2.65439">
        <ele>1625.46</ele>
        <time>2015-05-09T12:29:41Z</time>
      </trkpt>
      <trkpt lat="45.10233" lon="2.65416">
        <ele>1636.39</ele>
        <time>2015-05-09T12:30:44Z</time>
      </trkpt>
      <trkpt lat="45.1024" lon="2.65392">
        <ele>1642.45</ele>
        <time>2015-05-09T12:31:20Z</time>
      </trkpt>
      <trkpt lat="45.10222" lon="2.65387">
        <ele>1645.42</ele>
        <time>2015-05-09T12:34:42Z</time>
      </trkpt>
      <trkpt lat="45.10206" lon="2.65375">
        <ele>1646.41</ele>
        <time>2015-05-09T12:35:01Z</time>
      </trkpt>
      <trkpt lat="45.1019" lon="2.65362">
        <ele>1648.45</ele>
        <time>2015-05-09T12:35:20Z</time>
      </trkpt>
      <trkpt lat="45.10177" lon="2.65344">
        <ele>1650.39</ele>
        <time>2015-05-09T12:35:39Z</time>
      </trkpt>
      <trkpt lat="45.10163" lon="2.65327">
        <ele>1653.94</ele>
        <time>2015-05-09T12:36:00Z</time>
      </trkpt>
      <trkpt lat="45.10148" lon="2.65313">
        <ele>1656.2</ele>
        <time>2015-05-09T12:36:19Z</time>
      </trkpt>
      <trkpt lat="45.1013" lon="2.65302">
        <ele>1657.06</ele>
        <time>2015-05-09T12:36:36Z</time>
      </trkpt>
      <trkpt lat="45.10112" lon="2.65295">
        <ele>1658.95</ele>
        <time>2015-05-09T12:36:54Z</time>
      </trkpt>
      <trkpt lat="45.10096" lon="2.65283">
        <ele>1660.45</ele>
        <time>2015-05-09T12:37:13Z</time>
      </trkpt>
      <trkpt lat="45.10079" lon="2.65272">
        <ele>1662.45</ele>
        <time>2015-05-09T12:37:32Z</time>
      </trkpt>
      <trkpt lat="45.10065" lon="2.65254">
        <ele>1663.45</ele>
        <time>2015-05-09T12:37:51Z</time>
      </trkpt>
      <trkpt lat="45.1005" lon="2.65238">
        <ele>1664.45</ele>
        <time>2015-05-09T12:38:08Z</time>
      </trkpt>
      <trkpt lat="45.10036" lon="2.65221">
        <ele>1664.64</ele>
        <time>2015-05-09T12:38:35Z</time>
      </trkpt>
      <trkpt lat="45.10022" lon="2.65203">
        <ele>1665.95</ele>
        <time>2015-05-09T12:38:52Z</time>
      </trkpt>
      <trkpt lat="45.10012" lon="2.6518">
        <ele>1667.45</ele>
        <time>2015-05-09T12:39:09Z</time>
      </trkpt>
      <trkpt lat="45.10002" lon="2.65158">
        <ele>1668.58</ele>
        <time>2015-05-09T12:39:25Z</time>
      </trkpt>
      <trkpt lat="45.09994" lon="2.65135">
        <ele>1669.45</ele>
        <time>2015-05-09T12:39:41Z</time>
      </trkpt>
      <trkpt lat="45.09985" lon="2.65112">
        <ele>1671.43</ele>
        <time>2015-05-09T12:39:57Z</time>
      </trkpt>
      <trkpt lat="45.09973" lon="2.65093">
        <ele>1671.9</ele>
        <time>2015-05-09T12:40:15Z</time>
      </trkpt>
      <trkpt lat="45.0996" lon="2.65072">
        <ele>1673.45</ele>
        <time>2015-05-09T12:40:32Z</time>
      </trkpt>
      <trkpt lat="45.09949" lon="2.65052">
        <ele>1673.48</ele>
        <time>2015-05-09T12:40:48Z</time>
      </trkpt>
      <trkpt lat="45.09943" lon="2.65027">
        <ele>1673.45</ele>
        <time>2015-05-09T12:41:05Z</time>
      </trkpt>
      <trkpt lat="45.09937" lon="2.65002">
        <ele>1674.96</ele>
        <time>2015-05-09T12:41:21Z</time>
      </trkpt>
      <trkpt lat="45.09933" lon="2.64976">
        <ele>1673.96</ele>
        <time>2015-05-09T12:41:37Z</time>
      </trkpt>
      <trkpt lat="45.09922" lon="2.64955">
        <ele>1676.39</ele>
        <time>2015-05-09T12:41:56Z</time>
      </trkpt>
      <trkpt lat="45.09913" lon="2.64931">
        <ele>1678.35</ele>
        <time>2015-05-09T12:42:14Z</time>
      </trkpt>
      <trkpt lat="45.09904" lon="2.64908">
        <ele>1678.45</ele>
        <time>2015-05-09T12:42:31Z</time>
      </trkpt>
      <trkpt lat="45.09896" lon="2.64885">
        <ele>1677.46</ele>
        <time>2015-05-09T12:42:47Z</time>
      </trkpt>
      <trkpt lat="45.09887" lon="2.64863">
        <ele>1677.52</ele>
        <time>2015-05-09T12:43:03Z</time>
      </trkpt>
      <trkpt lat="45.09876" lon="2.6484">
        <ele>1678.45</ele>
        <time>2015-05-09T12:43:18Z</time>
      </trkpt>
      <trkpt lat="45.09863" lon="2.64822">
        <ele>1678.42</ele>
        <time>2015-05-09T12:43:34Z</time>
      </trkpt>
      <trkpt lat="45.09849" lon="2.64802">
        <ele>1679.33</ele>
        <time>2015-05-09T12:43:49Z</time>
      </trkpt>
      <trkpt lat="45.0984" lon="2.6478">
        <ele>1681.36</ele>
        <time>2015-05-09T12:44:07Z</time>
      </trkpt>
      <trkpt lat="45.09833" lon="2.64756">
        <ele>1681.45</ele>
        <time>2015-05-09T12:44:24Z</time>
      </trkpt>
      <trkpt lat="45.09826" lon="2.64732">
        <ele>1681.18</ele>
        <time>2015-05-09T12:44:43Z</time>
      </trkpt>
      <trkpt lat="45.09813" lon="2.64712">
        <ele>1683.42</ele>
        <time>2015-05-09T12:45:10Z</time>
      </trkpt>
      <trkpt lat="45.09803" lon="2.64691">
        <ele>1684.45</ele>
        <time>2015-05-09T12:45:28Z</time>
      </trkpt>
      <trkpt lat="45.09795" lon="2.64667">
        <ele>1686.25</ele>
        <time>2015-05-09T12:45:51Z</time>
      </trkpt>
      <trkpt lat="45.09786" lon="2.64645">
        <ele>1689.22</ele>
        <time>2015-05-09T12:46:11Z</time>
      </trkpt>
      <trkpt lat="45.09776" lon="2.64623">
        <ele>1694.31</ele>
        <time>2015-05-09T12:46:41Z</time>
      </trkpt>
      <trkpt lat="45.09767" lon="2.64601">
        <ele>1696.89</ele>
        <time>2015-05-09T12:47:01Z</time>
      </trkpt>
      <trkpt lat="45.0976" lon="2.64576">
        <ele>1697.33</ele>
        <time>2015-05-09T12:47:20Z</time>
      </trkpt>
      <trkpt lat="45.09742" lon="2.64583">
        <ele>1703.95</ele>
        <time>2015-05-09T12:48:27Z</time>
      </trkpt>
      <trkpt lat="45.09725" lon="2.64571">
        <ele>1707.93</ele>
        <time>2015-05-09T12:48:53Z</time>
      </trkpt>
      <trkpt lat="45.0971" lon="2.64556">
        <ele>1712.2</ele>
        <time>2015-05-09T12:49:13Z</time>
      </trkpt>
      <trkpt lat="45.09695" lon="2.6454">
        <ele>1717.31</ele>
        <time>2015-05-09T12:50:00Z</time>
      </trkpt>
      <trkpt lat="45.09681" lon="2.64524">
        <ele>1725.33</ele>
        <time>2015-05-09T12:50:35Z</time>
      </trkpt>
      <trkpt lat="45.09664" lon="2.64512">
        <ele>1732.89</ele>
        <time>2015-05-09T12:51:11Z</time>
      </trkpt>
      <trkpt lat="45.09653" lon="2.64492">
        <ele>1738.2</ele>
        <time>2015-05-09T12:51:44Z</time>
      </trkpt>
      <trkpt lat="45.09635" lon="2.64488">
        <ele>1740.58</ele>
        <time>2015-05-09T12:52:33Z</time>
      </trkpt>
      <trkpt lat="45.0962" lon="2.64471">
        <ele>1740.74</ele>
        <time>2015-05-09T12:57:56Z</time>
      </trkpt>
      <trkpt lat="45.09602" lon="2.64472">
        <ele>1738.71</ele>
        <time>2015-05-09T12:58:11Z</time>
      </trkpt>
      <trkpt lat="45.09583" lon="2.6447">
        <ele>1736.58</ele>
        <time>2015-05-09T12:58:27Z</time>
      </trkpt>
      <trkpt lat="45.09565" lon="2.64466">
        <ele>1733.71</ele>
        <time>2015-05-09T12:58:42Z</time>
      </trkpt>
      <trkpt lat="45.09547" lon="2.64458">
        <ele>1730.96</ele>
        <time>2015-05-09T12:58:57Z</time>
      </trkpt>
      <trkpt lat="45.0953" lon="2.64447">
        <ele>1730.45</ele>
        <time>2015-05-09T12:59:12Z</time>
      </trkpt>
      <trkpt lat="45.09513" lon="2.64436">
        <ele>1727.97</ele>
        <time>2015-05-09T12:59:27Z</time>
      </trkpt>
      <trkpt lat="45.09497" lon="2.64424">
        <ele>1724.52</ele>
        <time>2015-05-09T12:59:42Z</time>
      </trkpt>
      <trkpt lat="45.09481" lon="2.6441">
        <ele>1720.47</ele>
        <time>2015-05-09T12:59:57Z</time>
      </trkpt>
      <trkpt lat="45.09469" lon="2.6439">
        <ele>1717.53</ele>
        <time>2015-05-09T13:00:14Z</time>
      </trkpt>
      <trkpt lat="45.09457" lon="2.6437">
        <ele>1713.1</ele>
        <time>2015-05-09T13:00:30Z</time>
      </trkpt>
      <trkpt lat="45.0944" lon="2.64359">
        <ele>1708.59</ele>
        <time>2015-05-09T13:00:44Z</time>
      </trkpt>
      <trkpt lat="45.09422" lon="2.6435">
        <ele>1705.46</ele>
        <time>2015-05-09T13:01:10Z</time>
      </trkpt>
      <trkpt lat="45.09404" lon="2.64343">
        <ele>1703.96</ele>
        <time>2015-05-09T13:01:24Z</time>
      </trkpt>
      <trkpt lat="45.09387" lon="2.64334">
        <ele>1702.47</ele>
        <time>2015-05-09T13:01:38Z</time>
      </trkpt>
      <trkpt lat="45.09368" lon="2.64334">
        <ele>1703.39</ele>
        <time>2015-05-09T13:01:53Z</time>
      </trkpt>
      <trkpt lat="45.09353" lon="2.64317">
        <ele>1702.7</ele>
        <time>2015-05-09T13:02:08Z</time>
      </trkpt>
      <trkpt lat="45.09336" lon="2.64306">
        <ele>1701.69</ele>
        <time>2015-05-09T13:02:22Z</time>
      </trkpt>
      <trkpt lat="45.09319" lon="2.64301">
        <ele>1700.52</ele>
        <time>2015-05-09T13:02:36Z</time>
      </trkpt>
      <trkpt lat="45.09301" lon="2.64292">
        <ele>1699.49</ele>
        <time>2015-05-09T13:02:50Z</time>
      </trkpt>
      <trkpt lat="45.09284" lon="2.64282">
        <ele>1697.96</ele>
        <time>2015-05-09T13:03:04Z</time>
      </trkpt>
      <trkpt lat="45.09267" lon="2.6427">
        <ele>1696.21</ele>
        <time>2015-05-09T13:03:18Z</time>
      </trkpt>
      <trkpt lat="45.09249" lon="2.64267">
        <ele>1694.58</ele>
        <time>2015-05-09T13:03:32Z</time>
      </trkpt>
      <trkpt lat="45.09231" lon="2.64266">
        <ele>1693.58</ele>
        <time>2015-05-09T13:03:46Z</time>
      </trkpt>
      <trkpt lat="45.09212" lon="2.64264">
        <ele>1691.52</ele>
        <time>2015-05-09T13:04:00Z</time>
      </trkpt>
      <trkpt lat="45.09194" lon="2.64265">
        <ele>1688.52</ele>
        <time>2015-05-09T13:04:15Z</time>
      </trkpt>
      <trkpt lat="45.09177" lon="2.64273">
        <ele>1684.49</ele>
        <time>2015-05-09T13:04:32Z</time>
      </trkpt>
      <trkpt lat="45.09159" lon="2.64275">
        <ele>1677.12</ele>
        <time>2015-05-09T13:04:49Z</time>
      </trkpt>
      <trkpt lat="45.09141" lon="2.64282">
        <ele>1670.72</ele>
        <time>2015-05-09T13:05:08Z</time>
      </trkpt>
      <trkpt lat="45.09124" lon="2.64293">
        <ele>1662.74</ele>
        <time>2015-05-09T13:05:34Z</time>
      </trkpt>
      <trkpt lat="45.09108" lon="2.64303">
        <ele>1656.1</ele>
        <time>2015-05-09T13:05:54Z</time>
      </trkpt>
      <trkpt lat="45.09092" lon="2.64318">
        <ele>1648.71</ele>
        <time>2015-05-09T13:07:29Z</time>
      </trkpt>
      <trkpt lat="45.09077" lon="2.64334">
        <ele>1642.54</ele>
        <time>2015-05-09T13:07:52Z</time>
      </trkpt>
      <trkpt lat="45.0906" lon="2.64344">
        <ele>1638.71</ele>
        <time>2015-05-09T13:08:09Z</time>
      </trkpt>
      <trkpt lat="45.09045" lon="2.64358">
        <ele>1634.52</ele>
        <time>2015-05-09T13:08:28Z</time>
      </trkpt>
      <trkpt lat="45.0903" lon="2.64373">
        <ele>1628.47</ele>
        <time>2015-05-09T13:08:50Z</time>
      </trkpt>
      <trkpt lat="45.09014" lon="2.64387">
        <ele>1624.99</ele>
        <time>2015-05-09T13:09:06Z</time>
      </trkpt>
      <trkpt lat="45.08997" lon="2.644">
        <ele>1620.99</ele>
        <time>2015-05-09T13:09:21Z</time>
      </trkpt>
      <trkpt lat="45.0898" lon="2.64408">
        <ele>1619.46</ele>
        <time>2015-05-09T13:09:35Z</time>
      </trkpt>
      <trkpt lat="45.08961" lon="2.64412">
        <ele>1620.45</ele>
        <time>2015-05-09T13:09:52Z</time>
      </trkpt>
      <trkpt lat="45.08942" lon="2.64415">
        <ele>1619.49</ele>
        <time>2015-05-09T13:10:09Z</time>
      </trkpt>
      <trkpt lat="45.08923" lon="2.64417">
        <ele>1616.96</ele>
        <time>2015-05-09T13:10:25Z</time>
      </trkpt>
      <trkpt lat="45.08904" lon="2.64414">
        <ele>1613.72</ele>
        <time>2015-05-09T13:10:44Z</time>
      </trkpt>
      <trkpt lat="45.08888" lon="2.64403">
        <ele>1602.47</ele>
        <time>2015-05-09T13:11:31Z</time>
      </trkpt>
      <trkpt lat="45.08883" lon="2.64379">
        <ele>1595.61</ele>
        <time>2015-05-09T13:11:59Z</time>
      </trkpt>
      <trkpt lat="45.08865" lon="2.64373">
        <ele>1583.52</ele>
        <time>2015-05-09T13:12:44Z</time>
      </trkpt>
      <trkpt lat="45.08847" lon="2.6438">
        <ele>1576.98</ele>
        <time>2015-05-09T13:13:04Z</time>
      </trkpt>
      <trkpt lat="45.0883" lon="2.64387">
        <ele>1571.71</ele>
        <time>2015-05-09T13:13:21Z</time>
      </trkpt>
      <trkpt lat="45.08812" lon="2.64395">
        <ele>1564.59</ele>
        <time>2015-05-09T13:13:46Z</time>
      </trkpt>
      <trkpt lat="45.08794" lon="2.64397">
        <ele>1558.74</ele>
        <time>2015-05-09T13:14:08Z</time>
      </trkpt>
      <trkpt lat="45.08776" lon="2.644">
        <ele>1553.03</ele>
        <time>2015-05-09T13:14:24Z</time>
      </trkpt>
      <trkpt lat="45.08758" lon="2.64408">
        <ele>1549.71</ele>
        <time>2015-05-09T13:14:52Z</time>
      </trkpt>
      <trkpt lat="45.0874" lon="2.64416">
        <ele>1547.58</ele>
        <time>2015-05-09T13:15:28Z</time>
      </trkpt>
      <trkpt lat="45.08722" lon="2.64426">
        <ele>1543.99</ele>
        <time>2015-05-09T13:15:44Z</time>
      </trkpt>
      <trkpt lat="45.08704" lon="2.64433">
        <ele>1542.46</ele>
        <time>2015-05-09T13:16:00Z</time>
      </trkpt>
      <trkpt lat="45.08686" lon="2.64443">
        <ele>1541.7</ele>
        <time>2015-05-09T13:16:15Z</time>
      </trkpt>
      <trkpt lat="45.08669" lon="2.64454">
        <ele>1541.45</ele>
        <time>2015-05-09T13:16:30Z</time>
      </trkpt>
      <trkpt lat="45.08651" lon="2.64457">
        <ele>1540.47</ele>
        <time>2015-05-09T13:16:45Z</time>
      </trkpt>
      <trkpt lat="45.08632" lon="2.64458">
        <ele>1541.45</ele>
        <time>2015-05-09T13:17:02Z</time>
      </trkpt>
      <trkpt lat="45.08613" lon="2.64452">
        <ele>1544.2</ele>
        <time>2015-05-09T13:17:21Z</time>
      </trkpt>
      <trkpt lat="45.08595" lon="2.64445">
        <ele>1545.34</ele>
        <time>2015-05-09T13:17:39Z</time>
      </trkpt>
      <trkpt lat="45.08578" lon="2.64435">
        <ele>1547.45</ele>
        <time>2015-05-09T13:17:57Z</time>
      </trkpt>
      <trkpt lat="45.08562" lon="2.64421">
        <ele>1550.33</ele>
        <time>2015-05-09T13:18:17Z</time>
      </trkpt>
      <trkpt lat="45.08552" lon="2.64399">
        <ele>1551.45</ele>
        <time>2015-05-09T13:18:54Z</time>
      </trkpt>
      <trkpt lat="45.08539" lon="2.6438">
        <ele>1553.33</ele>
        <time>2015-05-09T13:19:10Z</time>
      </trkpt>
      <trkpt lat="45.08526" lon="2.6436">
        <ele>1553.45</ele>
        <time>2015-05-09T13:19:27Z</time>
      </trkpt>
      <trkpt lat="45.08512" lon="2.64343">
        <ele>1555.36</ele>
        <time>2015-05-09T13:19:43Z</time>
      </trkpt>
      <trkpt lat="45.08501" lon="2.64322">
        <ele>1556.58</ele>
        <time>2015-05-09T13:20:00Z</time>
      </trkpt>
      <trkpt lat="45.08488" lon="2.64301">
        <ele>1557.45</ele>
        <time>2015-05-09T13:20:16Z</time>
      </trkpt>
      <trkpt lat="45.08476" lon="2.64282">
        <ele>1558.39</ele>
        <time>2015-05-09T13:20:32Z</time>
      </trkpt>
      <trkpt lat="45.08463" lon="2.64262">
        <ele>1559.42</ele>
        <time>2015-05-09T13:20:49Z</time>
      </trkpt>
      <trkpt lat="45.08451" lon="2.64243">
        <ele>1561.2</ele>
        <time>2015-05-09T13:21:06Z</time>
      </trkpt>
      <trkpt lat="45.08439" lon="2.64224">
        <ele>1562.45</ele>
        <time>2015-05-09T13:21:24Z</time>
      </trkpt>
      <trkpt lat="45.08427" lon="2.64203">
        <ele>1564.92</ele>
        <time>2015-05-09T13:21:43Z</time>
      </trkpt>
      <trkpt lat="45.08418" lon="2.64181">
        <ele>1566.46</ele>
        <time>2015-05-09T13:22:11Z</time>
      </trkpt>
      <trkpt lat="45.08411" lon="2.64157">
        <ele>1568.45</ele>
        <time>2015-05-09T13:22:27Z</time>
      </trkpt>
      <trkpt lat="45.08404" lon="2.64133">
        <ele>1568.95</ele>
        <time>2015-05-09T13:22:43Z</time>
      </trkpt>
      <trkpt lat="45.084" lon="2.64108">
        <ele>1571.45</ele>
        <time>2015-05-09T13:23:00Z</time>
      </trkpt>
      <trkpt lat="45.08392" lon="2.64083">
        <ele>1572.95</ele>
        <time>2015-05-09T13:23:30Z</time>
      </trkpt>
      <trkpt lat="45.08383" lon="2.64061">
        <ele>1575.95</ele>
        <time>2015-05-09T13:23:53Z</time>
      </trkpt>
      <trkpt lat="45.08373" lon="2.64039">
        <ele>1578.2</ele>
        <time>2015-05-09T13:24:14Z</time>
      </trkpt>
      <trkpt lat="45.08364" lon="2.64016">
        <ele>1582.2</ele>
        <time>2015-05-09T13:24:34Z</time>
      </trkpt>
      <trkpt lat="45.08357" lon="2.63993">
        <ele>1583.45</ele>
        <time>2015-05-09T13:24:53Z</time>
      </trkpt>
      <trkpt lat="45.08347" lon="2.6397">
        <ele>1582.47</ele>
        <time>2015-05-09T13:25:15Z</time>
      </trkpt>
      <trkpt lat="45.08337" lon="2.63949">
        <ele>1584.45</ele>
        <time>2015-05-09T13:25:36Z</time>
      </trkpt>
      <trkpt lat="45.0833" lon="2.63924">
        <ele>1586.42</ele>
        <time>2015-05-09T13:25:56Z</time>
      </trkpt>
      <trkpt lat="45.08322" lon="2.63901">
        <ele>1589.42</ele>
        <time>2015-05-09T13:26:35Z</time>
      </trkpt>
      <trkpt lat="45.08308" lon="2.63885">
        <ele>1591.39</ele>
        <time>2015-05-09T13:26:53Z</time>
      </trkpt>
      <trkpt lat="45.08293" lon="2.63867">
        <ele>1592.33</ele>
        <time>2015-05-09T13:27:11Z</time>
      </trkpt>
      <trkpt lat="45.08283" lon="2.63845">
        <ele>1591.46</ele>
        <time>2015-05-09T13:28:12Z</time>
      </trkpt>
      <trkpt lat="45.08272" lon="2.63825">
        <ele>1590.46</ele>
        <time>2015-05-09T13:28:29Z</time>
      </trkpt>
      <trkpt lat="45.0826" lon="2.63805">
        <ele>1591.45</ele>
        <time>2015-05-09T13:28:46Z</time>
      </trkpt>
      <trkpt lat="45.08252" lon="2.63781">
        <ele>1591.95</ele>
        <time>2015-05-09T13:29:07Z</time>
      </trkpt>
      <trkpt lat="45.08238" lon="2.63766">
        <ele>1588.72</ele>
        <time>2015-05-09T13:29:36Z</time>
      </trkpt>
      <trkpt lat="45.08226" lon="2.63746">
        <ele>1587.46</ele>
        <time>2015-05-09T13:30:09Z</time>
      </trkpt>
      <trkpt lat="45.08217" lon="2.63723">
        <ele>1582.6</ele>
        <time>2015-05-09T13:30:31Z</time>
      </trkpt>
      <trkpt lat="45.08203" lon="2.63705">
        <ele>1579.58</ele>
        <time>2015-05-09T13:30:48Z</time>
      </trkpt>
      <trkpt lat="45.08198" lon="2.6368">
        <ele>1577</ele>
        <time>2015-05-09T13:31:09Z</time>
      </trkpt>
      <trkpt lat="45.08195" lon="2.63653">
        <ele>1574.47</ele>
        <time>2015-05-09T13:31:27Z</time>
      </trkpt>
      <trkpt lat="45.08191" lon="2.63628">
        <ele>1572.58</ele>
        <time>2015-05-09T13:31:44Z</time>
      </trkpt>
      <trkpt lat="45.08185" lon="2.63603">
        <ele>1566.49</ele>
        <time>2015-05-09T13:32:31Z</time>
      </trkpt>
      <trkpt lat="45.08192" lon="2.63579">
        <ele>1564.92</ele>
        <time>2015-05-09T13:34:14Z</time>
      </trkpt>
      <trkpt lat="45.08189" lon="2.63553">
        <ele>1559.99</ele>
        <time>2015-05-09T13:34:39Z</time>
      </trkpt>
      <trkpt lat="45.08184" lon="2.63529">
        <ele>1561.79</ele>
        <time>2015-05-09T13:35:15Z</time>
      </trkpt>
      <trkpt lat="45.08179" lon="2.63504">
        <ele>1559.46</ele>
        <time>2015-05-09T13:35:42Z</time>
      </trkpt>
      <trkpt lat="45.08162" lon="2.63493">
        <ele>1564.45</ele>
        <time>2015-05-09T13:36:27Z</time>
      </trkpt>
      <trkpt lat="45.08145" lon="2.63481">
        <ele>1566.44</ele>
        <time>2015-05-09T13:36:46Z</time>
      </trkpt>
      <trkpt lat="45.08132" lon="2.63462">
        <ele>1569.45</ele>
        <time>2015-05-09T13:37:04Z</time>
      </trkpt>
      <trkpt lat="45.0812" lon="2.63442">
        <ele>1568.52</ele>
        <time>2015-05-09T13:37:21Z</time>
      </trkpt>
      <trkpt lat="45.08107" lon="2.63423">
        <ele>1569.45</ele>
        <time>2015-05-09T13:37:37Z</time>
      </trkpt>
      <trkpt lat="45.08094" lon="2.63402">
        <ele>1568.46</ele>
        <time>2015-05-09T13:37:52Z</time>
      </trkpt>
      <trkpt lat="45.0808" lon="2.63385">
        <ele>1569.44</ele>
        <time>2015-05-09T13:38:08Z</time>
      </trkpt>
      <trkpt lat="45.08065" lon="2.63372">
        <ele>1570.45</ele>
        <time>2015-05-09T13:38:23Z</time>
      </trkpt>
      <trkpt lat="45.0805" lon="2.63357">
        <ele>1571.44</ele>
        <time>2015-05-09T13:38:40Z</time>
      </trkpt>
      <trkpt lat="45.08034" lon="2.63342">
        <ele>1572.45</ele>
        <time>2015-05-09T13:38:56Z</time>
      </trkpt>
      <trkpt lat="45.08018" lon="2.63327">
        <ele>1574.44</ele>
        <time>2015-05-09T13:39:18Z</time>
      </trkpt>
      <trkpt lat="45.08006" lon="2.63308">
        <ele>1575.47</ele>
        <time>2015-05-09T13:39:36Z</time>
      </trkpt>
      <trkpt lat="45.07989" lon="2.63294">
        <ele>1575.46</ele>
        <time>2015-05-09T13:39:56Z</time>
      </trkpt>
      <trkpt lat="45.07974" lon="2.63277">
        <ele>1574.46</ele>
        <time>2015-05-09T13:40:13Z</time>
      </trkpt>
      <trkpt lat="45.07961" lon="2.63258">
        <ele>1575.58</ele>
        <time>2015-05-09T13:40:32Z</time>
      </trkpt>
      <trkpt lat="45.07952" lon="2.63235">
        <ele>1573.52</ele>
        <time>2015-05-09T13:41:00Z</time>
      </trkpt>
      <trkpt lat="45.07944" lon="2.63212">
        <ele>1569.5</ele>
        <time>2015-05-09T13:41:19Z</time>
      </trkpt>
      <trkpt lat="45.07937" lon="2.63188">
        <ele>1565.47</ele>
        <time>2015-05-09T13:41:51Z</time>
      </trkpt>
      <trkpt lat="45.07931" lon="2.63164">
        <ele>1559.49</ele>
        <time>2015-05-09T13:42:22Z</time>
      </trkpt>
      <trkpt lat="45.07918" lon="2.63144">
        <ele>1556.96</ele>
        <time>2015-05-09T13:42:38Z</time>
      </trkpt>
      <trkpt lat="45.07908" lon="2.63122">
        <ele>1558.45</ele>
        <time>2015-05-09T13:43:00Z</time>
      </trkpt>
      <trkpt lat="45.07898" lon="2.631">
        <ele>1556.58</ele>
        <time>2015-05-09T13:43:17Z</time>
      </trkpt>
      <trkpt lat="45.07888" lon="2.63078">
        <ele>1557.45</ele>
        <time>2015-05-09T13:43:32Z</time>
      </trkpt>
      <trkpt lat="45.07881" lon="2.63054">
        <ele>1556.46</ele>
        <time>2015-05-09T13:43:54Z</time>
      </trkpt>
      <trkpt lat="45.07876" lon="2.63028">
        <ele>1555.44</ele>
        <time>2015-05-09T13:44:19Z</time>
      </trkpt>
      <trkpt lat="45.07866" lon="2.63007">
        <ele>1558.55</ele>
        <time>2015-05-09T13:44:48Z</time>
      </trkpt>
      <trkpt lat="45.07856" lon="2.62986">
        <ele>1556.58</ele>
        <time>2015-05-09T13:45:03Z</time>
      </trkpt>
      <trkpt lat="45.07847" lon="2.62964">
        <ele>1555.47</ele>
        <time>2015-05-09T13:45:18Z</time>
      </trkpt>
      <trkpt lat="45.07838" lon="2.62941">
        <ele>1554.46</ele>
        <time>2015-05-09T13:45:33Z</time>
      </trkpt>
      <trkpt lat="45.07834" lon="2.62915">
        <ele>1552.46</ele>
        <time>2015-05-09T13:45:48Z</time>
      </trkpt>
      <trkpt lat="45.07833" lon="2.6289">
        <ele>1549.02</ele>
        <time>2015-05-09T13:46:24Z</time>
      </trkpt>
      <trkpt lat="45.07839" lon="2.62865">
        <ele>1545.6</ele>
        <time>2015-05-09T13:46:41Z</time>
      </trkpt>
      <trkpt lat="45.07833" lon="2.6284">
        <ele>1539.99</ele>
        <time>2015-05-09T13:47:07Z</time>
      </trkpt>
      <trkpt lat="45.07826" lon="2.62816">
        <ele>1534.77</ele>
        <time>2015-05-09T13:47:27Z</time>
      </trkpt>
      <trkpt lat="45.07819" lon="2.62792">
        <ele>1531.71</ele>
        <time>2015-05-09T13:47:42Z</time>
      </trkpt>
      <trkpt lat="45.07813" lon="2.62766">
        <ele>1528.47</ele>
        <time>2015-05-09T13:47:58Z</time>
      </trkpt>
      <trkpt lat="45.07807" lon="2.62741">
        <ele>1525.49</ele>
        <time>2015-05-09T13:48:13Z</time>
      </trkpt>
      <trkpt lat="45.07801" lon="2.62717">
        <ele>1522.71</ele>
        <time>2015-05-09T13:48:30Z</time>
      </trkpt>
      <trkpt lat="45.07793" lon="2.62693">
        <ele>1518.52</ele>
        <time>2015-05-09T13:48:47Z</time>
      </trkpt>
      <trkpt lat="45.07786" lon="2.62669">
        <ele>1511.59</ele>
        <time>2015-05-09T13:49:12Z</time>
      </trkpt>
      <trkpt lat="45.07777" lon="2.62645">
        <ele>1505.03</ele>
        <time>2015-05-09T13:49:29Z</time>
      </trkpt>
      <trkpt lat="45.07771" lon="2.62619">
        <ele>1499.74</ele>
        <time>2015-05-09T13:49:46Z</time>
      </trkpt>
      <trkpt lat="45.07769" lon="2.62593">
        <ele>1497.58</ele>
        <time>2015-05-09T13:50:02Z</time>
      </trkpt>
      <trkpt lat="45.07762" lon="2.62569">
        <ele>1498.45</ele>
        <time>2015-05-09T13:50:20Z</time>
      </trkpt>
      <trkpt lat="45.07755" lon="2.62545">
        <ele>1502.31</ele>
        <time>2015-05-09T13:50:39Z</time>
      </trkpt>
      <trkpt lat="45.07747" lon="2.62522">
        <ele>1505.39</ele>
        <time>2015-05-09T13:51:02Z</time>
      </trkpt>
      <trkpt lat="45.07746" lon="2.62518">
        <ele>1498.45</ele>
        <time>2015-05-09T14:04:43Z</time>
      </trkpt>
      <trkpt lat="45.07756" lon="2.62497">
        <ele>1500.47</ele>
        <time>2015-05-09T14:08:38Z</time>
      </trkpt>
      <trkpt lat="45.07759" lon="2.6247">
        <ele>1501.93</ele>
        <time>2015-05-09T14:09:13Z</time>
      </trkpt>
      <trkpt lat="45.07758" lon="2.62444">
        <ele>1503.61</ele>
        <time>2015-05-09T14:09:30Z</time>
      </trkpt>
      <trkpt lat="45.07747" lon="2.62423">
        <ele>1506.83</ele>
        <time>2015-05-09T14:09:50Z</time>
      </trkpt>
      <trkpt lat="45.07735" lon="2.62402">
        <ele>1513.2</ele>
        <time>2015-05-09T14:10:12Z</time>
      </trkpt>
      <trkpt lat="45.07727" lon="2.62378">
        <ele>1515.39</ele>
        <time>2015-05-09T14:10:32Z</time>
      </trkpt>
      <trkpt lat="45.07716" lon="2.62357">
        <ele>1519.89</ele>
        <time>2015-05-09T14:10:52Z</time>
      </trkpt>
      <trkpt lat="45.07712" lon="2.62331">
        <ele>1517.63</ele>
        <time>2015-05-09T14:11:10Z</time>
      </trkpt>
      <trkpt lat="45.07704" lon="2.62308">
        <ele>1513.49</ele>
        <time>2015-05-09T14:11:27Z</time>
      </trkpt>
      <trkpt lat="45.0769" lon="2.62291">
        <ele>1511.58</ele>
        <time>2015-05-09T14:11:42Z</time>
      </trkpt>
      <trkpt lat="45.07677" lon="2.62273">
        <ele>1506.5</ele>
        <time>2015-05-09T14:12:24Z</time>
      </trkpt>
      <trkpt lat="45.07667" lon="2.62252">
        <ele>1501.47</ele>
        <time>2015-05-09T14:12:57Z</time>
      </trkpt>
      <trkpt lat="45.07667" lon="2.62225">
        <ele>1501.7</ele>
        <time>2015-05-09T14:13:21Z</time>
      </trkpt>
      <trkpt lat="45.0767" lon="2.62199">
        <ele>1492.66</ele>
        <time>2015-05-09T14:13:43Z</time>
      </trkpt>
      <trkpt lat="45.07667" lon="2.62174">
        <ele>1488.96</ele>
        <time>2015-05-09T14:13:59Z</time>
      </trkpt>
      <trkpt lat="45.07663" lon="2.62148">
        <ele>1484.23</ele>
        <time>2015-05-09T14:14:15Z</time>
      </trkpt>
      <trkpt lat="45.07666" lon="2.62121">
        <ele>1479.6</ele>
        <time>2015-05-09T14:14:30Z</time>
      </trkpt>
      <trkpt lat="45.07663" lon="2.62095">
        <ele>1474.65</ele>
        <time>2015-05-09T14:14:44Z</time>
      </trkpt>
      <trkpt lat="45.0767" lon="2.62071">
        <ele>1471.45</ele>
        <time>2015-05-09T14:15:11Z</time>
      </trkpt>
      <trkpt lat="45.07671" lon="2.62045">
        <ele>1468.03</ele>
        <time>2015-05-09T14:15:24Z</time>
      </trkpt>
      <trkpt lat="45.07673" lon="2.62019">
        <ele>1466.49</ele>
        <time>2015-05-09T14:16:15Z</time>
      </trkpt>
      <trkpt lat="45.07677" lon="2.61994">
        <ele>1462.62</ele>
        <time>2015-05-09T14:16:28Z</time>
      </trkpt>
      <trkpt lat="45.07684" lon="2.61969">
        <ele>1455.75</ele>
        <time>2015-05-09T14:16:42Z</time>
      </trkpt>
      <trkpt lat="45.0769" lon="2.61943">
        <ele>1452.49</ele>
        <time>2015-05-09T14:16:56Z</time>
      </trkpt>
      <trkpt lat="45.07696" lon="2.61919">
        <ele>1447.98</ele>
        <time>2015-05-09T14:17:10Z</time>
      </trkpt>
      <trkpt lat="45.07706" lon="2.61896">
        <ele>1444.48</ele>
        <time>2015-05-09T14:17:26Z</time>
      </trkpt>
      <trkpt lat="45.07712" lon="2.61871">
        <ele>1445.07</ele>
        <time>2015-05-09T14:17:39Z</time>
      </trkpt>
      <trkpt lat="45.07722" lon="2.61849">
        <ele>1443.08</ele>
        <time>2015-05-09T14:17:53Z</time>
      </trkpt>
      <trkpt lat="45.07735" lon="2.61807">
        <ele>1441.45</ele>
        <time>2015-05-09T14:18:20Z</time>
      </trkpt>
      <trkpt lat="45.07743" lon="2.61784">
        <ele>1440.2</ele>
        <time>2015-05-09T14:18:44Z</time>
      </trkpt>
      <trkpt lat="45.07739" lon="2.6176">
        <ele>1434.04</ele>
        <time>2015-05-09T14:19:02Z</time>
      </trkpt>
      <trkpt lat="45.07722" lon="2.61751">
        <ele>1426.69</ele>
        <time>2015-05-09T14:19:23Z</time>
      </trkpt>
      <trkpt lat="45.07708" lon="2.61734">
        <ele>1424.13</ele>
        <time>2015-05-09T14:19:42Z</time>
      </trkpt>
      <trkpt lat="45.07696" lon="2.61713">
        <ele>1421.61</ele>
        <time>2015-05-09T14:19:56Z</time>
      </trkpt>
      <trkpt lat="45.07683" lon="2.61691">
        <ele>1415.15</ele>
        <time>2015-05-09T14:20:12Z</time>
      </trkpt>
      <trkpt lat="45.07679" lon="2.61665">
        <ele>1413.61</ele>
        <time>2015-05-09T14:20:28Z</time>
      </trkpt>
      <trkpt lat="45.07679" lon="2.61639">
        <ele>1410.6</ele>
        <time>2015-05-09T14:20:38Z</time>
      </trkpt>
      <trkpt lat="45.07682" lon="2.61612">
        <ele>1401.56</ele>
        <time>2015-05-09T14:20:57Z</time>
      </trkpt>
      <trkpt lat="45.07675" lon="2.61588">
        <ele>1400.15</ele>
        <time>2015-05-09T14:21:11Z</time>
      </trkpt>
      <trkpt lat="45.07667" lon="2.61563">
        <ele>1396.47</ele>
        <time>2015-05-09T14:21:25Z</time>
      </trkpt>
      <trkpt lat="45.07655" lon="2.61541">
        <ele>1399.38</ele>
        <time>2015-05-09T14:21:36Z</time>
      </trkpt>
      <trkpt lat="45.07643" lon="2.6152">
        <ele>1389.43</ele>
        <time>2015-05-09T14:21:55Z</time>
      </trkpt>
      <trkpt lat="45.07635" lon="2.61495">
        <ele>1382.03</ele>
        <time>2015-05-09T14:22:12Z</time>
      </trkpt>
      <trkpt lat="45.07631" lon="2.6147">
        <ele>1377.49</ele>
        <time>2015-05-09T14:22:27Z</time>
      </trkpt>
      <trkpt lat="45.07629" lon="2.61443">
        <ele>1372.62</ele>
        <time>2015-05-09T14:22:41Z</time>
      </trkpt>
      <trkpt lat="45.07625" lon="2.61418">
        <ele>1368.72</ele>
        <time>2015-05-09T14:22:58Z</time>
      </trkpt>
      <trkpt lat="45.07624" lon="2.61392">
        <ele>1364.96</ele>
        <time>2015-05-09T14:23:18Z</time>
      </trkpt>
      <trkpt lat="45.0762" lon="2.61381">
        <ele>1362.45</ele>
        <time>2015-05-09T14:23:22Z</time>
      </trkpt>
      <trkpt lat="45.07616" lon="2.61354">
        <ele>1359.72</ele>
        <time>2015-05-09T14:23:39Z</time>
      </trkpt>
      <trkpt lat="45.07621" lon="2.61326">
        <ele>1356.96</ele>
        <time>2015-05-09T14:23:53Z</time>
      </trkpt>
      <trkpt lat="45.07614" lon="2.61301">
        <ele>1355.46</ele>
        <time>2015-05-09T14:24:10Z</time>
      </trkpt>
      <trkpt lat="45.07601" lon="2.61283">
        <ele>1353.94</ele>
        <time>2015-05-09T14:24:24Z</time>
      </trkpt>
      <trkpt lat="45.07586" lon="2.61265">
        <ele>1345.49</ele>
        <time>2015-05-09T14:24:49Z</time>
      </trkpt>
      <trkpt lat="45.07575" lon="2.61243">
        <ele>1340.85</ele>
        <time>2015-05-09T14:25:02Z</time>
      </trkpt>
      <trkpt lat="45.07577" lon="2.61216">
        <ele>1331.1</ele>
        <time>2015-05-09T14:25:21Z</time>
      </trkpt>
      <trkpt lat="45.0758" lon="2.61189">
        <ele>1327.47</ele>
        <time>2015-05-09T14:25:34Z</time>
      </trkpt>
      <trkpt lat="45.07585" lon="2.61164">
        <ele>1326.44</ele>
        <time>2015-05-09T14:25:47Z</time>
      </trkpt>
      <trkpt lat="45.07588" lon="2.61138">
        <ele>1326.96</ele>
        <time>2015-05-09T14:26:01Z</time>
      </trkpt>
      <trkpt lat="45.07594" lon="2.61111">
        <ele>1329.71</ele>
        <time>2015-05-09T14:26:14Z</time>
      </trkpt>
      <trkpt lat="45.07589" lon="2.61086">
        <ele>1330.39</ele>
        <time>2015-05-09T14:26:36Z</time>
      </trkpt>
      <trkpt lat="45.07585" lon="2.61061">
        <ele>1330.96</ele>
        <time>2015-05-09T14:26:54Z</time>
      </trkpt>
      <trkpt lat="45.07581" lon="2.61035">
        <ele>1333.92</ele>
        <time>2015-05-09T14:27:08Z</time>
      </trkpt>
      <trkpt lat="45.07578" lon="2.61009">
        <ele>1334.82</ele>
        <time>2015-05-09T14:27:20Z</time>
      </trkpt>
      <trkpt lat="45.07575" lon="2.60983">
        <ele>1337.17</ele>
        <time>2015-05-09T14:27:36Z</time>
      </trkpt>
      <trkpt lat="45.07573" lon="2.60957">
        <ele>1340.2</ele>
        <time>2015-05-09T14:27:59Z</time>
      </trkpt>
      <trkpt lat="45.07571" lon="2.60932">
        <ele>1340.33</ele>
        <time>2015-05-09T14:28:16Z</time>
      </trkpt>
      <trkpt lat="45.07568" lon="2.60905">
        <ele>1345</ele>
        <time>2015-05-09T14:28:39Z</time>
      </trkpt>
      <trkpt lat="45.07566" lon="2.6088">
        <ele>1347.29</ele>
        <time>2015-05-09T14:28:52Z</time>
      </trkpt>
      <trkpt lat="45.07563" lon="2.60852">
        <ele>1346.75</ele>
        <time>2015-05-09T14:29:10Z</time>
      </trkpt>
      <trkpt lat="45.07556" lon="2.60828">
        <ele>1346.56</ele>
        <time>2015-05-09T14:29:28Z</time>
      </trkpt>
      <trkpt lat="45.07543" lon="2.60809">
        <ele>1345.53</ele>
        <time>2015-05-09T14:29:48Z</time>
      </trkpt>
      <trkpt lat="45.0753" lon="2.60788">
        <ele>1346.39</ele>
        <time>2015-05-09T14:30:00Z</time>
      </trkpt>
      <trkpt lat="45.0752" lon="2.60765">
        <ele>1346.48</ele>
        <time>2015-05-09T14:30:15Z</time>
      </trkpt>
      <trkpt lat="45.0751" lon="2.60741">
        <ele>1347.27</ele>
        <time>2015-05-09T14:30:31Z</time>
      </trkpt>
      <trkpt lat="45.07499" lon="2.60719">
        <ele>1347.7</ele>
        <time>2015-05-09T14:30:45Z</time>
      </trkpt>
      <trkpt lat="45.07488" lon="2.60696">
        <ele>1349.7</ele>
        <time>2015-05-09T14:30:57Z</time>
      </trkpt>
      <trkpt lat="45.0748" lon="2.60672">
        <ele>1351.67</ele>
        <time>2015-05-09T14:31:15Z</time>
      </trkpt>
      <trkpt lat="45.07476" lon="2.60645">
        <ele>1349.84</ele>
        <time>2015-05-09T14:31:31Z</time>
      </trkpt>
      <trkpt lat="45.07476" lon="2.6062">
        <ele>1349.45</ele>
        <time>2015-05-09T14:31:55Z</time>
      </trkpt>
      <trkpt lat="45.07485" lon="2.60597">
        <ele>1349.45</ele>
        <time>2015-05-09T14:32:06Z</time>
      </trkpt>
      <trkpt lat="45.07489" lon="2.6057">
        <ele>1348.77</ele>
        <time>2015-05-09T14:32:21Z</time>
      </trkpt>
      <trkpt lat="45.07494" lon="2.60545">
        <ele>1352.01</ele>
        <time>2015-05-09T14:32:37Z</time>
      </trkpt>
      <trkpt lat="45.07494" lon="2.60518">
        <ele>1359.96</ele>
        <time>2015-05-09T14:32:54Z</time>
      </trkpt>
      <trkpt lat="45.07492" lon="2.60492">
        <ele>1356.67</ele>
        <time>2015-05-09T14:33:11Z</time>
      </trkpt>
      <trkpt lat="45.07495" lon="2.60467">
        <ele>1357.69</ele>
        <time>2015-05-09T14:33:26Z</time>
      </trkpt>
      <trkpt lat="45.07495" lon="2.6044">
        <ele>1356.88</ele>
        <time>2015-05-09T14:33:41Z</time>
      </trkpt>
      <trkpt lat="45.07491" lon="2.60413">
        <ele>1359.44</ele>
        <time>2015-05-09T14:33:59Z</time>
      </trkpt>
      <trkpt lat="45.07491" lon="2.60387">
        <ele>1361.84</ele>
        <time>2015-05-09T14:34:13Z</time>
      </trkpt>
      <trkpt lat="45.07489" lon="2.6036">
        <ele>1364.73</ele>
        <time>2015-05-09T14:34:28Z</time>
      </trkpt>
      <trkpt lat="45.07484" lon="2.60335">
        <ele>1364.66</ele>
        <time>2015-05-09T14:34:54Z</time>
      </trkpt>
      <trkpt lat="45.07479" lon="2.60307">
        <ele>1364.45</ele>
        <time>2015-05-09T14:35:13Z</time>
      </trkpt>
      <trkpt lat="45.07481" lon="2.6028">
        <ele>1368.81</ele>
        <time>2015-05-09T14:35:27Z</time>
      </trkpt>
      <trkpt lat="45.0748" lon="2.60253">
        <ele>1375.29</ele>
        <time>2015-05-09T14:35:41Z</time>
      </trkpt>
      <trkpt lat="45.07484" lon="2.60228">
        <ele>1379.38</ele>
        <time>2015-05-09T14:35:59Z</time>
      </trkpt>
      <trkpt lat="45.07496" lon="2.60207">
        <ele>1376.35</ele>
        <time>2015-05-09T14:36:12Z</time>
      </trkpt>
      <trkpt lat="45.07494" lon="2.60182">
        <ele>1375.38</ele>
        <time>2015-05-09T14:36:30Z</time>
      </trkpt>
      <trkpt lat="45.07495" lon="2.60156">
        <ele>1378.03</ele>
        <time>2015-05-09T14:36:47Z</time>
      </trkpt>
      <trkpt lat="45.0749" lon="2.6013">
        <ele>1381.23</ele>
        <time>2015-05-09T14:37:03Z</time>
      </trkpt>
      <trkpt lat="45.07494" lon="2.60105">
        <ele>1383.1</ele>
        <time>2015-05-09T14:37:25Z</time>
      </trkpt>
      <trkpt lat="45.07493" lon="2.60079">
        <ele>1384.26</ele>
        <time>2015-05-09T14:37:53Z</time>
      </trkpt>
      <trkpt lat="45.075" lon="2.60052">
        <ele>1385.56</ele>
        <time>2015-05-09T14:38:05Z</time>
      </trkpt>
      <trkpt lat="45.07505" lon="2.60027">
        <ele>1387.23</ele>
        <time>2015-05-09T14:38:20Z</time>
      </trkpt>
      <trkpt lat="45.07503" lon="2.60001">
        <ele>1387.11</ele>
        <time>2015-05-09T14:38:34Z</time>
      </trkpt>
      <trkpt lat="45.07497" lon="2.59976">
        <ele>1387.45</ele>
        <time>2015-05-09T14:38:48Z</time>
      </trkpt>
      <trkpt lat="45.07496" lon="2.5995">
        <ele>1386.46</ele>
        <time>2015-05-09T14:39:03Z</time>
      </trkpt>
      <trkpt lat="45.07494" lon="2.59925">
        <ele>1385.46</ele>
        <time>2015-05-09T14:39:18Z</time>
      </trkpt>
      <trkpt lat="45.07494" lon="2.59899">
        <ele>1385.87</ele>
        <time>2015-05-09T14:39:35Z</time>
      </trkpt>
      <trkpt lat="45.07493" lon="2.59872">
        <ele>1385.58</ele>
        <time>2015-05-09T14:39:50Z</time>
      </trkpt>
      <trkpt lat="45.07489" lon="2.59846">
        <ele>1386.55</ele>
        <time>2015-05-09T14:40:05Z</time>
      </trkpt>
      <trkpt lat="45.07485" lon="2.59821">
        <ele>1388.05</ele>
        <time>2015-05-09T14:40:19Z</time>
      </trkpt>
      <trkpt lat="45.07481" lon="2.59795">
        <ele>1387.46</ele>
        <time>2015-05-09T14:40:32Z</time>
      </trkpt>
      <trkpt lat="45.07475" lon="2.59771">
        <ele>1386.46</ele>
        <time>2015-05-09T14:40:46Z</time>
      </trkpt>
      <trkpt lat="45.0747" lon="2.59744">
        <ele>1387.77</ele>
        <time>2015-05-09T14:41:02Z</time>
      </trkpt>
      <trkpt lat="45.07465" lon="2.59718">
        <ele>1386.46</ele>
        <time>2015-05-09T14:41:16Z</time>
      </trkpt>
      <trkpt lat="45.0746" lon="2.59693">
        <ele>1383.47</ele>
        <time>2015-05-09T14:41:30Z</time>
      </trkpt>
      <trkpt lat="45.07453" lon="2.59668">
        <ele>1381.46</ele>
        <time>2015-05-09T14:41:44Z</time>
      </trkpt>
      <trkpt lat="45.07446" lon="2.59643">
        <ele>1382.43</ele>
        <time>2015-05-09T14:41:58Z</time>
      </trkpt>
      <trkpt lat="45.07441" lon="2.59617">
        <ele>1381.46</ele>
        <time>2015-05-09T14:42:12Z</time>
      </trkpt>
      <trkpt lat="45.07435" lon="2.59592">
        <ele>1383.94</ele>
        <time>2015-05-09T14:42:26Z</time>
      </trkpt>
      <trkpt lat="45.07422" lon="2.59571">
        <ele>1381.48</ele>
        <time>2015-05-09T14:42:41Z</time>
      </trkpt>
      <trkpt lat="45.07408" lon="2.59555">
        <ele>1380.58</ele>
        <time>2015-05-09T14:42:56Z</time>
      </trkpt>
      <trkpt lat="45.07393" lon="2.59539">
        <ele>1379.67</ele>
        <time>2015-05-09T14:43:10Z</time>
      </trkpt>
      <trkpt lat="45.0738" lon="2.59521">
        <ele>1380.45</ele>
        <time>2015-05-09T14:43:28Z</time>
      </trkpt>
      <trkpt lat="45.07363" lon="2.59509">
        <ele>1376.59</ele>
        <time>2015-05-09T14:43:43Z</time>
      </trkpt>
      <trkpt lat="45.07346" lon="2.59501">
        <ele>1372.49</ele>
        <time>2015-05-09T14:43:58Z</time>
      </trkpt>
      <trkpt lat="45.07327" lon="2.59496">
        <ele>1369.47</ele>
        <time>2015-05-09T14:44:13Z</time>
      </trkpt>
      <trkpt lat="45.07308" lon="2.59493">
        <ele>1368.02</ele>
        <time>2015-05-09T14:44:27Z</time>
      </trkpt>
      <trkpt lat="45.07288" lon="2.59491">
        <ele>1367.21</ele>
        <time>2015-05-09T14:44:41Z</time>
      </trkpt>
      <trkpt lat="45.0727" lon="2.59491">
        <ele>1368.39</ele>
        <time>2015-05-09T14:44:54Z</time>
      </trkpt>
      <trkpt lat="45.07251" lon="2.59492">
        <ele>1370.33</ele>
        <time>2015-05-09T14:45:09Z</time>
      </trkpt>
      <trkpt lat="45.07232" lon="2.5949">
        <ele>1369.21</ele>
        <time>2015-05-09T14:45:24Z</time>
      </trkpt>
      <trkpt lat="45.07213" lon="2.59488">
        <ele>1368.46</ele>
        <time>2015-05-09T14:45:37Z</time>
      </trkpt>
      <trkpt lat="45.07195" lon="2.5948">
        <ele>1367.58</ele>
        <time>2015-05-09T14:45:51Z</time>
      </trkpt>
      <trkpt lat="45.07177" lon="2.5947">
        <ele>1366.39</ele>
        <time>2015-05-09T14:46:06Z</time>
      </trkpt>
      <trkpt lat="45.07162" lon="2.59454">
        <ele>1368.69</ele>
        <time>2015-05-09T14:46:20Z</time>
      </trkpt>
      <trkpt lat="45.07147" lon="2.5944">
        <ele>1368.49</ele>
        <time>2015-05-09T14:46:35Z</time>
      </trkpt>
      <trkpt lat="45.07131" lon="2.59427">
        <ele>1370.29</ele>
        <time>2015-05-09T14:46:55Z</time>
      </trkpt>
      <trkpt lat="45.07114" lon="2.59416">
        <ele>1375.35</ele>
        <time>2015-05-09T14:47:20Z</time>
      </trkpt>
      <trkpt lat="45.07097" lon="2.59407">
        <ele>1375.09</ele>
        <time>2015-05-09T14:47:36Z</time>
      </trkpt>
      <trkpt lat="45.07079" lon="2.59398">
        <ele>1376.34</ele>
        <time>2015-05-09T14:47:52Z</time>
      </trkpt>
      <trkpt lat="45.07062" lon="2.59389">
        <ele>1376.45</ele>
        <time>2015-05-09T14:48:07Z</time>
      </trkpt>
      <trkpt lat="45.07044" lon="2.59381">
        <ele>1375.96</ele>
        <time>2015-05-09T14:48:22Z</time>
      </trkpt>
      <trkpt lat="45.07026" lon="2.59379">
        <ele>1376.45</ele>
        <time>2015-05-09T14:49:02Z</time>
      </trkpt>
      <trkpt lat="45.07008" lon="2.59383">
        <ele>1379.58</ele>
        <time>2015-05-09T14:49:35Z</time>
      </trkpt>
      <trkpt lat="45.0699" lon="2.59384">
        <ele>1376.59</ele>
        <time>2015-05-09T14:49:49Z</time>
      </trkpt>
      <trkpt lat="45.06971" lon="2.59387">
        <ele>1373</ele>
        <time>2015-05-09T14:50:04Z</time>
      </trkpt>
      <trkpt lat="45.06953" lon="2.59393">
        <ele>1368.65</ele>
        <time>2015-05-09T14:50:18Z</time>
      </trkpt>
      <trkpt lat="45.06934" lon="2.59393">
        <ele>1363.74</ele>
        <time>2015-05-09T14:50:36Z</time>
      </trkpt>
      <trkpt lat="45.06916" lon="2.59393">
        <ele>1359.77</ele>
        <time>2015-05-09T14:50:51Z</time>
      </trkpt>
      <trkpt lat="45.06898" lon="2.59392">
        <ele>1355.62</ele>
        <time>2015-05-09T14:51:05Z</time>
      </trkpt>
      <trkpt lat="45.0688" lon="2.59398">
        <ele>1353.61</ele>
        <time>2015-05-09T14:51:20Z</time>
      </trkpt>
      <trkpt lat="45.06861" lon="2.594">
        <ele>1350.49</ele>
        <time>2015-05-09T14:51:35Z</time>
      </trkpt>
      <trkpt lat="45.06841" lon="2.59402">
        <ele>1347.71</ele>
        <time>2015-05-09T14:51:49Z</time>
      </trkpt>
      <trkpt lat="45.06823" lon="2.59402">
        <ele>1345.71</ele>
        <time>2015-05-09T14:52:03Z</time>
      </trkpt>
      <trkpt lat="45.06805" lon="2.59397">
        <ele>1341.99</ele>
        <time>2015-05-09T14:52:16Z</time>
      </trkpt>
      <trkpt lat="45.06788" lon="2.59388">
        <ele>1339.58</ele>
        <time>2015-05-09T14:52:30Z</time>
      </trkpt>
      <trkpt lat="45.0677" lon="2.59379">
        <ele>1336.72</ele>
        <time>2015-05-09T14:52:44Z</time>
      </trkpt>
      <trkpt lat="45.06756" lon="2.59362">
        <ele>1333.48</ele>
        <time>2015-05-09T14:52:59Z</time>
      </trkpt>
      <trkpt lat="45.06745" lon="2.5934">
        <ele>1331.59</ele>
        <time>2015-05-09T14:53:12Z</time>
      </trkpt>
      <trkpt lat="45.06731" lon="2.59323">
        <ele>1328.71</ele>
        <time>2015-05-09T14:53:26Z</time>
      </trkpt>
      <trkpt lat="45.06714" lon="2.59315">
        <ele>1326.96</ele>
        <time>2015-05-09T14:53:43Z</time>
      </trkpt>
      <trkpt lat="45.0672" lon="2.59339">
        <ele>1323.58</ele>
        <time>2015-05-09T14:54:01Z</time>
      </trkpt>
      <trkpt lat="45.06726" lon="2.59365">
        <ele>1323.93</ele>
        <time>2015-05-09T14:54:15Z</time>
      </trkpt>
      <trkpt lat="45.06732" lon="2.59389">
        <ele>1324.46</ele>
        <time>2015-05-09T14:54:29Z</time>
      </trkpt>
      <trkpt lat="45.06732" lon="2.59416">
        <ele>1323.02</ele>
        <time>2015-05-09T14:54:44Z</time>
      </trkpt>
      <trkpt lat="45.0673" lon="2.59442">
        <ele>1320.42</ele>
        <time>2015-05-09T14:54:59Z</time>
      </trkpt>
      <trkpt lat="45.06729" lon="2.59468">
        <ele>1320.42</ele>
        <time>2015-05-09T14:55:15Z</time>
      </trkpt>
      <trkpt lat="45.06741" lon="2.59489">
        <ele>1316.03</ele>
        <time>2015-05-09T14:56:01Z</time>
      </trkpt>
      <trkpt lat="45.06758" lon="2.595">
        <ele>1311.84</ele>
        <time>2015-05-09T14:56:15Z</time>
      </trkpt>
      <trkpt lat="45.06775" lon="2.59508">
        <ele>1310.46</ele>
        <time>2015-05-09T14:56:30Z</time>
      </trkpt>
      <trkpt lat="45.06791" lon="2.59522">
        <ele>1310.27</ele>
        <time>2015-05-09T14:56:52Z</time>
      </trkpt>
      <trkpt lat="45.06808" lon="2.59535">
        <ele>1308.96</ele>
        <time>2015-05-09T14:57:07Z</time>
      </trkpt>
      <trkpt lat="45.06826" lon="2.59544">
        <ele>1307.34</ele>
        <time>2015-05-09T14:57:22Z</time>
      </trkpt>
      <trkpt lat="45.0684" lon="2.5956">
        <ele>1304.83</ele>
        <time>2015-05-09T14:57:39Z</time>
      </trkpt>
      <trkpt lat="45.06852" lon="2.5958">
        <ele>1296.28</ele>
        <time>2015-05-09T14:57:55Z</time>
      </trkpt>
      <trkpt lat="45.06853" lon="2.59608">
        <ele>1299.8</ele>
        <time>2015-05-09T14:58:09Z</time>
      </trkpt>
      <trkpt lat="45.06865" lon="2.59628">
        <ele>1297.22</ele>
        <time>2015-05-09T14:58:30Z</time>
      </trkpt>
      <trkpt lat="45.06883" lon="2.59633">
        <ele>1290.22</ele>
        <time>2015-05-09T14:58:49Z</time>
      </trkpt>
      <trkpt lat="45.069" lon="2.5964">
        <ele>1284.83</ele>
        <time>2015-05-09T14:59:01Z</time>
      </trkpt>
      <trkpt lat="45.06911" lon="2.59661">
        <ele>1284.62</ele>
        <time>2015-05-09T14:59:15Z</time>
      </trkpt>
      <trkpt lat="45.06897" lon="2.59678">
        <ele>1287.77</ele>
        <time>2015-05-09T15:01:10Z</time>
      </trkpt>
      <trkpt lat="45.06878" lon="2.59676">
        <ele>1286.9</ele>
        <time>2015-05-09T15:01:32Z</time>
      </trkpt>
      <trkpt lat="45.0686" lon="2.59673">
        <ele>1276.72</ele>
        <time>2015-05-09T15:01:58Z</time>
      </trkpt>
      <trkpt lat="45.06841" lon="2.59678">
        <ele>1270.46</ele>
        <time>2015-05-09T15:02:15Z</time>
      </trkpt>
      <trkpt lat="45.06825" lon="2.59666">
        <ele>1266.9</ele>
        <time>2015-05-09T15:02:38Z</time>
      </trkpt>
      <trkpt lat="45.06808" lon="2.59656">
        <ele>1272.7</ele>
        <time>2015-05-09T15:02:59Z</time>
      </trkpt>
      <trkpt lat="45.0679" lon="2.59648">
        <ele>1274.01</ele>
        <time>2015-05-09T15:03:12Z</time>
      </trkpt>
      <trkpt lat="45.06772" lon="2.59639">
        <ele>1268.49</ele>
        <time>2015-05-09T15:03:28Z</time>
      </trkpt>
      <trkpt lat="45.06754" lon="2.59644">
        <ele>1265.36</ele>
        <time>2015-05-09T15:03:46Z</time>
      </trkpt>
      <trkpt lat="45.06735" lon="2.59651">
        <ele>1255.62</ele>
        <time>2015-05-09T15:04:00Z</time>
      </trkpt>
      <trkpt lat="45.06718" lon="2.5966">
        <ele>1254.33</ele>
        <time>2015-05-09T15:04:13Z</time>
      </trkpt>
      <trkpt lat="45.067" lon="2.59668">
        <ele>1253.39</ele>
        <time>2015-05-09T15:04:34Z</time>
      </trkpt>
      <trkpt lat="45.06682" lon="2.59673">
        <ele>1248.86</ele>
        <time>2015-05-09T15:04:53Z</time>
      </trkpt>
      <trkpt lat="45.06664" lon="2.59672">
        <ele>1252.76</ele>
        <time>2015-05-09T15:05:12Z</time>
      </trkpt>
      <trkpt lat="45.06646" lon="2.59675">
        <ele>1244.73</ele>
        <time>2015-05-09T15:05:28Z</time>
      </trkpt>
      <trkpt lat="45.0663" lon="2.59687">
        <ele>1240.85</ele>
        <time>2015-05-09T15:05:42Z</time>
      </trkpt>
      <trkpt lat="45.06612" lon="2.5969">
        <ele>1235.87</ele>
        <time>2015-05-09T15:05:56Z</time>
      </trkpt>
      <trkpt lat="45.06593" lon="2.59692">
        <ele>1228.67</ele>
        <time>2015-05-09T15:06:18Z</time>
      </trkpt>
      <trkpt lat="45.06599" lon="2.59716">
        <ele>1217.43</ele>
        <time>2015-05-09T15:06:50Z</time>
      </trkpt>
      <trkpt lat="45.06591" lon="2.59739">
        <ele>1204.78</ele>
        <time>2015-05-09T15:07:51Z</time>
      </trkpt>
      <trkpt lat="45.06572" lon="2.59736">
        <ele>1194.47</ele>
        <time>2015-05-09T15:08:15Z</time>
      </trkpt>
      <trkpt lat="45.06555" lon="2.59725">
        <ele>1189.97</ele>
        <time>2015-05-09T15:08:35Z</time>
      </trkpt>
      <trkpt lat="45.06539" lon="2.59736">
        <ele>1194.34</ele>
        <time>2015-05-09T15:08:55Z</time>
      </trkpt>
      <trkpt lat="45.06527" lon="2.59756">
        <ele>1191.54</ele>
        <time>2015-05-09T15:09:19Z</time>
      </trkpt>
      <trkpt lat="45.06516" lon="2.59778">
        <ele>1187.96</ele>
        <time>2015-05-09T15:09:51Z</time>
      </trkpt>
      <trkpt lat="45.06524" lon="2.59801">
        <ele>1176.49</ele>
        <time>2015-05-09T15:11:00Z</time>
      </trkpt>
      <trkpt lat="45.0654" lon="2.59815">
        <ele>1167.52</ele>
        <time>2015-05-09T15:11:43Z</time>
      </trkpt>
      <trkpt lat="45.06552" lon="2.59834">
        <ele>1157.2</ele>
        <time>2015-05-09T15:12:05Z</time>
      </trkpt>
      <trkpt lat="45.06564" lon="2.59853">
        <ele>1154.99</ele>
        <time>2015-05-09T15:12:28Z</time>
      </trkpt>
      <trkpt lat="45.06555" lon="2.59875">
        <ele>1157.22</ele>
        <time>2015-05-09T15:12:52Z</time>
      </trkpt>
      <trkpt lat="45.06547" lon="2.59898">
        <ele>1148.99</ele>
        <time>2015-05-09T15:13:28Z</time>
      </trkpt>
      <trkpt lat="45.06539" lon="2.59924">
        <ele>1153.48</ele>
        <time>2015-05-09T15:14:06Z</time>
      </trkpt>
      <trkpt lat="45.06523" lon="2.59936">
        <ele>1150.14</ele>
        <time>2015-05-09T15:14:20Z</time>
      </trkpt>
      <trkpt lat="45.06517" lon="2.59961">
        <ele>1143.84</ele>
        <time>2015-05-09T15:14:40Z</time>
      </trkpt>
      <trkpt lat="45.06531" lon="2.59981">
        <ele>1139.88</ele>
        <time>2015-05-09T15:15:29Z</time>
      </trkpt>
      <trkpt lat="45.06537" lon="2.60006">
        <ele>1131.91</ele>
        <time>2015-05-09T15:15:43Z</time>
      </trkpt>
      <trkpt lat="45.06534" lon="2.60031">
        <ele>1133.74</ele>
        <time>2015-05-09T15:15:55Z</time>
      </trkpt>
      <trkpt lat="45.06525" lon="2.60054">
        <ele>1126.98</ele>
        <time>2015-05-09T15:16:19Z</time>
      </trkpt>
      <trkpt lat="45.06512" lon="2.60072">
        <ele>1120.85</ele>
        <time>2015-05-09T15:16:40Z</time>
      </trkpt>
      <trkpt lat="45.065" lon="2.60091">
        <ele>1117.52</ele>
        <time>2015-05-09T15:16:55Z</time>
      </trkpt>
      <trkpt lat="45.0649" lon="2.60113">
        <ele>1115.06</ele>
        <time>2015-05-09T15:17:09Z</time>
      </trkpt>
      <trkpt lat="45.06481" lon="2.60136">
        <ele>1111.79</ele>
        <time>2015-05-09T15:17:25Z</time>
      </trkpt>
      <trkpt lat="45.0647" lon="2.60158">
        <ele>1115.28</ele>
        <time>2015-05-09T15:17:38Z</time>
      </trkpt>
      <trkpt lat="45.06464" lon="2.60183">
        <ele>1107.97</ele>
        <time>2015-05-09T15:17:56Z</time>
      </trkpt>
      <trkpt lat="45.06449" lon="2.60197">
        <ele>1108.95</ele>
        <time>2015-05-09T15:18:10Z</time>
      </trkpt>
      <trkpt lat="45.06434" lon="2.60212">
        <ele>1110.23</ele>
        <time>2015-05-09T15:18:25Z</time>
      </trkpt>
      <trkpt lat="45.0642" lon="2.6023">
        <ele>1104.5</ele>
        <time>2015-05-09T15:18:41Z</time>
      </trkpt>
      <trkpt lat="45.06413" lon="2.60254">
        <ele>1104.02</ele>
        <time>2015-05-09T15:18:56Z</time>
      </trkpt>
      <trkpt lat="45.06406" lon="2.60279">
        <ele>1098.71</ele>
        <time>2015-05-09T15:19:12Z</time>
      </trkpt>
      <trkpt lat="45.06404" lon="2.60305">
        <ele>1096.8</ele>
        <time>2015-05-09T15:19:27Z</time>
      </trkpt>
      <trkpt lat="45.06402" lon="2.6033">
        <ele>1095.97</ele>
        <time>2015-05-09T15:19:40Z</time>
      </trkpt>
      <trkpt lat="45.06393" lon="2.60353">
        <ele>1090.82</ele>
        <time>2015-05-09T15:19:57Z</time>
      </trkpt>
      <trkpt lat="45.06385" lon="2.60377">
        <ele>1093.14</ele>
        <time>2015-05-09T15:20:19Z</time>
      </trkpt>
      <trkpt lat="45.06371" lon="2.60394">
        <ele>1090.04</ele>
        <time>2015-05-09T15:20:38Z</time>
      </trkpt>
      <trkpt lat="45.06352" lon="2.60397">
        <ele>1087.81</ele>
        <time>2015-05-09T15:20:51Z</time>
      </trkpt>
      <trkpt lat="45.06335" lon="2.60408">
        <ele>1085.61</ele>
        <time>2015-05-09T15:21:07Z</time>
      </trkpt>
      <trkpt lat="45.06321" lon="2.60424">
        <ele>1076.69</ele>
        <time>2015-05-09T15:21:26Z</time>
      </trkpt>
      <trkpt lat="45.06307" lon="2.60443">
        <ele>1069.79</ele>
        <time>2015-05-09T15:21:43Z</time>
      </trkpt>
      <trkpt lat="45.06293" lon="2.6046">
        <ele>1066.89</ele>
        <time>2015-05-09T15:22:00Z</time>
      </trkpt>
      <trkpt lat="45.06275" lon="2.60471">
        <ele>1062.65</ele>
        <time>2015-05-09T15:22:17Z</time>
      </trkpt>
      <trkpt lat="45.06262" lon="2.60489">
        <ele>1059.96</ele>
        <time>2015-05-09T15:22:33Z</time>
      </trkpt>
      <trkpt lat="45.06254" lon="2.60512">
        <ele>1059.37</ele>
        <time>2015-05-09T15:22:46Z</time>
      </trkpt>
      <trkpt lat="45.06244" lon="2.60534">
        <ele>1055.46</ele>
        <time>2015-05-09T15:23:00Z</time>
      </trkpt>
      <trkpt lat="45.0623" lon="2.60552">
        <ele>1050.97</ele>
        <time>2015-05-09T15:23:15Z</time>
      </trkpt>
      <trkpt lat="45.06219" lon="2.60573">
        <ele>1047.42</ele>
        <time>2015-05-09T15:23:31Z</time>
      </trkpt>
      <trkpt lat="45.06209" lon="2.60595">
        <ele>1045.96</ele>
        <time>2015-05-09T15:24:01Z</time>
      </trkpt>
      <trkpt lat="45.06193" lon="2.60607">
        <ele>1040.73</ele>
        <time>2015-05-09T15:24:18Z</time>
      </trkpt>
      <trkpt lat="45.06178" lon="2.60623">
        <ele>1039.96</ele>
        <time>2015-05-09T15:25:10Z</time>
      </trkpt>
      <trkpt lat="45.06162" lon="2.60637">
        <ele>1036.53</ele>
        <time>2015-05-09T15:25:25Z</time>
      </trkpt>
      <trkpt lat="45.06146" lon="2.6065">
        <ele>1033.58</ele>
        <time>2015-05-09T15:25:39Z</time>
      </trkpt>
      <trkpt lat="45.06163" lon="2.60657">
        <ele>1032.44</ele>
        <time>2015-05-09T15:25:57Z</time>
      </trkpt>
      <trkpt lat="45.06181" lon="2.60655">
        <ele>1035.82</ele>
        <time>2015-05-09T15:26:12Z</time>
      </trkpt>
      <trkpt lat="45.06199" lon="2.60661">
        <ele>1037.56</ele>
        <time>2015-05-09T15:26:26Z</time>
      </trkpt>
      <trkpt lat="45.06217" lon="2.60665">
        <ele>1035.48</ele>
        <time>2015-05-09T15:26:40Z</time>
      </trkpt>
      <trkpt lat="45.06235" lon="2.60658">
        <ele>1036.49</ele>
        <time>2015-05-09T15:27:11Z</time>
      </trkpt>
      <trkpt lat="45.06253" lon="2.60652">
        <ele>1034.74</ele>
        <time>2015-05-09T15:27:24Z</time>
      </trkpt>
      <trkpt lat="45.06271" lon="2.60644">
        <ele>1032.56</ele>
        <time>2015-05-09T15:27:37Z</time>
      </trkpt>
      <trkpt lat="45.0629" lon="2.60637">
        <ele>1031.02</ele>
        <time>2015-05-09T15:27:50Z</time>
      </trkpt>
      <trkpt lat="45.06307" lon="2.60631">
        <ele>1030.2</ele>
        <time>2015-05-09T15:28:04Z</time>
      </trkpt>
      <trkpt lat="45.06325" lon="2.60626">
        <ele>1028.1</ele>
        <time>2015-05-09T15:28:19Z</time>
      </trkpt>
      <trkpt lat="45.06344" lon="2.60628">
        <ele>1027.21</ele>
        <time>2015-05-09T15:28:34Z</time>
      </trkpt>
      <trkpt lat="45.06362" lon="2.60635">
        <ele>1022.45</ele>
        <time>2015-05-09T15:28:49Z</time>
      </trkpt>
      <trkpt lat="45.06376" lon="2.60652">
        <ele>1019.76</ele>
        <time>2015-05-09T15:29:04Z</time>
      </trkpt>
      <trkpt lat="45.0639" lon="2.60669">
        <ele>1021.93</ele>
        <time>2015-05-09T15:29:23Z</time>
      </trkpt>
      <trkpt lat="45.06408" lon="2.60666">
        <ele>1020.73</ele>
        <time>2015-05-09T15:29:39Z</time>
      </trkpt>
      <trkpt lat="45.06423" lon="2.60683">
        <ele>1017.9</ele>
        <time>2015-05-09T15:29:54Z</time>
      </trkpt>
      <trkpt lat="45.06439" lon="2.60695">
        <ele>1013.02</ele>
        <time>2015-05-09T15:30:09Z</time>
      </trkpt>
      <trkpt lat="45.06454" lon="2.6071">
        <ele>1013.04</ele>
        <time>2015-05-09T15:30:21Z</time>
      </trkpt>
      <trkpt lat="45.06472" lon="2.60717">
        <ele>1018.66</ele>
        <time>2015-05-09T15:30:40Z</time>
      </trkpt>
      <trkpt lat="45.0649" lon="2.60718">
        <ele>1015.51</ele>
        <time>2015-05-09T15:30:55Z</time>
      </trkpt>
      <trkpt lat="45.06508" lon="2.60717">
        <ele>1016.55</ele>
        <time>2015-05-09T15:31:16Z</time>
      </trkpt>
      <trkpt lat="45.06525" lon="2.6071">
        <ele>1021.77</ele>
        <time>2015-05-09T15:31:37Z</time>
      </trkpt>
      <trkpt lat="45.06543" lon="2.60706">
        <ele>1028.13</ele>
        <time>2015-05-09T15:31:52Z</time>
      </trkpt>
      <trkpt lat="45.06562" lon="2.60702">
        <ele>1034.87</ele>
        <time>2015-05-09T15:32:09Z</time>
      </trkpt>
      <trkpt lat="45.0658" lon="2.60705">
        <ele>1035.87</ele>
        <time>2015-05-09T15:32:36Z</time>
      </trkpt>
      <trkpt lat="45.06593" lon="2.60724">
        <ele>1032.87</ele>
        <time>2015-05-09T15:32:55Z</time>
      </trkpt>
      <trkpt lat="45.06613" lon="2.60732">
        <ele>1023.08</ele>
        <time>2015-05-09T15:33:32Z</time>
      </trkpt>
      <trkpt lat="45.06631" lon="2.60734">
        <ele>1022</ele>
        <time>2015-05-09T15:33:49Z</time>
      </trkpt>
      <trkpt lat="45.06649" lon="2.60739">
        <ele>1032.35</ele>
        <time>2015-05-09T15:34:15Z</time>
      </trkpt>
      <trkpt lat="45.06667" lon="2.60744">
        <ele>1044.41</ele>
        <time>2015-05-09T15:34:46Z</time>
      </trkpt>
      <trkpt lat="45.06686" lon="2.6074">
        <ele>1045.45</ele>
        <time>2015-05-09T15:35:12Z</time>
      </trkpt>
      <trkpt lat="45.06703" lon="2.60732">
        <ele>1051.5</ele>
        <time>2015-05-09T15:35:34Z</time>
      </trkpt>
      <trkpt lat="45.06722" lon="2.60729">
        <ele>1065.69</ele>
        <time>2015-05-09T15:36:06Z</time>
      </trkpt>
      <trkpt lat="45.0674" lon="2.60732">
        <ele>1063.18</ele>
        <time>2015-05-09T15:36:30Z</time>
      </trkpt>
      <trkpt lat="45.06759" lon="2.60733">
        <ele>1067.65</ele>
        <time>2015-05-09T15:36:50Z</time>
      </trkpt>
      <trkpt lat="45.06776" lon="2.60721">
        <ele>1069.93</ele>
        <time>2015-05-09T15:37:11Z</time>
      </trkpt>
      <trkpt lat="45.06792" lon="2.60708">
        <ele>1073.68</ele>
        <time>2015-05-09T15:37:28Z</time>
      </trkpt>
      <trkpt lat="45.06811" lon="2.60707">
        <ele>1087.76</ele>
        <time>2015-05-09T15:37:47Z</time>
      </trkpt>
      <trkpt lat="45.06829" lon="2.60702">
        <ele>1089.54</ele>
        <time>2015-05-09T15:38:07Z</time>
      </trkpt>
      <trkpt lat="45.06848" lon="2.60697">
        <ele>1092.75</ele>
        <time>2015-05-09T15:38:41Z</time>
      </trkpt>
      <trkpt lat="45.06851" lon="2.60723">
        <ele>1083.84</ele>
        <time>2015-05-09T15:39:35Z</time>
      </trkpt>
      <trkpt lat="45.06854" lon="2.60748">
        <ele>1077.95</ele>
        <time>2015-05-09T15:40:11Z</time>
      </trkpt>
      <trkpt lat="45.0687" lon="2.60762">
        <ele>1074.97</ele>
        <time>2015-05-09T15:40:28Z</time>
      </trkpt>
      <trkpt lat="45.06887" lon="2.60772">
        <ele>1075.31</ele>
        <time>2015-05-09T15:40:59Z</time>
      </trkpt>
      <trkpt lat="45.06906" lon="2.60778">
        <ele>1079.8</ele>
        <time>2015-05-09T15:41:14Z</time>
      </trkpt>
      <trkpt lat="45.06925" lon="2.60775">
        <ele>1080.16</ele>
        <time>2015-05-09T15:41:32Z</time>
      </trkpt>
      <trkpt lat="45.06941" lon="2.6079">
        <ele>1089.76</ele>
        <time>2015-05-09T15:41:50Z</time>
      </trkpt>
      <trkpt lat="45.06946" lon="2.60816">
        <ele>1082.78</ele>
        <time>2015-05-09T15:42:08Z</time>
      </trkpt>
      <trkpt lat="45.06942" lon="2.60841">
        <ele>1083.81</ele>
        <time>2015-05-09T15:42:25Z</time>
      </trkpt>
      <trkpt lat="45.0694" lon="2.60867">
        <ele>1075.07</ele>
        <time>2015-05-09T15:42:41Z</time>
      </trkpt>
      <trkpt lat="45.06949" lon="2.6089">
        <ele>1071.24</ele>
        <time>2015-05-09T15:43:03Z</time>
      </trkpt>
      <trkpt lat="45.06944" lon="2.60916">
        <ele>1070.42</ele>
        <time>2015-05-09T15:43:21Z</time>
      </trkpt>
      <trkpt lat="45.06936" lon="2.60939">
        <ele>1074.74</ele>
        <time>2015-05-09T15:43:32Z</time>
      </trkpt>
      <trkpt lat="45.06941" lon="2.60964">
        <ele>1070.16</ele>
        <time>2015-05-09T15:43:49Z</time>
      </trkpt>
      <trkpt lat="45.06953" lon="2.60984">
        <ele>1068.14</ele>
        <time>2015-05-09T15:44:05Z</time>
      </trkpt>
      <trkpt lat="45.06966" lon="2.61003">
        <ele>1064.24</ele>
        <time>2015-05-09T15:44:18Z</time>
      </trkpt>
      <trkpt lat="45.06979" lon="2.61022">
        <ele>1055.09</ele>
        <time>2015-05-09T15:44:34Z</time>
      </trkpt>
      <trkpt lat="45.06982" lon="2.61048">
        <ele>1058.64</ele>
        <time>2015-05-09T15:45:03Z</time>
      </trkpt>
      <trkpt lat="45.06974" lon="2.61073">
        <ele>1061.35</ele>
        <time>2015-05-09T15:45:37Z</time>
      </trkpt>
      <trkpt lat="45.06958" lon="2.61086">
        <ele>1052.09</ele>
        <time>2015-05-09T15:45:51Z</time>
      </trkpt>
      <trkpt lat="45.0694" lon="2.61082">
        <ele>1057.89</ele>
        <time>2015-05-09T15:46:09Z</time>
      </trkpt>
      <trkpt lat="45.06921" lon="2.61076">
        <ele>1059.52</ele>
        <time>2015-05-09T15:46:25Z</time>
      </trkpt>
      <trkpt lat="45.06903" lon="2.61079">
        <ele>1056.88</ele>
        <time>2015-05-09T15:46:40Z</time>
      </trkpt>
      <trkpt lat="45.06887" lon="2.61094">
        <ele>1055.03</ele>
        <time>2015-05-09T15:46:55Z</time>
      </trkpt>
      <trkpt lat="45.06867" lon="2.611">
        <ele>1059.8</ele>
        <time>2015-05-09T15:47:41Z</time>
      </trkpt>
      <trkpt lat="45.06858" lon="2.61123">
        <ele>1056.71</ele>
        <time>2015-05-09T15:48:01Z</time>
      </trkpt>
      <trkpt lat="45.06858" lon="2.6115">
        <ele>1053.99</ele>
        <time>2015-05-09T15:48:15Z</time>
      </trkpt>
      <trkpt lat="45.06859" lon="2.61176">
        <ele>1048.08</ele>
        <time>2015-05-09T15:48:29Z</time>
      </trkpt>
      <trkpt lat="45.06861" lon="2.61203">
        <ele>1045.24</ele>
        <time>2015-05-09T15:48:42Z</time>
      </trkpt>
      <trkpt lat="45.06861" lon="2.61228">
        <ele>1047.7</ele>
        <time>2015-05-09T15:48:55Z</time>
      </trkpt>
      <trkpt lat="45.06855" lon="2.61253">
        <ele>1048.7</ele>
        <time>2015-05-09T15:49:11Z</time>
      </trkpt>
      <trkpt lat="45.06848" lon="2.61278">
        <ele>1045.2</ele>
        <time>2015-05-09T15:49:26Z</time>
      </trkpt>
      <trkpt lat="45.06833" lon="2.61294">
        <ele>1047.69</ele>
        <time>2015-05-09T15:49:43Z</time>
      </trkpt>
      <trkpt lat="45.06815" lon="2.61298">
        <ele>1045.21</ele>
        <time>2015-05-09T15:49:56Z</time>
      </trkpt>
      <trkpt lat="45.06802" lon="2.61276">
        <ele>1047.32</ele>
        <time>2015-05-09T15:50:17Z</time>
      </trkpt>
      <trkpt lat="45.06783" lon="2.61268">
        <ele>1042.34</ele>
        <time>2015-05-09T15:50:35Z</time>
      </trkpt>
      <trkpt lat="45.06766" lon="2.61255">
        <ele>1035.29</ele>
        <time>2015-05-09T15:51:07Z</time>
      </trkpt>
      <trkpt lat="45.06751" lon="2.6124">
        <ele>1033.75</ele>
        <time>2015-05-09T15:51:22Z</time>
      </trkpt>
      <trkpt lat="45.06733" lon="2.61229">
        <ele>1032.32</ele>
        <time>2015-05-09T15:51:38Z</time>
      </trkpt>
      <trkpt lat="45.06719" lon="2.61214">
        <ele>1024.54</ele>
        <time>2015-05-09T15:51:53Z</time>
      </trkpt>
      <trkpt lat="45.06703" lon="2.61201">
        <ele>1009.62</ele>
        <time>2015-05-09T15:52:15Z</time>
      </trkpt>
      <trkpt lat="45.06689" lon="2.61179">
        <ele>1005.75</ele>
        <time>2015-05-09T15:52:29Z</time>
      </trkpt>
      <trkpt lat="45.06674" lon="2.61163">
        <ele>1013.88</ele>
        <time>2015-05-09T15:52:40Z</time>
      </trkpt>
      <trkpt lat="45.06658" lon="2.61148">
        <ele>1029.9</ele>
        <time>2015-05-09T15:52:51Z</time>
      </trkpt>
      <trkpt lat="45.06641" lon="2.61153">
        <ele>1029.77</ele>
        <time>2015-05-09T15:53:05Z</time>
      </trkpt>
      <trkpt lat="45.06623" lon="2.6116">
        <ele>1027.9</ele>
        <time>2015-05-09T15:53:18Z</time>
      </trkpt>
      <trkpt lat="45.06604" lon="2.61158">
        <ele>1025.58</ele>
        <time>2015-05-09T15:53:33Z</time>
      </trkpt>
      <trkpt lat="45.06586" lon="2.61157">
        <ele>1022.83</ele>
        <time>2015-05-09T15:53:48Z</time>
      </trkpt>
      <trkpt lat="45.06568" lon="2.61166">
        <ele>1021.46</ele>
        <time>2015-05-09T15:54:01Z</time>
      </trkpt>
      <trkpt lat="45.06557" lon="2.61187">
        <ele>1020.56</ele>
        <time>2015-05-09T15:54:17Z</time>
      </trkpt>
      <trkpt lat="45.06545" lon="2.61207">
        <ele>1016.71</ele>
        <time>2015-05-09T15:54:32Z</time>
      </trkpt>
      <trkpt lat="45.06528" lon="2.61219">
        <ele>1010.39</ele>
        <time>2015-05-09T15:54:48Z</time>
      </trkpt>
      <trkpt lat="45.0652" lon="2.61243">
        <ele>1007.27</ele>
        <time>2015-05-09T15:55:05Z</time>
      </trkpt>
      <trkpt lat="45.06517" lon="2.61268">
        <ele>1004.35</ele>
        <time>2015-05-09T15:55:20Z</time>
      </trkpt>
      <trkpt lat="45.06502" lon="2.61282">
        <ele>998.17</ele>
        <time>2015-05-09T15:55:38Z</time>
      </trkpt>
      <trkpt lat="45.06487" lon="2.61262">
        <ele>996.85</ele>
        <time>2015-05-09T15:55:53Z</time>
      </trkpt>
      <trkpt lat="45.06475" lon="2.61243">
        <ele>996.06</ele>
        <time>2015-05-09T15:56:07Z</time>
      </trkpt>
      <trkpt lat="45.06457" lon="2.61236">
        <ele>993.54</ele>
        <time>2015-05-09T15:56:32Z</time>
      </trkpt>
      <trkpt lat="45.06439" lon="2.61242">
        <ele>992.16</ele>
        <time>2015-05-09T15:56:48Z</time>
      </trkpt>
      <trkpt lat="45.06421" lon="2.61246">
        <ele>992.36</ele>
        <time>2015-05-09T15:57:00Z</time>
      </trkpt>
      <trkpt lat="45.06402" lon="2.61254">
        <ele>989.86</ele>
        <time>2015-05-09T15:57:15Z</time>
      </trkpt>
      <trkpt lat="45.06385" lon="2.61258">
        <ele>990.63</ele>
        <time>2015-05-09T15:57:30Z</time>
      </trkpt>
      <trkpt lat="45.06367" lon="2.61263">
        <ele>989.96</ele>
        <time>2015-05-09T15:57:45Z</time>
      </trkpt>
      <trkpt lat="45.06348" lon="2.61265">
        <ele>985.48</ele>
        <time>2015-05-09T15:57:59Z</time>
      </trkpt>
      <trkpt lat="45.06329" lon="2.61272">
        <ele>984.58</ele>
        <time>2015-05-09T15:58:13Z</time>
      </trkpt>
      <trkpt lat="45.06314" lon="2.61287">
        <ele>985.94</ele>
        <time>2015-05-09T15:58:27Z</time>
      </trkpt>
      <trkpt lat="45.063" lon="2.61309">
        <ele>989.14</ele>
        <time>2015-05-09T15:58:40Z</time>
      </trkpt>
      <trkpt lat="45.06289" lon="2.61332">
        <ele>990.3</ele>
        <time>2015-05-09T15:58:52Z</time>
      </trkpt>
      <trkpt lat="45.06277" lon="2.61353">
        <ele>992.06</ele>
        <time>2015-05-09T15:59:06Z</time>
      </trkpt>
      <trkpt lat="45.06274" lon="2.61379">
        <ele>988.62</ele>
        <time>2015-05-09T15:59:23Z</time>
      </trkpt>
      <trkpt lat="45.0628" lon="2.61404">
        <ele>985.99</ele>
        <time>2015-05-09T15:59:39Z</time>
      </trkpt>
      <trkpt lat="45.06279" lon="2.6143">
        <ele>987.33</ele>
        <time>2015-05-09T15:59:54Z</time>
      </trkpt>
      <trkpt lat="45.06269" lon="2.61452">
        <ele>982.36</ele>
        <time>2015-05-09T16:00:09Z</time>
      </trkpt>
      <trkpt lat="45.06267" lon="2.61478">
        <ele>986.41</ele>
        <time>2015-05-09T16:00:24Z</time>
      </trkpt>
      <trkpt lat="45.06271" lon="2.61504">
        <ele>985.38</ele>
        <time>2015-05-09T16:00:43Z</time>
      </trkpt>
      <trkpt lat="45.06273" lon="2.61531">
        <ele>988.19</ele>
        <time>2015-05-09T16:01:39Z</time>
      </trkpt>
      <trkpt lat="45.06272" lon="2.61558">
        <ele>986.12</ele>
        <time>2015-05-09T16:01:57Z</time>
      </trkpt>
      <trkpt lat="45.0627" lon="2.61585">
        <ele>994.53</ele>
        <time>2015-05-09T16:02:10Z</time>
      </trkpt>
      <trkpt lat="45.06279" lon="2.61607">
        <ele>992.15</ele>
        <time>2015-05-09T16:02:29Z</time>
      </trkpt>
      <trkpt lat="45.06296" lon="2.61623">
        <ele>992.23</ele>
        <time>2015-05-09T16:02:43Z</time>
      </trkpt>
      <trkpt lat="45.0631" lon="2.6164">
        <ele>992.58</ele>
        <time>2015-05-09T16:02:56Z</time>
      </trkpt>
      <trkpt lat="45.06327" lon="2.61652">
        <ele>989.09</ele>
        <time>2015-05-09T16:03:09Z</time>
      </trkpt>
      <trkpt lat="45.06345" lon="2.61661">
        <ele>986.49</ele>
        <time>2015-05-09T16:03:23Z</time>
      </trkpt>
      <trkpt lat="45.06363" lon="2.61668">
        <ele>986.42</ele>
        <time>2015-05-09T16:03:37Z</time>
      </trkpt>
      <trkpt lat="45.06368" lon="2.61693">
        <ele>988.09</ele>
        <time>2015-05-09T16:03:51Z</time>
      </trkpt>
      <trkpt lat="45.06367" lon="2.6172">
        <ele>988.64</ele>
        <time>2015-05-09T16:04:03Z</time>
      </trkpt>
      <trkpt lat="45.06367" lon="2.61747">
        <ele>989.7</ele>
        <time>2015-05-09T16:04:15Z</time>
      </trkpt>
      <trkpt lat="45.06371" lon="2.61772">
        <ele>988.53</ele>
        <time>2015-05-09T16:04:28Z</time>
      </trkpt>
      <trkpt lat="45.06381" lon="2.61794">
        <ele>989</ele>
        <time>2015-05-09T16:04:41Z</time>
      </trkpt>
      <trkpt lat="45.06391" lon="2.61816">
        <ele>988.72</ele>
        <time>2015-05-09T16:04:56Z</time>
      </trkpt>
      <trkpt lat="45.06398" lon="2.6184">
        <ele>984.7</ele>
        <time>2015-05-09T16:05:11Z</time>
      </trkpt>
      <trkpt lat="45.06398" lon="2.61866">
        <ele>986.62</ele>
        <time>2015-05-09T16:05:23Z</time>
      </trkpt>
      <trkpt lat="45.064" lon="2.61893">
        <ele>987.94</ele>
        <time>2015-05-09T16:05:36Z</time>
      </trkpt>
      <trkpt lat="45.06391" lon="2.61916">
        <ele>986.83</ele>
        <time>2015-05-09T16:05:50Z</time>
      </trkpt>
      <trkpt lat="45.06381" lon="2.61938">
        <ele>987.5</ele>
        <time>2015-05-09T16:06:04Z</time>
      </trkpt>
      <trkpt lat="45.06378" lon="2.61963">
        <ele>983.1</ele>
        <time>2015-05-09T16:06:20Z</time>
      </trkpt>
      <trkpt lat="45.06391" lon="2.61983">
        <ele>977.65</ele>
        <time>2015-05-09T16:06:35Z</time>
      </trkpt>
      <trkpt lat="45.06406" lon="2.61998">
        <ele>980.91</ele>
        <time>2015-05-09T16:06:47Z</time>
      </trkpt>
      <trkpt lat="45.06419" lon="2.62016">
        <ele>982.69</ele>
        <time>2015-05-09T16:07:02Z</time>
      </trkpt>
      <trkpt lat="45.06413" lon="2.62042">
        <ele>983.7</ele>
        <time>2015-05-09T16:07:18Z</time>
      </trkpt>
      <trkpt lat="45.06407" lon="2.62068">
        <ele>987.8</ele>
        <time>2015-05-09T16:07:51Z</time>
      </trkpt>
      <trkpt lat="45.06398" lon="2.6209">
        <ele>988.28</ele>
        <time>2015-05-09T16:08:04Z</time>
      </trkpt>
      <trkpt lat="45.06403" lon="2.62116">
        <ele>977.63</ele>
        <time>2015-05-09T16:08:19Z</time>
      </trkpt>
      <trkpt lat="45.06403" lon="2.62143">
        <ele>975.48</ele>
        <time>2015-05-09T16:08:33Z</time>
      </trkpt>
      <trkpt lat="45.06402" lon="2.62171">
        <ele>975.83</ele>
        <time>2015-05-09T16:08:47Z</time>
      </trkpt>
      <trkpt lat="45.06411" lon="2.62195">
        <ele>973.05</ele>
        <time>2015-05-09T16:09:02Z</time>
      </trkpt>
      <trkpt lat="45.06427" lon="2.62207">
        <ele>974.52</ele>
        <time>2015-05-09T16:09:25Z</time>
      </trkpt>
      <trkpt lat="45.06443" lon="2.62223">
        <ele>970.72</ele>
        <time>2015-05-09T16:09:37Z</time>
      </trkpt>
      <trkpt lat="45.06456" lon="2.62242">
        <ele>967.09</ele>
        <time>2015-05-09T16:09:51Z</time>
      </trkpt>
      <trkpt lat="45.06464" lon="2.62265">
        <ele>969.36</ele>
        <time>2015-05-09T16:10:02Z</time>
      </trkpt>
      <trkpt lat="45.06462" lon="2.62291">
        <ele>974.12</ele>
        <time>2015-05-09T16:10:13Z</time>
      </trkpt>
      <trkpt lat="45.06463" lon="2.62318">
        <ele>977.89</ele>
        <time>2015-05-09T16:10:30Z</time>
      </trkpt>
      <trkpt lat="45.06468" lon="2.62342">
        <ele>980.96</ele>
        <time>2015-05-09T16:10:48Z</time>
      </trkpt>
      <trkpt lat="45.06484" lon="2.62357">
        <ele>984.24</ele>
        <time>2015-05-09T16:11:05Z</time>
      </trkpt>
      <trkpt lat="45.06503" lon="2.62364">
        <ele>985.6</ele>
        <time>2015-05-09T16:11:21Z</time>
      </trkpt>
      <trkpt lat="45.06521" lon="2.62366">
        <ele>983.43</ele>
        <time>2015-05-09T16:11:35Z</time>
      </trkpt>
      <trkpt lat="45.06537" lon="2.62377">
        <ele>981.71</ele>
        <time>2015-05-09T16:11:48Z</time>
      </trkpt>
      <trkpt lat="45.06554" lon="2.62388">
        <ele>981.01</ele>
        <time>2015-05-09T16:12:02Z</time>
      </trkpt>
      <trkpt lat="45.0657" lon="2.62401">
        <ele>982.89</ele>
        <time>2015-05-09T16:12:18Z</time>
      </trkpt>
      <trkpt lat="45.06587" lon="2.62413">
        <ele>987.66</ele>
        <time>2015-05-09T16:12:33Z</time>
      </trkpt>
      <trkpt lat="45.06606" lon="2.62418">
        <ele>983.24</ele>
        <time>2015-05-09T16:12:53Z</time>
      </trkpt>
      <trkpt lat="45.0661" lon="2.62444">
        <ele>986.31</ele>
        <time>2015-05-09T16:13:07Z</time>
      </trkpt>
      <trkpt lat="45.06605" lon="2.6247">
        <ele>984.46</ele>
        <time>2015-05-09T16:13:20Z</time>
      </trkpt>
      <trkpt lat="45.06596" lon="2.62493">
        <ele>983.48</ele>
        <time>2015-05-09T16:13:34Z</time>
      </trkpt>
      <trkpt lat="45.06584" lon="2.62514">
        <ele>982.47</ele>
        <time>2015-05-09T16:13:50Z</time>
      </trkpt>
      <trkpt lat="45.06572" lon="2.62536">
        <ele>981.71</ele>
        <time>2015-05-09T16:14:04Z</time>
      </trkpt>
      <trkpt lat="45.06558" lon="2.62554">
        <ele>981.44</ele>
        <time>2015-05-09T16:14:18Z</time>
      </trkpt>
      <trkpt lat="45.06544" lon="2.62572">
        <ele>982.44</ele>
        <time>2015-05-09T16:14:32Z</time>
      </trkpt>
      <trkpt lat="45.06527" lon="2.62583">
        <ele>979.09</ele>
        <time>2015-05-09T16:14:48Z</time>
      </trkpt>
      <trkpt lat="45.06509" lon="2.62589">
        <ele>977.08</ele>
        <time>2015-05-09T16:15:02Z</time>
      </trkpt>
      <trkpt lat="45.06493" lon="2.62601">
        <ele>974.46</ele>
        <time>2015-05-09T16:15:16Z</time>
      </trkpt>
      <trkpt lat="45.0648" lon="2.6262">
        <ele>974.95</ele>
        <time>2015-05-09T16:15:29Z</time>
      </trkpt>
      <trkpt lat="45.06469" lon="2.62641">
        <ele>975.45</ele>
        <time>2015-05-09T16:15:44Z</time>
      </trkpt>
      <trkpt lat="45.06461" lon="2.62665">
        <ele>973.97</ele>
        <time>2015-05-09T16:15:58Z</time>
      </trkpt>
      <trkpt lat="45.06461" lon="2.62691">
        <ele>972.46</ele>
        <time>2015-05-09T16:16:13Z</time>
      </trkpt>
      <trkpt lat="45.06464" lon="2.62716">
        <ele>973.84</ele>
        <time>2015-05-09T16:16:26Z</time>
      </trkpt>
      <trkpt lat="45.06472" lon="2.6274">
        <ele>971.73</ele>
        <time>2015-05-09T16:16:41Z</time>
      </trkpt>
      <trkpt lat="45.06488" lon="2.62753">
        <ele>965.54</ele>
        <time>2015-05-09T16:16:58Z</time>
      </trkpt>
      <trkpt lat="45.06506" lon="2.6276">
        <ele>961.73</ele>
        <time>2015-05-09T16:17:18Z</time>
      </trkpt>
      <trkpt lat="45.06514" lon="2.62784">
        <ele>959.84</ele>
        <time>2015-05-09T16:17:31Z</time>
      </trkpt>
      <trkpt lat="45.06518" lon="2.62809">
        <ele>958.58</ele>
        <time>2015-05-09T16:17:43Z</time>
      </trkpt>
      <trkpt lat="45.06528" lon="2.62832">
        <ele>957.22</ele>
        <time>2015-05-09T16:17:57Z</time>
      </trkpt>
      <trkpt lat="45.06541" lon="2.6285">
        <ele>951.84</ele>
        <time>2015-05-09T16:19:14Z</time>
      </trkpt>
      <trkpt lat="45.06546" lon="2.62875">
        <ele>947.75</ele>
        <time>2015-05-09T16:19:30Z</time>
      </trkpt>
      <trkpt lat="45.06543" lon="2.62901">
        <ele>947.2</ele>
        <time>2015-05-09T16:19:43Z</time>
      </trkpt>
      <trkpt lat="45.06551" lon="2.62925">
        <ele>938.29</ele>
        <time>2015-05-09T16:20:01Z</time>
      </trkpt>
      <trkpt lat="45.06542" lon="2.62949">
        <ele>939.31</ele>
        <time>2015-05-09T16:20:18Z</time>
      </trkpt>
      <trkpt lat="45.06523" lon="2.62954">
        <ele>939.49</ele>
        <time>2015-05-09T16:20:34Z</time>
      </trkpt>
      <trkpt lat="45.06508" lon="2.62966">
        <ele>933.72</ele>
        <time>2015-05-09T16:20:50Z</time>
      </trkpt>
      <trkpt lat="45.06506" lon="2.62993">
        <ele>932.68</ele>
        <time>2015-05-09T16:21:03Z</time>
      </trkpt>
      <trkpt lat="45.06502" lon="2.63018">
        <ele>933.46</ele>
        <time>2015-05-09T16:21:19Z</time>
      </trkpt>
      <trkpt lat="45.06493" lon="2.63041">
        <ele>936.47</ele>
        <time>2015-05-09T16:21:36Z</time>
      </trkpt>
      <trkpt lat="45.06487" lon="2.63066">
        <ele>933.21</ele>
        <time>2015-05-09T16:21:56Z</time>
      </trkpt>
      <trkpt lat="45.06486" lon="2.63092">
        <ele>930.29</ele>
        <time>2015-05-09T16:22:10Z</time>
      </trkpt>
      <trkpt lat="45.06481" lon="2.63117">
        <ele>929.07</ele>
        <time>2015-05-09T16:22:23Z</time>
      </trkpt>
      <trkpt lat="45.06474" lon="2.6314">
        <ele>922.76</ele>
        <time>2015-05-09T16:22:37Z</time>
      </trkpt>
      <trkpt lat="45.0647" lon="2.63167">
        <ele>920.48</ele>
        <time>2015-05-09T16:22:51Z</time>
      </trkpt>
      <trkpt lat="45.06463" lon="2.63191">
        <ele>920.68</ele>
        <time>2015-05-09T16:23:04Z</time>
      </trkpt>
      <trkpt lat="45.06457" lon="2.63215">
        <ele>920.89</ele>
        <time>2015-05-09T16:23:18Z</time>
      </trkpt>
      <trkpt lat="45.06454" lon="2.63241">
        <ele>918.95</ele>
        <time>2015-05-09T16:23:33Z</time>
      </trkpt>
      <trkpt lat="45.06452" lon="2.63268">
        <ele>916.03</ele>
        <time>2015-05-09T16:23:48Z</time>
      </trkpt>
      <trkpt lat="45.06456" lon="2.63295">
        <ele>913.99</ele>
        <time>2015-05-09T16:24:03Z</time>
      </trkpt>
      <trkpt lat="45.06466" lon="2.63315">
        <ele>912.91</ele>
        <time>2015-05-09T16:24:16Z</time>
      </trkpt>
      <trkpt lat="45.0646" lon="2.6334">
        <ele>907.76</ele>
        <time>2015-05-09T16:24:32Z</time>
      </trkpt>
      <trkpt lat="45.06449" lon="2.63361">
        <ele>904.1</ele>
        <time>2015-05-09T16:24:46Z</time>
      </trkpt>
      <trkpt lat="45.06439" lon="2.63384">
        <ele>897.75</ele>
        <time>2015-05-09T16:25:01Z</time>
      </trkpt>
      <trkpt lat="45.06438" lon="2.6341">
        <ele>898.66</ele>
        <time>2015-05-09T16:25:16Z</time>
      </trkpt>
      <trkpt lat="45.06433" lon="2.63434">
        <ele>897.58</ele>
        <time>2015-05-09T16:25:28Z</time>
      </trkpt>
      <trkpt lat="45.06427" lon="2.6346">
        <ele>894.02</ele>
        <time>2015-05-09T16:25:42Z</time>
      </trkpt>
      <trkpt lat="45.06423" lon="2.63487">
        <ele>893.94</ele>
        <time>2015-05-09T16:25:55Z</time>
      </trkpt>
      <trkpt lat="45.06425" lon="2.63514">
        <ele>894.45</ele>
        <time>2015-05-09T16:26:09Z</time>
      </trkpt>
      <trkpt lat="45.06424" lon="2.6354">
        <ele>895.49</ele>
        <time>2015-05-09T16:26:22Z</time>
      </trkpt>
      <trkpt lat="45.06421" lon="2.63566">
        <ele>893.52</ele>
        <time>2015-05-09T16:26:37Z</time>
      </trkpt>
      <trkpt lat="45.06417" lon="2.63593">
        <ele>892.94</ele>
        <time>2015-05-09T16:26:52Z</time>
      </trkpt>
      <trkpt lat="45.06413" lon="2.63619">
        <ele>893.45</ele>
        <time>2015-05-09T16:27:04Z</time>
      </trkpt>
      <trkpt lat="45.06409" lon="2.63643">
        <ele>894.29</ele>
        <time>2015-05-09T16:27:17Z</time>
      </trkpt>
      <trkpt lat="45.06407" lon="2.63669">
        <ele>896.45</ele>
        <time>2015-05-09T16:27:30Z</time>
      </trkpt>
      <trkpt lat="45.06406" lon="2.63695">
        <ele>898.36</ele>
        <time>2015-05-09T16:27:44Z</time>
      </trkpt>
      <trkpt lat="45.06412" lon="2.63719">
        <ele>899.23</ele>
        <time>2015-05-09T16:27:58Z</time>
      </trkpt>
      <trkpt lat="45.06426" lon="2.63737">
        <ele>898.71</ele>
        <time>2015-05-09T16:28:12Z</time>
      </trkpt>
      <trkpt lat="45.0644" lon="2.63753">
        <ele>895.62</ele>
        <time>2015-05-09T16:28:29Z</time>
      </trkpt>
      <trkpt lat="45.06453" lon="2.63773">
        <ele>894.48</ele>
        <time>2015-05-09T16:28:57Z</time>
      </trkpt>
      <trkpt lat="45.06463" lon="2.63795">
        <ele>895.81</ele>
        <time>2015-05-09T16:29:12Z</time>
      </trkpt>
      <trkpt lat="45.06463" lon="2.63823">
        <ele>899.15</ele>
        <time>2015-05-09T16:29:26Z</time>
      </trkpt>
      <trkpt lat="45.06463" lon="2.63851">
        <ele>897.97</ele>
        <time>2015-05-09T16:29:41Z</time>
      </trkpt>
      <trkpt lat="45.0646" lon="2.63876">
        <ele>897.77</ele>
        <time>2015-05-09T16:29:55Z</time>
      </trkpt>
      <trkpt lat="45.06458" lon="2.63902">
        <ele>897.47</ele>
        <time>2015-05-09T16:30:09Z</time>
      </trkpt>
      <trkpt lat="45.06455" lon="2.63928">
        <ele>895.51</ele>
        <time>2015-05-09T16:30:23Z</time>
      </trkpt>
      <trkpt lat="45.0645" lon="2.63953">
        <ele>894.55</ele>
        <time>2015-05-09T16:30:38Z</time>
      </trkpt>
      <trkpt lat="45.06446" lon="2.63978">
        <ele>893.45</ele>
        <time>2015-05-09T16:30:53Z</time>
      </trkpt>
      <trkpt lat="45.06441" lon="2.63999">
        <ele>897.46</ele>
        <time>2015-05-09T16:31:32Z</time>
      </trkpt>
      <trkpt lat="45.06457" lon="2.64008">
        <ele>898.22</ele>
        <time>2015-05-09T16:32:58Z</time>
      </trkpt>
      <trkpt lat="45.06463" lon="2.64033">
        <ele>904.3</ele>
        <time>2015-05-09T16:33:21Z</time>
      </trkpt>
      <trkpt lat="45.06464" lon="2.64047">
        <ele>900.46</ele>
        <time>2015-05-09T16:33:36Z</time>
      </trkpt>
      <trkpt lat="45.06468" lon="2.64072">
        <ele>904.38</ele>
        <time>2015-05-09T16:33:56Z</time>
      </trkpt>
      <trkpt lat="45.06475" lon="2.64097">
        <ele>906.87</ele>
        <time>2015-05-09T16:34:13Z</time>
      </trkpt>
      <trkpt lat="45.06484" lon="2.6412">
        <ele>910.26</ele>
        <time>2015-05-09T16:34:29Z</time>
      </trkpt>
      <trkpt lat="45.06495" lon="2.6414">
        <ele>912.45</ele>
        <time>2015-05-09T16:34:44Z</time>
      </trkpt>
      <trkpt lat="45.06513" lon="2.64142">
        <ele>914.88</ele>
        <time>2015-05-09T16:35:01Z</time>
      </trkpt>
      <trkpt lat="45.0653" lon="2.64133">
        <ele>916.28</ele>
        <time>2015-05-09T16:35:19Z</time>
      </trkpt>
      <trkpt lat="45.06548" lon="2.64128">
        <ele>914.58</ele>
        <time>2015-05-09T16:35:34Z</time>
      </trkpt>
      <trkpt lat="45.06567" lon="2.64131">
        <ele>915.47</ele>
        <time>2015-05-09T16:35:48Z</time>
      </trkpt>
      <trkpt lat="45.06584" lon="2.64143">
        <ele>916.74</ele>
        <time>2015-05-09T16:36:05Z</time>
      </trkpt>
      <trkpt lat="45.06591" lon="2.64167">
        <ele>919.43</ele>
        <time>2015-05-09T16:36:24Z</time>
      </trkpt>
      <trkpt lat="45.06587" lon="2.64193">
        <ele>923.55</ele>
        <time>2015-05-09T16:37:16Z</time>
      </trkpt>
      <trkpt lat="45.06586" lon="2.64219">
        <ele>924.45</ele>
        <time>2015-05-09T16:37:31Z</time>
      </trkpt>
      <trkpt lat="45.06587" lon="2.64245">
        <ele>924.45</ele>
        <time>2015-05-09T16:37:46Z</time>
      </trkpt>
      <trkpt lat="45.06591" lon="2.64271">
        <ele>926.3</ele>
        <time>2015-05-09T16:37:59Z</time>
      </trkpt>
      <trkpt lat="45.06596" lon="2.64296">
        <ele>926.39</ele>
        <time>2015-05-09T16:38:12Z</time>
      </trkpt>
      <trkpt lat="45.06604" lon="2.6432">
        <ele>927.92</ele>
        <time>2015-05-09T16:38:25Z</time>
      </trkpt>
      <trkpt lat="45.06614" lon="2.64342">
        <ele>928.33</ele>
        <time>2015-05-09T16:38:39Z</time>
      </trkpt>
      <trkpt lat="45.06625" lon="2.64363">
        <ele>931.45</ele>
        <time>2015-05-09T16:38:53Z</time>
      </trkpt>
      <trkpt lat="45.06642" lon="2.64375">
        <ele>932.45</ele>
        <time>2015-05-09T16:39:10Z</time>
      </trkpt>
      <trkpt lat="45.06657" lon="2.64391">
        <ele>932.98</ele>
        <time>2015-05-09T16:39:24Z</time>
      </trkpt>
      <trkpt lat="45.06664" lon="2.64415">
        <ele>930.98</ele>
        <time>2015-05-09T16:39:38Z</time>
      </trkpt>
      <trkpt lat="45.0667" lon="2.64449">
        <ele>930.46</ele>
        <time>2015-05-09T16:39:57Z</time>
      </trkpt>
      <trkpt lat="45.06678" lon="2.64472">
        <ele>934.64</ele>
        <time>2015-05-09T16:40:13Z</time>
      </trkpt>
      <trkpt lat="45.06683" lon="2.64508">
        <ele>938.46</ele>
        <time>2015-05-09T16:40:38Z</time>
      </trkpt>
      <trkpt lat="45.06691" lon="2.64532">
        <ele>938.14</ele>
        <time>2015-05-09T16:40:55Z</time>
      </trkpt>
      <trkpt lat="45.06695" lon="2.64558">
        <ele>938.39</ele>
        <time>2015-05-09T16:41:09Z</time>
      </trkpt>
      <trkpt lat="45.06699" lon="2.64584">
        <ele>937.94</ele>
        <time>2015-05-09T16:41:23Z</time>
      </trkpt>
      <trkpt lat="45.06706" lon="2.64609">
        <ele>932.61</ele>
        <time>2015-05-09T16:41:37Z</time>
      </trkpt>
      <trkpt lat="45.06713" lon="2.64635">
        <ele>932.49</ele>
        <time>2015-05-09T16:41:50Z</time>
      </trkpt>
      <trkpt lat="45.06721" lon="2.64659">
        <ele>930.62</ele>
        <time>2015-05-09T16:42:05Z</time>
      </trkpt>
      <trkpt lat="45.0673" lon="2.64682">
        <ele>928.99</ele>
        <time>2015-05-09T16:42:20Z</time>
      </trkpt>
      <trkpt lat="45.06739" lon="2.64705">
        <ele>928.5</ele>
        <time>2015-05-09T16:42:32Z</time>
      </trkpt>
      <trkpt lat="45.06745" lon="2.64729">
        <ele>927.28</ele>
        <time>2015-05-09T16:42:46Z</time>
      </trkpt>
      <trkpt lat="45.06747" lon="2.64755">
        <ele>928.45</ele>
        <time>2015-05-09T16:42:58Z</time>
      </trkpt>
      <trkpt lat="45.0675" lon="2.64783">
        <ele>930.21</ele>
        <time>2015-05-09T16:43:12Z</time>
      </trkpt>
      <trkpt lat="45.06754" lon="2.6481">
        <ele>925.49</ele>
        <time>2015-05-09T16:43:29Z</time>
      </trkpt>
      <trkpt lat="45.06762" lon="2.64834">
        <ele>925.3</ele>
        <time>2015-05-09T16:43:40Z</time>
      </trkpt>
      <trkpt lat="45.06761" lon="2.6486">
        <ele>922.46</ele>
        <time>2015-05-09T16:43:55Z</time>
      </trkpt>
      <trkpt lat="45.06758" lon="2.64886">
        <ele>925.53</ele>
        <time>2015-05-09T16:44:46Z</time>
      </trkpt>
      <trkpt lat="45.06756" lon="2.64912">
        <ele>929.75</ele>
        <time>2015-05-09T16:44:58Z</time>
      </trkpt>
      <trkpt lat="45.06758" lon="2.64941">
        <ele>930.43</ele>
        <time>2015-05-09T16:45:13Z</time>
      </trkpt>
      <trkpt lat="45.06771" lon="2.64959">
        <ele>926.94</ele>
        <time>2015-05-09T16:45:27Z</time>
      </trkpt>
      <trkpt lat="45.06766" lon="2.64984">
        <ele>935.76</ele>
        <time>2015-05-09T16:45:37Z</time>
      </trkpt>
      <trkpt lat="45.06775" lon="2.65007">
        <ele>939.87</ele>
        <time>2015-05-09T16:45:49Z</time>
      </trkpt>
      <trkpt lat="45.06781" lon="2.65031">
        <ele>940.18</ele>
        <time>2015-05-09T16:46:07Z</time>
      </trkpt>
      <trkpt lat="45.06797" lon="2.65046">
        <ele>936.44</ele>
        <time>2015-05-09T16:46:24Z</time>
      </trkpt>
      <trkpt lat="45.06808" lon="2.65067">
        <ele>936.34</ele>
        <time>2015-05-09T16:46:40Z</time>
      </trkpt>
      <trkpt lat="45.06822" lon="2.65085">
        <ele>935.27</ele>
        <time>2015-05-09T16:46:58Z</time>
      </trkpt>
      <trkpt lat="45.06831" lon="2.65107">
        <ele>937.08</ele>
        <time>2015-05-09T16:47:12Z</time>
      </trkpt>
      <trkpt lat="45.06836" lon="2.65132">
        <ele>938.52</ele>
        <time>2015-05-09T16:47:25Z</time>
      </trkpt>
      <trkpt lat="45.06839" lon="2.65162">
        <ele>936.08</ele>
        <time>2015-05-09T16:47:43Z</time>
      </trkpt>
      <trkpt lat="45.06839" lon="2.65189">
        <ele>938.73</ele>
        <time>2015-05-09T16:48:03Z</time>
      </trkpt>
      <trkpt lat="45.06843" lon="2.65214">
        <ele>935.91</ele>
        <time>2015-05-09T16:48:19Z</time>
      </trkpt>
      <trkpt lat="45.06848" lon="2.65242">
        <ele>936.71</ele>
        <time>2015-05-09T16:48:35Z</time>
      </trkpt>
      <trkpt lat="45.06848" lon="2.65269">
        <ele>939.46</ele>
        <time>2015-05-09T16:48:47Z</time>
      </trkpt>
      <trkpt lat="45.06853" lon="2.65295">
        <ele>935.76</ele>
        <time>2015-05-09T16:49:05Z</time>
      </trkpt>
      <trkpt lat="45.06856" lon="2.65322">
        <ele>938.96</ele>
        <time>2015-05-09T16:49:23Z</time>
      </trkpt>
      <trkpt lat="45.06858" lon="2.65348">
        <ele>938.08</ele>
        <time>2015-05-09T16:49:36Z</time>
      </trkpt>
      <trkpt lat="45.06856" lon="2.65375">
        <ele>942.31</ele>
        <time>2015-05-09T16:49:48Z</time>
      </trkpt>
      <trkpt lat="45.06865" lon="2.65397">
        <ele>943.99</ele>
        <time>2015-05-09T16:50:06Z</time>
      </trkpt>
      <trkpt lat="45.06873" lon="2.65421">
        <ele>949.29</ele>
        <time>2015-05-09T16:50:24Z</time>
      </trkpt>
      <trkpt lat="45.06887" lon="2.65442">
        <ele>945.4</ele>
        <time>2015-05-09T16:50:41Z</time>
      </trkpt>
      <trkpt lat="45.069" lon="2.6546">
        <ele>943.59</ele>
        <time>2015-05-09T16:50:55Z</time>
      </trkpt>
      <trkpt lat="45.06908" lon="2.65483">
        <ele>942.58</ele>
        <time>2015-05-09T16:51:09Z</time>
      </trkpt>
      <trkpt lat="45.0692" lon="2.65504">
        <ele>934.77</ele>
        <time>2015-05-09T16:51:29Z</time>
      </trkpt>
      <trkpt lat="45.06937" lon="2.65517">
        <ele>938.89</ele>
        <time>2015-05-09T16:51:54Z</time>
      </trkpt>
      <trkpt lat="45.06955" lon="2.65524">
        <ele>938.57</ele>
        <time>2015-05-09T16:52:10Z</time>
      </trkpt>
      <trkpt lat="45.06972" lon="2.65535">
        <ele>934.67</ele>
        <time>2015-05-09T16:52:32Z</time>
      </trkpt>
      <trkpt lat="45.06986" lon="2.65551">
        <ele>937.78</ele>
        <time>2015-05-09T16:52:43Z</time>
      </trkpt>
      <trkpt lat="45.06998" lon="2.65573">
        <ele>942.17</ele>
        <time>2015-05-09T16:52:56Z</time>
      </trkpt>
      <trkpt lat="45.07008" lon="2.65595">
        <ele>938.66</ele>
        <time>2015-05-09T16:53:12Z</time>
      </trkpt>
      <trkpt lat="45.07013" lon="2.65602">
        <ele>935.46</ele>
        <time>2015-05-09T16:53:18Z</time>
      </trkpt>
      <trkpt lat="45.07029" lon="2.65617">
        <ele>930.4</ele>
        <time>2015-05-09T16:53:35Z</time>
      </trkpt>
      <trkpt lat="45.07039" lon="2.65639">
        <ele>930.57</ele>
        <time>2015-05-09T16:53:50Z</time>
      </trkpt>
      <trkpt lat="45.07029" lon="2.65661">
        <ele>936.14</ele>
        <time>2015-05-09T16:54:04Z</time>
      </trkpt>
      <trkpt lat="45.07014" lon="2.65677">
        <ele>927.29</ele>
        <time>2015-05-09T16:54:18Z</time>
      </trkpt>
      <trkpt lat="45.06999" lon="2.65692">
        <ele>924.45</ele>
        <time>2015-05-09T16:54:32Z</time>
      </trkpt>
      <trkpt lat="45.06999" lon="2.65719">
        <ele>921.9</ele>
        <time>2015-05-09T16:54:50Z</time>
      </trkpt>
      <trkpt lat="45.07009" lon="2.65741">
        <ele>921.99</ele>
        <time>2015-05-09T16:55:22Z</time>
      </trkpt>
      <trkpt lat="45.06992" lon="2.65732">
        <ele>925.46</ele>
        <time>2015-05-09T16:56:21Z</time>
      </trkpt>
      <trkpt lat="45.06976" lon="2.65745">
        <ele>926.33</ele>
        <time>2015-05-09T16:56:35Z</time>
      </trkpt>
      <trkpt lat="45.06959" lon="2.65759">
        <ele>927.32</ele>
        <time>2015-05-09T16:57:00Z</time>
      </trkpt>
      <trkpt lat="45.0694" lon="2.65763">
        <ele>928.64</ele>
        <time>2015-05-09T16:57:13Z</time>
      </trkpt>
      <trkpt lat="45.06924" lon="2.65753">
        <ele>931.79</ele>
        <time>2015-05-09T16:57:26Z</time>
      </trkpt>
      <trkpt lat="45.06906" lon="2.6574">
        <ele>931.24</ele>
        <time>2015-05-09T16:57:41Z</time>
      </trkpt>
      <trkpt lat="45.0689" lon="2.65724">
        <ele>928.46</ele>
        <time>2015-05-09T16:57:59Z</time>
      </trkpt>
      <trkpt lat="45.06874" lon="2.65711">
        <ele>927.51</ele>
        <time>2015-05-09T16:58:13Z</time>
      </trkpt>
      <trkpt lat="45.06858" lon="2.65699">
        <ele>926.21</ele>
        <time>2015-05-09T16:58:26Z</time>
      </trkpt>
      <trkpt lat="45.06841" lon="2.65687">
        <ele>928.21</ele>
        <time>2015-05-09T16:58:41Z</time>
      </trkpt>
      <trkpt lat="45.06824" lon="2.65699">
        <ele>931.03</ele>
        <time>2015-05-09T16:58:56Z</time>
      </trkpt>
      <trkpt lat="45.06814" lon="2.65721">
        <ele>933.21</ele>
        <time>2015-05-09T16:59:10Z</time>
      </trkpt>
      <trkpt lat="45.06796" lon="2.65731">
        <ele>930.9</ele>
        <time>2015-05-09T16:59:29Z</time>
      </trkpt>
      <trkpt lat="45.06784" lon="2.65711">
        <ele>932.47</ele>
        <time>2015-05-09T16:59:54Z</time>
      </trkpt>
      <trkpt lat="45.06769" lon="2.65726">
        <ele>935.35</ele>
        <time>2015-05-09T17:00:28Z</time>
      </trkpt>
      <trkpt lat="45.06764" lon="2.65725">
        <ele>948.29</ele>
        <time>2015-05-10T06:32:34Z</time>
      </trkpt>
      <trkpt lat="45.06764" lon="2.65751">
        <ele>936.12</ele>
        <time>2015-05-10T06:33:48Z</time>
      </trkpt>
      <trkpt lat="45.06772" lon="2.65775">
        <ele>935.33</ele>
        <time>2015-05-10T06:34:17Z</time>
      </trkpt>
      <trkpt lat="45.06781" lon="2.65797">
        <ele>940.63</ele>
        <time>2015-05-10T06:34:31Z</time>
      </trkpt>
      <trkpt lat="45.06786" lon="2.65822">
        <ele>941.45</ele>
        <time>2015-05-10T06:34:47Z</time>
      </trkpt>
      <trkpt lat="45.06786" lon="2.65848">
        <ele>941.16</ele>
        <time>2015-05-10T06:35:03Z</time>
      </trkpt>
      <trkpt lat="45.06788" lon="2.65875">
        <ele>942.27</ele>
        <time>2015-05-10T06:35:26Z</time>
      </trkpt>
      <trkpt lat="45.06798" lon="2.65898">
        <ele>948.47</ele>
        <time>2015-05-10T06:35:45Z</time>
      </trkpt>
      <trkpt lat="45.06793" lon="2.65923">
        <ele>948.44</ele>
        <time>2015-05-10T06:36:10Z</time>
      </trkpt>
      <trkpt lat="45.06783" lon="2.65945">
        <ele>952.69</ele>
        <time>2015-05-10T06:36:33Z</time>
      </trkpt>
      <trkpt lat="45.06773" lon="2.65967">
        <ele>957.17</ele>
        <time>2015-05-10T06:37:30Z</time>
      </trkpt>
      <trkpt lat="45.06756" lon="2.6596">
        <ele>959.21</ele>
        <time>2015-05-10T06:38:19Z</time>
      </trkpt>
      <trkpt lat="45.06739" lon="2.6595">
        <ele>963.14</ele>
        <time>2015-05-10T06:38:47Z</time>
      </trkpt>
      <trkpt lat="45.0673" lon="2.65972">
        <ele>977.05</ele>
        <time>2015-05-10T06:39:47Z</time>
      </trkpt>
      <trkpt lat="45.06724" lon="2.65996">
        <ele>980.61</ele>
        <time>2015-05-10T06:40:16Z</time>
      </trkpt>
      <trkpt lat="45.06707" lon="2.66005">
        <ele>975.03</ele>
        <time>2015-05-10T06:40:42Z</time>
      </trkpt>
      <trkpt lat="45.06689" lon="2.66011">
        <ele>980.64</ele>
        <time>2015-05-10T06:41:18Z</time>
      </trkpt>
      <trkpt lat="45.06671" lon="2.66016">
        <ele>980.17</ele>
        <time>2015-05-10T06:41:37Z</time>
      </trkpt>
      <trkpt lat="45.06664" lon="2.66042">
        <ele>990.51</ele>
        <time>2015-05-10T06:41:56Z</time>
      </trkpt>
      <trkpt lat="45.06656" lon="2.66065">
        <ele>993.71</ele>
        <time>2015-05-10T06:42:37Z</time>
      </trkpt>
      <trkpt lat="45.06644" lon="2.66087">
        <ele>996.24</ele>
        <time>2015-05-10T06:43:01Z</time>
      </trkpt>
      <trkpt lat="45.06635" lon="2.6611">
        <ele>998.04</ele>
        <time>2015-05-10T06:43:18Z</time>
      </trkpt>
      <trkpt lat="45.0662" lon="2.66126">
        <ele>1006</ele>
        <time>2015-05-10T06:43:55Z</time>
      </trkpt>
      <trkpt lat="45.06602" lon="2.66128">
        <ele>995.54</ele>
        <time>2015-05-10T06:44:15Z</time>
      </trkpt>
      <trkpt lat="45.06584" lon="2.6613">
        <ele>1006.53</ele>
        <time>2015-05-10T06:44:56Z</time>
      </trkpt>
      <trkpt lat="45.06566" lon="2.66129">
        <ele>1013.61</ele>
        <time>2015-05-10T06:45:22Z</time>
      </trkpt>
      <trkpt lat="45.06548" lon="2.66133">
        <ele>1018.88</ele>
        <time>2015-05-10T06:45:45Z</time>
      </trkpt>
      <trkpt lat="45.0653" lon="2.66129">
        <ele>1017.27</ele>
        <time>2015-05-10T06:46:08Z</time>
      </trkpt>
      <trkpt lat="45.06512" lon="2.66122">
        <ele>1022.25</ele>
        <time>2015-05-10T06:46:32Z</time>
      </trkpt>
      <trkpt lat="45.06495" lon="2.66129">
        <ele>1029.7</ele>
        <time>2015-05-10T06:47:23Z</time>
      </trkpt>
      <trkpt lat="45.06477" lon="2.66127">
        <ele>1026.54</ele>
        <time>2015-05-10T06:47:47Z</time>
      </trkpt>
      <trkpt lat="45.06459" lon="2.66122">
        <ele>1031.92</ele>
        <time>2015-05-10T06:48:13Z</time>
      </trkpt>
      <trkpt lat="45.0644" lon="2.66121">
        <ele>1039.45</ele>
        <time>2015-05-10T06:49:04Z</time>
      </trkpt>
      <trkpt lat="45.06422" lon="2.6613">
        <ele>1042.59</ele>
        <time>2015-05-10T06:49:37Z</time>
      </trkpt>
      <trkpt lat="45.06404" lon="2.66145">
        <ele>1041.65</ele>
        <time>2015-05-10T06:49:48Z</time>
      </trkpt>
      <trkpt lat="45.06384" lon="2.66153">
        <ele>1052.45</ele>
        <time>2015-05-10T06:50:25Z</time>
      </trkpt>
      <trkpt lat="45.06365" lon="2.66151">
        <ele>1055.95</ele>
        <time>2015-05-10T06:50:52Z</time>
      </trkpt>
      <trkpt lat="45.06349" lon="2.66163">
        <ele>1058.39</ele>
        <time>2015-05-10T06:51:41Z</time>
      </trkpt>
      <trkpt lat="45.06331" lon="2.66165">
        <ele>1062.8</ele>
        <time>2015-05-10T06:52:53Z</time>
      </trkpt>
      <trkpt lat="45.06322" lon="2.66143">
        <ele>1074.7</ele>
        <time>2015-05-10T06:53:38Z</time>
      </trkpt>
      <trkpt lat="45.06305" lon="2.66136">
        <ele>1077.2</ele>
        <time>2015-05-10T06:54:16Z</time>
      </trkpt>
      <trkpt lat="45.06287" lon="2.6613">
        <ele>1080.67</ele>
        <time>2015-05-10T06:55:12Z</time>
      </trkpt>
      <trkpt lat="45.06278" lon="2.66108">
        <ele>1084.45</ele>
        <time>2015-05-10T06:55:44Z</time>
      </trkpt>
      <trkpt lat="45.06268" lon="2.66086">
        <ele>1092.18</ele>
        <time>2015-05-10T06:56:12Z</time>
      </trkpt>
      <trkpt lat="45.06255" lon="2.66066">
        <ele>1097.83</ele>
        <time>2015-05-10T06:56:41Z</time>
      </trkpt>
      <trkpt lat="45.06239" lon="2.66056">
        <ele>1104.78</ele>
        <time>2015-05-10T06:57:13Z</time>
      </trkpt>
      <trkpt lat="45.06222" lon="2.66048">
        <ele>1107.78</ele>
        <time>2015-05-10T06:57:37Z</time>
      </trkpt>
      <trkpt lat="45.06205" lon="2.66037">
        <ele>1111.34</ele>
        <time>2015-05-10T06:58:03Z</time>
      </trkpt>
      <trkpt lat="45.06189" lon="2.6605">
        <ele>1108.08</ele>
        <time>2015-05-10T06:58:53Z</time>
      </trkpt>
      <trkpt lat="45.06178" lon="2.66071">
        <ele>1120.06</ele>
        <time>2015-05-10T06:59:05Z</time>
      </trkpt>
      <trkpt lat="45.06161" lon="2.66084">
        <ele>1116.36</ele>
        <time>2015-05-10T06:59:34Z</time>
      </trkpt>
      <trkpt lat="45.06149" lon="2.66102">
        <ele>1122.91</ele>
        <time>2015-05-10T06:59:55Z</time>
      </trkpt>
      <trkpt lat="45.06132" lon="2.66117">
        <ele>1130.22</ele>
        <time>2015-05-10T07:00:12Z</time>
      </trkpt>
      <trkpt lat="45.06115" lon="2.6613">
        <ele>1127.68</ele>
        <time>2015-05-10T07:00:25Z</time>
      </trkpt>
      <trkpt lat="45.06099" lon="2.66144">
        <ele>1129.03</ele>
        <time>2015-05-10T07:00:42Z</time>
      </trkpt>
      <trkpt lat="45.06084" lon="2.66161">
        <ele>1131.92</ele>
        <time>2015-05-10T07:00:57Z</time>
      </trkpt>
      <trkpt lat="45.06068" lon="2.66173">
        <ele>1124.48</ele>
        <time>2015-05-10T07:01:24Z</time>
      </trkpt>
      <trkpt lat="45.06055" lon="2.66193">
        <ele>1124.37</ele>
        <time>2015-05-10T07:01:42Z</time>
      </trkpt>
      <trkpt lat="45.06044" lon="2.66213">
        <ele>1133.67</ele>
        <time>2015-05-10T07:01:52Z</time>
      </trkpt>
      <trkpt lat="45.06029" lon="2.66227">
        <ele>1139.61</ele>
        <time>2015-05-10T07:02:08Z</time>
      </trkpt>
      <trkpt lat="45.06015" lon="2.66243">
        <ele>1142.34</ele>
        <time>2015-05-10T07:02:33Z</time>
      </trkpt>
      <trkpt lat="45.05999" lon="2.66258">
        <ele>1151.19</ele>
        <time>2015-05-10T07:02:51Z</time>
      </trkpt>
      <trkpt lat="45.05983" lon="2.66271">
        <ele>1154.14</ele>
        <time>2015-05-10T07:03:10Z</time>
      </trkpt>
      <trkpt lat="45.05969" lon="2.6629">
        <ele>1147.08</ele>
        <time>2015-05-10T07:03:36Z</time>
      </trkpt>
      <trkpt lat="45.0597" lon="2.66316">
        <ele>1158.96</ele>
        <time>2015-05-10T07:04:28Z</time>
      </trkpt>
      <trkpt lat="45.05981" lon="2.66337">
        <ele>1155.08</ele>
        <time>2015-05-10T07:04:45Z</time>
      </trkpt>
      <trkpt lat="45.05976" lon="2.66362">
        <ele>1156.58</ele>
        <time>2015-05-10T07:05:07Z</time>
      </trkpt>
      <trkpt lat="45.05959" lon="2.66376">
        <ele>1157.96</ele>
        <time>2015-05-10T07:05:20Z</time>
      </trkpt>
      <trkpt lat="45.05942" lon="2.66386">
        <ele>1156.73</ele>
        <time>2015-05-10T07:05:33Z</time>
      </trkpt>
      <trkpt lat="45.05929" lon="2.66405">
        <ele>1155.38</ele>
        <time>2015-05-10T07:05:49Z</time>
      </trkpt>
      <trkpt lat="45.05915" lon="2.66421">
        <ele>1144.15</ele>
        <time>2015-05-10T07:06:07Z</time>
      </trkpt>
      <trkpt lat="45.05902" lon="2.6644">
        <ele>1142.03</ele>
        <time>2015-05-10T07:06:22Z</time>
      </trkpt>
      <trkpt lat="45.05896" lon="2.66464">
        <ele>1153.4</ele>
        <time>2015-05-10T07:06:32Z</time>
      </trkpt>
      <trkpt lat="45.05893" lon="2.66491">
        <ele>1156.7</ele>
        <time>2015-05-10T07:06:45Z</time>
      </trkpt>
      <trkpt lat="45.05892" lon="2.66517">
        <ele>1155.48</ele>
        <time>2015-05-10T07:06:58Z</time>
      </trkpt>
      <trkpt lat="45.0589" lon="2.66544">
        <ele>1152.46</ele>
        <time>2015-05-10T07:07:15Z</time>
      </trkpt>
      <trkpt lat="45.05883" lon="2.66569">
        <ele>1153.64</ele>
        <time>2015-05-10T07:07:30Z</time>
      </trkpt>
      <trkpt lat="45.05873" lon="2.66591">
        <ele>1156.36</ele>
        <time>2015-05-10T07:07:43Z</time>
      </trkpt>
      <trkpt lat="45.05867" lon="2.66615">
        <ele>1154.62</ele>
        <time>2015-05-10T07:08:02Z</time>
      </trkpt>
      <trkpt lat="45.05877" lon="2.66637">
        <ele>1165.72</ele>
        <time>2015-05-10T07:08:25Z</time>
      </trkpt>
      <trkpt lat="45.05889" lon="2.66657">
        <ele>1161.92</ele>
        <time>2015-05-10T07:09:08Z</time>
      </trkpt>
      <trkpt lat="45.05881" lon="2.66682">
        <ele>1170.67</ele>
        <time>2015-05-10T07:10:31Z</time>
      </trkpt>
      <trkpt lat="45.05866" lon="2.66696">
        <ele>1179.06</ele>
        <time>2015-05-10T07:11:00Z</time>
      </trkpt>
      <trkpt lat="45.05853" lon="2.66716">
        <ele>1183.34</ele>
        <time>2015-05-10T07:11:36Z</time>
      </trkpt>
      <trkpt lat="45.05838" lon="2.66733">
        <ele>1184.97</ele>
        <time>2015-05-10T07:12:06Z</time>
      </trkpt>
      <trkpt lat="45.05826" lon="2.66754">
        <ele>1189.32</ele>
        <time>2015-05-10T07:12:27Z</time>
      </trkpt>
      <trkpt lat="45.05823" lon="2.66779">
        <ele>1195.9</ele>
        <time>2015-05-10T07:12:42Z</time>
      </trkpt>
      <trkpt lat="45.05817" lon="2.66806">
        <ele>1199.5</ele>
        <time>2015-05-10T07:12:59Z</time>
      </trkpt>
      <trkpt lat="45.05836" lon="2.66809">
        <ele>1195.07</ele>
        <time>2015-05-10T07:13:53Z</time>
      </trkpt>
      <trkpt lat="45.05854" lon="2.6681">
        <ele>1187.36</ele>
        <time>2015-05-10T07:14:17Z</time>
      </trkpt>
      <trkpt lat="45.05872" lon="2.66814">
        <ele>1203.39</ele>
        <time>2015-05-10T07:16:45Z</time>
      </trkpt>
      <trkpt lat="45.05888" lon="2.66825">
        <ele>1207.47</ele>
        <time>2015-05-10T07:17:07Z</time>
      </trkpt>
      <trkpt lat="45.05905" lon="2.66835">
        <ele>1197.45</ele>
        <time>2015-05-10T07:17:50Z</time>
      </trkpt>
      <trkpt lat="45.05922" lon="2.66848">
        <ele>1200.45</ele>
        <time>2015-05-10T07:18:42Z</time>
      </trkpt>
      <trkpt lat="45.05941" lon="2.66856">
        <ele>1209.33</ele>
        <time>2015-05-10T07:18:51Z</time>
      </trkpt>
      <trkpt lat="45.0596" lon="2.66865">
        <ele>1211.92</ele>
        <time>2015-05-10T07:19:06Z</time>
      </trkpt>
      <trkpt lat="45.05971" lon="2.66888">
        <ele>1211.91</ele>
        <time>2015-05-10T07:19:25Z</time>
      </trkpt>
      <trkpt lat="45.05967" lon="2.66914">
        <ele>1211.1</ele>
        <time>2015-05-10T07:19:39Z</time>
      </trkpt>
      <trkpt lat="45.05969" lon="2.66941">
        <ele>1211.92</ele>
        <time>2015-05-10T07:20:01Z</time>
      </trkpt>
      <trkpt lat="45.05955" lon="2.66959">
        <ele>1216.04</ele>
        <time>2015-05-10T07:20:22Z</time>
      </trkpt>
      <trkpt lat="45.05943" lon="2.66979">
        <ele>1219.86</ele>
        <time>2015-05-10T07:20:50Z</time>
      </trkpt>
      <trkpt lat="45.05936" lon="2.67006">
        <ele>1220.15</ele>
        <time>2015-05-10T07:21:17Z</time>
      </trkpt>
      <trkpt lat="45.05929" lon="2.67031">
        <ele>1224.26</ele>
        <time>2015-05-10T07:21:29Z</time>
      </trkpt>
      <trkpt lat="45.05917" lon="2.67052">
        <ele>1224.3</ele>
        <time>2015-05-10T07:21:49Z</time>
      </trkpt>
      <trkpt lat="45.05904" lon="2.67069">
        <ele>1225.03</ele>
        <time>2015-05-10T07:22:09Z</time>
      </trkpt>
      <trkpt lat="45.05897" lon="2.67093">
        <ele>1232.33</ele>
        <time>2015-05-10T07:22:33Z</time>
      </trkpt>
      <trkpt lat="45.05884" lon="2.67112">
        <ele>1239.98</ele>
        <time>2015-05-10T07:23:07Z</time>
      </trkpt>
      <trkpt lat="45.05875" lon="2.67089">
        <ele>1243.18</ele>
        <time>2015-05-10T07:23:49Z</time>
      </trkpt>
      <trkpt lat="45.05876" lon="2.67064">
        <ele>1243.88</ele>
        <time>2015-05-10T07:24:13Z</time>
      </trkpt>
      <trkpt lat="45.05863" lon="2.67081">
        <ele>1242.45</ele>
        <time>2015-05-10T07:25:01Z</time>
      </trkpt>
      <trkpt lat="45.05849" lon="2.67099">
        <ele>1249.44</ele>
        <time>2015-05-10T07:25:34Z</time>
      </trkpt>
      <trkpt lat="45.05847" lon="2.67126">
        <ele>1257.42</ele>
        <time>2015-05-10T07:25:54Z</time>
      </trkpt>
      <trkpt lat="45.05842" lon="2.67151">
        <ele>1268.51</ele>
        <time>2015-05-10T07:26:31Z</time>
      </trkpt>
      <trkpt lat="45.0584" lon="2.67176">
        <ele>1270.54</ele>
        <time>2015-05-10T07:27:00Z</time>
      </trkpt>
      <trkpt lat="45.05835" lon="2.67202">
        <ele>1276.29</ele>
        <time>2015-05-10T07:27:29Z</time>
      </trkpt>
      <trkpt lat="45.05838" lon="2.67228">
        <ele>1286.54</ele>
        <time>2015-05-10T07:28:19Z</time>
      </trkpt>
      <trkpt lat="45.05841" lon="2.67254">
        <ele>1290.85</ele>
        <time>2015-05-10T07:29:12Z</time>
      </trkpt>
      <trkpt lat="45.05853" lon="2.67274">
        <ele>1293.23</ele>
        <time>2015-05-10T07:29:47Z</time>
      </trkpt>
      <trkpt lat="45.05842" lon="2.67294">
        <ele>1299.76</ele>
        <time>2015-05-10T07:30:48Z</time>
      </trkpt>
      <trkpt lat="45.05827" lon="2.67309">
        <ele>1299.41</ele>
        <time>2015-05-10T07:31:13Z</time>
      </trkpt>
      <trkpt lat="45.05811" lon="2.67321">
        <ele>1301.18</ele>
        <time>2015-05-10T07:31:38Z</time>
      </trkpt>
      <trkpt lat="45.05799" lon="2.6734">
        <ele>1308.36</ele>
        <time>2015-05-10T07:32:25Z</time>
      </trkpt>
      <trkpt lat="45.05781" lon="2.6733">
        <ele>1302.66</ele>
        <time>2015-05-10T07:33:09Z</time>
      </trkpt>
      <trkpt lat="45.05763" lon="2.67323">
        <ele>1304.72</ele>
        <time>2015-05-10T07:33:29Z</time>
      </trkpt>
      <trkpt lat="45.05751" lon="2.67304">
        <ele>1307.01</ele>
        <time>2015-05-10T07:33:56Z</time>
      </trkpt>
      <trkpt lat="45.05735" lon="2.67289">
        <ele>1316.42</ele>
        <time>2015-05-10T07:34:22Z</time>
      </trkpt>
      <trkpt lat="45.05717" lon="2.67282">
        <ele>1319.8</ele>
        <time>2015-05-10T07:34:40Z</time>
      </trkpt>
      <trkpt lat="45.05701" lon="2.6727">
        <ele>1322.91</ele>
        <time>2015-05-10T07:35:00Z</time>
      </trkpt>
      <trkpt lat="45.05687" lon="2.67252">
        <ele>1312.53</ele>
        <time>2015-05-10T07:35:22Z</time>
      </trkpt>
      <trkpt lat="45.05671" lon="2.67241">
        <ele>1318.26</ele>
        <time>2015-05-10T07:35:41Z</time>
      </trkpt>
      <trkpt lat="45.05652" lon="2.67241">
        <ele>1322.77</ele>
        <time>2015-05-10T07:36:01Z</time>
      </trkpt>
      <trkpt lat="45.05634" lon="2.67235">
        <ele>1324.45</ele>
        <time>2015-05-10T07:36:19Z</time>
      </trkpt>
      <trkpt lat="45.05616" lon="2.67234">
        <ele>1328.35</ele>
        <time>2015-05-10T07:36:35Z</time>
      </trkpt>
      <trkpt lat="45.05598" lon="2.67234">
        <ele>1328.04</ele>
        <time>2015-05-10T07:36:50Z</time>
      </trkpt>
      <trkpt lat="45.05579" lon="2.67231">
        <ele>1331.35</ele>
        <time>2015-05-10T07:37:07Z</time>
      </trkpt>
      <trkpt lat="45.05561" lon="2.67227">
        <ele>1332.55</ele>
        <time>2015-05-10T07:37:30Z</time>
      </trkpt>
      <trkpt lat="45.05544" lon="2.67215">
        <ele>1329.31</ele>
        <time>2015-05-10T07:38:03Z</time>
      </trkpt>
      <trkpt lat="45.05529" lon="2.67202">
        <ele>1333.98</ele>
        <time>2015-05-10T07:38:17Z</time>
      </trkpt>
      <trkpt lat="45.05512" lon="2.6719">
        <ele>1345.81</ele>
        <time>2015-05-10T07:39:02Z</time>
      </trkpt>
      <trkpt lat="45.055" lon="2.67171">
        <ele>1338.59</ele>
        <time>2015-05-10T07:39:24Z</time>
      </trkpt>
      <trkpt lat="45.05487" lon="2.67153">
        <ele>1349.83</ele>
        <time>2015-05-10T07:39:40Z</time>
      </trkpt>
      <trkpt lat="45.05475" lon="2.67133">
        <ele>1351.39</ele>
        <time>2015-05-10T07:40:16Z</time>
      </trkpt>
      <trkpt lat="45.05463" lon="2.67114">
        <ele>1352.53</ele>
        <time>2015-05-10T07:40:37Z</time>
      </trkpt>
      <trkpt lat="45.05448" lon="2.67098">
        <ele>1355.24</ele>
        <time>2015-05-10T07:40:59Z</time>
      </trkpt>
      <trkpt lat="45.0543" lon="2.67092">
        <ele>1360.88</ele>
        <time>2015-05-10T07:41:22Z</time>
      </trkpt>
      <trkpt lat="45.05412" lon="2.67088">
        <ele>1362.82</ele>
        <time>2015-05-10T07:41:38Z</time>
      </trkpt>
      <trkpt lat="45.05395" lon="2.67078">
        <ele>1368.67</ele>
        <time>2015-05-10T07:41:56Z</time>
      </trkpt>
      <trkpt lat="45.05378" lon="2.67068">
        <ele>1363.95</ele>
        <time>2015-05-10T07:42:42Z</time>
      </trkpt>
      <trkpt lat="45.05361" lon="2.67057">
        <ele>1369.85</ele>
        <time>2015-05-10T07:43:01Z</time>
      </trkpt>
      <trkpt lat="45.05346" lon="2.67043">
        <ele>1374.64</ele>
        <time>2015-05-10T07:43:40Z</time>
      </trkpt>
      <trkpt lat="45.0533" lon="2.67029">
        <ele>1377.33</ele>
        <time>2015-05-10T07:44:28Z</time>
      </trkpt>
      <trkpt lat="45.05314" lon="2.67017">
        <ele>1385.9</ele>
        <time>2015-05-10T07:44:36Z</time>
      </trkpt>
      <trkpt lat="45.05298" lon="2.67003">
        <ele>1394.42</ele>
        <time>2015-05-10T07:44:49Z</time>
      </trkpt>
      <trkpt lat="45.05281" lon="2.66995">
        <ele>1394.91</ele>
        <time>2015-05-10T07:45:06Z</time>
      </trkpt>
      <trkpt lat="45.05264" lon="2.66986">
        <ele>1400.08</ele>
        <time>2015-05-10T07:46:10Z</time>
      </trkpt>
      <trkpt lat="45.05246" lon="2.66977">
        <ele>1394.13</ele>
        <time>2015-05-10T07:46:33Z</time>
      </trkpt>
      <trkpt lat="45.05228" lon="2.66974">
        <ele>1400.95</ele>
        <time>2015-05-10T07:46:57Z</time>
      </trkpt>
      <trkpt lat="45.05213" lon="2.66958">
        <ele>1396.44</ele>
        <time>2015-05-10T07:47:19Z</time>
      </trkpt>
      <trkpt lat="45.05204" lon="2.66933">
        <ele>1392.96</ele>
        <time>2015-05-10T07:47:47Z</time>
      </trkpt>
      <trkpt lat="45.05192" lon="2.66912">
        <ele>1397.39</ele>
        <time>2015-05-10T07:48:21Z</time>
      </trkpt>
      <trkpt lat="45.05178" lon="2.66896">
        <ele>1407.39</ele>
        <time>2015-05-10T07:48:41Z</time>
      </trkpt>
      <trkpt lat="45.05161" lon="2.66887">
        <ele>1407.89</ele>
        <time>2015-05-10T07:49:05Z</time>
      </trkpt>
      <trkpt lat="45.05148" lon="2.66869">
        <ele>1401.64</ele>
        <time>2015-05-10T07:49:24Z</time>
      </trkpt>
      <trkpt lat="45.05136" lon="2.6685">
        <ele>1403.36</ele>
        <time>2015-05-10T07:49:49Z</time>
      </trkpt>
      <trkpt lat="45.05125" lon="2.66829">
        <ele>1412.19</ele>
        <time>2015-05-10T07:50:20Z</time>
      </trkpt>
      <trkpt lat="45.0511" lon="2.66814">
        <ele>1415.99</ele>
        <time>2015-05-10T07:50:44Z</time>
      </trkpt>
      <trkpt lat="45.05098" lon="2.66795">
        <ele>1414.45</ele>
        <time>2015-05-10T07:51:18Z</time>
      </trkpt>
      <trkpt lat="45.05082" lon="2.66783">
        <ele>1419.99</ele>
        <time>2015-05-10T07:51:43Z</time>
      </trkpt>
      <trkpt lat="45.05068" lon="2.66764">
        <ele>1427.7</ele>
        <time>2015-05-10T07:52:29Z</time>
      </trkpt>
      <trkpt lat="45.05053" lon="2.6675">
        <ele>1436.31</ele>
        <time>2015-05-10T07:53:00Z</time>
      </trkpt>
      <trkpt lat="45.05035" lon="2.66745">
        <ele>1445.43</ele>
        <time>2015-05-10T07:53:18Z</time>
      </trkpt>
      <trkpt lat="45.05018" lon="2.66733">
        <ele>1445.16</ele>
        <time>2015-05-10T07:53:45Z</time>
      </trkpt>
      <trkpt lat="45.05" lon="2.66736">
        <ele>1454.42</ele>
        <time>2015-05-10T07:54:13Z</time>
      </trkpt>
      <trkpt lat="45.04982" lon="2.66733">
        <ele>1463.31</ele>
        <time>2015-05-10T07:54:59Z</time>
      </trkpt>
      <trkpt lat="45.04969" lon="2.66715">
        <ele>1464.7</ele>
        <time>2015-05-10T07:55:46Z</time>
      </trkpt>
      <trkpt lat="45.0495" lon="2.66707">
        <ele>1467.16</ele>
        <time>2015-05-10T07:56:30Z</time>
      </trkpt>
      <trkpt lat="45.04931" lon="2.66701">
        <ele>1474.92</ele>
        <time>2015-05-10T07:57:07Z</time>
      </trkpt>
      <trkpt lat="45.04917" lon="2.66686">
        <ele>1478.42</ele>
        <time>2015-05-10T07:57:48Z</time>
      </trkpt>
      <trkpt lat="45.04907" lon="2.66664">
        <ele>1484.39</ele>
        <time>2015-05-10T07:58:20Z</time>
      </trkpt>
      <trkpt lat="45.04891" lon="2.66677">
        <ele>1496.31</ele>
        <time>2015-05-10T07:59:36Z</time>
      </trkpt>
      <trkpt lat="45.04876" lon="2.66694">
        <ele>1497.96</ele>
        <time>2015-05-10T08:00:02Z</time>
      </trkpt>
      <trkpt lat="45.04859" lon="2.66705">
        <ele>1498.95</ele>
        <time>2015-05-10T08:00:20Z</time>
      </trkpt>
      <trkpt lat="45.04841" lon="2.66711">
        <ele>1502.3</ele>
        <time>2015-05-10T08:00:41Z</time>
      </trkpt>
      <trkpt lat="45.04824" lon="2.6672">
        <ele>1498.7</ele>
        <time>2015-05-10T08:00:57Z</time>
      </trkpt>
      <trkpt lat="45.04807" lon="2.66732">
        <ele>1499.73</ele>
        <time>2015-05-10T08:01:14Z</time>
      </trkpt>
      <trkpt lat="45.0479" lon="2.66745">
        <ele>1503.36</ele>
        <time>2015-05-10T08:01:34Z</time>
      </trkpt>
      <trkpt lat="45.04775" lon="2.6676">
        <ele>1507.83</ele>
        <time>2015-05-10T08:02:03Z</time>
      </trkpt>
      <trkpt lat="45.04759" lon="2.66773">
        <ele>1511.63</ele>
        <time>2015-05-10T08:02:30Z</time>
      </trkpt>
      <trkpt lat="45.04741" lon="2.66776">
        <ele>1516.17</ele>
        <time>2015-05-10T08:02:58Z</time>
      </trkpt>
      <trkpt lat="45.04725" lon="2.66787">
        <ele>1518.44</ele>
        <time>2015-05-10T08:03:28Z</time>
      </trkpt>
      <trkpt lat="45.04709" lon="2.66802">
        <ele>1521.2</ele>
        <time>2015-05-10T08:03:52Z</time>
      </trkpt>
      <trkpt lat="45.04691" lon="2.66802">
        <ele>1520.41</ele>
        <time>2015-05-10T08:04:22Z</time>
      </trkpt>
      <trkpt lat="45.04673" lon="2.66806">
        <ele>1524.56</ele>
        <time>2015-05-10T08:04:48Z</time>
      </trkpt>
      <trkpt lat="45.04655" lon="2.66813">
        <ele>1528.88</ele>
        <time>2015-05-10T08:05:15Z</time>
      </trkpt>
      <trkpt lat="45.04645" lon="2.66834">
        <ele>1535.02</ele>
        <time>2015-05-10T08:05:52Z</time>
      </trkpt>
      <trkpt lat="45.0463" lon="2.66849">
        <ele>1534.71</ele>
        <time>2015-05-10T08:07:33Z</time>
      </trkpt>
      <trkpt lat="45.04613" lon="2.66861">
        <ele>1536.92</ele>
        <time>2015-05-10T08:07:49Z</time>
      </trkpt>
      <trkpt lat="45.04596" lon="2.66853">
        <ele>1536.55</ele>
        <time>2015-05-10T08:08:08Z</time>
      </trkpt>
      <trkpt lat="45.04578" lon="2.66847">
        <ele>1535.61</ele>
        <time>2015-05-10T08:08:25Z</time>
      </trkpt>
      <trkpt lat="45.04562" lon="2.66834">
        <ele>1537.44</ele>
        <time>2015-05-10T08:08:51Z</time>
      </trkpt>
      <trkpt lat="45.04544" lon="2.66832">
        <ele>1539.47</ele>
        <time>2015-05-10T08:09:25Z</time>
      </trkpt>
      <trkpt lat="45.04525" lon="2.66831">
        <ele>1545.03</ele>
        <time>2015-05-10T08:10:00Z</time>
      </trkpt>
      <trkpt lat="45.04507" lon="2.66832">
        <ele>1551.12</ele>
        <time>2015-05-10T08:12:20Z</time>
      </trkpt>
      <trkpt lat="45.04488" lon="2.66837">
        <ele>1548.31</ele>
        <time>2015-05-10T08:12:40Z</time>
      </trkpt>
      <trkpt lat="45.04469" lon="2.66841">
        <ele>1548.45</ele>
        <time>2015-05-10T08:12:57Z</time>
      </trkpt>
      <trkpt lat="45.0445" lon="2.66834">
        <ele>1548.54</ele>
        <time>2015-05-10T08:13:16Z</time>
      </trkpt>
      <trkpt lat="45.04432" lon="2.66826">
        <ele>1545.45</ele>
        <time>2015-05-10T08:13:36Z</time>
      </trkpt>
      <trkpt lat="45.04414" lon="2.66822">
        <ele>1544.11</ele>
        <time>2015-05-10T08:13:56Z</time>
      </trkpt>
      <trkpt lat="45.04396" lon="2.66821">
        <ele>1539.5</ele>
        <time>2015-05-10T08:14:18Z</time>
      </trkpt>
      <trkpt lat="45.04379" lon="2.66833">
        <ele>1531.17</ele>
        <time>2015-05-10T08:14:37Z</time>
      </trkpt>
      <trkpt lat="45.04361" lon="2.66836">
        <ele>1525.93</ele>
        <time>2015-05-10T08:14:58Z</time>
      </trkpt>
      <trkpt lat="45.04343" lon="2.66843">
        <ele>1525.18</ele>
        <time>2015-05-10T08:15:13Z</time>
      </trkpt>
      <trkpt lat="45.04325" lon="2.66847">
        <ele>1524.3</ele>
        <time>2015-05-10T08:15:30Z</time>
      </trkpt>
      <trkpt lat="45.04306" lon="2.66851">
        <ele>1524.32</ele>
        <time>2015-05-10T08:15:50Z</time>
      </trkpt>
      <trkpt lat="45.04287" lon="2.66853">
        <ele>1522.28</ele>
        <time>2015-05-10T08:16:08Z</time>
      </trkpt>
      <trkpt lat="45.04269" lon="2.66851">
        <ele>1514.21</ele>
        <time>2015-05-10T08:16:24Z</time>
      </trkpt>
      <trkpt lat="45.0425" lon="2.66853">
        <ele>1513.86</ele>
        <time>2015-05-10T08:16:38Z</time>
      </trkpt>
      <trkpt lat="45.04232" lon="2.66856">
        <ele>1510.98</ele>
        <time>2015-05-10T08:16:55Z</time>
      </trkpt>
      <trkpt lat="45.04214" lon="2.66863">
        <ele>1514.67</ele>
        <time>2015-05-10T08:17:08Z</time>
      </trkpt>
      <trkpt lat="45.04195" lon="2.6687">
        <ele>1515.45</ele>
        <time>2015-05-10T08:17:22Z</time>
      </trkpt>
      <trkpt lat="45.04178" lon="2.6688">
        <ele>1513.62</ele>
        <time>2015-05-10T08:17:38Z</time>
      </trkpt>
      <trkpt lat="45.0416" lon="2.66887">
        <ele>1507.64</ele>
        <time>2015-05-10T08:17:55Z</time>
      </trkpt>
      <trkpt lat="45.04142" lon="2.66893">
        <ele>1508.97</ele>
        <time>2015-05-10T08:18:10Z</time>
      </trkpt>
      <trkpt lat="45.04124" lon="2.66902">
        <ele>1510.38</ele>
        <time>2015-05-10T08:18:26Z</time>
      </trkpt>
      <trkpt lat="45.04107" lon="2.66911">
        <ele>1506.21</ele>
        <time>2015-05-10T08:18:46Z</time>
      </trkpt>
      <trkpt lat="45.0409" lon="2.66923">
        <ele>1506.07</ele>
        <time>2015-05-10T08:19:01Z</time>
      </trkpt>
      <trkpt lat="45.04073" lon="2.66934">
        <ele>1504.95</ele>
        <time>2015-05-10T08:19:17Z</time>
      </trkpt>
      <trkpt lat="45.04057" lon="2.66944">
        <ele>1504.63</ele>
        <time>2015-05-10T08:19:34Z</time>
      </trkpt>
      <trkpt lat="45.04045" lon="2.66966">
        <ele>1505.05</ele>
        <time>2015-05-10T08:19:50Z</time>
      </trkpt>
      <trkpt lat="45.04034" lon="2.66988">
        <ele>1500.57</ele>
        <time>2015-05-10T08:20:08Z</time>
      </trkpt>
      <trkpt lat="45.04022" lon="2.67007">
        <ele>1502.59</ele>
        <time>2015-05-10T08:20:25Z</time>
      </trkpt>
      <trkpt lat="45.04006" lon="2.6702">
        <ele>1501.64</ele>
        <time>2015-05-10T08:21:33Z</time>
      </trkpt>
      <trkpt lat="45.03991" lon="2.67037">
        <ele>1497.58</ele>
        <time>2015-05-10T08:21:50Z</time>
      </trkpt>
      <trkpt lat="45.03978" lon="2.67055">
        <ele>1495.51</ele>
        <time>2015-05-10T08:22:05Z</time>
      </trkpt>
      <trkpt lat="45.03964" lon="2.67071">
        <ele>1493.84</ele>
        <time>2015-05-10T08:22:25Z</time>
      </trkpt>
      <trkpt lat="45.03949" lon="2.67087">
        <ele>1493.95</ele>
        <time>2015-05-10T08:22:40Z</time>
      </trkpt>
      <trkpt lat="45.03931" lon="2.67092">
        <ele>1494.59</ele>
        <time>2015-05-10T08:22:56Z</time>
      </trkpt>
      <trkpt lat="45.03912" lon="2.67086">
        <ele>1483.3</ele>
        <time>2015-05-10T08:23:54Z</time>
      </trkpt>
      <trkpt lat="45.03898" lon="2.67067">
        <ele>1480.07</ele>
        <time>2015-05-10T08:24:15Z</time>
      </trkpt>
      <trkpt lat="45.03884" lon="2.67048">
        <ele>1479.7</ele>
        <time>2015-05-10T08:24:31Z</time>
      </trkpt>
      <trkpt lat="45.0387" lon="2.6703">
        <ele>1478.33</ele>
        <time>2015-05-10T08:24:48Z</time>
      </trkpt>
      <trkpt lat="45.03857" lon="2.67011">
        <ele>1474.49</ele>
        <time>2015-05-10T08:25:06Z</time>
      </trkpt>
      <trkpt lat="45.03843" lon="2.66994">
        <ele>1470.46</ele>
        <time>2015-05-10T08:25:24Z</time>
      </trkpt>
      <trkpt lat="45.03827" lon="2.6698">
        <ele>1469.46</ele>
        <time>2015-05-10T08:25:38Z</time>
      </trkpt>
      <trkpt lat="45.0381" lon="2.66968">
        <ele>1467.68</ele>
        <time>2015-05-10T08:25:54Z</time>
      </trkpt>
      <trkpt lat="45.03792" lon="2.66964">
        <ele>1462.78</ele>
        <time>2015-05-10T08:26:29Z</time>
      </trkpt>
      <trkpt lat="45.03777" lon="2.66951">
        <ele>1461.75</ele>
        <time>2015-05-10T08:26:45Z</time>
      </trkpt>
      <trkpt lat="45.0376" lon="2.66941">
        <ele>1461.52</ele>
        <time>2015-05-10T08:27:02Z</time>
      </trkpt>
      <trkpt lat="45.03742" lon="2.6693">
        <ele>1457.98</ele>
        <time>2015-05-10T08:27:17Z</time>
      </trkpt>
      <trkpt lat="45.03724" lon="2.66922">
        <ele>1450.15</ele>
        <time>2015-05-10T08:27:36Z</time>
      </trkpt>
      <trkpt lat="45.03708" lon="2.66911">
        <ele>1448.35</ele>
        <time>2015-05-10T08:27:52Z</time>
      </trkpt>
      <trkpt lat="45.03692" lon="2.66897">
        <ele>1443.8</ele>
        <time>2015-05-10T08:28:10Z</time>
      </trkpt>
      <trkpt lat="45.0368" lon="2.66878">
        <ele>1440.99</ele>
        <time>2015-05-10T08:28:26Z</time>
      </trkpt>
      <trkpt lat="45.03668" lon="2.66858">
        <ele>1438.48</ele>
        <time>2015-05-10T08:28:43Z</time>
      </trkpt>
      <trkpt lat="45.03663" lon="2.66832">
        <ele>1440.57</ele>
        <time>2015-05-10T08:29:04Z</time>
      </trkpt>
      <trkpt lat="45.03653" lon="2.6681">
        <ele>1438.52</ele>
        <time>2015-05-10T08:29:23Z</time>
      </trkpt>
      <trkpt lat="45.03642" lon="2.66788">
        <ele>1438.58</ele>
        <time>2015-05-10T08:29:38Z</time>
      </trkpt>
      <trkpt lat="45.03633" lon="2.66765">
        <ele>1435.4</ele>
        <time>2015-05-10T08:29:54Z</time>
      </trkpt>
      <trkpt lat="45.03623" lon="2.66742">
        <ele>1434.65</ele>
        <time>2015-05-10T08:30:10Z</time>
      </trkpt>
      <trkpt lat="45.03614" lon="2.6672">
        <ele>1430.71</ele>
        <time>2015-05-10T08:30:27Z</time>
      </trkpt>
      <trkpt lat="45.03604" lon="2.66697">
        <ele>1426.96</ele>
        <time>2015-05-10T08:30:44Z</time>
      </trkpt>
      <trkpt lat="45.03593" lon="2.66677">
        <ele>1425.21</ele>
        <time>2015-05-10T08:30:59Z</time>
      </trkpt>
      <trkpt lat="45.03584" lon="2.66653">
        <ele>1421.62</ele>
        <time>2015-05-10T08:31:15Z</time>
      </trkpt>
      <trkpt lat="45.03575" lon="2.66631">
        <ele>1418.47</ele>
        <time>2015-05-10T08:31:32Z</time>
      </trkpt>
      <trkpt lat="45.03564" lon="2.66609">
        <ele>1413.72</ele>
        <time>2015-05-10T08:31:48Z</time>
      </trkpt>
      <trkpt lat="45.03555" lon="2.66586">
        <ele>1410.77</ele>
        <time>2015-05-10T08:32:04Z</time>
      </trkpt>
      <trkpt lat="45.03544" lon="2.66564">
        <ele>1407.96</ele>
        <time>2015-05-10T08:32:19Z</time>
      </trkpt>
      <trkpt lat="45.03533" lon="2.66541">
        <ele>1402.02</ele>
        <time>2015-05-10T08:32:36Z</time>
      </trkpt>
      <trkpt lat="45.03524" lon="2.66519">
        <ele>1397.53</ele>
        <time>2015-05-10T08:32:51Z</time>
      </trkpt>
      <trkpt lat="45.03514" lon="2.66497">
        <ele>1396.74</ele>
        <time>2015-05-10T08:33:16Z</time>
      </trkpt>
      <trkpt lat="45.03506" lon="2.66472">
        <ele>1392.98</ele>
        <time>2015-05-10T08:33:32Z</time>
      </trkpt>
      <trkpt lat="45.03495" lon="2.66451">
        <ele>1391.52</ele>
        <time>2015-05-10T08:33:49Z</time>
      </trkpt>
      <trkpt lat="45.03486" lon="2.66428">
        <ele>1388.89</ele>
        <time>2015-05-10T08:34:06Z</time>
      </trkpt>
      <trkpt lat="45.03474" lon="2.66408">
        <ele>1387.71</ele>
        <time>2015-05-10T08:34:22Z</time>
      </trkpt>
      <trkpt lat="45.03458" lon="2.6642">
        <ele>1389.63</ele>
        <time>2015-05-10T08:36:08Z</time>
      </trkpt>
      <trkpt lat="45.03454" lon="2.66446">
        <ele>1386.46</ele>
        <time>2015-05-10T08:37:31Z</time>
      </trkpt>
      <trkpt lat="45.0345" lon="2.66473">
        <ele>1382.48</ele>
        <time>2015-05-10T08:37:47Z</time>
      </trkpt>
      <trkpt lat="45.03446" lon="2.66499">
        <ele>1381.75</ele>
        <time>2015-05-10T08:38:01Z</time>
      </trkpt>
      <trkpt lat="45.03443" lon="2.66527">
        <ele>1379.1</ele>
        <time>2015-05-10T08:38:15Z</time>
      </trkpt>
      <trkpt lat="45.03439" lon="2.66555">
        <ele>1377.08</ele>
        <time>2015-05-10T08:38:30Z</time>
      </trkpt>
      <trkpt lat="45.03438" lon="2.66582">
        <ele>1376.32</ele>
        <time>2015-05-10T08:38:44Z</time>
      </trkpt>
      <trkpt lat="45.03436" lon="2.66607">
        <ele>1374.72</ele>
        <time>2015-05-10T08:39:01Z</time>
      </trkpt>
      <trkpt lat="45.0343" lon="2.66633">
        <ele>1378.11</ele>
        <time>2015-05-10T08:39:14Z</time>
      </trkpt>
      <trkpt lat="45.03421" lon="2.66654">
        <ele>1378.82</ele>
        <time>2015-05-10T08:39:31Z</time>
      </trkpt>
      <trkpt lat="45.03411" lon="2.66676">
        <ele>1371.8</ele>
        <time>2015-05-10T08:39:49Z</time>
      </trkpt>
      <trkpt lat="45.03399" lon="2.66697">
        <ele>1367.4</ele>
        <time>2015-05-10T08:40:05Z</time>
      </trkpt>
      <trkpt lat="45.03387" lon="2.66719">
        <ele>1365.47</ele>
        <time>2015-05-10T08:40:19Z</time>
      </trkpt>
      <trkpt lat="45.03377" lon="2.66745">
        <ele>1363.99</ele>
        <time>2015-05-10T08:40:35Z</time>
      </trkpt>
      <trkpt lat="45.03373" lon="2.66772">
        <ele>1363.99</ele>
        <time>2015-05-10T08:40:54Z</time>
      </trkpt>
      <trkpt lat="45.03364" lon="2.66796">
        <ele>1365.49</ele>
        <time>2015-05-10T08:41:11Z</time>
      </trkpt>
      <trkpt lat="45.03357" lon="2.66823">
        <ele>1364.71</ele>
        <time>2015-05-10T08:41:27Z</time>
      </trkpt>
      <trkpt lat="45.03356" lon="2.66851">
        <ele>1363.52</ele>
        <time>2015-05-10T08:41:41Z</time>
      </trkpt>
      <trkpt lat="45.03356" lon="2.66877">
        <ele>1364.09</ele>
        <time>2015-05-10T08:41:56Z</time>
      </trkpt>
      <trkpt lat="45.03356" lon="2.66903">
        <ele>1362.95</ele>
        <time>2015-05-10T08:42:12Z</time>
      </trkpt>
      <trkpt lat="45.0336" lon="2.66929">
        <ele>1363.42</ele>
        <time>2015-05-10T08:42:28Z</time>
      </trkpt>
      <trkpt lat="45.03364" lon="2.66957">
        <ele>1364.22</ele>
        <time>2015-05-10T08:42:46Z</time>
      </trkpt>
      <trkpt lat="45.0338" lon="2.66972">
        <ele>1362.63</ele>
        <time>2015-05-10T08:43:01Z</time>
      </trkpt>
      <trkpt lat="45.03396" lon="2.66987">
        <ele>1362.58</ele>
        <time>2015-05-10T08:43:16Z</time>
      </trkpt>
      <trkpt lat="45.03412" lon="2.67001">
        <ele>1366.78</ele>
        <time>2015-05-10T08:43:31Z</time>
      </trkpt>
      <trkpt lat="45.0343" lon="2.67014">
        <ele>1369.86</ele>
        <time>2015-05-10T08:43:43Z</time>
      </trkpt>
      <trkpt lat="45.03444" lon="2.67031">
        <ele>1366.68</ele>
        <time>2015-05-10T08:44:03Z</time>
      </trkpt>
      <trkpt lat="45.03426" lon="2.67034">
        <ele>1349.22</ele>
        <time>2015-05-10T08:44:32Z</time>
      </trkpt>
      <trkpt lat="45.03408" lon="2.67031">
        <ele>1345.57</ele>
        <time>2015-05-10T08:44:47Z</time>
      </trkpt>
      <trkpt lat="45.0339" lon="2.67027">
        <ele>1342.39</ele>
        <time>2015-05-10T08:45:04Z</time>
      </trkpt>
      <trkpt lat="45.0337" lon="2.67027">
        <ele>1337.97</ele>
        <time>2015-05-10T08:45:23Z</time>
      </trkpt>
      <trkpt lat="45.03352" lon="2.67028">
        <ele>1337.43</ele>
        <time>2015-05-10T08:45:36Z</time>
      </trkpt>
      <trkpt lat="45.03334" lon="2.67032">
        <ele>1335.91</ele>
        <time>2015-05-10T08:45:50Z</time>
      </trkpt>
      <trkpt lat="45.03316" lon="2.6704">
        <ele>1331.5</ele>
        <time>2015-05-10T08:46:05Z</time>
      </trkpt>
      <trkpt lat="45.03298" lon="2.67047">
        <ele>1327.58</ele>
        <time>2015-05-10T08:46:22Z</time>
      </trkpt>
      <trkpt lat="45.03285" lon="2.67066">
        <ele>1323.46</ele>
        <time>2015-05-10T08:46:38Z</time>
      </trkpt>
      <trkpt lat="45.03268" lon="2.67075">
        <ele>1320.42</ele>
        <time>2015-05-10T08:46:53Z</time>
      </trkpt>
      <trkpt lat="45.03251" lon="2.67087">
        <ele>1317.49</ele>
        <time>2015-05-10T08:47:08Z</time>
      </trkpt>
      <trkpt lat="45.03233" lon="2.67095">
        <ele>1317.45</ele>
        <time>2015-05-10T08:47:23Z</time>
      </trkpt>
      <trkpt lat="45.03215" lon="2.671">
        <ele>1314.24</ele>
        <time>2015-05-10T08:47:39Z</time>
      </trkpt>
      <trkpt lat="45.03197" lon="2.67104">
        <ele>1310.76</ele>
        <time>2015-05-10T08:47:59Z</time>
      </trkpt>
      <trkpt lat="45.03179" lon="2.67108">
        <ele>1307.71</ele>
        <time>2015-05-10T08:48:16Z</time>
      </trkpt>
      <trkpt lat="45.03161" lon="2.67114">
        <ele>1304.05</ele>
        <time>2015-05-10T08:48:34Z</time>
      </trkpt>
      <trkpt lat="45.03143" lon="2.6712">
        <ele>1301.55</ele>
        <time>2015-05-10T08:48:50Z</time>
      </trkpt>
      <trkpt lat="45.03125" lon="2.67125">
        <ele>1298.49</ele>
        <time>2015-05-10T08:49:07Z</time>
      </trkpt>
      <trkpt lat="45.03127" lon="2.6715">
        <ele>1298.08</ele>
        <time>2015-05-10T08:49:21Z</time>
      </trkpt>
      <trkpt lat="45.03128" lon="2.67176">
        <ele>1296.2</ele>
        <time>2015-05-10T08:49:41Z</time>
      </trkpt>
      <trkpt lat="45.03141" lon="2.67194">
        <ele>1296.22</ele>
        <time>2015-05-10T08:50:00Z</time>
      </trkpt>
      <trkpt lat="45.0315" lon="2.67217">
        <ele>1293.08</ele>
        <time>2015-05-10T08:50:17Z</time>
      </trkpt>
      <trkpt lat="45.03132" lon="2.67221">
        <ele>1282.35</ele>
        <time>2015-05-10T08:50:40Z</time>
      </trkpt>
      <trkpt lat="45.03114" lon="2.67223">
        <ele>1279.46</ele>
        <time>2015-05-10T08:50:57Z</time>
      </trkpt>
      <trkpt lat="45.03097" lon="2.67212">
        <ele>1277.91</ele>
        <time>2015-05-10T08:51:15Z</time>
      </trkpt>
      <trkpt lat="45.03085" lon="2.67232">
        <ele>1265.11</ele>
        <time>2015-05-10T08:51:49Z</time>
      </trkpt>
      <trkpt lat="45.03086" lon="2.67259">
        <ele>1262.15</ele>
        <time>2015-05-10T08:52:03Z</time>
      </trkpt>
      <trkpt lat="45.03084" lon="2.67285">
        <ele>1257.5</ele>
        <time>2015-05-10T08:52:30Z</time>
      </trkpt>
      <trkpt lat="45.0307" lon="2.67303">
        <ele>1259.01</ele>
        <time>2015-05-10T08:52:47Z</time>
      </trkpt>
      <trkpt lat="45.03053" lon="2.67298">
        <ele>1252.07</ele>
        <time>2015-05-10T08:53:06Z</time>
      </trkpt>
      <trkpt lat="45.03035" lon="2.6729">
        <ele>1247.61</ele>
        <time>2015-05-10T08:53:22Z</time>
      </trkpt>
      <trkpt lat="45.03017" lon="2.67284">
        <ele>1244.7</ele>
        <time>2015-05-10T08:53:45Z</time>
      </trkpt>
      <trkpt lat="45.02999" lon="2.67277">
        <ele>1239.03</ele>
        <time>2015-05-10T08:53:59Z</time>
      </trkpt>
      <trkpt lat="45.02982" lon="2.67266">
        <ele>1233.33</ele>
        <time>2015-05-10T08:54:36Z</time>
      </trkpt>
      <trkpt lat="45.02966" lon="2.67254">
        <ele>1231.78</ele>
        <time>2015-05-10T08:54:52Z</time>
      </trkpt>
      <trkpt lat="45.02949" lon="2.67244">
        <ele>1230.35</ele>
        <time>2015-05-10T08:55:09Z</time>
      </trkpt>
      <trkpt lat="45.02931" lon="2.67235">
        <ele>1230.76</ele>
        <time>2015-05-10T08:55:29Z</time>
      </trkpt>
      <trkpt lat="45.02915" lon="2.67223">
        <ele>1221.72</ele>
        <time>2015-05-10T08:55:46Z</time>
      </trkpt>
      <trkpt lat="45.02899" lon="2.67211">
        <ele>1216.04</ele>
        <time>2015-05-10T08:56:01Z</time>
      </trkpt>
      <trkpt lat="45.02882" lon="2.67204">
        <ele>1220.91</ele>
        <time>2015-05-10T08:56:13Z</time>
      </trkpt>
      <trkpt lat="45.02864" lon="2.67197">
        <ele>1222.23</ele>
        <time>2015-05-10T08:56:23Z</time>
      </trkpt>
      <trkpt lat="45.02847" lon="2.67186">
        <ele>1218.31</ele>
        <time>2015-05-10T08:56:41Z</time>
      </trkpt>
      <trkpt lat="45.02829" lon="2.67184">
        <ele>1216.6</ele>
        <time>2015-05-10T08:57:00Z</time>
      </trkpt>
      <trkpt lat="45.0281" lon="2.67187">
        <ele>1218.16</ele>
        <time>2015-05-10T08:57:17Z</time>
      </trkpt>
      <trkpt lat="45.02792" lon="2.67183">
        <ele>1218.81</ele>
        <time>2015-05-10T08:57:27Z</time>
      </trkpt>
      <trkpt lat="45.02773" lon="2.67186">
        <ele>1217.65</ele>
        <time>2015-05-10T08:57:41Z</time>
      </trkpt>
      <trkpt lat="45.02755" lon="2.67199">
        <ele>1215.1</ele>
        <time>2015-05-10T08:58:00Z</time>
      </trkpt>
      <trkpt lat="45.02739" lon="2.67215">
        <ele>1210.19</ele>
        <time>2015-05-10T08:58:16Z</time>
      </trkpt>
      <trkpt lat="45.02722" lon="2.67225">
        <ele>1202.05</ele>
        <time>2015-05-10T08:58:33Z</time>
      </trkpt>
      <trkpt lat="45.02733" lon="2.67246">
        <ele>1203.31</ele>
        <time>2015-05-10T08:59:11Z</time>
      </trkpt>
      <trkpt lat="45.0275" lon="2.67254">
        <ele>1198.78</ele>
        <time>2015-05-10T09:00:10Z</time>
      </trkpt>
      <trkpt lat="45.0277" lon="2.67263">
        <ele>1195.52</ele>
        <time>2015-05-10T09:00:24Z</time>
      </trkpt>
      <trkpt lat="45.02784" lon="2.67279">
        <ele>1192.87</ele>
        <time>2015-05-10T09:00:57Z</time>
      </trkpt>
      <trkpt lat="45.02805" lon="2.67286">
        <ele>1191.49</ele>
        <time>2015-05-10T09:01:11Z</time>
      </trkpt>
      <trkpt lat="45.02823" lon="2.67295">
        <ele>1188.78</ele>
        <time>2015-05-10T09:01:17Z</time>
      </trkpt>
      <trkpt lat="45.0284" lon="2.67305">
        <ele>1187.64</ele>
        <time>2015-05-10T09:01:31Z</time>
      </trkpt>
      <trkpt lat="45.02854" lon="2.67322">
        <ele>1189.32</ele>
        <time>2015-05-10T09:02:05Z</time>
      </trkpt>
      <trkpt lat="45.02872" lon="2.67333">
        <ele>1180.71</ele>
        <time>2015-05-10T09:02:29Z</time>
      </trkpt>
      <trkpt lat="45.02886" lon="2.67352">
        <ele>1178.27</ele>
        <time>2015-05-10T09:02:40Z</time>
      </trkpt>
      <trkpt lat="45.02898" lon="2.67373">
        <ele>1177.41</ele>
        <time>2015-05-10T09:02:52Z</time>
      </trkpt>
      <trkpt lat="45.02906" lon="2.67396">
        <ele>1166.21</ele>
        <time>2015-05-10T09:03:08Z</time>
      </trkpt>
      <trkpt lat="45.0291" lon="2.67422">
        <ele>1160.44</ele>
        <time>2015-05-10T09:03:35Z</time>
      </trkpt>
      <trkpt lat="45.02917" lon="2.67446">
        <ele>1157.87</ele>
        <time>2015-05-10T09:03:53Z</time>
      </trkpt>
      <trkpt lat="45.02927" lon="2.6747">
        <ele>1156.1</ele>
        <time>2015-05-10T09:04:13Z</time>
      </trkpt>
      <trkpt lat="45.02936" lon="2.67493">
        <ele>1151.5</ele>
        <time>2015-05-10T09:04:31Z</time>
      </trkpt>
      <trkpt lat="45.02949" lon="2.67511">
        <ele>1148.5</ele>
        <time>2015-05-10T09:04:45Z</time>
      </trkpt>
      <trkpt lat="45.0296" lon="2.67532">
        <ele>1143.47</ele>
        <time>2015-05-10T09:05:02Z</time>
      </trkpt>
      <trkpt lat="45.02966" lon="2.67557">
        <ele>1142.97</ele>
        <time>2015-05-10T09:05:25Z</time>
      </trkpt>
      <trkpt lat="45.02977" lon="2.67578">
        <ele>1134.57</ele>
        <time>2015-05-10T09:06:09Z</time>
      </trkpt>
      <trkpt lat="45.02991" lon="2.67597">
        <ele>1131.38</ele>
        <time>2015-05-10T09:06:25Z</time>
      </trkpt>
      <trkpt lat="45.03" lon="2.67618">
        <ele>1136.62</ele>
        <time>2015-05-10T09:06:35Z</time>
      </trkpt>
      <trkpt lat="45.03013" lon="2.67636">
        <ele>1135.29</ele>
        <time>2015-05-10T09:06:47Z</time>
      </trkpt>
      <trkpt lat="45.03024" lon="2.67657">
        <ele>1134.89</ele>
        <time>2015-05-10T09:07:03Z</time>
      </trkpt>
      <trkpt lat="45.0304" lon="2.67671">
        <ele>1128.32</ele>
        <time>2015-05-10T09:07:24Z</time>
      </trkpt>
      <trkpt lat="45.03026" lon="2.67688">
        <ele>1118.73</ele>
        <time>2015-05-10T09:08:54Z</time>
      </trkpt>
      <trkpt lat="45.03007" lon="2.67686">
        <ele>1115.03</ele>
        <time>2015-05-10T09:09:10Z</time>
      </trkpt>
      <trkpt lat="45.02989" lon="2.67692">
        <ele>1117.27</ele>
        <time>2015-05-10T09:09:24Z</time>
      </trkpt>
      <trkpt lat="45.02971" lon="2.677">
        <ele>1113.48</ele>
        <time>2015-05-10T09:09:39Z</time>
      </trkpt>
      <trkpt lat="45.02952" lon="2.67705">
        <ele>1110.46</ele>
        <time>2015-05-10T09:09:55Z</time>
      </trkpt>
      <trkpt lat="45.02933" lon="2.67701">
        <ele>1109.72</ele>
        <time>2015-05-10T09:10:10Z</time>
      </trkpt>
      <trkpt lat="45.02915" lon="2.67693">
        <ele>1107.7</ele>
        <time>2015-05-10T09:10:25Z</time>
      </trkpt>
      <trkpt lat="45.02897" lon="2.67684">
        <ele>1107.82</ele>
        <time>2015-05-10T09:11:23Z</time>
      </trkpt>
      <trkpt lat="45.0288" lon="2.67678">
        <ele>1107.96</ele>
        <time>2015-05-10T09:11:35Z</time>
      </trkpt>
      <trkpt lat="45.0286" lon="2.67675">
        <ele>1109.53</ele>
        <time>2015-05-10T09:11:46Z</time>
      </trkpt>
      <trkpt lat="45.02842" lon="2.67664">
        <ele>1107.28</ele>
        <time>2015-05-10T09:12:03Z</time>
      </trkpt>
      <trkpt lat="45.0283" lon="2.67644">
        <ele>1105.64</ele>
        <time>2015-05-10T09:12:20Z</time>
      </trkpt>
      <trkpt lat="45.02822" lon="2.6762">
        <ele>1103.97</ele>
        <time>2015-05-10T09:12:33Z</time>
      </trkpt>
      <trkpt lat="45.02815" lon="2.67595">
        <ele>1102.9</ele>
        <time>2015-05-10T09:12:49Z</time>
      </trkpt>
      <trkpt lat="45.02807" lon="2.67572">
        <ele>1100.16</ele>
        <time>2015-05-10T09:13:00Z</time>
      </trkpt>
      <trkpt lat="45.028" lon="2.67548">
        <ele>1101.57</ele>
        <time>2015-05-10T09:13:13Z</time>
      </trkpt>
      <trkpt lat="45.02793" lon="2.67525">
        <ele>1100.11</ele>
        <time>2015-05-10T09:13:25Z</time>
      </trkpt>
      <trkpt lat="45.02777" lon="2.67509">
        <ele>1095.99</ele>
        <time>2015-05-10T09:13:46Z</time>
      </trkpt>
      <trkpt lat="45.02759" lon="2.675">
        <ele>1093.87</ele>
        <time>2015-05-10T09:14:01Z</time>
      </trkpt>
      <trkpt lat="45.0274" lon="2.675">
        <ele>1091.81</ele>
        <time>2015-05-10T09:14:15Z</time>
      </trkpt>
      <trkpt lat="45.02722" lon="2.67498">
        <ele>1097.08</ele>
        <time>2015-05-10T09:14:29Z</time>
      </trkpt>
      <trkpt lat="45.02702" lon="2.67499">
        <ele>1089.5</ele>
        <time>2015-05-10T09:14:41Z</time>
      </trkpt>
      <trkpt lat="45.02684" lon="2.67495">
        <ele>1090.34</ele>
        <time>2015-05-10T09:14:55Z</time>
      </trkpt>
      <trkpt lat="45.02664" lon="2.67488">
        <ele>1092.84</ele>
        <time>2015-05-10T09:15:12Z</time>
      </trkpt>
      <trkpt lat="45.02646" lon="2.67477">
        <ele>1095.32</ele>
        <time>2015-05-10T09:15:25Z</time>
      </trkpt>
      <trkpt lat="45.02627" lon="2.67474">
        <ele>1096</ele>
        <time>2015-05-10T09:15:43Z</time>
      </trkpt>
      <trkpt lat="45.02607" lon="2.67463">
        <ele>1097.69</ele>
        <time>2015-05-10T09:15:59Z</time>
      </trkpt>
      <trkpt lat="45.02589" lon="2.6746">
        <ele>1095.31</ele>
        <time>2015-05-10T09:16:12Z</time>
      </trkpt>
      <trkpt lat="45.02571" lon="2.6746">
        <ele>1105.04</ele>
        <time>2015-05-10T09:16:28Z</time>
      </trkpt>
      <trkpt lat="45.02555" lon="2.67476">
        <ele>1107.07</ele>
        <time>2015-05-10T09:16:44Z</time>
      </trkpt>
      <trkpt lat="45.02544" lon="2.67497">
        <ele>1100.39</ele>
        <time>2015-05-10T09:16:59Z</time>
      </trkpt>
      <trkpt lat="45.02528" lon="2.67509">
        <ele>1099.02</ele>
        <time>2015-05-10T09:17:21Z</time>
      </trkpt>
      <trkpt lat="45.0251" lon="2.67516">
        <ele>1102.01</ele>
        <time>2015-05-10T09:17:35Z</time>
      </trkpt>
      <trkpt lat="45.02492" lon="2.67521">
        <ele>1101.31</ele>
        <time>2015-05-10T09:17:51Z</time>
      </trkpt>
      <trkpt lat="45.02473" lon="2.67517">
        <ele>1101.85</ele>
        <time>2015-05-10T09:18:07Z</time>
      </trkpt>
      <trkpt lat="45.02453" lon="2.67516">
        <ele>1103.57</ele>
        <time>2015-05-10T09:18:20Z</time>
      </trkpt>
      <trkpt lat="45.02434" lon="2.67508">
        <ele>1102.25</ele>
        <time>2015-05-10T09:18:32Z</time>
      </trkpt>
      <trkpt lat="45.02429" lon="2.67483">
        <ele>1104.02</ele>
        <time>2015-05-10T09:18:47Z</time>
      </trkpt>
      <trkpt lat="45.02419" lon="2.67461">
        <ele>1099.01</ele>
        <time>2015-05-10T09:19:01Z</time>
      </trkpt>
      <trkpt lat="45.0241" lon="2.67438">
        <ele>1094.46</ele>
        <time>2015-05-10T09:19:15Z</time>
      </trkpt>
      <trkpt lat="45.02404" lon="2.67414">
        <ele>1095.71</ele>
        <time>2015-05-10T09:19:27Z</time>
      </trkpt>
      <trkpt lat="45.02399" lon="2.67389">
        <ele>1098.43</ele>
        <time>2015-05-10T09:19:41Z</time>
      </trkpt>
      <trkpt lat="45.02392" lon="2.67364">
        <ele>1100.06</ele>
        <time>2015-05-10T09:19:58Z</time>
      </trkpt>
      <trkpt lat="45.02388" lon="2.67336">
        <ele>1097.75</ele>
        <time>2015-05-10T09:20:12Z</time>
      </trkpt>
      <trkpt lat="45.02386" lon="2.6731">
        <ele>1096.24</ele>
        <time>2015-05-10T09:20:27Z</time>
      </trkpt>
      <trkpt lat="45.02388" lon="2.67282">
        <ele>1093.1</ele>
        <time>2015-05-10T09:20:41Z</time>
      </trkpt>
      <trkpt lat="45.02389" lon="2.67256">
        <ele>1096.31</ele>
        <time>2015-05-10T09:20:55Z</time>
      </trkpt>
      <trkpt lat="45.02389" lon="2.67229">
        <ele>1099.43</ele>
        <time>2015-05-10T09:21:07Z</time>
      </trkpt>
      <trkpt lat="45.02389" lon="2.67203">
        <ele>1098.7</ele>
        <time>2015-05-10T09:21:22Z</time>
      </trkpt>
      <trkpt lat="45.0239" lon="2.67177">
        <ele>1094.78</ele>
        <time>2015-05-10T09:21:40Z</time>
      </trkpt>
      <trkpt lat="45.02386" lon="2.67152">
        <ele>1089.99</ele>
        <time>2015-05-10T09:21:55Z</time>
      </trkpt>
      <trkpt lat="45.02376" lon="2.67128">
        <ele>1087.12</ele>
        <time>2015-05-10T09:22:08Z</time>
      </trkpt>
      <trkpt lat="45.02364" lon="2.67106">
        <ele>1084.73</ele>
        <time>2015-05-10T09:22:20Z</time>
      </trkpt>
      <trkpt lat="45.02353" lon="2.67084">
        <ele>1079.91</ele>
        <time>2015-05-10T09:22:36Z</time>
      </trkpt>
      <trkpt lat="45.02346" lon="2.67059">
        <ele>1079.5</ele>
        <time>2015-05-10T09:22:49Z</time>
      </trkpt>
      <trkpt lat="45.02338" lon="2.67036">
        <ele>1069.48</ele>
        <time>2015-05-10T09:23:05Z</time>
      </trkpt>
      <trkpt lat="45.02331" lon="2.67012">
        <ele>1077.41</ele>
        <time>2015-05-10T09:23:19Z</time>
      </trkpt>
      <trkpt lat="45.02322" lon="2.66985">
        <ele>1077.49</ele>
        <time>2015-05-10T09:23:30Z</time>
      </trkpt>
      <trkpt lat="45.02311" lon="2.66961">
        <ele>1077.53</ele>
        <time>2015-05-10T09:23:47Z</time>
      </trkpt>
      <trkpt lat="45.02302" lon="2.66938">
        <ele>1082.63</ele>
        <time>2015-05-10T09:23:58Z</time>
      </trkpt>
      <trkpt lat="45.02294" lon="2.66916">
        <ele>1080.84</ele>
        <time>2015-05-10T09:24:12Z</time>
      </trkpt>
      <trkpt lat="45.02284" lon="2.66894">
        <ele>1078.72</ele>
        <time>2015-05-10T09:24:26Z</time>
      </trkpt>
      <trkpt lat="45.02269" lon="2.66878">
        <ele>1079.56</ele>
        <time>2015-05-10T09:24:42Z</time>
      </trkpt>
      <trkpt lat="45.02252" lon="2.66869">
        <ele>1073.97</ele>
        <time>2015-05-10T09:24:57Z</time>
      </trkpt>
      <trkpt lat="45.02233" lon="2.66863">
        <ele>1075.64</ele>
        <time>2015-05-10T09:25:13Z</time>
      </trkpt>
      <trkpt lat="45.02215" lon="2.66853">
        <ele>1075.13</ele>
        <time>2015-05-10T09:25:30Z</time>
      </trkpt>
      <trkpt lat="45.022" lon="2.66838">
        <ele>1077.76</ele>
        <time>2015-05-10T09:25:45Z</time>
      </trkpt>
      <trkpt lat="45.0219" lon="2.66817">
        <ele>1078.62</ele>
        <time>2015-05-10T09:26:14Z</time>
      </trkpt>
      <trkpt lat="45.02171" lon="2.66816">
        <ele>1075.36</ele>
        <time>2015-05-10T09:26:43Z</time>
      </trkpt>
      <trkpt lat="45.02152" lon="2.66813">
        <ele>1071.24</ele>
        <time>2015-05-10T09:27:00Z</time>
      </trkpt>
      <trkpt lat="45.02134" lon="2.66819">
        <ele>1072.29</ele>
        <time>2015-05-10T09:27:24Z</time>
      </trkpt>
      <trkpt lat="45.02116" lon="2.66819">
        <ele>1067</ele>
        <time>2015-05-10T09:27:50Z</time>
      </trkpt>
      <trkpt lat="45.02098" lon="2.66818">
        <ele>1065.8</ele>
        <time>2015-05-10T09:28:04Z</time>
      </trkpt>
      <trkpt lat="45.0208" lon="2.6681">
        <ele>1061.45</ele>
        <time>2015-05-10T09:28:19Z</time>
      </trkpt>
      <trkpt lat="45.02062" lon="2.66806">
        <ele>1057.25</ele>
        <time>2015-05-10T09:28:44Z</time>
      </trkpt>
      <trkpt lat="45.02043" lon="2.66803">
        <ele>1058.27</ele>
        <time>2015-05-10T09:28:58Z</time>
      </trkpt>
      <trkpt lat="45.02026" lon="2.66808">
        <ele>1056.1</ele>
        <time>2015-05-10T09:29:11Z</time>
      </trkpt>
      <trkpt lat="45.02007" lon="2.66811">
        <ele>1052.58</ele>
        <time>2015-05-10T09:29:28Z</time>
      </trkpt>
      <trkpt lat="45.01989" lon="2.66814">
        <ele>1050.33</ele>
        <time>2015-05-10T09:29:45Z</time>
      </trkpt>
      <trkpt lat="45.01971" lon="2.66823">
        <ele>1046.28</ele>
        <time>2015-05-10T09:31:05Z</time>
      </trkpt>
      <trkpt lat="45.01954" lon="2.66833">
        <ele>1036.14</ele>
        <time>2015-05-10T09:31:43Z</time>
      </trkpt>
      <trkpt lat="45.01938" lon="2.6685">
        <ele>1017.49</ele>
        <time>2015-05-10T09:32:38Z</time>
      </trkpt>
      <trkpt lat="45.0192" lon="2.66846">
        <ele>1011.77</ele>
        <time>2015-05-10T09:33:08Z</time>
      </trkpt>
      <trkpt lat="45.01904" lon="2.66858">
        <ele>1005.73</ele>
        <time>2015-05-10T09:33:25Z</time>
      </trkpt>
      <trkpt lat="45.01912" lon="2.66884">
        <ele>1001.7</ele>
        <time>2015-05-10T09:33:55Z</time>
      </trkpt>
      <trkpt lat="45.01894" lon="2.66888">
        <ele>993.15</ele>
        <time>2015-05-10T09:34:16Z</time>
      </trkpt>
      <trkpt lat="45.0188" lon="2.66869">
        <ele>984.6</ele>
        <time>2015-05-10T09:34:43Z</time>
      </trkpt>
      <trkpt lat="45.01869" lon="2.66849">
        <ele>985.7</ele>
        <time>2015-05-10T09:34:53Z</time>
      </trkpt>
      <trkpt lat="45.01855" lon="2.66833">
        <ele>974.75</ele>
        <time>2015-05-10T09:35:19Z</time>
      </trkpt>
      <trkpt lat="45.01858" lon="2.66808">
        <ele>973.84</ele>
        <time>2015-05-10T09:35:47Z</time>
      </trkpt>
      <trkpt lat="45.01861" lon="2.66782">
        <ele>976.2</ele>
        <time>2015-05-10T09:36:06Z</time>
      </trkpt>
      <trkpt lat="45.01845" lon="2.66768">
        <ele>961.7</ele>
        <time>2015-05-10T09:36:54Z</time>
      </trkpt>
      <trkpt lat="45.01827" lon="2.66762">
        <ele>957.95</ele>
        <time>2015-05-10T09:37:24Z</time>
      </trkpt>
      <trkpt lat="45.01809" lon="2.66754">
        <ele>946.42</ele>
        <time>2015-05-10T09:38:18Z</time>
      </trkpt>
      <trkpt lat="45.01792" lon="2.66744">
        <ele>942.36</ele>
        <time>2015-05-10T09:38:57Z</time>
      </trkpt>
      <trkpt lat="45.01775" lon="2.66739">
        <ele>932.34</ele>
        <time>2015-05-10T09:39:16Z</time>
      </trkpt>
      <trkpt lat="45.01758" lon="2.66729">
        <ele>927.77</ele>
        <time>2015-05-10T09:39:57Z</time>
      </trkpt>
      <trkpt lat="45.01756" lon="2.66726">
        <ele>926.46</ele>
        <time>2015-05-10T09:40:14Z</time>
      </trkpt>
      <trkpt lat="45.01758" lon="2.66715">
        <ele>923.46</ele>
        <time>2015-05-10T09:41:08Z</time>
      </trkpt>
      <trkpt lat="45.01762" lon="2.6669">
        <ele>911.9</ele>
        <time>2015-05-10T09:41:47Z</time>
      </trkpt>
      <trkpt lat="45.01746" lon="2.66702">
        <ele>900.63</ele>
        <time>2015-05-10T09:42:32Z</time>
      </trkpt>
      <trkpt lat="45.0173" lon="2.66717">
        <ele>894.36</ele>
        <time>2015-05-10T09:43:28Z</time>
      </trkpt>
      <trkpt lat="45.01718" lon="2.66737">
        <ele>887.95</ele>
        <time>2015-05-10T09:43:43Z</time>
      </trkpt>
      <trkpt lat="45.01702" lon="2.6675">
        <ele>889.61</ele>
        <time>2015-05-10T09:43:58Z</time>
      </trkpt>
      <trkpt lat="45.01693" lon="2.66759">
        <ele>883.46</ele>
        <time>2015-05-10T09:44:19Z</time>
      </trkpt>
      <trkpt lat="45.01673" lon="2.66811">
        <ele>878.46</ele>
        <time>2015-05-10T09:44:59Z</time>
      </trkpt>
      <trkpt lat="45.01672" lon="2.66817">
        <ele>870.46</ele>
        <time>2015-05-10T09:48:55Z</time>
      </trkpt>
      <trkpt lat="45.0167" lon="2.66818">
        <ele>872.46</ele>
        <time>2015-05-10T09:52:23Z</time>
      </trkpt>
      <trkpt lat="45.0167" lon="2.66818">
        <ele>872.46</ele>
        <time>2015-05-10T09:52:42Z</time>
      </trkpt>
      <trkpt lat="45.0167" lon="2.66818">
        <ele>872.46</ele>
        <time>2015-05-10T09:55:49Z</time>
      </trkpt>
      <trkpt lat="45.0167" lon="2.66818">
        <ele>872.46</ele>
        <time>2015-05-10T09:56:24Z</time>
      </trkpt>
      <trkpt lat="45.0167" lon="2.66818">
        <ele>872.46</ele>
        <time>2015-05-10T10:02:10Z</time>
      </trkpt>
      <trkpt lat="45.0167" lon="2.66818">
        <ele>873.46</ele>
        <time>2015-05-10T10:03:47Z</time>
      </trkpt>
      <trkpt lat="45.01661" lon="2.66795">
        <ele>874.45</ele>
        <time>2015-05-10T10:06:34Z</time>
      </trkpt>
      <trkpt lat="45.01667" lon="2.66769">
        <ele>871.49</ele>
        <time>2015-05-10T10:10:38Z</time>
      </trkpt>
      <trkpt lat="45.01664" lon="2.66744">
        <ele>869.31</ele>
        <time>2015-05-10T10:10:51Z</time>
      </trkpt>
      <trkpt lat="45.01664" lon="2.66718">
        <ele>866.43</ele>
        <time>2015-05-10T10:11:06Z</time>
      </trkpt>
      <trkpt lat="45.01665" lon="2.66691">
        <ele>865.42</ele>
        <time>2015-05-10T10:11:22Z</time>
      </trkpt>
      <trkpt lat="45.0167" lon="2.66665">
        <ele>862.95</ele>
        <time>2015-05-10T10:11:41Z</time>
      </trkpt>
      <trkpt lat="45.01673" lon="2.66639">
        <ele>854.49</ele>
        <time>2015-05-10T10:11:59Z</time>
      </trkpt>
      <trkpt lat="45.01658" lon="2.66623">
        <ele>850.29</ele>
        <time>2015-05-10T10:12:23Z</time>
      </trkpt>
      <trkpt lat="45.01641" lon="2.66615">
        <ele>846.07</ele>
        <time>2015-05-10T10:12:42Z</time>
      </trkpt>
      <trkpt lat="45.01629" lon="2.66597">
        <ele>843.55</ele>
        <time>2015-05-10T10:13:00Z</time>
      </trkpt>
      <trkpt lat="45.01616" lon="2.66578">
        <ele>837.91</ele>
        <time>2015-05-10T10:13:20Z</time>
      </trkpt>
      <trkpt lat="45.016" lon="2.6656">
        <ele>836.77</ele>
        <time>2015-05-10T10:13:39Z</time>
      </trkpt>
      <trkpt lat="45.01582" lon="2.66553">
        <ele>830.08</ele>
        <time>2015-05-10T10:13:54Z</time>
      </trkpt>
      <trkpt lat="45.01563" lon="2.66549">
        <ele>824.6</ele>
        <time>2015-05-10T10:14:08Z</time>
      </trkpt>
      <trkpt lat="45.01546" lon="2.66541">
        <ele>819</ele>
        <time>2015-05-10T10:14:23Z</time>
      </trkpt>
      <trkpt lat="45.01528" lon="2.66544">
        <ele>817.38</ele>
        <time>2015-05-10T10:14:37Z</time>
      </trkpt>
      <trkpt lat="45.01517" lon="2.66564">
        <ele>813.97</ele>
        <time>2015-05-10T10:14:52Z</time>
      </trkpt>
      <trkpt lat="45.01499" lon="2.66569">
        <ele>811.58</ele>
        <time>2015-05-10T10:15:10Z</time>
      </trkpt>
      <trkpt lat="45.01495" lon="2.66543">
        <ele>811.56</ele>
        <time>2015-05-10T10:15:27Z</time>
      </trkpt>
      <trkpt lat="45.01503" lon="2.6652">
        <ele>813.83</ele>
        <time>2015-05-10T10:15:43Z</time>
      </trkpt>
      <trkpt lat="45.01508" lon="2.66494">
        <ele>812.28</ele>
        <time>2015-05-10T10:16:02Z</time>
      </trkpt>
      <trkpt lat="45.01512" lon="2.66469">
        <ele>810.49</ele>
        <time>2015-05-10T10:16:18Z</time>
      </trkpt>
      <trkpt lat="45.01519" lon="2.66445">
        <ele>807.61</ele>
        <time>2015-05-10T10:16:55Z</time>
      </trkpt>
      <trkpt lat="45.01505" lon="2.66428">
        <ele>805.35</ele>
        <time>2015-05-10T10:17:11Z</time>
      </trkpt>
      <trkpt lat="45.01485" lon="2.66421">
        <ele>806.95</ele>
        <time>2015-05-10T10:17:57Z</time>
      </trkpt>
      <trkpt lat="45.01473" lon="2.66441">
        <ele>806.65</ele>
        <time>2015-05-10T10:18:09Z</time>
      </trkpt>
      <trkpt lat="45.01466" lon="2.66464">
        <ele>801.03</ele>
        <time>2015-05-10T10:18:22Z</time>
      </trkpt>
      <trkpt lat="45.01457" lon="2.66488">
        <ele>801.4</ele>
        <time>2015-05-10T10:19:15Z</time>
      </trkpt>
      <trkpt lat="45.01446" lon="2.66509">
        <ele>802.29</ele>
        <time>2015-05-10T10:19:31Z</time>
      </trkpt>
      <trkpt lat="45.01442" lon="2.66534">
        <ele>803.43</ele>
        <time>2015-05-10T10:19:47Z</time>
      </trkpt>
      <trkpt lat="45.01439" lon="2.66561">
        <ele>802.15</ele>
        <time>2015-05-10T10:20:04Z</time>
      </trkpt>
      <trkpt lat="45.01438" lon="2.66587">
        <ele>797.75</ele>
        <time>2015-05-10T10:20:20Z</time>
      </trkpt>
      <trkpt lat="45.0144" lon="2.66613">
        <ele>795.36</ele>
        <time>2015-05-10T10:20:35Z</time>
      </trkpt>
      <trkpt lat="45.01444" lon="2.66639">
        <ele>796.75</ele>
        <time>2015-05-10T10:20:48Z</time>
      </trkpt>
      <trkpt lat="45.01453" lon="2.66663">
        <ele>795.79</ele>
        <time>2015-05-10T10:21:06Z</time>
      </trkpt>
      <trkpt lat="45.01453" lon="2.66689">
        <ele>792.9</ele>
        <time>2015-05-10T10:21:20Z</time>
      </trkpt>
      <trkpt lat="45.01461" lon="2.66712">
        <ele>793.5</ele>
        <time>2015-05-10T10:21:34Z</time>
      </trkpt>
      <trkpt lat="45.01463" lon="2.66739">
        <ele>794.08</ele>
        <time>2015-05-10T10:21:51Z</time>
      </trkpt>
      <trkpt lat="45.01456" lon="2.66763">
        <ele>793.08</ele>
        <time>2015-05-10T10:22:07Z</time>
      </trkpt>
      <trkpt lat="45.01462" lon="2.66788">
        <ele>785.31</ele>
        <time>2015-05-10T10:22:31Z</time>
      </trkpt>
      <trkpt lat="45.01478" lon="2.66801">
        <ele>781.46</ele>
        <time>2015-05-10T10:22:53Z</time>
      </trkpt>
      <trkpt lat="45.0148" lon="2.66826">
        <ele>777.77</ele>
        <time>2015-05-10T10:23:12Z</time>
      </trkpt>
      <trkpt lat="45.01466" lon="2.66843">
        <ele>775.47</ele>
        <time>2015-05-10T10:23:29Z</time>
      </trkpt>
      <trkpt lat="45.01467" lon="2.6687">
        <ele>773.5</ele>
        <time>2015-05-10T10:24:03Z</time>
      </trkpt>
      <trkpt lat="45.01449" lon="2.66874">
        <ele>769.74</ele>
        <time>2015-05-10T10:24:43Z</time>
      </trkpt>
      <trkpt lat="45.01434" lon="2.66859">
        <ele>768.58</ele>
        <time>2015-05-10T10:24:58Z</time>
      </trkpt>
      <trkpt lat="45.01425" lon="2.66882">
        <ele>763.77</ele>
        <time>2015-05-10T10:25:18Z</time>
      </trkpt>
      <trkpt lat="45.01437" lon="2.66902">
        <ele>760.47</ele>
        <time>2015-05-10T10:25:34Z</time>
      </trkpt>
      <trkpt lat="45.01449" lon="2.66921">
        <ele>757.58</ele>
        <time>2015-05-10T10:25:49Z</time>
      </trkpt>
      <trkpt lat="45.01441" lon="2.66944">
        <ele>756.46</ele>
        <time>2015-05-10T10:26:05Z</time>
      </trkpt>
      <trkpt lat="45.01451" lon="2.66965">
        <ele>757.58</ele>
        <time>2015-05-10T10:26:28Z</time>
      </trkpt>
      <trkpt lat="45.01463" lon="2.66985">
        <ele>756.67</ele>
        <time>2015-05-10T10:26:43Z</time>
      </trkpt>
      <trkpt lat="45.01468" lon="2.6701">
        <ele>754.89</ele>
        <time>2015-05-10T10:27:00Z</time>
      </trkpt>
      <trkpt lat="45.01479" lon="2.67032">
        <ele>760.73</ele>
        <time>2015-05-10T10:27:16Z</time>
      </trkpt>
      <trkpt lat="45.0148" lon="2.67058">
        <ele>759.54</ele>
        <time>2015-05-10T10:27:32Z</time>
      </trkpt>
      <trkpt lat="45.01473" lon="2.67083">
        <ele>756.63</ele>
        <time>2015-05-10T10:27:46Z</time>
      </trkpt>
      <trkpt lat="45.01473" lon="2.6711">
        <ele>756.27</ele>
        <time>2015-05-10T10:28:00Z</time>
      </trkpt>
      <trkpt lat="45.01467" lon="2.67135">
        <ele>764.28</ele>
        <time>2015-05-10T10:28:15Z</time>
      </trkpt>
      <trkpt lat="45.0145" lon="2.67146">
        <ele>766.92</ele>
        <time>2015-05-10T10:28:32Z</time>
      </trkpt>
      <trkpt lat="45.01434" lon="2.6716">
        <ele>765.44</ele>
        <time>2015-05-10T10:28:46Z</time>
      </trkpt>
      <trkpt lat="45.01421" lon="2.67178">
        <ele>765.98</ele>
        <time>2015-05-10T10:29:01Z</time>
      </trkpt>
      <trkpt lat="45.01419" lon="2.67204">
        <ele>760.81</ele>
        <time>2015-05-10T10:29:22Z</time>
      </trkpt>
      <trkpt lat="45.01423" lon="2.67229">
        <ele>758.26</ele>
        <time>2015-05-10T10:29:37Z</time>
      </trkpt>
      <trkpt lat="45.01425" lon="2.67255">
        <ele>757.21</ele>
        <time>2015-05-10T10:29:50Z</time>
      </trkpt>
      <trkpt lat="45.01425" lon="2.67281">
        <ele>763.52</ele>
        <time>2015-05-10T10:30:05Z</time>
      </trkpt>
      <trkpt lat="45.01427" lon="2.67307">
        <ele>763.05</ele>
        <time>2015-05-10T10:30:22Z</time>
      </trkpt>
      <trkpt lat="45.01428" lon="2.67333">
        <ele>759.88</ele>
        <time>2015-05-10T10:30:37Z</time>
      </trkpt>
      <trkpt lat="45.01431" lon="2.67359">
        <ele>760.23</ele>
        <time>2015-05-10T10:30:52Z</time>
      </trkpt>
      <trkpt lat="45.01428" lon="2.67385">
        <ele>767.61</ele>
        <time>2015-05-10T10:31:03Z</time>
      </trkpt>
      <trkpt lat="45.01418" lon="2.67409">
        <ele>769.26</ele>
        <time>2015-05-10T10:31:19Z</time>
      </trkpt>
      <trkpt lat="45.01402" lon="2.67422">
        <ele>770.15</ele>
        <time>2015-05-10T10:31:37Z</time>
      </trkpt>
      <trkpt lat="45.01384" lon="2.67416">
        <ele>771.11</ele>
        <time>2015-05-10T10:31:54Z</time>
      </trkpt>
      <trkpt lat="45.01365" lon="2.67419">
        <ele>774.36</ele>
        <time>2015-05-10T10:32:09Z</time>
      </trkpt>
      <trkpt lat="45.01351" lon="2.67436">
        <ele>778.46</ele>
        <time>2015-05-10T10:32:21Z</time>
      </trkpt>
      <trkpt lat="45.01351" lon="2.67462">
        <ele>775.24</ele>
        <time>2015-05-10T10:32:45Z</time>
      </trkpt>
      <trkpt lat="45.01363" lon="2.67483">
        <ele>777.93</ele>
        <time>2015-05-10T10:33:12Z</time>
      </trkpt>
      <trkpt lat="45.01376" lon="2.67502">
        <ele>775.05</ele>
        <time>2015-05-10T10:33:26Z</time>
      </trkpt>
      <trkpt lat="45.01379" lon="2.67527">
        <ele>780.43</ele>
        <time>2015-05-10T10:34:08Z</time>
      </trkpt>
      <trkpt lat="45.0138" lon="2.67554">
        <ele>784.03</ele>
        <time>2015-05-10T10:34:24Z</time>
      </trkpt>
      <trkpt lat="45.01385" lon="2.67578">
        <ele>785.14</ele>
        <time>2015-05-10T10:34:43Z</time>
      </trkpt>
      <trkpt lat="45.01387" lon="2.67606">
        <ele>789.31</ele>
        <time>2015-05-10T10:35:04Z</time>
      </trkpt>
      <trkpt lat="45.01386" lon="2.67633">
        <ele>792.35</ele>
        <time>2015-05-10T10:35:18Z</time>
      </trkpt>
      <trkpt lat="45.01389" lon="2.67659">
        <ele>795.14</ele>
        <time>2015-05-10T10:35:33Z</time>
      </trkpt>
      <trkpt lat="45.01386" lon="2.67685">
        <ele>799.46</ele>
        <time>2015-05-10T10:35:53Z</time>
      </trkpt>
      <trkpt lat="45.01373" lon="2.67705">
        <ele>801.37</ele>
        <time>2015-05-10T10:36:11Z</time>
      </trkpt>
      <trkpt lat="45.01361" lon="2.67725">
        <ele>797.56</ele>
        <time>2015-05-10T10:36:40Z</time>
      </trkpt>
      <trkpt lat="45.01362" lon="2.67752">
        <ele>802.21</ele>
        <time>2015-05-10T10:37:11Z</time>
      </trkpt>
      <trkpt lat="45.01373" lon="2.67775">
        <ele>809.6</ele>
        <time>2015-05-10T10:37:23Z</time>
      </trkpt>
      <trkpt lat="45.01383" lon="2.67798">
        <ele>805.07</ele>
        <time>2015-05-10T10:37:40Z</time>
      </trkpt>
      <trkpt lat="45.01391" lon="2.67822">
        <ele>808.18</ele>
        <time>2015-05-10T10:37:57Z</time>
      </trkpt>
      <trkpt lat="45.01401" lon="2.67845">
        <ele>809.08</ele>
        <time>2015-05-10T10:38:19Z</time>
      </trkpt>
      <trkpt lat="45.01408" lon="2.67869">
        <ele>812.44</ele>
        <time>2015-05-10T10:38:38Z</time>
      </trkpt>
      <trkpt lat="45.01421" lon="2.67888">
        <ele>816.07</ele>
        <time>2015-05-10T10:38:59Z</time>
      </trkpt>
      <trkpt lat="45.01434" lon="2.67906">
        <ele>817.22</ele>
        <time>2015-05-10T10:39:18Z</time>
      </trkpt>
      <trkpt lat="45.01452" lon="2.67916">
        <ele>822.45</ele>
        <time>2015-05-10T10:39:32Z</time>
      </trkpt>
      <trkpt lat="45.01467" lon="2.6793">
        <ele>817.58</ele>
        <time>2015-05-10T10:39:50Z</time>
      </trkpt>
      <trkpt lat="45.01472" lon="2.67957">
        <ele>812.93</ele>
        <time>2015-05-10T10:40:12Z</time>
      </trkpt>
      <trkpt lat="45.01475" lon="2.67984">
        <ele>813.34</ele>
        <time>2015-05-10T10:40:28Z</time>
      </trkpt>
      <trkpt lat="45.01478" lon="2.6801">
        <ele>821.45</ele>
        <time>2015-05-10T10:40:44Z</time>
      </trkpt>
      <trkpt lat="45.01479" lon="2.68035">
        <ele>820.92</ele>
        <time>2015-05-10T10:41:09Z</time>
      </trkpt>
      <trkpt lat="45.01485" lon="2.68062">
        <ele>822.25</ele>
        <time>2015-05-10T10:41:27Z</time>
      </trkpt>
      <trkpt lat="45.01492" lon="2.68087">
        <ele>824.44</ele>
        <time>2015-05-10T10:41:45Z</time>
      </trkpt>
      <trkpt lat="45.01497" lon="2.68112">
        <ele>827.08</ele>
        <time>2015-05-10T10:42:01Z</time>
      </trkpt>
      <trkpt lat="45.015" lon="2.6814">
        <ele>831.45</ele>
        <time>2015-05-10T10:42:16Z</time>
      </trkpt>
      <trkpt lat="45.01488" lon="2.68162">
        <ele>836.45</ele>
        <time>2015-05-10T10:42:35Z</time>
      </trkpt>
      <trkpt lat="45.01471" lon="2.6817">
        <ele>839.53</ele>
        <time>2015-05-10T10:42:49Z</time>
      </trkpt>
      <trkpt lat="45.01452" lon="2.68174">
        <ele>836.99</ele>
        <time>2015-05-10T10:43:10Z</time>
      </trkpt>
      <trkpt lat="45.01435" lon="2.68181">
        <ele>840.16</ele>
        <time>2015-05-10T10:43:26Z</time>
      </trkpt>
      <trkpt lat="45.01417" lon="2.68188">
        <ele>840.02</ele>
        <time>2015-05-10T10:43:41Z</time>
      </trkpt>
      <trkpt lat="45.01399" lon="2.68192">
        <ele>838.39</ele>
        <time>2015-05-10T10:44:00Z</time>
      </trkpt>
      <trkpt lat="45.01381" lon="2.68194">
        <ele>840.72</ele>
        <time>2015-05-10T10:44:13Z</time>
      </trkpt>
      <trkpt lat="45.01361" lon="2.68194">
        <ele>838.78</ele>
        <time>2015-05-10T10:44:31Z</time>
      </trkpt>
      <trkpt lat="45.01338" lon="2.68192">
        <ele>838.11</ele>
        <time>2015-05-10T10:44:48Z</time>
      </trkpt>
      <trkpt lat="45.01333" lon="2.68217">
        <ele>845.84</ele>
        <time>2015-05-10T10:45:03Z</time>
      </trkpt>
      <trkpt lat="45.01339" lon="2.68242">
        <ele>848.45</ele>
        <time>2015-05-10T10:45:42Z</time>
      </trkpt>
      <trkpt lat="45.01344" lon="2.68266">
        <ele>848.73</ele>
        <time>2015-05-10T10:45:56Z</time>
      </trkpt>
      <trkpt lat="45.01345" lon="2.68292">
        <ele>850.19</ele>
        <time>2015-05-10T10:46:18Z</time>
      </trkpt>
      <trkpt lat="45.01359" lon="2.68308">
        <ele>859.77</ele>
        <time>2015-05-10T10:46:32Z</time>
      </trkpt>
      <trkpt lat="45.01355" lon="2.68333">
        <ele>863.73</ele>
        <time>2015-05-10T10:46:57Z</time>
      </trkpt>
      <trkpt lat="45.01351" lon="2.68358">
        <ele>863.73</ele>
        <time>2015-05-10T10:47:30Z</time>
      </trkpt>
      <trkpt lat="45.01334" lon="2.68349">
        <ele>867.11</ele>
        <time>2015-05-10T10:47:43Z</time>
      </trkpt>
      <trkpt lat="45.01316" lon="2.68342">
        <ele>868.46</ele>
        <time>2015-05-10T10:48:21Z</time>
      </trkpt>
      <trkpt lat="45.01298" lon="2.68336">
        <ele>869.66</ele>
        <time>2015-05-10T10:48:35Z</time>
      </trkpt>
      <trkpt lat="45.01276" lon="2.68332">
        <ele>873.99</ele>
        <time>2015-05-10T10:49:36Z</time>
      </trkpt>
      <trkpt lat="45.01256" lon="2.68333">
        <ele>881.39</ele>
        <time>2015-05-10T10:49:43Z</time>
      </trkpt>
      <trkpt lat="45.01237" lon="2.68346">
        <ele>887.46</ele>
        <time>2015-05-10T10:50:35Z</time>
      </trkpt>
      <trkpt lat="45.01227" lon="2.6837">
        <ele>891.12</ele>
        <time>2015-05-10T10:50:46Z</time>
      </trkpt>
      <trkpt lat="45.01208" lon="2.68365">
        <ele>881.74</ele>
        <time>2015-05-10T10:51:11Z</time>
      </trkpt>
      <trkpt lat="45.01189" lon="2.68364">
        <ele>899.22</ele>
        <time>2015-05-10T10:52:09Z</time>
      </trkpt>
      <trkpt lat="45.0117" lon="2.68356">
        <ele>908.05</ele>
        <time>2015-05-10T10:52:46Z</time>
      </trkpt>
      <trkpt lat="45.01153" lon="2.68341">
        <ele>912.46</ele>
        <time>2015-05-10T10:53:34Z</time>
      </trkpt>
      <trkpt lat="45.01135" lon="2.6833">
        <ele>910.42</ele>
        <time>2015-05-10T10:53:44Z</time>
      </trkpt>
      <trkpt lat="45.01116" lon="2.68335">
        <ele>913.01</ele>
        <time>2015-05-10T10:54:03Z</time>
      </trkpt>
      <trkpt lat="45.01102" lon="2.68351">
        <ele>905.02</ele>
        <time>2015-05-10T10:54:17Z</time>
      </trkpt>
      <trkpt lat="45.01084" lon="2.68349">
        <ele>917.46</ele>
        <time>2015-05-10T10:56:04Z</time>
      </trkpt>
      <trkpt lat="45.01069" lon="2.68329">
        <ele>918.89</ele>
        <time>2015-05-10T10:56:12Z</time>
      </trkpt>
      <trkpt lat="45.01053" lon="2.68311">
        <ele>924.95</ele>
        <time>2015-05-10T10:56:55Z</time>
      </trkpt>
      <trkpt lat="45.01035" lon="2.68317">
        <ele>929.88</ele>
        <time>2015-05-10T10:57:54Z</time>
      </trkpt>
      <trkpt lat="45.0103" lon="2.68343">
        <ele>935.41</ele>
        <time>2015-05-10T10:58:30Z</time>
      </trkpt>
      <trkpt lat="45.01033" lon="2.68368">
        <ele>938.86</ele>
        <time>2015-05-10T11:01:00Z</time>
      </trkpt>
      <trkpt lat="45.01034" lon="2.68395">
        <ele>934.4</ele>
        <time>2015-05-10T11:01:18Z</time>
      </trkpt>
      <trkpt lat="45.01047" lon="2.68414">
        <ele>932.05</ele>
        <time>2015-05-10T11:01:39Z</time>
      </trkpt>
      <trkpt lat="45.01065" lon="2.68422">
        <ele>929.58</ele>
        <time>2015-05-10T11:01:55Z</time>
      </trkpt>
      <trkpt lat="45.0108" lon="2.68436">
        <ele>931.07</ele>
        <time>2015-05-10T11:02:12Z</time>
      </trkpt>
      <trkpt lat="45.01093" lon="2.68456">
        <ele>934.56</ele>
        <time>2015-05-10T11:02:34Z</time>
      </trkpt>
      <trkpt lat="45.01096" lon="2.68482">
        <ele>940.54</ele>
        <time>2015-05-10T11:02:57Z</time>
      </trkpt>
      <trkpt lat="45.01085" lon="2.68503">
        <ele>944.42</ele>
        <time>2015-05-10T11:03:16Z</time>
      </trkpt>
      <trkpt lat="45.01063" lon="2.68501">
        <ele>940.54</ele>
        <time>2015-05-10T11:03:46Z</time>
      </trkpt>
      <trkpt lat="45.0107" lon="2.68529">
        <ele>944.92</ele>
        <time>2015-05-10T11:05:00Z</time>
      </trkpt>
      <trkpt lat="45.01062" lon="2.68552">
        <ele>946.75</ele>
        <time>2015-05-10T11:05:11Z</time>
      </trkpt>
      <trkpt lat="45.01061" lon="2.6858">
        <ele>953.49</ele>
        <time>2015-05-10T11:05:25Z</time>
      </trkpt>
      <trkpt lat="45.0107" lon="2.68603">
        <ele>964.31</ele>
        <time>2015-05-10T11:05:45Z</time>
      </trkpt>
      <trkpt lat="45.01072" lon="2.6863">
        <ele>980.53</ele>
        <time>2015-05-10T11:06:05Z</time>
      </trkpt>
      <trkpt lat="45.0108" lon="2.68652">
        <ele>988.45</ele>
        <time>2015-05-10T11:06:41Z</time>
      </trkpt>
      <trkpt lat="45.01096" lon="2.68667">
        <ele>985.12</ele>
        <time>2015-05-10T11:06:56Z</time>
      </trkpt>
      <trkpt lat="45.01102" lon="2.68699">
        <ele>988.96</ele>
        <time>2015-05-10T11:08:04Z</time>
      </trkpt>
      <trkpt lat="45.01113" lon="2.68719">
        <ele>999.17</ele>
        <time>2015-05-10T11:08:19Z</time>
      </trkpt>
      <trkpt lat="45.01118" lon="2.68744">
        <ele>1005.42</ele>
        <time>2015-05-10T11:08:32Z</time>
      </trkpt>
      <trkpt lat="45.01113" lon="2.68769">
        <ele>993.72</ele>
        <time>2015-05-10T11:08:40Z</time>
      </trkpt>
      <trkpt lat="45.01107" lon="2.68796">
        <ele>981.52</ele>
        <time>2015-05-10T11:08:53Z</time>
      </trkpt>
      <trkpt lat="45.01118" lon="2.68819">
        <ele>985.37</ele>
        <time>2015-05-10T11:09:12Z</time>
      </trkpt>
      <trkpt lat="45.01134" lon="2.68833">
        <ele>1002.45</ele>
        <time>2015-05-10T11:10:09Z</time>
      </trkpt>
      <trkpt lat="45.01147" lon="2.68855">
        <ele>1001.89</ele>
        <time>2015-05-10T11:10:13Z</time>
      </trkpt>
      <trkpt lat="45.01164" lon="2.68866">
        <ele>1008.19</ele>
        <time>2015-05-10T11:10:29Z</time>
      </trkpt>
      <trkpt lat="45.01182" lon="2.68878">
        <ele>1015.96</ele>
        <time>2015-05-10T11:10:58Z</time>
      </trkpt>
      <trkpt lat="45.012" lon="2.68881">
        <ele>1015.57</ele>
        <time>2015-05-10T11:11:08Z</time>
      </trkpt>
      <trkpt lat="45.01215" lon="2.68898">
        <ele>1016.48</ele>
        <time>2015-05-10T11:11:22Z</time>
      </trkpt>
      <trkpt lat="45.01229" lon="2.68918">
        <ele>1011.86</ele>
        <time>2015-05-10T11:11:36Z</time>
      </trkpt>
      <trkpt lat="45.01239" lon="2.68939">
        <ele>1006.94</ele>
        <time>2015-05-10T11:12:12Z</time>
      </trkpt>
      <trkpt lat="45.01255" lon="2.68958">
        <ele>1001.27</ele>
        <time>2015-05-10T11:12:20Z</time>
      </trkpt>
      <trkpt lat="45.01271" lon="2.68974">
        <ele>1004.43</ele>
        <time>2015-05-10T11:12:35Z</time>
      </trkpt>
      <trkpt lat="45.01287" lon="2.68988">
        <ele>1003.02</ele>
        <time>2015-05-10T11:12:50Z</time>
      </trkpt>
      <trkpt lat="45.01304" lon="2.69001">
        <ele>1000.89</ele>
        <time>2015-05-10T11:13:04Z</time>
      </trkpt>
      <trkpt lat="45.01315" lon="2.68981">
        <ele>991.18</ele>
        <time>2015-05-10T11:13:25Z</time>
      </trkpt>
      <trkpt lat="45.01331" lon="2.68965">
        <ele>991.99</ele>
        <time>2015-05-10T11:13:41Z</time>
      </trkpt>
      <trkpt lat="45.01349" lon="2.68973">
        <ele>986.09</ele>
        <time>2015-05-10T11:14:02Z</time>
      </trkpt>
      <trkpt lat="45.01363" lon="2.68989">
        <ele>980.34</ele>
        <time>2015-05-10T11:14:26Z</time>
      </trkpt>
      <trkpt lat="45.01377" lon="2.69015">
        <ele>989.45</ele>
        <time>2015-05-10T11:15:08Z</time>
      </trkpt>
      <trkpt lat="45.01388" lon="2.69038">
        <ele>989.32</ele>
        <time>2015-05-10T11:15:17Z</time>
      </trkpt>
      <trkpt lat="45.014" lon="2.69057">
        <ele>992.7</ele>
        <time>2015-05-10T11:15:57Z</time>
      </trkpt>
      <trkpt lat="45.01415" lon="2.69079">
        <ele>1003.66</ele>
        <time>2015-05-10T11:16:05Z</time>
      </trkpt>
      <trkpt lat="45.01425" lon="2.69101">
        <ele>999.24</ele>
        <time>2015-05-10T11:16:26Z</time>
      </trkpt>
      <trkpt lat="45.01441" lon="2.69113">
        <ele>1008.96</ele>
        <time>2015-05-10T11:17:26Z</time>
      </trkpt>
      <trkpt lat="45.01443" lon="2.6914">
        <ele>1007.21</ele>
        <time>2015-05-10T11:17:32Z</time>
      </trkpt>
      <trkpt lat="45.01455" lon="2.69161">
        <ele>1005.26</ele>
        <time>2015-05-10T11:17:37Z</time>
      </trkpt>
      <trkpt lat="45.01463" lon="2.69185">
        <ele>1008.83</ele>
        <time>2015-05-10T11:19:25Z</time>
      </trkpt>
      <trkpt lat="45.01472" lon="2.69214">
        <ele>1008.95</ele>
        <time>2015-05-10T11:20:02Z</time>
      </trkpt>
      <trkpt lat="45.01476" lon="2.69239">
        <ele>1014.3</ele>
        <time>2015-05-10T11:21:49Z</time>
      </trkpt>
      <trkpt lat="45.01484" lon="2.69262">
        <ele>1019.03</ele>
        <time>2015-05-10T11:22:02Z</time>
      </trkpt>
      <trkpt lat="45.01492" lon="2.69286">
        <ele>1020.8</ele>
        <time>2015-05-10T11:22:26Z</time>
      </trkpt>
      <trkpt lat="45.01497" lon="2.69311">
        <ele>1014.46</ele>
        <time>2015-05-10T11:22:56Z</time>
      </trkpt>
      <trkpt lat="45.01495" lon="2.69337">
        <ele>1005.89</ele>
        <time>2015-05-10T11:23:18Z</time>
      </trkpt>
      <trkpt lat="45.01493" lon="2.69363">
        <ele>1010.89</ele>
        <time>2015-05-10T11:23:28Z</time>
      </trkpt>
      <trkpt lat="45.0151" lon="2.69376">
        <ele>997.83</ele>
        <time>2015-05-10T11:24:16Z</time>
      </trkpt>
      <trkpt lat="45.0152" lon="2.69398">
        <ele>994.89</ele>
        <time>2015-05-10T11:24:35Z</time>
      </trkpt>
      <trkpt lat="45.01518" lon="2.69425">
        <ele>996.96</ele>
        <time>2015-05-10T11:25:21Z</time>
      </trkpt>
      <trkpt lat="45.01514" lon="2.6945">
        <ele>995.59</ele>
        <time>2015-05-10T11:25:29Z</time>
      </trkpt>
      <trkpt lat="45.01515" lon="2.69476">
        <ele>992.56</ele>
        <time>2015-05-10T11:25:38Z</time>
      </trkpt>
      <trkpt lat="45.01513" lon="2.69502">
        <ele>994.33</ele>
        <time>2015-05-10T11:25:53Z</time>
      </trkpt>
      <trkpt lat="45.01513" lon="2.69528">
        <ele>985.73</ele>
        <time>2015-05-10T11:26:23Z</time>
      </trkpt>
      <trkpt lat="45.01521" lon="2.6955">
        <ele>975.18</ele>
        <time>2015-05-10T11:27:55Z</time>
      </trkpt>
      <trkpt lat="45.0154" lon="2.69563">
        <ele>974.2</ele>
        <time>2015-05-10T11:28:18Z</time>
      </trkpt>
      <trkpt lat="45.01556" lon="2.69575">
        <ele>974.95</ele>
        <time>2015-05-10T11:28:36Z</time>
      </trkpt>
      <trkpt lat="45.01569" lon="2.69593">
        <ele>980.31</ele>
        <time>2015-05-10T11:28:54Z</time>
      </trkpt>
      <trkpt lat="45.01578" lon="2.69616">
        <ele>979.08</ele>
        <time>2015-05-10T11:29:19Z</time>
      </trkpt>
      <trkpt lat="45.01566" lon="2.69635">
        <ele>984.66</ele>
        <time>2015-05-10T11:29:59Z</time>
      </trkpt>
      <trkpt lat="45.01549" lon="2.69624">
        <ele>985.46</ele>
        <time>2015-05-10T11:30:21Z</time>
      </trkpt>
      <trkpt lat="45.0153" lon="2.69623">
        <ele>988.77</ele>
        <time>2015-05-10T11:30:43Z</time>
      </trkpt>
      <trkpt lat="45.01529" lon="2.69648">
        <ele>987.14</ele>
        <time>2015-05-10T11:31:05Z</time>
      </trkpt>
      <trkpt lat="45.01544" lon="2.69663">
        <ele>995.9</ele>
        <time>2015-05-10T11:31:27Z</time>
      </trkpt>
      <trkpt lat="45.01552" lon="2.69686">
        <ele>998.85</ele>
        <time>2015-05-10T11:31:44Z</time>
      </trkpt>
      <trkpt lat="45.01533" lon="2.69694">
        <ele>998.65</ele>
        <time>2015-05-10T11:32:18Z</time>
      </trkpt>
      <trkpt lat="45.01517" lon="2.69682">
        <ele>1001.02</ele>
        <time>2015-05-10T11:32:36Z</time>
      </trkpt>
      <trkpt lat="45.01521" lon="2.69708">
        <ele>999.92</ele>
        <time>2015-05-10T11:33:04Z</time>
      </trkpt>
      <trkpt lat="45.01502" lon="2.69712">
        <ele>1012.17</ele>
        <time>2015-05-10T11:33:44Z</time>
      </trkpt>
      <trkpt lat="45.01483" lon="2.6971">
        <ele>1018.41</ele>
        <time>2015-05-10T11:34:01Z</time>
      </trkpt>
      <trkpt lat="45.01483" lon="2.69744">
        <ele>1021.45</ele>
        <time>2015-05-10T11:34:46Z</time>
      </trkpt>
      <trkpt lat="45.01502" lon="2.69744">
        <ele>1026.41</ele>
        <time>2015-05-10T11:34:55Z</time>
      </trkpt>
      <trkpt lat="45.01516" lon="2.6976">
        <ele>1025.51</ele>
        <time>2015-05-10T11:35:12Z</time>
      </trkpt>
      <trkpt lat="45.01533" lon="2.69774">
        <ele>1027.48</ele>
        <time>2015-05-10T11:35:34Z</time>
      </trkpt>
      <trkpt lat="45.01547" lon="2.69791">
        <ele>1029.54</ele>
        <time>2015-05-10T11:35:58Z</time>
      </trkpt>
      <trkpt lat="45.01556" lon="2.69814">
        <ele>1030.97</ele>
        <time>2015-05-10T11:36:20Z</time>
      </trkpt>
      <trkpt lat="45.01568" lon="2.69835">
        <ele>1033.45</ele>
        <time>2015-05-10T11:36:43Z</time>
      </trkpt>
      <trkpt lat="45.01577" lon="2.69858">
        <ele>1034.51</ele>
        <time>2015-05-10T11:36:59Z</time>
      </trkpt>
      <trkpt lat="45.01559" lon="2.69856">
        <ele>1036.8</ele>
        <time>2015-05-10T11:37:19Z</time>
      </trkpt>
      <trkpt lat="45.01541" lon="2.69844">
        <ele>1040.15</ele>
        <time>2015-05-10T11:37:39Z</time>
      </trkpt>
      <trkpt lat="45.01527" lon="2.69827">
        <ele>1049.38</ele>
        <time>2015-05-10T11:37:53Z</time>
      </trkpt>
      <trkpt lat="45.01511" lon="2.69814">
        <ele>1055.99</ele>
        <time>2015-05-10T11:38:19Z</time>
      </trkpt>
      <trkpt lat="45.01492" lon="2.69808">
        <ele>1059.49</ele>
        <time>2015-05-10T11:38:32Z</time>
      </trkpt>
      <trkpt lat="45.01475" lon="2.69801">
        <ele>1057.16</ele>
        <time>2015-05-10T11:38:47Z</time>
      </trkpt>
      <trkpt lat="45.01457" lon="2.69791">
        <ele>1059.66</ele>
        <time>2015-05-10T11:39:10Z</time>
      </trkpt>
      <trkpt lat="45.01411" lon="2.69775">
        <ele>1064.83</ele>
        <time>2015-05-10T11:39:51Z</time>
      </trkpt>
      <trkpt lat="45.01393" lon="2.6977">
        <ele>1061.97</ele>
        <time>2015-05-10T11:40:16Z</time>
      </trkpt>
      <trkpt lat="45.01376" lon="2.69777">
        <ele>1060.93</ele>
        <time>2015-05-10T11:40:33Z</time>
      </trkpt>
      <trkpt lat="45.01358" lon="2.69782">
        <ele>1060.46</ele>
        <time>2015-05-10T11:40:52Z</time>
      </trkpt>
      <trkpt lat="45.01339" lon="2.69786">
        <ele>1065.79</ele>
        <time>2015-05-10T11:41:09Z</time>
      </trkpt>
      <trkpt lat="45.01322" lon="2.69796">
        <ele>1071.49</ele>
        <time>2015-05-10T11:41:34Z</time>
      </trkpt>
      <trkpt lat="45.01304" lon="2.69807">
        <ele>1072.83</ele>
        <time>2015-05-10T11:41:59Z</time>
      </trkpt>
      <trkpt lat="45.01288" lon="2.69821">
        <ele>1072.13</ele>
        <time>2015-05-10T11:42:30Z</time>
      </trkpt>
      <trkpt lat="45.01284" lon="2.69846">
        <ele>1074.67</ele>
        <time>2015-05-10T11:42:52Z</time>
      </trkpt>
      <trkpt lat="45.01274" lon="2.69868">
        <ele>1075.59</ele>
        <time>2015-05-10T11:43:07Z</time>
      </trkpt>
      <trkpt lat="45.01256" lon="2.69875">
        <ele>1078.04</ele>
        <time>2015-05-10T11:43:20Z</time>
      </trkpt>
      <trkpt lat="45.01239" lon="2.69866">
        <ele>1071.71</ele>
        <time>2015-05-10T11:43:46Z</time>
      </trkpt>
      <trkpt lat="45.0122" lon="2.69867">
        <ele>1079.31</ele>
        <time>2015-05-10T11:44:02Z</time>
      </trkpt>
      <trkpt lat="45.01201" lon="2.69871">
        <ele>1084.45</ele>
        <time>2015-05-10T11:44:30Z</time>
      </trkpt>
      <trkpt lat="45.01194" lon="2.69898">
        <ele>1092.17</ele>
        <time>2015-05-10T11:45:00Z</time>
      </trkpt>
      <trkpt lat="45.01188" lon="2.69923">
        <ele>1093.35</ele>
        <time>2015-05-10T11:45:13Z</time>
      </trkpt>
      <trkpt lat="45.01177" lon="2.69944">
        <ele>1092.91</ele>
        <time>2015-05-10T11:45:30Z</time>
      </trkpt>
      <trkpt lat="45.01167" lon="2.69967">
        <ele>1095.24</ele>
        <time>2015-05-10T11:45:52Z</time>
      </trkpt>
      <trkpt lat="45.01162" lon="2.69993">
        <ele>1098.22</ele>
        <time>2015-05-10T11:46:18Z</time>
      </trkpt>
      <trkpt lat="45.01158" lon="2.70019">
        <ele>1096.32</ele>
        <time>2015-05-10T11:46:39Z</time>
      </trkpt>
      <trkpt lat="45.01151" lon="2.70043">
        <ele>1096.13</ele>
        <time>2015-05-10T11:47:06Z</time>
      </trkpt>
      <trkpt lat="45.01134" lon="2.70053">
        <ele>1096.32</ele>
        <time>2015-05-10T11:47:22Z</time>
      </trkpt>
      <trkpt lat="45.01116" lon="2.70051">
        <ele>1098.42</ele>
        <time>2015-05-10T11:47:39Z</time>
      </trkpt>
      <trkpt lat="45.01101" lon="2.70034">
        <ele>1104.93</ele>
        <time>2015-05-10T11:47:55Z</time>
      </trkpt>
      <trkpt lat="45.01086" lon="2.70021">
        <ele>1108.31</ele>
        <time>2015-05-10T11:48:19Z</time>
      </trkpt>
      <trkpt lat="45.01092" lon="2.70047">
        <ele>1112.1</ele>
        <time>2015-05-10T11:48:54Z</time>
      </trkpt>
      <trkpt lat="45.01083" lon="2.7007">
        <ele>1108.72</ele>
        <time>2015-05-10T11:49:19Z</time>
      </trkpt>
      <trkpt lat="45.01077" lon="2.70105">
        <ele>1115.8</ele>
        <time>2015-05-10T11:49:58Z</time>
      </trkpt>
      <trkpt lat="45.01077" lon="2.70131">
        <ele>1126.81</ele>
        <time>2015-05-10T11:50:15Z</time>
      </trkpt>
      <trkpt lat="45.01083" lon="2.70154">
        <ele>1120.23</ele>
        <time>2015-05-10T11:50:37Z</time>
      </trkpt>
      <trkpt lat="45.01077" lon="2.7018">
        <ele>1121.16</ele>
        <time>2015-05-10T11:51:07Z</time>
      </trkpt>
      <trkpt lat="45.01068" lon="2.70203">
        <ele>1121.74</ele>
        <time>2015-05-10T11:51:16Z</time>
      </trkpt>
      <trkpt lat="45.01084" lon="2.70218">
        <ele>1129.7</ele>
        <time>2015-05-10T11:51:31Z</time>
      </trkpt>
      <trkpt lat="45.01081" lon="2.70245">
        <ele>1123.36</ele>
        <time>2015-05-10T11:51:48Z</time>
      </trkpt>
      <trkpt lat="45.0108" lon="2.7027">
        <ele>1127.04</ele>
        <time>2015-05-10T11:52:10Z</time>
      </trkpt>
      <trkpt lat="45.0108" lon="2.70296">
        <ele>1132.9</ele>
        <time>2015-05-10T11:52:34Z</time>
      </trkpt>
      <trkpt lat="45.01082" lon="2.70322">
        <ele>1143.33</ele>
        <time>2015-05-10T11:53:01Z</time>
      </trkpt>
      <trkpt lat="45.01077" lon="2.70349">
        <ele>1149.62</ele>
        <time>2015-05-10T11:53:07Z</time>
      </trkpt>
      <trkpt lat="45.01063" lon="2.70332">
        <ele>1143.48</ele>
        <time>2015-05-10T11:53:38Z</time>
      </trkpt>
      <trkpt lat="45.01048" lon="2.70313">
        <ele>1143.92</ele>
        <time>2015-05-10T11:53:54Z</time>
      </trkpt>
      <trkpt lat="45.01036" lon="2.70292">
        <ele>1141.71</ele>
        <time>2015-05-10T11:54:16Z</time>
      </trkpt>
      <trkpt lat="45.01025" lon="2.70256">
        <ele>1145.71</ele>
        <time>2015-05-10T11:54:48Z</time>
      </trkpt>
      <trkpt lat="45.01006" lon="2.70255">
        <ele>1166.17</ele>
        <time>2015-05-10T11:54:59Z</time>
      </trkpt>
      <trkpt lat="45.01007" lon="2.70281">
        <ele>1165.52</ele>
        <time>2015-05-10T11:55:13Z</time>
      </trkpt>
      <trkpt lat="45.01009" lon="2.70308">
        <ele>1163.81</ele>
        <time>2015-05-10T11:55:42Z</time>
      </trkpt>
      <trkpt lat="45.01022" lon="2.70327">
        <ele>1173</ele>
        <time>2015-05-10T11:55:56Z</time>
      </trkpt>
      <trkpt lat="45.0101" lon="2.70349">
        <ele>1174.34</ele>
        <time>2015-05-10T11:56:02Z</time>
      </trkpt>
      <trkpt lat="45.0101" lon="2.70375">
        <ele>1175.13</ele>
        <time>2015-05-10T11:56:39Z</time>
      </trkpt>
      <trkpt lat="45.01016" lon="2.704">
        <ele>1178.46</ele>
        <time>2015-05-10T11:57:15Z</time>
      </trkpt>
      <trkpt lat="45.01027" lon="2.7042">
        <ele>1180.99</ele>
        <time>2015-05-10T11:57:29Z</time>
      </trkpt>
      <trkpt lat="45.01038" lon="2.70441">
        <ele>1184.73</ele>
        <time>2015-05-10T11:57:37Z</time>
      </trkpt>
      <trkpt lat="45.01031" lon="2.70466">
        <ele>1183.02</ele>
        <time>2015-05-10T11:58:05Z</time>
      </trkpt>
      <trkpt lat="45.01042" lon="2.70486">
        <ele>1180.53</ele>
        <time>2015-05-10T11:58:28Z</time>
      </trkpt>
      <trkpt lat="45.01054" lon="2.70506">
        <ele>1181.98</ele>
        <time>2015-05-10T11:58:57Z</time>
      </trkpt>
      <trkpt lat="45.01071" lon="2.70517">
        <ele>1182.51</ele>
        <time>2015-05-10T11:59:20Z</time>
      </trkpt>
      <trkpt lat="45.01056" lon="2.70535">
        <ele>1191.73</ele>
        <time>2015-05-10T11:59:39Z</time>
      </trkpt>
      <trkpt lat="45.01038" lon="2.70526">
        <ele>1196.78</ele>
        <time>2015-05-10T11:59:57Z</time>
      </trkpt>
      <trkpt lat="45.0102" lon="2.70536">
        <ele>1202.8</ele>
        <time>2015-05-10T12:00:36Z</time>
      </trkpt>
      <trkpt lat="45.00999" lon="2.70531">
        <ele>1202.16</ele>
        <time>2015-05-10T12:00:42Z</time>
      </trkpt>
      <trkpt lat="45.00985" lon="2.70516">
        <ele>1208.69</ele>
        <time>2015-05-10T12:01:13Z</time>
      </trkpt>
      <trkpt lat="45.00968" lon="2.70506">
        <ele>1215.69</ele>
        <time>2015-05-10T12:01:48Z</time>
      </trkpt>
      <trkpt lat="45.00949" lon="2.70504">
        <ele>1217.09</ele>
        <time>2015-05-10T12:02:01Z</time>
      </trkpt>
      <trkpt lat="45.00932" lon="2.70492">
        <ele>1211.95</ele>
        <time>2015-05-10T12:02:37Z</time>
      </trkpt>
      <trkpt lat="45.00913" lon="2.70484">
        <ele>1208.15</ele>
        <time>2015-05-10T12:02:51Z</time>
      </trkpt>
      <trkpt lat="45.00899" lon="2.70465">
        <ele>1205.05</ele>
        <time>2015-05-10T12:03:12Z</time>
      </trkpt>
      <trkpt lat="45.00886" lon="2.70447">
        <ele>1212.26</ele>
        <time>2015-05-10T12:03:24Z</time>
      </trkpt>
      <trkpt lat="45.00877" lon="2.70423">
        <ele>1217.32</ele>
        <time>2015-05-10T12:03:48Z</time>
      </trkpt>
      <trkpt lat="45.00864" lon="2.70402">
        <ele>1215.27</ele>
        <time>2015-05-10T12:04:09Z</time>
      </trkpt>
      <trkpt lat="45.00848" lon="2.70384">
        <ele>1226.45</ele>
        <time>2015-05-10T12:04:46Z</time>
      </trkpt>
      <trkpt lat="45.00837" lon="2.70363">
        <ele>1226.5</ele>
        <time>2015-05-10T12:05:06Z</time>
      </trkpt>
      <trkpt lat="45.00824" lon="2.70346">
        <ele>1227.35</ele>
        <time>2015-05-10T12:05:33Z</time>
      </trkpt>
      <trkpt lat="45.00808" lon="2.70331">
        <ele>1230.73</ele>
        <time>2015-05-10T12:05:54Z</time>
      </trkpt>
      <trkpt lat="45.00794" lon="2.70315">
        <ele>1230.45</ele>
        <time>2015-05-10T12:06:40Z</time>
      </trkpt>
      <trkpt lat="45.00775" lon="2.70302">
        <ele>1232.05</ele>
        <time>2015-05-10T12:06:55Z</time>
      </trkpt>
      <trkpt lat="45.00758" lon="2.70294">
        <ele>1241.7</ele>
        <time>2015-05-10T12:08:21Z</time>
      </trkpt>
      <trkpt lat="45.00738" lon="2.70292">
        <ele>1242.87</ele>
        <time>2015-05-10T12:08:44Z</time>
      </trkpt>
      <trkpt lat="45.0072" lon="2.70288">
        <ele>1246.09</ele>
        <time>2015-05-10T12:08:55Z</time>
      </trkpt>
      <trkpt lat="45.00702" lon="2.70281">
        <ele>1245.22</ele>
        <time>2015-05-10T12:09:09Z</time>
      </trkpt>
      <trkpt lat="45.00683" lon="2.70275">
        <ele>1252.3</ele>
        <time>2015-05-10T12:09:37Z</time>
      </trkpt>
      <trkpt lat="45.00666" lon="2.70268">
        <ele>1258.06</ele>
        <time>2015-05-10T12:09:53Z</time>
      </trkpt>
      <trkpt lat="45.00647" lon="2.70268">
        <ele>1253.87</ele>
        <time>2015-05-10T12:10:27Z</time>
      </trkpt>
      <trkpt lat="45.0063" lon="2.70256">
        <ele>1255.64</ele>
        <time>2015-05-10T12:10:51Z</time>
      </trkpt>
      <trkpt lat="45.00611" lon="2.70255">
        <ele>1256.92</ele>
        <time>2015-05-10T12:11:11Z</time>
      </trkpt>
      <trkpt lat="45.00591" lon="2.70252">
        <ele>1261.08</ele>
        <time>2015-05-10T12:11:44Z</time>
      </trkpt>
      <trkpt lat="45.00572" lon="2.70246">
        <ele>1264.53</ele>
        <time>2015-05-10T12:11:57Z</time>
      </trkpt>
      <trkpt lat="45.00556" lon="2.7023">
        <ele>1271.95</ele>
        <time>2015-05-10T12:12:12Z</time>
      </trkpt>
      <trkpt lat="45.00547" lon="2.70206">
        <ele>1273.25</ele>
        <time>2015-05-10T12:12:35Z</time>
      </trkpt>
      <trkpt lat="45.0053" lon="2.70199">
        <ele>1263.62</ele>
        <time>2015-05-10T12:12:58Z</time>
      </trkpt>
      <trkpt lat="45.00517" lon="2.70181">
        <ele>1274.24</ele>
        <time>2015-05-10T12:13:27Z</time>
      </trkpt>
      <trkpt lat="45.00504" lon="2.702">
        <ele>1292.46</ele>
        <time>2015-05-10T12:14:24Z</time>
      </trkpt>
      <trkpt lat="45.00487" lon="2.70194">
        <ele>1288.83</ele>
        <time>2015-05-10T12:14:48Z</time>
      </trkpt>
      <trkpt lat="45.00468" lon="2.70185">
        <ele>1292.7</ele>
        <time>2015-05-10T12:15:21Z</time>
      </trkpt>
      <trkpt lat="45.00451" lon="2.70176">
        <ele>1299.79</ele>
        <time>2015-05-10T12:15:51Z</time>
      </trkpt>
      <trkpt lat="45.00435" lon="2.70161">
        <ele>1306.33</ele>
        <time>2015-05-10T12:16:12Z</time>
      </trkpt>
      <trkpt lat="45.00426" lon="2.70138">
        <ele>1307.52</ele>
        <time>2015-05-10T12:16:28Z</time>
      </trkpt>
      <trkpt lat="45.00409" lon="2.70125">
        <ele>1313.38</ele>
        <time>2015-05-10T12:17:08Z</time>
      </trkpt>
      <trkpt lat="45.00397" lon="2.70105">
        <ele>1312.71</ele>
        <time>2015-05-10T12:17:45Z</time>
      </trkpt>
      <trkpt lat="45.00385" lon="2.70086">
        <ele>1316.37</ele>
        <time>2015-05-10T12:18:08Z</time>
      </trkpt>
      <trkpt lat="45.00377" lon="2.70063">
        <ele>1317.94</ele>
        <time>2015-05-10T12:18:37Z</time>
      </trkpt>
      <trkpt lat="45.00362" lon="2.70081">
        <ele>1326.92</ele>
        <time>2015-05-10T12:31:54Z</time>
      </trkpt>
      <trkpt lat="45.00349" lon="2.70099">
        <ele>1322.2</ele>
        <time>2015-05-10T12:32:28Z</time>
      </trkpt>
      <trkpt lat="45.00342" lon="2.70122">
        <ele>1327.51</ele>
        <time>2015-05-10T12:32:48Z</time>
      </trkpt>
      <trkpt lat="45.00329" lon="2.70141">
        <ele>1326.57</ele>
        <time>2015-05-10T12:33:14Z</time>
      </trkpt>
      <trkpt lat="45.00314" lon="2.70158">
        <ele>1327.6</ele>
        <time>2015-05-10T12:33:39Z</time>
      </trkpt>
      <trkpt lat="45.00311" lon="2.70184">
        <ele>1327.5</ele>
        <time>2015-05-10T12:34:02Z</time>
      </trkpt>
      <trkpt lat="45.0032" lon="2.70207">
        <ele>1332.7</ele>
        <time>2015-05-10T12:34:15Z</time>
      </trkpt>
      <trkpt lat="45.00319" lon="2.70235">
        <ele>1330.39</ele>
        <time>2015-05-10T12:34:46Z</time>
      </trkpt>
      <trkpt lat="45.00322" lon="2.70262">
        <ele>1333.71</ele>
        <time>2015-05-10T12:36:25Z</time>
      </trkpt>
      <trkpt lat="45.00335" lon="2.7028">
        <ele>1336.57</ele>
        <time>2015-05-10T12:36:46Z</time>
      </trkpt>
      <trkpt lat="45.00348" lon="2.70299">
        <ele>1336.48</ele>
        <time>2015-05-10T12:37:12Z</time>
      </trkpt>
      <trkpt lat="45.00359" lon="2.70321">
        <ele>1338.52</ele>
        <time>2015-05-10T12:37:35Z</time>
      </trkpt>
      <trkpt lat="45.00374" lon="2.70338">
        <ele>1341.59</ele>
        <time>2015-05-10T12:37:53Z</time>
      </trkpt>
      <trkpt lat="45.00381" lon="2.70362">
        <ele>1341.24</ele>
        <time>2015-05-10T12:38:18Z</time>
      </trkpt>
      <trkpt lat="45.00397" lon="2.70375">
        <ele>1341.25</ele>
        <time>2015-05-10T12:38:36Z</time>
      </trkpt>
      <trkpt lat="45.00408" lon="2.70396">
        <ele>1345.08</ele>
        <time>2015-05-10T12:38:53Z</time>
      </trkpt>
      <trkpt lat="45.00424" lon="2.70409">
        <ele>1342.57</ele>
        <time>2015-05-10T12:39:16Z</time>
      </trkpt>
      <trkpt lat="45.00438" lon="2.70428">
        <ele>1343.31</ele>
        <time>2015-05-10T12:39:32Z</time>
      </trkpt>
      <trkpt lat="45.00445" lon="2.70453">
        <ele>1343.45</ele>
        <time>2015-05-10T12:39:49Z</time>
      </trkpt>
      <trkpt lat="45.00455" lon="2.70476">
        <ele>1346.78</ele>
        <time>2015-05-10T12:40:08Z</time>
      </trkpt>
      <trkpt lat="45.00468" lon="2.70495">
        <ele>1348.57</ele>
        <time>2015-05-10T12:40:42Z</time>
      </trkpt>
      <trkpt lat="45.00478" lon="2.70517">
        <ele>1348.62</ele>
        <time>2015-05-10T12:40:59Z</time>
      </trkpt>
      <trkpt lat="45.0049" lon="2.70538">
        <ele>1351.84</ele>
        <time>2015-05-10T12:41:13Z</time>
      </trkpt>
      <trkpt lat="45.00486" lon="2.70563">
        <ele>1349.5</ele>
        <time>2015-05-10T12:41:27Z</time>
      </trkpt>
      <trkpt lat="45.00489" lon="2.70589">
        <ele>1344.29</ele>
        <time>2015-05-10T12:41:43Z</time>
      </trkpt>
      <trkpt lat="45.00497" lon="2.70612">
        <ele>1342.26</ele>
        <time>2015-05-10T12:42:00Z</time>
      </trkpt>
      <trkpt lat="45.00501" lon="2.70637">
        <ele>1345.39</ele>
        <time>2015-05-10T12:42:17Z</time>
      </trkpt>
      <trkpt lat="45.00509" lon="2.7066">
        <ele>1345.51</ele>
        <time>2015-05-10T12:42:37Z</time>
      </trkpt>
      <trkpt lat="45.00511" lon="2.70685">
        <ele>1345.6</ele>
        <time>2015-05-10T12:42:55Z</time>
      </trkpt>
      <trkpt lat="45.00519" lon="2.70709">
        <ele>1346.95</ele>
        <time>2015-05-10T12:43:19Z</time>
      </trkpt>
      <trkpt lat="45.00527" lon="2.70732">
        <ele>1352.47</ele>
        <time>2015-05-10T12:43:32Z</time>
      </trkpt>
      <trkpt lat="45.00536" lon="2.70755">
        <ele>1354.37</ele>
        <time>2015-05-10T12:43:52Z</time>
      </trkpt>
      <trkpt lat="45.0054" lon="2.7078">
        <ele>1359.94</ele>
        <time>2015-05-10T12:44:12Z</time>
      </trkpt>
      <trkpt lat="45.00548" lon="2.70804">
        <ele>1363.1</ele>
        <time>2015-05-10T12:44:32Z</time>
      </trkpt>
      <trkpt lat="45.00552" lon="2.70831">
        <ele>1364.72</ele>
        <time>2015-05-10T12:44:51Z</time>
      </trkpt>
      <trkpt lat="45.00556" lon="2.70857">
        <ele>1364.51</ele>
        <time>2015-05-10T12:45:14Z</time>
      </trkpt>
      <trkpt lat="45.00561" lon="2.70881">
        <ele>1364.31</ele>
        <time>2015-05-10T12:45:31Z</time>
      </trkpt>
      <trkpt lat="45.00565" lon="2.70907">
        <ele>1362.73</ele>
        <time>2015-05-10T12:45:46Z</time>
      </trkpt>
      <trkpt lat="45.00568" lon="2.70935">
        <ele>1363.78</ele>
        <time>2015-05-10T12:46:01Z</time>
      </trkpt>
      <trkpt lat="45.00573" lon="2.70959">
        <ele>1362.89</ele>
        <time>2015-05-10T12:46:27Z</time>
      </trkpt>
      <trkpt lat="45.0058" lon="2.70983">
        <ele>1365.97</ele>
        <time>2015-05-10T12:46:54Z</time>
      </trkpt>
      <trkpt lat="45.00586" lon="2.71007">
        <ele>1366.42</ele>
        <time>2015-05-10T12:47:21Z</time>
      </trkpt>
      <trkpt lat="45.00595" lon="2.7103">
        <ele>1368.43</ele>
        <time>2015-05-10T12:47:47Z</time>
      </trkpt>
      <trkpt lat="45.00607" lon="2.71052">
        <ele>1369.58</ele>
        <time>2015-05-10T12:48:06Z</time>
      </trkpt>
      <trkpt lat="45.00611" lon="2.71077">
        <ele>1371.46</ele>
        <time>2015-05-10T12:48:24Z</time>
      </trkpt>
      <trkpt lat="45.00622" lon="2.71099">
        <ele>1371.81</ele>
        <time>2015-05-10T12:48:41Z</time>
      </trkpt>
      <trkpt lat="45.00632" lon="2.71122">
        <ele>1368.47</ele>
        <time>2015-05-10T12:49:02Z</time>
      </trkpt>
      <trkpt lat="45.00646" lon="2.71138">
        <ele>1373.17</ele>
        <time>2015-05-10T12:49:39Z</time>
      </trkpt>
      <trkpt lat="45.0066" lon="2.71154">
        <ele>1377.62</ele>
        <time>2015-05-10T12:49:56Z</time>
      </trkpt>
      <trkpt lat="45.00675" lon="2.71169">
        <ele>1380.2</ele>
        <time>2015-05-10T12:50:16Z</time>
      </trkpt>
      <trkpt lat="45.00691" lon="2.71184">
        <ele>1384.81</ele>
        <time>2015-05-10T12:50:37Z</time>
      </trkpt>
      <trkpt lat="45.00706" lon="2.71199">
        <ele>1385.31</ele>
        <time>2015-05-10T12:50:56Z</time>
      </trkpt>
      <trkpt lat="45.00723" lon="2.71209">
        <ele>1383.13</ele>
        <time>2015-05-10T12:51:16Z</time>
      </trkpt>
      <trkpt lat="45.00738" lon="2.71225">
        <ele>1382.05</ele>
        <time>2015-05-10T12:51:36Z</time>
      </trkpt>
      <trkpt lat="45.00752" lon="2.71241">
        <ele>1382.29</ele>
        <time>2015-05-10T12:51:56Z</time>
      </trkpt>
      <trkpt lat="45.00769" lon="2.71258">
        <ele>1383.9</ele>
        <time>2015-05-10T12:52:15Z</time>
      </trkpt>
      <trkpt lat="45.00785" lon="2.71271">
        <ele>1389.34</ele>
        <time>2015-05-10T12:52:35Z</time>
      </trkpt>
      <trkpt lat="45.00801" lon="2.71284">
        <ele>1385.59</ele>
        <time>2015-05-10T12:52:56Z</time>
      </trkpt>
      <trkpt lat="45.00816" lon="2.71298">
        <ele>1385.29</ele>
        <time>2015-05-10T12:53:18Z</time>
      </trkpt>
      <trkpt lat="45.00832" lon="2.71316">
        <ele>1383.69</ele>
        <time>2015-05-10T12:53:40Z</time>
      </trkpt>
      <trkpt lat="45.00849" lon="2.71326">
        <ele>1387.46</ele>
        <time>2015-05-10T12:53:56Z</time>
      </trkpt>
      <trkpt lat="45.00866" lon="2.71334">
        <ele>1388.03</ele>
        <time>2015-05-10T12:54:15Z</time>
      </trkpt>
      <trkpt lat="45.00884" lon="2.71342">
        <ele>1388.51</ele>
        <time>2015-05-10T12:54:33Z</time>
      </trkpt>
      <trkpt lat="45.00899" lon="2.71355">
        <ele>1393.43</ele>
        <time>2015-05-10T12:54:54Z</time>
      </trkpt>
      <trkpt lat="45.00915" lon="2.71368">
        <ele>1394.52</ele>
        <time>2015-05-10T12:55:14Z</time>
      </trkpt>
      <trkpt lat="45.0093" lon="2.71381">
        <ele>1394.34</ele>
        <time>2015-05-10T12:55:35Z</time>
      </trkpt>
      <trkpt lat="45.00946" lon="2.71394">
        <ele>1397.97</ele>
        <time>2015-05-10T12:55:56Z</time>
      </trkpt>
      <trkpt lat="45.00962" lon="2.71407">
        <ele>1404.34</ele>
        <time>2015-05-10T12:56:11Z</time>
      </trkpt>
      <trkpt lat="45.00979" lon="2.71417">
        <ele>1405.2</ele>
        <time>2015-05-10T12:57:58Z</time>
      </trkpt>
      <trkpt lat="45.00997" lon="2.71425">
        <ele>1406.31</ele>
        <time>2015-05-10T12:58:17Z</time>
      </trkpt>
      <trkpt lat="45.01014" lon="2.71434">
        <ele>1406.7</ele>
        <time>2015-05-10T12:58:40Z</time>
      </trkpt>
      <trkpt lat="45.01032" lon="2.71443">
        <ele>1407.92</ele>
        <time>2015-05-10T12:58:55Z</time>
      </trkpt>
      <trkpt lat="45.01048" lon="2.71459">
        <ele>1408.25</ele>
        <time>2015-05-10T12:59:17Z</time>
      </trkpt>
      <trkpt lat="45.01064" lon="2.71472">
        <ele>1411.46</ele>
        <time>2015-05-10T12:59:37Z</time>
      </trkpt>
      <trkpt lat="45.0108" lon="2.71486">
        <ele>1411.49</ele>
        <time>2015-05-10T13:00:01Z</time>
      </trkpt>
      <trkpt lat="45.01094" lon="2.71501">
        <ele>1415.55</ele>
        <time>2015-05-10T13:00:18Z</time>
      </trkpt>
      <trkpt lat="45.01105" lon="2.71523">
        <ele>1419.27</ele>
        <time>2015-05-10T13:00:42Z</time>
      </trkpt>
      <trkpt lat="45.01123" lon="2.71529">
        <ele>1421.55</ele>
        <time>2015-05-10T13:01:02Z</time>
      </trkpt>
      <trkpt lat="45.01135" lon="2.71547">
        <ele>1422.33</ele>
        <time>2015-05-10T13:01:25Z</time>
      </trkpt>
      <trkpt lat="45.01151" lon="2.71565">
        <ele>1426.69</ele>
        <time>2015-05-10T13:01:43Z</time>
      </trkpt>
      <trkpt lat="45.01165" lon="2.7158">
        <ele>1429.83</ele>
        <time>2015-05-10T13:02:05Z</time>
      </trkpt>
      <trkpt lat="45.01178" lon="2.71598">
        <ele>1432.19</ele>
        <time>2015-05-10T13:02:22Z</time>
      </trkpt>
      <trkpt lat="45.01188" lon="2.7162">
        <ele>1427.79</ele>
        <time>2015-05-10T13:02:43Z</time>
      </trkpt>
      <trkpt lat="45.01202" lon="2.71636">
        <ele>1428.09</ele>
        <time>2015-05-10T13:02:57Z</time>
      </trkpt>
      <trkpt lat="45.01217" lon="2.71652">
        <ele>1429.55</ele>
        <time>2015-05-10T13:03:17Z</time>
      </trkpt>
      <trkpt lat="45.01227" lon="2.71673">
        <ele>1429.43</ele>
        <time>2015-05-10T13:03:34Z</time>
      </trkpt>
      <trkpt lat="45.01241" lon="2.71692">
        <ele>1432.45</ele>
        <time>2015-05-10T13:03:55Z</time>
      </trkpt>
      <trkpt lat="45.01255" lon="2.7171">
        <ele>1434.71</ele>
        <time>2015-05-10T13:04:16Z</time>
      </trkpt>
      <trkpt lat="45.01268" lon="2.71727">
        <ele>1435.26</ele>
        <time>2015-05-10T13:04:35Z</time>
      </trkpt>
      <trkpt lat="45.01286" lon="2.71734">
        <ele>1438.34</ele>
        <time>2015-05-10T13:04:49Z</time>
      </trkpt>
      <trkpt lat="45.01304" lon="2.71745">
        <ele>1445.25</ele>
        <time>2015-05-10T13:05:05Z</time>
      </trkpt>
      <trkpt lat="45.01312" lon="2.71769">
        <ele>1447.27</ele>
        <time>2015-05-10T13:05:33Z</time>
      </trkpt>
      <trkpt lat="45.01324" lon="2.7179">
        <ele>1447.74</ele>
        <time>2015-05-10T13:05:52Z</time>
      </trkpt>
      <trkpt lat="45.01336" lon="2.71811">
        <ele>1452.15</ele>
        <time>2015-05-10T13:06:13Z</time>
      </trkpt>
      <trkpt lat="45.01348" lon="2.7183">
        <ele>1455.83</ele>
        <time>2015-05-10T13:06:32Z</time>
      </trkpt>
      <trkpt lat="45.01359" lon="2.7185">
        <ele>1456.66</ele>
        <time>2015-05-10T13:06:52Z</time>
      </trkpt>
      <trkpt lat="45.01367" lon="2.71873">
        <ele>1461.9</ele>
        <time>2015-05-10T13:07:11Z</time>
      </trkpt>
      <trkpt lat="45.0138" lon="2.71892">
        <ele>1460.23</ele>
        <time>2015-05-10T13:07:34Z</time>
      </trkpt>
      <trkpt lat="45.01394" lon="2.7191">
        <ele>1458.7</ele>
        <time>2015-05-10T13:07:59Z</time>
      </trkpt>
      <trkpt lat="45.01405" lon="2.7193">
        <ele>1462.08</ele>
        <time>2015-05-10T13:08:17Z</time>
      </trkpt>
      <trkpt lat="45.01417" lon="2.7195">
        <ele>1464.9</ele>
        <time>2015-05-10T13:08:34Z</time>
      </trkpt>
      <trkpt lat="45.01431" lon="2.71967">
        <ele>1465.8</ele>
        <time>2015-05-10T13:09:01Z</time>
      </trkpt>
      <trkpt lat="45.01443" lon="2.71987">
        <ele>1471.49</ele>
        <time>2015-05-10T13:09:17Z</time>
      </trkpt>
      <trkpt lat="45.01455" lon="2.72007">
        <ele>1468.84</ele>
        <time>2015-05-10T13:09:39Z</time>
      </trkpt>
      <trkpt lat="45.01468" lon="2.72028">
        <ele>1472.43</ele>
        <time>2015-05-10T13:09:56Z</time>
      </trkpt>
      <trkpt lat="45.01484" lon="2.72042">
        <ele>1475.97</ele>
        <time>2015-05-10T13:10:20Z</time>
      </trkpt>
      <trkpt lat="45.01494" lon="2.72064">
        <ele>1480.19</ele>
        <time>2015-05-10T13:10:45Z</time>
      </trkpt>
      <trkpt lat="45.01504" lon="2.72087">
        <ele>1484.32</ele>
        <time>2015-05-10T13:11:09Z</time>
      </trkpt>
      <trkpt lat="45.01512" lon="2.72111">
        <ele>1485.48</ele>
        <time>2015-05-10T13:11:34Z</time>
      </trkpt>
      <trkpt lat="45.01523" lon="2.72131">
        <ele>1486.96</ele>
        <time>2015-05-10T13:12:03Z</time>
      </trkpt>
      <trkpt lat="45.01535" lon="2.72152">
        <ele>1492.2</ele>
        <time>2015-05-10T13:12:29Z</time>
      </trkpt>
      <trkpt lat="45.01551" lon="2.72166">
        <ele>1495.33</ele>
        <time>2015-05-10T13:12:52Z</time>
      </trkpt>
      <trkpt lat="45.01567" lon="2.72179">
        <ele>1498.44</ele>
        <time>2015-05-10T13:13:11Z</time>
      </trkpt>
      <trkpt lat="45.0158" lon="2.72197">
        <ele>1500.95</ele>
        <time>2015-05-10T13:13:34Z</time>
      </trkpt>
      <trkpt lat="45.01594" lon="2.72214">
        <ele>1505.03</ele>
        <time>2015-05-10T13:13:53Z</time>
      </trkpt>
      <trkpt lat="45.01609" lon="2.72228">
        <ele>1505.35</ele>
        <time>2015-05-10T13:14:14Z</time>
      </trkpt>
      <trkpt lat="45.01626" lon="2.7224">
        <ele>1509.38</ele>
        <time>2015-05-10T13:14:35Z</time>
      </trkpt>
      <trkpt lat="45.01641" lon="2.72255">
        <ele>1511.22</ele>
        <time>2015-05-10T13:14:55Z</time>
      </trkpt>
      <trkpt lat="45.01655" lon="2.72273">
        <ele>1510.16</ele>
        <time>2015-05-10T13:15:17Z</time>
      </trkpt>
      <trkpt lat="45.01674" lon="2.72286">
        <ele>1515.77</ele>
        <time>2015-05-10T13:15:32Z</time>
      </trkpt>
      <trkpt lat="45.0169" lon="2.72296">
        <ele>1517.58</ele>
        <time>2015-05-10T13:15:54Z</time>
      </trkpt>
      <trkpt lat="45.01709" lon="2.723">
        <ele>1520.45</ele>
        <time>2015-05-10T13:16:42Z</time>
      </trkpt>
      <trkpt lat="45.01716" lon="2.72326">
        <ele>1516.12</ele>
        <time>2015-05-10T13:20:01Z</time>
      </trkpt>
      <trkpt lat="45.01722" lon="2.72351">
        <ele>1522.16</ele>
        <time>2015-05-10T13:20:16Z</time>
      </trkpt>
      <trkpt lat="45.01737" lon="2.72368">
        <ele>1527.4</ele>
        <time>2015-05-10T13:20:36Z</time>
      </trkpt>
      <trkpt lat="45.01752" lon="2.72384">
        <ele>1528.94</ele>
        <time>2015-05-10T13:20:55Z</time>
      </trkpt>
      <trkpt lat="45.01767" lon="2.724">
        <ele>1530.94</ele>
        <time>2015-05-10T13:21:12Z</time>
      </trkpt>
      <trkpt lat="45.0178" lon="2.7242">
        <ele>1534.69</ele>
        <time>2015-05-10T13:21:28Z</time>
      </trkpt>
      <trkpt lat="45.0179" lon="2.72443">
        <ele>1534.95</ele>
        <time>2015-05-10T13:21:48Z</time>
      </trkpt>
      <trkpt lat="45.01798" lon="2.72467">
        <ele>1531.39</ele>
        <time>2015-05-10T13:22:11Z</time>
      </trkpt>
      <trkpt lat="45.01807" lon="2.7249">
        <ele>1528.5</ele>
        <time>2015-05-10T13:22:25Z</time>
      </trkpt>
      <trkpt lat="45.01816" lon="2.72514">
        <ele>1529.82</ele>
        <time>2015-05-10T13:22:40Z</time>
      </trkpt>
      <trkpt lat="45.01822" lon="2.72538">
        <ele>1529.46</ele>
        <time>2015-05-10T13:22:55Z</time>
      </trkpt>
      <trkpt lat="45.0183" lon="2.72561">
        <ele>1524.56</ele>
        <time>2015-05-10T13:23:11Z</time>
      </trkpt>
      <trkpt lat="45.01838" lon="2.72585">
        <ele>1525.21</ele>
        <time>2015-05-10T13:23:26Z</time>
      </trkpt>
      <trkpt lat="45.01846" lon="2.72609">
        <ele>1524.65</ele>
        <time>2015-05-10T13:23:40Z</time>
      </trkpt>
      <trkpt lat="45.01856" lon="2.72631">
        <ele>1520.46</ele>
        <time>2015-05-10T13:23:59Z</time>
      </trkpt>
      <trkpt lat="45.01865" lon="2.72654">
        <ele>1519.63</ele>
        <time>2015-05-10T13:24:16Z</time>
      </trkpt>
      <trkpt lat="45.01875" lon="2.72677">
        <ele>1517.72</ele>
        <time>2015-05-10T13:24:30Z</time>
      </trkpt>
      <trkpt lat="45.01887" lon="2.72698">
        <ele>1517.57</ele>
        <time>2015-05-10T13:24:46Z</time>
      </trkpt>
      <trkpt lat="45.01898" lon="2.72718">
        <ele>1516.47</ele>
        <time>2015-05-10T13:25:02Z</time>
      </trkpt>
      <trkpt lat="45.01908" lon="2.7274">
        <ele>1518.45</ele>
        <time>2015-05-10T13:25:16Z</time>
      </trkpt>
      <trkpt lat="45.01919" lon="2.72761">
        <ele>1521.65</ele>
        <time>2015-05-10T13:25:31Z</time>
      </trkpt>
      <trkpt lat="45.01933" lon="2.7278">
        <ele>1520.22</ele>
        <time>2015-05-10T13:25:51Z</time>
      </trkpt>
      <trkpt lat="45.01946" lon="2.72798">
        <ele>1520.9</ele>
        <time>2015-05-10T13:26:06Z</time>
      </trkpt>
      <trkpt lat="45.0196" lon="2.72815">
        <ele>1523.76</ele>
        <time>2015-05-10T13:26:25Z</time>
      </trkpt>
      <trkpt lat="45.01976" lon="2.72831">
        <ele>1523.56</ele>
        <time>2015-05-10T13:26:49Z</time>
      </trkpt>
      <trkpt lat="45.01991" lon="2.72847">
        <ele>1520.99</ele>
        <time>2015-05-10T13:28:19Z</time>
      </trkpt>
      <trkpt lat="45.02002" lon="2.72868">
        <ele>1525.98</ele>
        <time>2015-05-10T13:28:41Z</time>
      </trkpt>
      <trkpt lat="45.02017" lon="2.72884">
        <ele>1528.17</ele>
        <time>2015-05-10T13:29:02Z</time>
      </trkpt>
      <trkpt lat="45.02034" lon="2.72896">
        <ele>1528.45</ele>
        <time>2015-05-10T13:29:45Z</time>
      </trkpt>
      <trkpt lat="45.0205" lon="2.7291">
        <ele>1530.41</ele>
        <time>2015-05-10T13:30:19Z</time>
      </trkpt>
      <trkpt lat="45.02066" lon="2.72923">
        <ele>1530.52</ele>
        <time>2015-05-10T13:30:39Z</time>
      </trkpt>
      <trkpt lat="45.02083" lon="2.72936">
        <ele>1532.2</ele>
        <time>2015-05-10T13:30:57Z</time>
      </trkpt>
      <trkpt lat="45.02095" lon="2.72956">
        <ele>1533.95</ele>
        <time>2015-05-10T13:31:18Z</time>
      </trkpt>
      <trkpt lat="45.02107" lon="2.72975">
        <ele>1535.42</ele>
        <time>2015-05-10T13:31:36Z</time>
      </trkpt>
      <trkpt lat="45.02121" lon="2.72992">
        <ele>1537.45</ele>
        <time>2015-05-10T13:31:55Z</time>
      </trkpt>
      <trkpt lat="45.02135" lon="2.73009">
        <ele>1538.42</ele>
        <time>2015-05-10T13:32:14Z</time>
      </trkpt>
      <trkpt lat="45.0215" lon="2.73024">
        <ele>1540.45</ele>
        <time>2015-05-10T13:32:33Z</time>
      </trkpt>
      <trkpt lat="45.02161" lon="2.73046">
        <ele>1541.45</ele>
        <time>2015-05-10T13:32:53Z</time>
      </trkpt>
      <trkpt lat="45.02175" lon="2.73061">
        <ele>1542.52</ele>
        <time>2015-05-10T13:33:12Z</time>
      </trkpt>
      <trkpt lat="45.0219" lon="2.73077">
        <ele>1543.45</ele>
        <time>2015-05-10T13:33:30Z</time>
      </trkpt>
      <trkpt lat="45.02204" lon="2.73093">
        <ele>1544.2</ele>
        <time>2015-05-10T13:33:48Z</time>
      </trkpt>
      <trkpt lat="45.02219" lon="2.7311">
        <ele>1546.41</ele>
        <time>2015-05-10T13:34:07Z</time>
      </trkpt>
      <trkpt lat="45.02241" lon="2.73131">
        <ele>1550.45</ele>
        <time>2015-05-10T13:34:31Z</time>
      </trkpt>
      <trkpt lat="45.02258" lon="2.73139">
        <ele>1550.9</ele>
        <time>2015-05-10T13:34:56Z</time>
      </trkpt>
      <trkpt lat="45.02275" lon="2.73151">
        <ele>1553.2</ele>
        <time>2015-05-10T13:35:16Z</time>
      </trkpt>
      <trkpt lat="45.02293" lon="2.73156">
        <ele>1553.95</ele>
        <time>2015-05-10T13:35:35Z</time>
      </trkpt>
      <trkpt lat="45.02309" lon="2.73169">
        <ele>1555.95</ele>
        <time>2015-05-10T13:35:56Z</time>
      </trkpt>
      <trkpt lat="45.02326" lon="2.73179">
        <ele>1558.33</ele>
        <time>2015-05-10T13:36:17Z</time>
      </trkpt>
      <trkpt lat="45.02343" lon="2.7319">
        <ele>1562.2</ele>
        <time>2015-05-10T13:36:40Z</time>
      </trkpt>
      <trkpt lat="45.02362" lon="2.73191">
        <ele>1563.45</ele>
        <time>2015-05-10T13:37:03Z</time>
      </trkpt>
      <trkpt lat="45.02369" lon="2.73192">
        <ele>1563.45</ele>
        <time>2015-05-10T13:37:11Z</time>
      </trkpt>
      <trkpt lat="45.02386" lon="2.73199">
        <ele>1566.43</ele>
        <time>2015-05-10T13:37:31Z</time>
      </trkpt>
      <trkpt lat="45.024" lon="2.73218">
        <ele>1568.2</ele>
        <time>2015-05-10T13:37:54Z</time>
      </trkpt>
      <trkpt lat="45.02406" lon="2.73226">
        <ele>1569.45</ele>
        <time>2015-05-10T13:38:03Z</time>
      </trkpt>
      <trkpt lat="45.02418" lon="2.73247">
        <ele>1571.35</ele>
        <time>2015-05-10T13:38:25Z</time>
      </trkpt>
      <trkpt lat="45.02422" lon="2.73255">
        <ele>1569.45</ele>
        <time>2015-05-10T13:39:42Z</time>
      </trkpt>
      <trkpt lat="45.02432" lon="2.73233">
        <ele>1574.95</ele>
        <time>2015-05-10T13:41:33Z</time>
      </trkpt>
      <trkpt lat="45.02636" lon="2.73107">
        <ele>1614.45</ele>
        <time>2015-05-10T13:46:32Z</time>
      </trkpt>
      <trkpt lat="45.02632" lon="2.73117">
        <ele>1596.45</ele>
        <time>2015-05-10T13:48:51Z</time>
      </trkpt>
      <trkpt lat="45.02636" lon="2.73126">
        <ele>1595.45</ele>
        <time>2015-05-10T13:50:29Z</time>
      </trkpt>
      <trkpt lat="45.02636" lon="2.73125">
        <ele>1594.45</ele>
        <time>2015-05-10T13:51:23Z</time>
      </trkpt>
      <trkpt lat="45.02643" lon="2.73139">
        <ele>1566.45</ele>
        <time>2015-05-10T13:53:42Z</time>
      </trkpt>
      <trkpt lat="45.02638" lon="2.7313">
        <ele>1595.45</ele>
        <time>2015-05-10T13:56:27Z</time>
      </trkpt>
      <trkpt lat="45.02636" lon="2.73156">
        <ele>1590.49</ele>
        <time>2015-05-10T14:03:42Z</time>
      </trkpt>
      <trkpt lat="45.0263" lon="2.73181">
        <ele>1589.46</ele>
        <time>2015-05-10T14:04:01Z</time>
      </trkpt>
      <trkpt lat="45.02633" lon="2.73206">
        <ele>1588.48</ele>
        <time>2015-05-10T14:04:20Z</time>
      </trkpt>
      <trkpt lat="45.02639" lon="2.7323">
        <ele>1587.41</ele>
        <time>2015-05-10T14:04:35Z</time>
      </trkpt>
      <trkpt lat="45.02644" lon="2.73257">
        <ele>1586.61</ele>
        <time>2015-05-10T14:04:51Z</time>
      </trkpt>
      <trkpt lat="45.02651" lon="2.7328">
        <ele>1586.81</ele>
        <time>2015-05-10T14:05:07Z</time>
      </trkpt>
      <trkpt lat="45.02665" lon="2.73297">
        <ele>1584.47</ele>
        <time>2015-05-10T14:05:26Z</time>
      </trkpt>
      <trkpt lat="45.02678" lon="2.73316">
        <ele>1583.75</ele>
        <time>2015-05-10T14:05:43Z</time>
      </trkpt>
      <trkpt lat="45.0269" lon="2.73336">
        <ele>1582.45</ele>
        <time>2015-05-10T14:06:00Z</time>
      </trkpt>
      <trkpt lat="45.02705" lon="2.73353">
        <ele>1581.8</ele>
        <time>2015-05-10T14:06:16Z</time>
      </trkpt>
      <trkpt lat="45.02721" lon="2.73367">
        <ele>1583.42</ele>
        <time>2015-05-10T14:06:30Z</time>
      </trkpt>
      <trkpt lat="45.02735" lon="2.73384">
        <ele>1583.59</ele>
        <time>2015-05-10T14:06:48Z</time>
      </trkpt>
      <trkpt lat="45.02749" lon="2.73402">
        <ele>1581.22</ele>
        <time>2015-05-10T14:07:04Z</time>
      </trkpt>
      <trkpt lat="45.02763" lon="2.7342">
        <ele>1581.45</ele>
        <time>2015-05-10T14:07:20Z</time>
      </trkpt>
      <trkpt lat="45.0278" lon="2.73432">
        <ele>1578.32</ele>
        <time>2015-05-10T14:07:36Z</time>
      </trkpt>
      <trkpt lat="45.02796" lon="2.73447">
        <ele>1577.45</ele>
        <time>2015-05-10T14:07:52Z</time>
      </trkpt>
      <trkpt lat="45.02812" lon="2.73463">
        <ele>1579.53</ele>
        <time>2015-05-10T14:08:06Z</time>
      </trkpt>
      <trkpt lat="45.02827" lon="2.73478">
        <ele>1577.1</ele>
        <time>2015-05-10T14:08:23Z</time>
      </trkpt>
      <trkpt lat="45.0284" lon="2.73497">
        <ele>1578.43</ele>
        <time>2015-05-10T14:08:40Z</time>
      </trkpt>
      <trkpt lat="45.02854" lon="2.73512">
        <ele>1579.97</ele>
        <time>2015-05-10T14:08:56Z</time>
      </trkpt>
      <trkpt lat="45.0287" lon="2.73526">
        <ele>1579.45</ele>
        <time>2015-05-10T14:09:12Z</time>
      </trkpt>
      <trkpt lat="45.02887" lon="2.73533">
        <ele>1583.08</ele>
        <time>2015-05-10T14:09:27Z</time>
      </trkpt>
      <trkpt lat="45.02904" lon="2.73543">
        <ele>1584.39</ele>
        <time>2015-05-10T14:09:45Z</time>
      </trkpt>
      <trkpt lat="45.02921" lon="2.73555">
        <ele>1581.46</ele>
        <time>2015-05-10T14:10:04Z</time>
      </trkpt>
      <trkpt lat="45.02938" lon="2.73566">
        <ele>1580.37</ele>
        <time>2015-05-10T14:10:24Z</time>
      </trkpt>
      <trkpt lat="45.02957" lon="2.73571">
        <ele>1584.78</ele>
        <time>2015-05-10T14:10:37Z</time>
      </trkpt>
      <trkpt lat="45.02975" lon="2.7358">
        <ele>1586.94</ele>
        <time>2015-05-10T14:10:58Z</time>
      </trkpt>
      <trkpt lat="45.02992" lon="2.73591">
        <ele>1589.84</ele>
        <time>2015-05-10T14:11:18Z</time>
      </trkpt>
      <trkpt lat="45.03009" lon="2.73603">
        <ele>1593.87</ele>
        <time>2015-05-10T14:11:35Z</time>
      </trkpt>
      <trkpt lat="45.03024" lon="2.73618">
        <ele>1597.39</ele>
        <time>2015-05-10T14:11:55Z</time>
      </trkpt>
      <trkpt lat="45.03039" lon="2.73632">
        <ele>1597.55</ele>
        <time>2015-05-10T14:12:16Z</time>
      </trkpt>
      <trkpt lat="45.03051" lon="2.73651">
        <ele>1601.14</ele>
        <time>2015-05-10T14:12:34Z</time>
      </trkpt>
      <trkpt lat="45.03067" lon="2.73665">
        <ele>1603.83</ele>
        <time>2015-05-10T14:12:55Z</time>
      </trkpt>
      <trkpt lat="45.03084" lon="2.73678">
        <ele>1605.45</ele>
        <time>2015-05-10T14:13:14Z</time>
      </trkpt>
      <trkpt lat="45.03096" lon="2.73697">
        <ele>1609.42</ele>
        <time>2015-05-10T14:13:32Z</time>
      </trkpt>
      <trkpt lat="45.03111" lon="2.73713">
        <ele>1608.42</ele>
        <time>2015-05-10T14:13:53Z</time>
      </trkpt>
      <trkpt lat="45.03125" lon="2.73729">
        <ele>1610.95</ele>
        <time>2015-05-10T14:14:12Z</time>
      </trkpt>
      <trkpt lat="45.03141" lon="2.73742">
        <ele>1611.36</ele>
        <time>2015-05-10T14:14:32Z</time>
      </trkpt>
      <trkpt lat="45.03157" lon="2.73755">
        <ele>1613.45</ele>
        <time>2015-05-10T14:14:50Z</time>
      </trkpt>
      <trkpt lat="45.03173" lon="2.73767">
        <ele>1614.44</ele>
        <time>2015-05-10T14:15:05Z</time>
      </trkpt>
      <trkpt lat="45.03189" lon="2.73782">
        <ele>1613.35</ele>
        <time>2015-05-10T14:15:23Z</time>
      </trkpt>
      <trkpt lat="45.03207" lon="2.73793">
        <ele>1613.87</ele>
        <time>2015-05-10T14:15:39Z</time>
      </trkpt>
      <trkpt lat="45.03224" lon="2.73803">
        <ele>1618.18</ele>
        <time>2015-05-10T14:15:53Z</time>
      </trkpt>
      <trkpt lat="45.03241" lon="2.73815">
        <ele>1619.57</ele>
        <time>2015-05-10T14:16:10Z</time>
      </trkpt>
      <trkpt lat="45.03257" lon="2.73828">
        <ele>1619.55</ele>
        <time>2015-05-10T14:16:29Z</time>
      </trkpt>
      <trkpt lat="45.03275" lon="2.73837">
        <ele>1616.96</ele>
        <time>2015-05-10T14:16:45Z</time>
      </trkpt>
      <trkpt lat="45.03291" lon="2.73849">
        <ele>1617.59</ele>
        <time>2015-05-10T14:17:01Z</time>
      </trkpt>
      <trkpt lat="45.03308" lon="2.73861">
        <ele>1617.09</ele>
        <time>2015-05-10T14:17:20Z</time>
      </trkpt>
      <trkpt lat="45.03325" lon="2.73872">
        <ele>1619.96</ele>
        <time>2015-05-10T14:17:35Z</time>
      </trkpt>
      <trkpt lat="45.03343" lon="2.73883">
        <ele>1620.1</ele>
        <time>2015-05-10T14:17:55Z</time>
      </trkpt>
      <trkpt lat="45.0336" lon="2.73893">
        <ele>1621.64</ele>
        <time>2015-05-10T14:18:11Z</time>
      </trkpt>
      <trkpt lat="45.03377" lon="2.73906">
        <ele>1622.2</ele>
        <time>2015-05-10T14:18:31Z</time>
      </trkpt>
      <trkpt lat="45.03394" lon="2.73917">
        <ele>1623.56</ele>
        <time>2015-05-10T14:18:51Z</time>
      </trkpt>
      <trkpt lat="45.0341" lon="2.73928">
        <ele>1625.41</ele>
        <time>2015-05-10T14:19:06Z</time>
      </trkpt>
      <trkpt lat="45.03427" lon="2.73938">
        <ele>1627.39</ele>
        <time>2015-05-10T14:19:21Z</time>
      </trkpt>
      <trkpt lat="45.03444" lon="2.7395">
        <ele>1628.7</ele>
        <time>2015-05-10T14:20:00Z</time>
      </trkpt>
      <trkpt lat="45.03459" lon="2.73965">
        <ele>1629.92</ele>
        <time>2015-05-10T14:20:15Z</time>
      </trkpt>
      <trkpt lat="45.03475" lon="2.73978">
        <ele>1630.69</ele>
        <time>2015-05-10T14:20:35Z</time>
      </trkpt>
      <trkpt lat="45.03491" lon="2.73989">
        <ele>1629.47</ele>
        <time>2015-05-10T14:20:51Z</time>
      </trkpt>
      <trkpt lat="45.03509" lon="2.73996">
        <ele>1623.69</ele>
        <time>2015-05-10T14:21:09Z</time>
      </trkpt>
      <trkpt lat="45.03527" lon="2.73992">
        <ele>1620.49</ele>
        <time>2015-05-10T14:21:25Z</time>
      </trkpt>
      <trkpt lat="45.03545" lon="2.73997">
        <ele>1617.02</ele>
        <time>2015-05-10T14:21:43Z</time>
      </trkpt>
      <trkpt lat="45.03563" lon="2.74007">
        <ele>1615.49</ele>
        <time>2015-05-10T14:22:00Z</time>
      </trkpt>
      <trkpt lat="45.03579" lon="2.74021">
        <ele>1611.78</ele>
        <time>2015-05-10T14:22:23Z</time>
      </trkpt>
      <trkpt lat="45.03593" lon="2.74038">
        <ele>1616.13</ele>
        <time>2015-05-10T14:22:39Z</time>
      </trkpt>
      <trkpt lat="45.0361" lon="2.74047">
        <ele>1617.33</ele>
        <time>2015-05-10T14:22:57Z</time>
      </trkpt>
      <trkpt lat="45.03628" lon="2.74051">
        <ele>1620.19</ele>
        <time>2015-05-10T14:23:43Z</time>
      </trkpt>
      <trkpt lat="45.03646" lon="2.74055">
        <ele>1621.72</ele>
        <time>2015-05-10T14:24:02Z</time>
      </trkpt>
      <trkpt lat="45.03664" lon="2.74063">
        <ele>1624.76</ele>
        <time>2015-05-10T14:24:21Z</time>
      </trkpt>
      <trkpt lat="45.03681" lon="2.74072">
        <ele>1627.44</ele>
        <time>2015-05-10T14:24:43Z</time>
      </trkpt>
      <trkpt lat="45.03697" lon="2.74085">
        <ele>1631.08</ele>
        <time>2015-05-10T14:25:03Z</time>
      </trkpt>
      <trkpt lat="45.03713" lon="2.74099">
        <ele>1634.32</ele>
        <time>2015-05-10T14:25:22Z</time>
      </trkpt>
      <trkpt lat="45.03729" lon="2.74112">
        <ele>1632.53</ele>
        <time>2015-05-10T14:25:43Z</time>
      </trkpt>
      <trkpt lat="45.03746" lon="2.74122">
        <ele>1635.89</ele>
        <time>2015-05-10T14:26:04Z</time>
      </trkpt>
      <trkpt lat="45.03761" lon="2.74139">
        <ele>1637.34</ele>
        <time>2015-05-10T14:26:24Z</time>
      </trkpt>
      <trkpt lat="45.03776" lon="2.74153">
        <ele>1640.42</ele>
        <time>2015-05-10T14:26:43Z</time>
      </trkpt>
      <trkpt lat="45.03792" lon="2.74166">
        <ele>1643.28</ele>
        <time>2015-05-10T14:27:00Z</time>
      </trkpt>
      <trkpt lat="45.03809" lon="2.74178">
        <ele>1646.31</ele>
        <time>2015-05-10T14:27:23Z</time>
      </trkpt>
      <trkpt lat="45.03826" lon="2.7419">
        <ele>1647.46</ele>
        <time>2015-05-10T14:27:45Z</time>
      </trkpt>
      <trkpt lat="45.03844" lon="2.74198">
        <ele>1652.94</ele>
        <time>2015-05-10T14:28:02Z</time>
      </trkpt>
      <trkpt lat="45.03861" lon="2.7421">
        <ele>1652.21</ele>
        <time>2015-05-10T14:28:25Z</time>
      </trkpt>
      <trkpt lat="45.03877" lon="2.74221">
        <ele>1655.42</ele>
        <time>2015-05-10T14:28:47Z</time>
      </trkpt>
      <trkpt lat="45.03895" lon="2.7423">
        <ele>1658.42</ele>
        <time>2015-05-10T14:29:14Z</time>
      </trkpt>
      <trkpt lat="45.03914" lon="2.74235">
        <ele>1657.45</ele>
        <time>2015-05-10T14:29:32Z</time>
      </trkpt>
      <trkpt lat="45.03931" lon="2.74243">
        <ele>1657.46</ele>
        <time>2015-05-10T14:29:48Z</time>
      </trkpt>
      <trkpt lat="45.03946" lon="2.74257">
        <ele>1658.46</ele>
        <time>2015-05-10T14:30:07Z</time>
      </trkpt>
      <trkpt lat="45.03962" lon="2.74273">
        <ele>1658.48</ele>
        <time>2015-05-10T14:30:26Z</time>
      </trkpt>
      <trkpt lat="45.03978" lon="2.74287">
        <ele>1659.33</ele>
        <time>2015-05-10T14:30:42Z</time>
      </trkpt>
      <trkpt lat="45.03995" lon="2.743">
        <ele>1662.01</ele>
        <time>2015-05-10T14:30:57Z</time>
      </trkpt>
      <trkpt lat="45.04011" lon="2.74311">
        <ele>1660.49</ele>
        <time>2015-05-10T14:31:14Z</time>
      </trkpt>
      <trkpt lat="45.04028" lon="2.74323">
        <ele>1658.52</ele>
        <time>2015-05-10T14:31:32Z</time>
      </trkpt>
      <trkpt lat="45.04042" lon="2.74339">
        <ele>1659.58</ele>
        <time>2015-05-10T14:31:49Z</time>
      </trkpt>
      <trkpt lat="45.04055" lon="2.74359">
        <ele>1661.2</ele>
        <time>2015-05-10T14:32:13Z</time>
      </trkpt>
      <trkpt lat="45.04068" lon="2.74379">
        <ele>1662.44</ele>
        <time>2015-05-10T14:32:32Z</time>
      </trkpt>
      <trkpt lat="45.0408" lon="2.74399">
        <ele>1665.95</ele>
        <time>2015-05-10T14:32:47Z</time>
      </trkpt>
      <trkpt lat="45.04093" lon="2.74418">
        <ele>1664.58</ele>
        <time>2015-05-10T14:33:11Z</time>
      </trkpt>
      <trkpt lat="45.04106" lon="2.74436">
        <ele>1666.42</ele>
        <time>2015-05-10T14:33:32Z</time>
      </trkpt>
      <trkpt lat="45.04118" lon="2.74455">
        <ele>1670.4</ele>
        <time>2015-05-10T14:33:48Z</time>
      </trkpt>
      <trkpt lat="45.04128" lon="2.74477">
        <ele>1673.84</ele>
        <time>2015-05-10T14:34:07Z</time>
      </trkpt>
      <trkpt lat="45.04143" lon="2.74493">
        <ele>1675</ele>
        <time>2015-05-10T14:34:30Z</time>
      </trkpt>
      <trkpt lat="45.04156" lon="2.7451">
        <ele>1680.44</ele>
        <time>2015-05-10T14:34:53Z</time>
      </trkpt>
      <trkpt lat="45.0417" lon="2.74526">
        <ele>1683.95</ele>
        <time>2015-05-10T14:35:16Z</time>
      </trkpt>
      <trkpt lat="45.04188" lon="2.74536">
        <ele>1685.38</ele>
        <time>2015-05-10T14:35:43Z</time>
      </trkpt>
      <trkpt lat="45.04204" lon="2.7455">
        <ele>1690.49</ele>
        <time>2015-05-10T14:36:39Z</time>
      </trkpt>
      <trkpt lat="45.04216" lon="2.74571">
        <ele>1690.42</ele>
        <time>2015-05-10T14:36:59Z</time>
      </trkpt>
      <trkpt lat="45.04225" lon="2.74595">
        <ele>1686.27</ele>
        <time>2015-05-10T14:38:14Z</time>
      </trkpt>
      <trkpt lat="45.04233" lon="2.74618">
        <ele>1692.62</ele>
        <time>2015-05-10T14:38:30Z</time>
      </trkpt>
      <trkpt lat="45.04238" lon="2.74644">
        <ele>1695.74</ele>
        <time>2015-05-10T14:38:43Z</time>
      </trkpt>
      <trkpt lat="45.04249" lon="2.74664">
        <ele>1688.59</ele>
        <time>2015-05-10T14:39:10Z</time>
      </trkpt>
      <trkpt lat="45.04263" lon="2.74683">
        <ele>1687.95</ele>
        <time>2015-05-10T14:39:28Z</time>
      </trkpt>
      <trkpt lat="45.04276" lon="2.74701">
        <ele>1682.96</ele>
        <time>2015-05-10T14:39:50Z</time>
      </trkpt>
      <trkpt lat="45.04291" lon="2.74714">
        <ele>1681.23</ele>
        <time>2015-05-10T14:40:09Z</time>
      </trkpt>
      <trkpt lat="45.04305" lon="2.74731">
        <ele>1683.18</ele>
        <time>2015-05-10T14:40:26Z</time>
      </trkpt>
      <trkpt lat="45.04321" lon="2.74744">
        <ele>1683.01</ele>
        <time>2015-05-10T14:40:43Z</time>
      </trkpt>
      <trkpt lat="45.04338" lon="2.74759">
        <ele>1682.88</ele>
        <time>2015-05-10T14:40:56Z</time>
      </trkpt>
      <trkpt lat="45.0435" lon="2.74777">
        <ele>1680.59</ele>
        <time>2015-05-10T14:41:14Z</time>
      </trkpt>
      <trkpt lat="45.04365" lon="2.74794">
        <ele>1680.58</ele>
        <time>2015-05-10T14:41:27Z</time>
      </trkpt>
      <trkpt lat="45.04378" lon="2.74813">
        <ele>1685.22</ele>
        <time>2015-05-10T14:41:42Z</time>
      </trkpt>
      <trkpt lat="45.04393" lon="2.74829">
        <ele>1682.61</ele>
        <time>2015-05-10T14:41:59Z</time>
      </trkpt>
      <trkpt lat="45.04409" lon="2.7484">
        <ele>1683.31</ele>
        <time>2015-05-10T14:42:12Z</time>
      </trkpt>
      <trkpt lat="45.04427" lon="2.74843">
        <ele>1679.46</ele>
        <time>2015-05-10T14:42:31Z</time>
      </trkpt>
      <trkpt lat="45.04441" lon="2.74859">
        <ele>1675.78</ele>
        <time>2015-05-10T14:42:50Z</time>
      </trkpt>
      <trkpt lat="45.04453" lon="2.74878">
        <ele>1672.58</ele>
        <time>2015-05-10T14:43:08Z</time>
      </trkpt>
      <trkpt lat="45.04469" lon="2.74892">
        <ele>1672.26</ele>
        <time>2015-05-10T14:43:22Z</time>
      </trkpt>
      <trkpt lat="45.04481" lon="2.74912">
        <ele>1671.87</ele>
        <time>2015-05-10T14:43:43Z</time>
      </trkpt>
      <trkpt lat="45.04499" lon="2.74916">
        <ele>1670.48</ele>
        <time>2015-05-10T14:43:55Z</time>
      </trkpt>
      <trkpt lat="45.04517" lon="2.74924">
        <ele>1674.63</ele>
        <time>2015-05-10T14:44:13Z</time>
      </trkpt>
      <trkpt lat="45.04531" lon="2.74941">
        <ele>1676.2</ele>
        <time>2015-05-10T14:44:31Z</time>
      </trkpt>
      <trkpt lat="45.04549" lon="2.74942">
        <ele>1676.71</ele>
        <time>2015-05-10T14:44:49Z</time>
      </trkpt>
      <trkpt lat="45.04568" lon="2.74944">
        <ele>1673.49</ele>
        <time>2015-05-10T14:45:04Z</time>
      </trkpt>
      <trkpt lat="45.04585" lon="2.74953">
        <ele>1670.58</ele>
        <time>2015-05-10T14:45:23Z</time>
      </trkpt>
      <trkpt lat="45.04603" lon="2.74962">
        <ele>1670.57</ele>
        <time>2015-05-10T14:45:40Z</time>
      </trkpt>
      <trkpt lat="45.04621" lon="2.74971">
        <ele>1671</ele>
        <time>2015-05-10T14:45:56Z</time>
      </trkpt>
      <trkpt lat="45.04639" lon="2.74979">
        <ele>1671.94</ele>
        <time>2015-05-10T14:46:09Z</time>
      </trkpt>
      <trkpt lat="45.04658" lon="2.7499">
        <ele>1670.15</ele>
        <time>2015-05-10T14:46:26Z</time>
      </trkpt>
      <trkpt lat="45.04675" lon="2.75001">
        <ele>1667.69</ele>
        <time>2015-05-10T14:46:44Z</time>
      </trkpt>
      <trkpt lat="45.04693" lon="2.75009">
        <ele>1668.56</ele>
        <time>2015-05-10T14:47:02Z</time>
      </trkpt>
      <trkpt lat="45.04709" lon="2.7502">
        <ele>1668.99</ele>
        <time>2015-05-10T14:47:15Z</time>
      </trkpt>
      <trkpt lat="45.04724" lon="2.7504">
        <ele>1668.27</ele>
        <time>2015-05-10T14:47:31Z</time>
      </trkpt>
      <trkpt lat="45.04737" lon="2.7506">
        <ele>1667.91</ele>
        <time>2015-05-10T14:47:46Z</time>
      </trkpt>
      <trkpt lat="45.04746" lon="2.75083">
        <ele>1669.42</ele>
        <time>2015-05-10T14:48:00Z</time>
      </trkpt>
      <trkpt lat="45.04755" lon="2.75106">
        <ele>1671.2</ele>
        <time>2015-05-10T14:48:14Z</time>
      </trkpt>
      <trkpt lat="45.04769" lon="2.75125">
        <ele>1670.53</ele>
        <time>2015-05-10T14:48:33Z</time>
      </trkpt>
      <trkpt lat="45.04782" lon="2.75145">
        <ele>1668.95</ele>
        <time>2015-05-10T14:48:49Z</time>
      </trkpt>
      <trkpt lat="45.04796" lon="2.75161">
        <ele>1670.68</ele>
        <time>2015-05-10T14:49:06Z</time>
      </trkpt>
      <trkpt lat="45.04812" lon="2.75175">
        <ele>1669.33</ele>
        <time>2015-05-10T14:49:23Z</time>
      </trkpt>
      <trkpt lat="45.04828" lon="2.75186">
        <ele>1671.15</ele>
        <time>2015-05-10T14:49:39Z</time>
      </trkpt>
      <trkpt lat="45.04844" lon="2.752">
        <ele>1669.59</ele>
        <time>2015-05-10T14:49:56Z</time>
      </trkpt>
      <trkpt lat="45.0486" lon="2.75214">
        <ele>1671.36</ele>
        <time>2015-05-10T14:50:18Z</time>
      </trkpt>
      <trkpt lat="45.04876" lon="2.75225">
        <ele>1673.79</ele>
        <time>2015-05-10T14:50:36Z</time>
      </trkpt>
      <trkpt lat="45.04893" lon="2.75238">
        <ele>1676.4</ele>
        <time>2015-05-10T14:50:52Z</time>
      </trkpt>
      <trkpt lat="45.04909" lon="2.75251">
        <ele>1678.39</ele>
        <time>2015-05-10T14:51:14Z</time>
      </trkpt>
      <trkpt lat="45.04925" lon="2.75263">
        <ele>1681.11</ele>
        <time>2015-05-10T14:51:31Z</time>
      </trkpt>
      <trkpt lat="45.04941" lon="2.75275">
        <ele>1683.64</ele>
        <time>2015-05-10T14:51:53Z</time>
      </trkpt>
      <trkpt lat="45.04957" lon="2.75286">
        <ele>1686.42</ele>
        <time>2015-05-10T14:52:11Z</time>
      </trkpt>
      <trkpt lat="45.04976" lon="2.75294">
        <ele>1688.95</ele>
        <time>2015-05-10T14:52:34Z</time>
      </trkpt>
      <trkpt lat="45.04993" lon="2.75306">
        <ele>1691.88</ele>
        <time>2015-05-10T14:52:51Z</time>
      </trkpt>
      <trkpt lat="45.05011" lon="2.75306">
        <ele>1692.99</ele>
        <time>2015-05-10T14:53:22Z</time>
      </trkpt>
      <trkpt lat="45.05029" lon="2.75307">
        <ele>1692.96</ele>
        <time>2015-05-10T14:53:38Z</time>
      </trkpt>
      <trkpt lat="45.05047" lon="2.75307">
        <ele>1697.74</ele>
        <time>2015-05-10T14:53:53Z</time>
      </trkpt>
      <trkpt lat="45.05066" lon="2.75307">
        <ele>1698.45</ele>
        <time>2015-05-10T14:54:24Z</time>
      </trkpt>
      <trkpt lat="45.05084" lon="2.75315">
        <ele>1702.75</ele>
        <time>2015-05-10T14:54:47Z</time>
      </trkpt>
      <trkpt lat="45.05102" lon="2.75321">
        <ele>1703.43</ele>
        <time>2015-05-10T14:55:05Z</time>
      </trkpt>
      <trkpt lat="45.0512" lon="2.75332">
        <ele>1713.43</ele>
        <time>2015-05-10T15:03:55Z</time>
      </trkpt>
      <trkpt lat="45.05138" lon="2.75341">
        <ele>1713.84</ele>
        <time>2015-05-10T15:04:19Z</time>
      </trkpt>
      <trkpt lat="45.05154" lon="2.75354">
        <ele>1713.42</ele>
        <time>2015-05-10T15:04:41Z</time>
      </trkpt>
      <trkpt lat="45.05169" lon="2.75368">
        <ele>1711.58</ele>
        <time>2015-05-10T15:05:10Z</time>
      </trkpt>
      <trkpt lat="45.05183" lon="2.75385">
        <ele>1719.17</ele>
        <time>2015-05-10T15:05:31Z</time>
      </trkpt>
      <trkpt lat="45.05199" lon="2.75398">
        <ele>1720.95</ele>
        <time>2015-05-10T15:05:49Z</time>
      </trkpt>
      <trkpt lat="45.05216" lon="2.75405">
        <ele>1723.52</ele>
        <time>2015-05-10T15:06:08Z</time>
      </trkpt>
      <trkpt lat="45.05233" lon="2.75414">
        <ele>1727.44</ele>
        <time>2015-05-10T15:06:36Z</time>
      </trkpt>
      <trkpt lat="45.05251" lon="2.75417">
        <ele>1731.1</ele>
        <time>2015-05-10T15:06:55Z</time>
      </trkpt>
      <trkpt lat="45.05269" lon="2.75413">
        <ele>1730.95</ele>
        <time>2015-05-10T15:07:18Z</time>
      </trkpt>
      <trkpt lat="45.05287" lon="2.75408">
        <ele>1734.56</ele>
        <time>2015-05-10T15:07:44Z</time>
      </trkpt>
      <trkpt lat="45.05305" lon="2.75412">
        <ele>1744.69</ele>
        <time>2015-05-10T15:08:15Z</time>
      </trkpt>
      <trkpt lat="45.05323" lon="2.75413">
        <ele>1749.05</ele>
        <time>2015-05-10T15:08:47Z</time>
      </trkpt>
      <trkpt lat="45.05341" lon="2.75415">
        <ele>1751.31</ele>
        <time>2015-05-10T15:09:08Z</time>
      </trkpt>
      <trkpt lat="45.05359" lon="2.7541">
        <ele>1748.71</ele>
        <time>2015-05-10T15:09:28Z</time>
      </trkpt>
      <trkpt lat="45.05377" lon="2.75414">
        <ele>1752.41</ele>
        <time>2015-05-10T15:09:53Z</time>
      </trkpt>
      <trkpt lat="45.05395" lon="2.75409">
        <ele>1761.32</ele>
        <time>2015-05-10T15:10:20Z</time>
      </trkpt>
      <trkpt lat="45.05413" lon="2.75406">
        <ele>1765.67</ele>
        <time>2015-05-10T15:10:54Z</time>
      </trkpt>
      <trkpt lat="45.05432" lon="2.75406">
        <ele>1770.23</ele>
        <time>2015-05-10T15:11:18Z</time>
      </trkpt>
      <trkpt lat="45.05447" lon="2.75419">
        <ele>1777.64</ele>
        <time>2015-05-10T15:12:05Z</time>
      </trkpt>
      <trkpt lat="45.05452" lon="2.75445">
        <ele>1781.26</ele>
        <time>2015-05-10T15:12:35Z</time>
      </trkpt>
      <trkpt lat="45.05455" lon="2.75472">
        <ele>1781.85</ele>
        <time>2015-05-10T15:13:26Z</time>
      </trkpt>
      <trkpt lat="45.05453" lon="2.75498">
        <ele>1780.64</ele>
        <time>2015-05-10T15:13:59Z</time>
      </trkpt>
      <trkpt lat="45.05458" lon="2.75522">
        <ele>1780.88</ele>
        <time>2015-05-10T15:14:10Z</time>
      </trkpt>
      <trkpt lat="45.05462" lon="2.75549">
        <ele>1776.16</ele>
        <time>2015-05-10T15:14:29Z</time>
      </trkpt>
      <trkpt lat="45.05468" lon="2.75575">
        <ele>1776.9</ele>
        <time>2015-05-10T15:14:42Z</time>
      </trkpt>
      <trkpt lat="45.05473" lon="2.75602">
        <ele>1776.85</ele>
        <time>2015-05-10T15:14:59Z</time>
      </trkpt>
      <trkpt lat="45.05476" lon="2.75628">
        <ele>1773.89</ele>
        <time>2015-05-10T15:15:17Z</time>
      </trkpt>
      <trkpt lat="45.05486" lon="2.75651">
        <ele>1773.55</ele>
        <time>2015-05-10T15:15:30Z</time>
      </trkpt>
      <trkpt lat="45.05498" lon="2.75674">
        <ele>1775.81</ele>
        <time>2015-05-10T15:15:44Z</time>
      </trkpt>
      <trkpt lat="45.05506" lon="2.75697">
        <ele>1774.72</ele>
        <time>2015-05-10T15:16:03Z</time>
      </trkpt>
      <trkpt lat="45.05517" lon="2.75719">
        <ele>1775.16</ele>
        <time>2015-05-10T15:16:29Z</time>
      </trkpt>
      <trkpt lat="45.05528" lon="2.7574">
        <ele>1779.53</ele>
        <time>2015-05-10T15:16:42Z</time>
      </trkpt>
      <trkpt lat="45.0554" lon="2.7576">
        <ele>1778.27</ele>
        <time>2015-05-10T15:17:02Z</time>
      </trkpt>
      <trkpt lat="45.05551" lon="2.75781">
        <ele>1781.45</ele>
        <time>2015-05-10T15:17:19Z</time>
      </trkpt>
      <trkpt lat="45.05561" lon="2.75804">
        <ele>1785.06</ele>
        <time>2015-05-10T15:17:38Z</time>
      </trkpt>
      <trkpt lat="45.05573" lon="2.75825">
        <ele>1792.88</ele>
        <time>2015-05-10T15:17:58Z</time>
      </trkpt>
      <trkpt lat="45.05588" lon="2.75844">
        <ele>1795.39</ele>
        <time>2015-05-10T15:18:15Z</time>
      </trkpt>
      <trkpt lat="45.05597" lon="2.75867">
        <ele>1798.13</ele>
        <time>2015-05-10T15:18:37Z</time>
      </trkpt>
      <trkpt lat="45.05607" lon="2.75888">
        <ele>1797.86</ele>
        <time>2015-05-10T15:18:56Z</time>
      </trkpt>
      <trkpt lat="45.05616" lon="2.75914">
        <ele>1796</ele>
        <time>2015-05-10T15:19:20Z</time>
      </trkpt>
      <trkpt lat="45.05621" lon="2.75939">
        <ele>1797.32</ele>
        <time>2015-05-10T15:19:45Z</time>
      </trkpt>
      <trkpt lat="45.05628" lon="2.75963">
        <ele>1801.35</ele>
        <time>2015-05-10T15:19:58Z</time>
      </trkpt>
      <trkpt lat="45.05633" lon="2.75991">
        <ele>1801.95</ele>
        <time>2015-05-10T15:20:15Z</time>
      </trkpt>
      <trkpt lat="45.05645" lon="2.7601">
        <ele>1805.71</ele>
        <time>2015-05-10T15:20:35Z</time>
      </trkpt>
      <trkpt lat="45.05659" lon="2.7603">
        <ele>1806.07</ele>
        <time>2015-05-10T15:20:51Z</time>
      </trkpt>
      <trkpt lat="45.05669" lon="2.76052">
        <ele>1806.42</ele>
        <time>2015-05-10T15:21:09Z</time>
      </trkpt>
      <trkpt lat="45.05684" lon="2.76069">
        <ele>1809.11</ele>
        <time>2015-05-10T15:21:31Z</time>
      </trkpt>
      <trkpt lat="45.05702" lon="2.7608">
        <ele>1813.41</ele>
        <time>2015-05-10T15:21:42Z</time>
      </trkpt>
      <trkpt lat="45.05719" lon="2.76089">
        <ele>1814.38</ele>
        <time>2015-05-10T15:21:57Z</time>
      </trkpt>
      <trkpt lat="45.05737" lon="2.76096">
        <ele>1817.4</ele>
        <time>2015-05-10T15:22:09Z</time>
      </trkpt>
      <trkpt lat="45.05753" lon="2.76109">
        <ele>1816.22</ele>
        <time>2015-05-10T15:22:28Z</time>
      </trkpt>
      <trkpt lat="45.05771" lon="2.76113">
        <ele>1817.68</ele>
        <time>2015-05-10T15:22:49Z</time>
      </trkpt>
      <trkpt lat="45.05789" lon="2.76113">
        <ele>1815.01</ele>
        <time>2015-05-10T15:23:44Z</time>
      </trkpt>
      <trkpt lat="45.05807" lon="2.76103">
        <ele>1812.48</ele>
        <time>2015-05-10T15:24:01Z</time>
      </trkpt>
      <trkpt lat="45.05825" lon="2.76096">
        <ele>1816.39</ele>
        <time>2015-05-10T15:24:18Z</time>
      </trkpt>
      <trkpt lat="45.05844" lon="2.76093">
        <ele>1818.02</ele>
        <time>2015-05-10T15:24:40Z</time>
      </trkpt>
      <trkpt lat="45.05861" lon="2.76085">
        <ele>1817.96</ele>
        <time>2015-05-10T15:24:56Z</time>
      </trkpt>
      <trkpt lat="45.05879" lon="2.76079">
        <ele>1819.8</ele>
        <time>2015-05-10T15:25:16Z</time>
      </trkpt>
      <trkpt lat="45.05898" lon="2.76074">
        <ele>1814.67</ele>
        <time>2015-05-10T15:25:32Z</time>
      </trkpt>
      <trkpt lat="45.05917" lon="2.76068">
        <ele>1817.37</ele>
        <time>2015-05-10T15:25:49Z</time>
      </trkpt>
      <trkpt lat="45.05936" lon="2.76072">
        <ele>1815.49</ele>
        <time>2015-05-10T15:26:10Z</time>
      </trkpt>
      <trkpt lat="45.05953" lon="2.76081">
        <ele>1813.14</ele>
        <time>2015-05-10T15:26:36Z</time>
      </trkpt>
      <trkpt lat="45.0597" lon="2.76092">
        <ele>1814.47</ele>
        <time>2015-05-10T15:26:56Z</time>
      </trkpt>
      <trkpt lat="45.05988" lon="2.761">
        <ele>1813.56</ele>
        <time>2015-05-10T15:27:13Z</time>
      </trkpt>
      <trkpt lat="45.0599" lon="2.76126">
        <ele>1820.78</ele>
        <time>2015-05-10T15:27:32Z</time>
      </trkpt>
      <trkpt lat="45.05981" lon="2.76149">
        <ele>1822.42</ele>
        <time>2015-05-10T15:27:57Z</time>
      </trkpt>
      <trkpt lat="45.05969" lon="2.76168">
        <ele>1826.4</ele>
        <time>2015-05-10T15:28:15Z</time>
      </trkpt>
      <trkpt lat="45.0595" lon="2.76167">
        <ele>1826.86</ele>
        <time>2015-05-10T15:28:37Z</time>
      </trkpt>
      <trkpt lat="45.05936" lon="2.76181">
        <ele>1833.39</ele>
        <time>2015-05-10T15:29:05Z</time>
      </trkpt>
      <trkpt lat="45.05917" lon="2.76188">
        <ele>1836.98</ele>
        <time>2015-05-10T15:29:35Z</time>
      </trkpt>
      <trkpt lat="45.059" lon="2.76175">
        <ele>1840.86</ele>
        <time>2015-05-10T15:30:02Z</time>
      </trkpt>
      <trkpt lat="45.05889" lon="2.76155">
        <ele>1848.02</ele>
        <time>2015-05-10T15:30:28Z</time>
      </trkpt>
      <trkpt lat="45.059" lon="2.76134">
        <ele>1854.2</ele>
        <time>2015-05-10T15:31:04Z</time>
      </trkpt>
      <trkpt lat="45.05904" lon="2.76136">
        <ele>1847.85</ele>
        <time>2015-05-10T15:33:18Z</time>
      </trkpt>
      <trkpt lat="45.05886" lon="2.76138">
        <ele>1855.85</ele>
        <time>2015-05-10T15:35:44Z</time>
      </trkpt>
      <trkpt lat="45.05889" lon="2.76164">
        <ele>1845.92</ele>
        <time>2015-05-10T15:39:25Z</time>
      </trkpt>
      <trkpt lat="45.05903" lon="2.76181">
        <ele>1844.12</ele>
        <time>2015-05-10T15:39:45Z</time>
      </trkpt>
      <trkpt lat="45.05922" lon="2.76188">
        <ele>1839.2</ele>
        <time>2015-05-10T15:40:03Z</time>
      </trkpt>
      <trkpt lat="45.0594" lon="2.76184">
        <ele>1836.05</ele>
        <time>2015-05-10T15:40:17Z</time>
      </trkpt>
      <trkpt lat="45.05956" lon="2.76169">
        <ele>1832.27</ele>
        <time>2015-05-10T15:40:32Z</time>
      </trkpt>
      <trkpt lat="45.05975" lon="2.76166">
        <ele>1825.55</ele>
        <time>2015-05-10T15:40:54Z</time>
      </trkpt>
      <trkpt lat="45.05992" lon="2.76171">
        <ele>1819.85</ele>
        <time>2015-05-10T15:41:13Z</time>
      </trkpt>
      <trkpt lat="45.06012" lon="2.76176">
        <ele>1818.73</ele>
        <time>2015-05-10T15:41:30Z</time>
      </trkpt>
      <trkpt lat="45.0603" lon="2.7618">
        <ele>1815.35</ele>
        <time>2015-05-10T15:41:46Z</time>
      </trkpt>
      <trkpt lat="45.06049" lon="2.76175">
        <ele>1815.84</ele>
        <time>2015-05-10T15:42:00Z</time>
      </trkpt>
      <trkpt lat="45.06066" lon="2.7617">
        <ele>1811.99</ele>
        <time>2015-05-10T15:42:15Z</time>
      </trkpt>
      <trkpt lat="45.06085" lon="2.76167">
        <ele>1811.6</ele>
        <time>2015-05-10T15:42:28Z</time>
      </trkpt>
      <trkpt lat="45.06102" lon="2.76155">
        <ele>1807.71</ele>
        <time>2015-05-10T15:42:42Z</time>
      </trkpt>
      <trkpt lat="45.06121" lon="2.76152">
        <ele>1807.89</ele>
        <time>2015-05-10T15:42:54Z</time>
      </trkpt>
      <trkpt lat="45.06139" lon="2.76151">
        <ele>1806.37</ele>
        <time>2015-05-10T15:43:06Z</time>
      </trkpt>
      <trkpt lat="45.06157" lon="2.76142">
        <ele>1802.46</ele>
        <time>2015-05-10T15:43:22Z</time>
      </trkpt>
      <trkpt lat="45.06175" lon="2.76138">
        <ele>1800.32</ele>
        <time>2015-05-10T15:43:35Z</time>
      </trkpt>
      <trkpt lat="45.06192" lon="2.76128">
        <ele>1800.94</ele>
        <time>2015-05-10T15:43:48Z</time>
      </trkpt>
      <trkpt lat="45.0621" lon="2.76129">
        <ele>1804.56</ele>
        <time>2015-05-10T15:44:07Z</time>
      </trkpt>
      <trkpt lat="45.06223" lon="2.76147">
        <ele>1801.36</ele>
        <time>2015-05-10T15:44:22Z</time>
      </trkpt>
      <trkpt lat="45.06236" lon="2.76167">
        <ele>1797.05</ele>
        <time>2015-05-10T15:44:39Z</time>
      </trkpt>
      <trkpt lat="45.06254" lon="2.76178">
        <ele>1796.89</ele>
        <time>2015-05-10T15:44:54Z</time>
      </trkpt>
      <trkpt lat="45.06271" lon="2.76188">
        <ele>1793.68</ele>
        <time>2015-05-10T15:45:08Z</time>
      </trkpt>
      <trkpt lat="45.06287" lon="2.762">
        <ele>1789.87</ele>
        <time>2015-05-10T15:45:23Z</time>
      </trkpt>
      <trkpt lat="45.06302" lon="2.76216">
        <ele>1785.01</ele>
        <time>2015-05-10T15:45:40Z</time>
      </trkpt>
      <trkpt lat="45.06318" lon="2.76229">
        <ele>1783.06</ele>
        <time>2015-05-10T15:45:55Z</time>
      </trkpt>
      <trkpt lat="45.06333" lon="2.76244">
        <ele>1783.09</ele>
        <time>2015-05-10T15:46:07Z</time>
      </trkpt>
      <trkpt lat="45.06347" lon="2.7626">
        <ele>1775.61</ele>
        <time>2015-05-10T15:46:27Z</time>
      </trkpt>
      <trkpt lat="45.06364" lon="2.76273">
        <ele>1777.6</ele>
        <time>2015-05-10T15:46:40Z</time>
      </trkpt>
      <trkpt lat="45.0638" lon="2.76285">
        <ele>1775.43</ele>
        <time>2015-05-10T15:46:55Z</time>
      </trkpt>
      <trkpt lat="45.06394" lon="2.76304">
        <ele>1775.75</ele>
        <time>2015-05-10T15:47:10Z</time>
      </trkpt>
      <trkpt lat="45.06408" lon="2.76321">
        <ele>1772.93</ele>
        <time>2015-05-10T15:47:25Z</time>
      </trkpt>
      <trkpt lat="45.06421" lon="2.7634">
        <ele>1773.85</ele>
        <time>2015-05-10T15:47:41Z</time>
      </trkpt>
      <trkpt lat="45.06435" lon="2.76358">
        <ele>1770.92</ele>
        <time>2015-05-10T15:47:56Z</time>
      </trkpt>
      <trkpt lat="45.06449" lon="2.76373">
        <ele>1768.48</ele>
        <time>2015-05-10T15:48:12Z</time>
      </trkpt>
      <trkpt lat="45.06464" lon="2.7639">
        <ele>1763.64</ele>
        <time>2015-05-10T15:48:27Z</time>
      </trkpt>
      <trkpt lat="45.06476" lon="2.76412">
        <ele>1757.54</ele>
        <time>2015-05-10T15:48:46Z</time>
      </trkpt>
      <trkpt lat="45.06489" lon="2.76431">
        <ele>1756.42</ele>
        <time>2015-05-10T15:48:59Z</time>
      </trkpt>
      <trkpt lat="45.06504" lon="2.76447">
        <ele>1756.83</ele>
        <time>2015-05-10T15:49:11Z</time>
      </trkpt>
      <trkpt lat="45.06515" lon="2.76468">
        <ele>1757.14</ele>
        <time>2015-05-10T15:49:25Z</time>
      </trkpt>
      <trkpt lat="45.06526" lon="2.7649">
        <ele>1753.01</ele>
        <time>2015-05-10T15:49:42Z</time>
      </trkpt>
      <trkpt lat="45.06535" lon="2.76512">
        <ele>1752.33</ele>
        <time>2015-05-10T15:49:55Z</time>
      </trkpt>
      <trkpt lat="45.06546" lon="2.76533">
        <ele>1752.79</ele>
        <time>2015-05-10T15:50:10Z</time>
      </trkpt>
      <trkpt lat="45.06556" lon="2.76555">
        <ele>1752.96</ele>
        <time>2015-05-10T15:50:26Z</time>
      </trkpt>
      <trkpt lat="45.06568" lon="2.76577">
        <ele>1745.47</ele>
        <time>2015-05-10T15:50:44Z</time>
      </trkpt>
      <trkpt lat="45.06578" lon="2.76598">
        <ele>1745.35</ele>
        <time>2015-05-10T15:50:58Z</time>
      </trkpt>
      <trkpt lat="45.06594" lon="2.76614">
        <ele>1747.85</ele>
        <time>2015-05-10T15:51:11Z</time>
      </trkpt>
      <trkpt lat="45.06613" lon="2.76622">
        <ele>1746.45</ele>
        <time>2015-05-10T15:51:42Z</time>
      </trkpt>
      <trkpt lat="45.06631" lon="2.76623">
        <ele>1748.34</ele>
        <time>2015-05-10T15:51:56Z</time>
      </trkpt>
      <trkpt lat="45.06649" lon="2.7662">
        <ele>1745.73</ele>
        <time>2015-05-10T15:52:15Z</time>
      </trkpt>
      <trkpt lat="45.06667" lon="2.76612">
        <ele>1747.5</ele>
        <time>2015-05-10T15:52:28Z</time>
      </trkpt>
      <trkpt lat="45.06685" lon="2.76604">
        <ele>1749.23</ele>
        <time>2015-05-10T15:52:52Z</time>
      </trkpt>
      <trkpt lat="45.06703" lon="2.76608">
        <ele>1745.2</ele>
        <time>2015-05-10T15:53:07Z</time>
      </trkpt>
      <trkpt lat="45.06721" lon="2.76614">
        <ele>1742.7</ele>
        <time>2015-05-10T15:53:22Z</time>
      </trkpt>
      <trkpt lat="45.06739" lon="2.76618">
        <ele>1739.14</ele>
        <time>2015-05-10T15:53:36Z</time>
      </trkpt>
      <trkpt lat="45.06757" lon="2.76625">
        <ele>1735.27</ele>
        <time>2015-05-10T15:53:51Z</time>
      </trkpt>
      <trkpt lat="45.06775" lon="2.76633">
        <ele>1731.42</ele>
        <time>2015-05-10T15:54:09Z</time>
      </trkpt>
      <trkpt lat="45.06791" lon="2.7665">
        <ele>1729.88</ele>
        <time>2015-05-10T15:54:23Z</time>
      </trkpt>
      <trkpt lat="45.06808" lon="2.76661">
        <ele>1724.01</ele>
        <time>2015-05-10T15:54:40Z</time>
      </trkpt>
      <trkpt lat="45.06825" lon="2.76672">
        <ele>1723.48</ele>
        <time>2015-05-10T15:54:54Z</time>
      </trkpt>
      <trkpt lat="45.06843" lon="2.76676">
        <ele>1722.17</ele>
        <time>2015-05-10T15:55:07Z</time>
      </trkpt>
      <trkpt lat="45.06862" lon="2.76675">
        <ele>1718.29</ele>
        <time>2015-05-10T15:55:25Z</time>
      </trkpt>
      <trkpt lat="45.0688" lon="2.76676">
        <ele>1712.97</ele>
        <time>2015-05-10T15:55:40Z</time>
      </trkpt>
      <trkpt lat="45.069" lon="2.76674">
        <ele>1711.01</ele>
        <time>2015-05-10T15:55:54Z</time>
      </trkpt>
      <trkpt lat="45.06918" lon="2.76674">
        <ele>1707.76</ele>
        <time>2015-05-10T15:56:07Z</time>
      </trkpt>
      <trkpt lat="45.06937" lon="2.76672">
        <ele>1704.67</ele>
        <time>2015-05-10T15:56:23Z</time>
      </trkpt>
      <trkpt lat="45.06957" lon="2.76668">
        <ele>1702.7</ele>
        <time>2015-05-10T15:56:36Z</time>
      </trkpt>
      <trkpt lat="45.06975" lon="2.76663">
        <ele>1700.31</ele>
        <time>2015-05-10T15:56:50Z</time>
      </trkpt>
      <trkpt lat="45.06993" lon="2.76657">
        <ele>1700.84</ele>
        <time>2015-05-10T15:57:01Z</time>
      </trkpt>
      <trkpt lat="45.0701" lon="2.76647">
        <ele>1697.39</ele>
        <time>2015-05-10T15:57:17Z</time>
      </trkpt>
      <trkpt lat="45.07026" lon="2.76634">
        <ele>1690.8</ele>
        <time>2015-05-10T15:57:34Z</time>
      </trkpt>
      <trkpt lat="45.07033" lon="2.7661">
        <ele>1689.13</ele>
        <time>2015-05-10T15:57:48Z</time>
      </trkpt>
      <trkpt lat="45.07045" lon="2.76591">
        <ele>1682.99</ele>
        <time>2015-05-10T15:58:04Z</time>
      </trkpt>
      <trkpt lat="45.07059" lon="2.76573">
        <ele>1682.37</ele>
        <time>2015-05-10T15:58:19Z</time>
      </trkpt>
      <trkpt lat="45.07077" lon="2.76567">
        <ele>1680.83</ele>
        <time>2015-05-10T15:58:34Z</time>
      </trkpt>
      <trkpt lat="45.07097" lon="2.76562">
        <ele>1678.23</ele>
        <time>2015-05-10T15:58:58Z</time>
      </trkpt>
      <trkpt lat="45.07116" lon="2.76563">
        <ele>1672.77</ele>
        <time>2015-05-10T15:59:11Z</time>
      </trkpt>
      <trkpt lat="45.07135" lon="2.76556">
        <ele>1672.34</ele>
        <time>2015-05-10T15:59:27Z</time>
      </trkpt>
      <trkpt lat="45.07153" lon="2.76551">
        <ele>1667.41</ele>
        <time>2015-05-10T15:59:45Z</time>
      </trkpt>
      <trkpt lat="45.07171" lon="2.76545">
        <ele>1660.74</ele>
        <time>2015-05-10T15:59:59Z</time>
      </trkpt>
      <trkpt lat="45.07185" lon="2.76528">
        <ele>1663.07</ele>
        <time>2015-05-10T16:00:12Z</time>
      </trkpt>
      <trkpt lat="45.07201" lon="2.76512">
        <ele>1659.93</ele>
        <time>2015-05-10T16:00:30Z</time>
      </trkpt>
      <trkpt lat="45.07219" lon="2.76504">
        <ele>1656.39</ele>
        <time>2015-05-10T16:00:54Z</time>
      </trkpt>
      <trkpt lat="45.07234" lon="2.76489">
        <ele>1654.17</ele>
        <time>2015-05-10T16:01:09Z</time>
      </trkpt>
      <trkpt lat="45.07248" lon="2.76469">
        <ele>1652.27</ele>
        <time>2015-05-10T16:01:22Z</time>
      </trkpt>
      <trkpt lat="45.07264" lon="2.76456">
        <ele>1651.35</ele>
        <time>2015-05-10T16:01:36Z</time>
      </trkpt>
      <trkpt lat="45.07278" lon="2.76439">
        <ele>1649.85</ele>
        <time>2015-05-10T16:01:54Z</time>
      </trkpt>
      <trkpt lat="45.07265" lon="2.76422">
        <ele>1645.85</ele>
        <time>2015-05-10T16:02:14Z</time>
      </trkpt>
      <trkpt lat="45.07247" lon="2.76429">
        <ele>1641.68</ele>
        <time>2015-05-10T16:02:29Z</time>
      </trkpt>
      <trkpt lat="45.07246" lon="2.76403">
        <ele>1632.48</ele>
        <time>2015-05-10T16:03:27Z</time>
      </trkpt>
      <trkpt lat="45.07254" lon="2.76379">
        <ele>1620.4</ele>
        <time>2015-05-10T16:03:55Z</time>
      </trkpt>
      <trkpt lat="45.07261" lon="2.76354">
        <ele>1614.98</ele>
        <time>2015-05-10T16:04:17Z</time>
      </trkpt>
      <trkpt lat="45.07269" lon="2.76329">
        <ele>1612.6</ele>
        <time>2015-05-10T16:04:34Z</time>
      </trkpt>
      <trkpt lat="45.0728" lon="2.76308">
        <ele>1602.34</ele>
        <time>2015-05-10T16:05:03Z</time>
      </trkpt>
      <trkpt lat="45.07294" lon="2.76293">
        <ele>1596.74</ele>
        <time>2015-05-10T16:05:22Z</time>
      </trkpt>
      <trkpt lat="45.07309" lon="2.76277">
        <ele>1596.37</ele>
        <time>2015-05-10T16:05:41Z</time>
      </trkpt>
      <trkpt lat="45.0732" lon="2.76255">
        <ele>1587.06</ele>
        <time>2015-05-10T16:06:03Z</time>
      </trkpt>
      <trkpt lat="45.07322" lon="2.76229">
        <ele>1583</ele>
        <time>2015-05-10T16:06:26Z</time>
      </trkpt>
      <trkpt lat="45.07324" lon="2.76202">
        <ele>1578.09</ele>
        <time>2015-05-10T16:06:45Z</time>
      </trkpt>
      <trkpt lat="45.07326" lon="2.76177">
        <ele>1573.39</ele>
        <time>2015-05-10T16:07:05Z</time>
      </trkpt>
      <trkpt lat="45.07327" lon="2.76151">
        <ele>1575.34</ele>
        <time>2015-05-10T16:07:16Z</time>
      </trkpt>
      <trkpt lat="45.07337" lon="2.76129">
        <ele>1566.02</ele>
        <time>2015-05-10T16:07:34Z</time>
      </trkpt>
      <trkpt lat="45.07345" lon="2.76106">
        <ele>1562.36</ele>
        <time>2015-05-10T16:07:53Z</time>
      </trkpt>
      <trkpt lat="45.07361" lon="2.76092">
        <ele>1558.36</ele>
        <time>2015-05-10T16:08:14Z</time>
      </trkpt>
      <trkpt lat="45.07379" lon="2.76093">
        <ele>1554.26</ele>
        <time>2015-05-10T16:08:30Z</time>
      </trkpt>
      <trkpt lat="45.07398" lon="2.76092">
        <ele>1543.44</ele>
        <time>2015-05-10T16:08:49Z</time>
      </trkpt>
      <trkpt lat="45.07416" lon="2.76089">
        <ele>1535.22</ele>
        <time>2015-05-10T16:09:06Z</time>
      </trkpt>
      <trkpt lat="45.07435" lon="2.7609">
        <ele>1536.48</ele>
        <time>2015-05-10T16:09:20Z</time>
      </trkpt>
      <trkpt lat="45.07452" lon="2.76081">
        <ele>1527.18</ele>
        <time>2015-05-10T16:09:43Z</time>
      </trkpt>
      <trkpt lat="45.07469" lon="2.76073">
        <ele>1522.92</ele>
        <time>2015-05-10T16:10:02Z</time>
      </trkpt>
      <trkpt lat="45.07488" lon="2.76071">
        <ele>1526.17</ele>
        <time>2015-05-10T16:10:26Z</time>
      </trkpt>
      <trkpt lat="45.07507" lon="2.76063">
        <ele>1521.35</ele>
        <time>2015-05-10T16:10:41Z</time>
      </trkpt>
      <trkpt lat="45.07525" lon="2.76058">
        <ele>1523.67</ele>
        <time>2015-05-10T16:10:55Z</time>
      </trkpt>
      <trkpt lat="45.07538" lon="2.7604">
        <ele>1510.48</ele>
        <time>2015-05-10T16:11:13Z</time>
      </trkpt>
      <trkpt lat="45.07552" lon="2.76023">
        <ele>1501.78</ele>
        <time>2015-05-10T16:11:31Z</time>
      </trkpt>
      <trkpt lat="45.07562" lon="2.76001">
        <ele>1497.91</ele>
        <time>2015-05-10T16:11:46Z</time>
      </trkpt>
      <trkpt lat="45.07572" lon="2.75978">
        <ele>1494.48</ele>
        <time>2015-05-10T16:12:02Z</time>
      </trkpt>
      <trkpt lat="45.07587" lon="2.75963">
        <ele>1489.35</ele>
        <time>2015-05-10T16:12:19Z</time>
      </trkpt>
      <trkpt lat="45.076" lon="2.75946">
        <ele>1485.12</ele>
        <time>2015-05-10T16:12:34Z</time>
      </trkpt>
      <trkpt lat="45.07612" lon="2.75926">
        <ele>1480.37</ele>
        <time>2015-05-10T16:12:54Z</time>
      </trkpt>
      <trkpt lat="45.0763" lon="2.75915">
        <ele>1477.12</ele>
        <time>2015-05-10T16:13:10Z</time>
      </trkpt>
      <trkpt lat="45.07644" lon="2.75897">
        <ele>1472.86</ele>
        <time>2015-05-10T16:13:25Z</time>
      </trkpt>
      <trkpt lat="45.07659" lon="2.75879">
        <ele>1468.49</ele>
        <time>2015-05-10T16:13:42Z</time>
      </trkpt>
      <trkpt lat="45.07672" lon="2.75858">
        <ele>1465.61</ele>
        <time>2015-05-10T16:13:58Z</time>
      </trkpt>
      <trkpt lat="45.07685" lon="2.7584">
        <ele>1459.61</ele>
        <time>2015-05-10T16:14:15Z</time>
      </trkpt>
      <trkpt lat="45.07697" lon="2.7582">
        <ele>1455.37</ele>
        <time>2015-05-10T16:14:31Z</time>
      </trkpt>
      <trkpt lat="45.07705" lon="2.75797">
        <ele>1447.88</ele>
        <time>2015-05-10T16:14:54Z</time>
      </trkpt>
      <trkpt lat="45.07711" lon="2.75773">
        <ele>1444.86</ele>
        <time>2015-05-10T16:15:09Z</time>
      </trkpt>
      <trkpt lat="45.07728" lon="2.75764">
        <ele>1432.36</ele>
        <time>2015-05-10T16:15:32Z</time>
      </trkpt>
      <trkpt lat="45.07745" lon="2.75753">
        <ele>1425.63</ele>
        <time>2015-05-10T16:15:50Z</time>
      </trkpt>
      <trkpt lat="45.07756" lon="2.75732">
        <ele>1425.12</ele>
        <time>2015-05-10T16:16:24Z</time>
      </trkpt>
      <trkpt lat="45.07771" lon="2.75715">
        <ele>1422.04</ele>
        <time>2015-05-10T16:16:39Z</time>
      </trkpt>
      <trkpt lat="45.07787" lon="2.75704">
        <ele>1418.45</ele>
        <time>2015-05-10T16:16:56Z</time>
      </trkpt>
      <trkpt lat="45.07809" lon="2.75699">
        <ele>1414.03</ele>
        <time>2015-05-10T16:17:19Z</time>
      </trkpt>
      <trkpt lat="45.07827" lon="2.75695">
        <ele>1414.79</ele>
        <time>2015-05-10T16:17:36Z</time>
      </trkpt>
      <trkpt lat="45.07846" lon="2.75684">
        <ele>1407.56</ele>
        <time>2015-05-10T16:17:56Z</time>
      </trkpt>
      <trkpt lat="45.07863" lon="2.75677">
        <ele>1405.8</ele>
        <time>2015-05-10T16:18:12Z</time>
      </trkpt>
      <trkpt lat="45.07883" lon="2.75681">
        <ele>1399.83</ele>
        <time>2015-05-10T16:18:21Z</time>
      </trkpt>
      <trkpt lat="45.07897" lon="2.75665">
        <ele>1391.03</ele>
        <time>2015-05-10T16:18:41Z</time>
      </trkpt>
      <trkpt lat="45.07914" lon="2.7567">
        <ele>1391.23</ele>
        <time>2015-05-10T16:19:14Z</time>
      </trkpt>
      <trkpt lat="45.07928" lon="2.75654">
        <ele>1380.85</ele>
        <time>2015-05-10T16:19:55Z</time>
      </trkpt>
      <trkpt lat="45.07933" lon="2.75624">
        <ele>1377.48</ele>
        <time>2015-05-10T16:21:03Z</time>
      </trkpt>
      <trkpt lat="45.07951" lon="2.75632">
        <ele>1366.92</ele>
        <time>2015-05-10T16:21:29Z</time>
      </trkpt>
      <trkpt lat="45.0797" lon="2.75629">
        <ele>1360.87</ele>
        <time>2015-05-10T16:21:41Z</time>
      </trkpt>
      <trkpt lat="45.07982" lon="2.75609">
        <ele>1355.61</ele>
        <time>2015-05-10T16:22:14Z</time>
      </trkpt>
      <trkpt lat="45.07988" lon="2.75583">
        <ele>1345.87</ele>
        <time>2015-05-10T16:22:28Z</time>
      </trkpt>
      <trkpt lat="45.07998" lon="2.75562">
        <ele>1345.62</ele>
        <time>2015-05-10T16:22:42Z</time>
      </trkpt>
      <trkpt lat="45.08014" lon="2.75547">
        <ele>1339.28</ele>
        <time>2015-05-10T16:22:57Z</time>
      </trkpt>
      <trkpt lat="45.08019" lon="2.75522">
        <ele>1329.38</ele>
        <time>2015-05-10T16:23:16Z</time>
      </trkpt>
      <trkpt lat="45.08039" lon="2.75517">
        <ele>1326.34</ele>
        <time>2015-05-10T16:23:40Z</time>
      </trkpt>
      <trkpt lat="45.08049" lon="2.75495">
        <ele>1320.74</ele>
        <time>2015-05-10T16:24:19Z</time>
      </trkpt>
      <trkpt lat="45.08064" lon="2.75481">
        <ele>1313.46</ele>
        <time>2015-05-10T16:24:42Z</time>
      </trkpt>
      <trkpt lat="45.08056" lon="2.75457">
        <ele>1311.92</ele>
        <time>2015-05-10T16:24:53Z</time>
      </trkpt>
      <trkpt lat="45.08074" lon="2.75448">
        <ele>1290.78</ele>
        <time>2015-05-10T16:25:21Z</time>
      </trkpt>
      <trkpt lat="45.08081" lon="2.75424">
        <ele>1293.77</ele>
        <time>2015-05-10T16:25:32Z</time>
      </trkpt>
      <trkpt lat="45.0808" lon="2.75398">
        <ele>1299.33</ele>
        <time>2015-05-10T16:25:51Z</time>
      </trkpt>
      <trkpt lat="45.08083" lon="2.75371">
        <ele>1291.24</ele>
        <time>2015-05-10T16:26:06Z</time>
      </trkpt>
      <trkpt lat="45.08093" lon="2.75348">
        <ele>1290.92</ele>
        <time>2015-05-10T16:26:18Z</time>
      </trkpt>
      <trkpt lat="45.08095" lon="2.75322">
        <ele>1286.32</ele>
        <time>2015-05-10T16:26:39Z</time>
      </trkpt>
      <trkpt lat="45.08115" lon="2.75318">
        <ele>1280.6</ele>
        <time>2015-05-10T16:26:52Z</time>
      </trkpt>
      <trkpt lat="45.08121" lon="2.75291">
        <ele>1275</ele>
        <time>2015-05-10T16:27:10Z</time>
      </trkpt>
      <trkpt lat="45.08129" lon="2.75267">
        <ele>1278.35</ele>
        <time>2015-05-10T16:27:21Z</time>
      </trkpt>
      <trkpt lat="45.08142" lon="2.75247">
        <ele>1281.87</ele>
        <time>2015-05-10T16:27:35Z</time>
      </trkpt>
      <trkpt lat="45.0814" lon="2.75221">
        <ele>1274.56</ele>
        <time>2015-05-10T16:27:53Z</time>
      </trkpt>
      <trkpt lat="45.08152" lon="2.752">
        <ele>1268.84</ele>
        <time>2015-05-10T16:28:09Z</time>
      </trkpt>
      <trkpt lat="45.08163" lon="2.75179">
        <ele>1255.96</ele>
        <time>2015-05-10T16:28:30Z</time>
      </trkpt>
      <trkpt lat="45.08178" lon="2.75164">
        <ele>1250.99</ele>
        <time>2015-05-10T16:28:42Z</time>
      </trkpt>
      <trkpt lat="45.08192" lon="2.75146">
        <ele>1245.9</ele>
        <time>2015-05-10T16:28:58Z</time>
      </trkpt>
      <trkpt lat="45.08204" lon="2.75127">
        <ele>1245.94</ele>
        <time>2015-05-10T16:29:10Z</time>
      </trkpt>
      <trkpt lat="45.08206" lon="2.75101">
        <ele>1238.84</ele>
        <time>2015-05-10T16:29:27Z</time>
      </trkpt>
      <trkpt lat="45.08213" lon="2.75077">
        <ele>1239.68</ele>
        <time>2015-05-10T16:29:43Z</time>
      </trkpt>
      <trkpt lat="45.08229" lon="2.75064">
        <ele>1235.17</ele>
        <time>2015-05-10T16:29:58Z</time>
      </trkpt>
      <trkpt lat="45.08246" lon="2.75053">
        <ele>1240.22</ele>
        <time>2015-05-10T16:30:14Z</time>
      </trkpt>
      <trkpt lat="45.08265" lon="2.75052">
        <ele>1243.27</ele>
        <time>2015-05-10T16:30:41Z</time>
      </trkpt>
      <trkpt lat="45.08282" lon="2.75041">
        <ele>1233.82</ele>
        <time>2015-05-10T16:30:52Z</time>
      </trkpt>
      <trkpt lat="45.08287" lon="2.75016">
        <ele>1232.07</ele>
        <time>2015-05-10T16:31:09Z</time>
      </trkpt>
      <trkpt lat="45.083" lon="2.74999">
        <ele>1231.84</ele>
        <time>2015-05-10T16:31:27Z</time>
      </trkpt>
      <trkpt lat="45.08315" lon="2.74983">
        <ele>1233.12</ele>
        <time>2015-05-10T16:31:44Z</time>
      </trkpt>
      <trkpt lat="45.08331" lon="2.74968">
        <ele>1235.32</ele>
        <time>2015-05-10T16:32:01Z</time>
      </trkpt>
      <trkpt lat="45.08345" lon="2.74951">
        <ele>1231.03</ele>
        <time>2015-05-10T16:32:17Z</time>
      </trkpt>
    </trkseg>
  </trk>
</gpx>